<?xml version="1.0" encoding="UTF-8" standalone="no" ?>
<gpx xmlns="http://www.topografix.com/GPX/1/1" xmlns:xsi="http://www.w3.org/2001/XMLSchema-instance" xsi:schemaLocation="http://www.topografix.com/GPX/1/1 http://www.topografix.com/GPX/1/1/gpx.xsd" version="1.1" creator="VisuGPX - https://www.visugpx.com">
  <metadata>
    <name>tour de 71220 Passy</name>
    <desc><![CDATA[Trace AlpineQuest 20/09/2022 08:47:46]]></desc>
  </metadata>
  <trk>
    <name><![CDATA[tour de 71220 Passy_1]]></name>
    <trkseg>
      <trkpt lat="46.53945" lon="4.50783">
        <ele>245.999</ele>
        <time>2022-09-20T06:47:46Z</time>
      </trkpt>
      <trkpt lat="46.53942" lon="4.50791">
        <ele>259.599</ele>
        <time>2022-09-20T06:48:00Z</time>
      </trkpt>
      <trkpt lat="46.53945" lon="4.50782">
        <ele>261.199</ele>
        <time>2022-09-20T06:48:52Z</time>
      </trkpt>
      <trkpt lat="46.53942" lon="4.50793">
        <ele>263.299</ele>
        <time>2022-09-20T06:55:59Z</time>
      </trkpt>
      <trkpt lat="46.53941" lon="4.50804">
        <ele>262.399</ele>
        <time>2022-09-20T06:56:44Z</time>
      </trkpt>
      <trkpt lat="46.53939" lon="4.50814">
        <ele>263.799</ele>
        <time>2022-09-20T06:57:55Z</time>
      </trkpt>
      <trkpt lat="46.53932" lon="4.50813">
        <ele>263.499</ele>
        <time>2022-09-20T06:58:33Z</time>
      </trkpt>
      <trkpt lat="46.53926" lon="4.50811">
        <ele>262.399</ele>
        <time>2022-09-20T06:58:50Z</time>
      </trkpt>
      <trkpt lat="46.5392" lon="4.50813">
        <ele>261.699</ele>
        <time>2022-09-20T06:58:58Z</time>
      </trkpt>
      <trkpt lat="46.53914" lon="4.50819">
        <ele>260.799</ele>
        <time>2022-09-20T06:59:06Z</time>
      </trkpt>
      <trkpt lat="46.53909" lon="4.50826">
        <ele>259.099</ele>
        <time>2022-09-20T06:59:12Z</time>
      </trkpt>
      <trkpt lat="46.53904" lon="4.50834">
        <ele>257.599</ele>
        <time>2022-09-20T06:59:19Z</time>
      </trkpt>
      <trkpt lat="46.53899" lon="4.50841">
        <ele>254.599</ele>
        <time>2022-09-20T06:59:27Z</time>
      </trkpt>
      <trkpt lat="46.53894" lon="4.50848">
        <ele>252.999</ele>
        <time>2022-09-20T06:59:35Z</time>
      </trkpt>
      <trkpt lat="46.53889" lon="4.50857">
        <ele>252.499</ele>
        <time>2022-09-20T06:59:43Z</time>
      </trkpt>
      <trkpt lat="46.53885" lon="4.50866">
        <ele>249.899</ele>
        <time>2022-09-20T06:59:51Z</time>
      </trkpt>
      <trkpt lat="46.53881" lon="4.50875">
        <ele>250.599</ele>
        <time>2022-09-20T06:59:56Z</time>
      </trkpt>
      <trkpt lat="46.53876" lon="4.50884">
        <ele>251.399</ele>
        <time>2022-09-20T07:00:06Z</time>
      </trkpt>
      <trkpt lat="46.53874" lon="4.50894">
        <ele>251.399</ele>
        <time>2022-09-20T07:00:13Z</time>
      </trkpt>
      <trkpt lat="46.53874" lon="4.50904">
        <ele>254.099</ele>
        <time>2022-09-20T07:00:22Z</time>
      </trkpt>
      <trkpt lat="46.53874" lon="4.50913">
        <ele>256.099</ele>
        <time>2022-09-20T07:00:29Z</time>
      </trkpt>
      <trkpt lat="46.53874" lon="4.50924">
        <ele>258.499</ele>
        <time>2022-09-20T07:00:36Z</time>
      </trkpt>
      <trkpt lat="46.53873" lon="4.50934">
        <ele>258.099</ele>
        <time>2022-09-20T07:00:43Z</time>
      </trkpt>
      <trkpt lat="46.53875" lon="4.50943">
        <ele>256.899</ele>
        <time>2022-09-20T07:00:49Z</time>
      </trkpt>
      <trkpt lat="46.53876" lon="4.50954">
        <ele>253.999</ele>
        <time>2022-09-20T07:00:57Z</time>
      </trkpt>
      <trkpt lat="46.53876" lon="4.50964">
        <ele>251.899</ele>
        <time>2022-09-20T07:01:05Z</time>
      </trkpt>
      <trkpt lat="46.53878" lon="4.50974">
        <ele>249.699</ele>
        <time>2022-09-20T07:01:12Z</time>
      </trkpt>
      <trkpt lat="46.53875" lon="4.50983">
        <ele>249.399</ele>
        <time>2022-09-20T07:01:18Z</time>
      </trkpt>
      <trkpt lat="46.53872" lon="4.50992">
        <ele>250.699</ele>
        <time>2022-09-20T07:01:24Z</time>
      </trkpt>
      <trkpt lat="46.53866" lon="4.50999">
        <ele>248.399</ele>
        <time>2022-09-20T07:01:32Z</time>
      </trkpt>
      <trkpt lat="46.53859" lon="4.51003">
        <ele>246.299</ele>
        <time>2022-09-20T07:01:38Z</time>
      </trkpt>
      <trkpt lat="46.53855" lon="4.51011">
        <ele>244.299</ele>
        <time>2022-09-20T07:01:45Z</time>
      </trkpt>
      <trkpt lat="46.53853" lon="4.5102">
        <ele>242.599</ele>
        <time>2022-09-20T07:01:51Z</time>
      </trkpt>
      <trkpt lat="46.53851" lon="4.5103">
        <ele>241.499</ele>
        <time>2022-09-20T07:01:57Z</time>
      </trkpt>
      <trkpt lat="46.53846" lon="4.51038">
        <ele>241.399</ele>
        <time>2022-09-20T07:02:11Z</time>
      </trkpt>
      <trkpt lat="46.53839" lon="4.51036">
        <ele>241.999</ele>
        <time>2022-09-20T07:02:17Z</time>
      </trkpt>
      <trkpt lat="46.53832" lon="4.51036">
        <ele>242.399</ele>
        <time>2022-09-20T07:02:22Z</time>
      </trkpt>
      <trkpt lat="46.53825" lon="4.51036">
        <ele>242.199</ele>
        <time>2022-09-20T07:02:29Z</time>
      </trkpt>
      <trkpt lat="46.53818" lon="4.51037">
        <ele>242.999</ele>
        <time>2022-09-20T07:02:34Z</time>
      </trkpt>
      <trkpt lat="46.53811" lon="4.51041">
        <ele>242.699</ele>
        <time>2022-09-20T07:02:40Z</time>
      </trkpt>
      <trkpt lat="46.53805" lon="4.51044">
        <ele>241.899</ele>
        <time>2022-09-20T07:02:45Z</time>
      </trkpt>
      <trkpt lat="46.53799" lon="4.51047">
        <ele>241.099</ele>
        <time>2022-09-20T07:02:50Z</time>
      </trkpt>
      <trkpt lat="46.53792" lon="4.51052">
        <ele>240.299</ele>
        <time>2022-09-20T07:02:55Z</time>
      </trkpt>
      <trkpt lat="46.53786" lon="4.51058">
        <ele>240.099</ele>
        <time>2022-09-20T07:03:00Z</time>
      </trkpt>
      <trkpt lat="46.5378" lon="4.51063">
        <ele>240.399</ele>
        <time>2022-09-20T07:03:05Z</time>
      </trkpt>
      <trkpt lat="46.53775" lon="4.51072">
        <ele>241.899</ele>
        <time>2022-09-20T07:03:11Z</time>
      </trkpt>
      <trkpt lat="46.53771" lon="4.51081">
        <ele>242.699</ele>
        <time>2022-09-20T07:03:17Z</time>
      </trkpt>
      <trkpt lat="46.53766" lon="4.51087">
        <ele>244.499</ele>
        <time>2022-09-20T07:03:22Z</time>
      </trkpt>
      <trkpt lat="46.53762" lon="4.51098">
        <ele>243.499</ele>
        <time>2022-09-20T07:03:28Z</time>
      </trkpt>
      <trkpt lat="46.53759" lon="4.51106">
        <ele>244.099</ele>
        <time>2022-09-20T07:03:37Z</time>
      </trkpt>
      <trkpt lat="46.53753" lon="4.51114">
        <ele>244.699</ele>
        <time>2022-09-20T07:03:48Z</time>
      </trkpt>
      <trkpt lat="46.5375" lon="4.51123">
        <ele>244.199</ele>
        <time>2022-09-20T07:03:53Z</time>
      </trkpt>
      <trkpt lat="46.53748" lon="4.51133">
        <ele>245.299</ele>
        <time>2022-09-20T07:03:58Z</time>
      </trkpt>
      <trkpt lat="46.53744" lon="4.51143">
        <ele>242.999</ele>
        <time>2022-09-20T07:04:04Z</time>
      </trkpt>
      <trkpt lat="46.5374" lon="4.51151">
        <ele>241.399</ele>
        <time>2022-09-20T07:04:10Z</time>
      </trkpt>
      <trkpt lat="46.53735" lon="4.51161">
        <ele>241.899</ele>
        <time>2022-09-20T07:04:15Z</time>
      </trkpt>
      <trkpt lat="46.53732" lon="4.51169">
        <ele>241.699</ele>
        <time>2022-09-20T07:04:20Z</time>
      </trkpt>
      <trkpt lat="46.53727" lon="4.51178">
        <ele>240.899</ele>
        <time>2022-09-20T07:04:25Z</time>
      </trkpt>
      <trkpt lat="46.53723" lon="4.51186">
        <ele>240.899</ele>
        <time>2022-09-20T07:04:30Z</time>
      </trkpt>
      <trkpt lat="46.53719" lon="4.51194">
        <ele>242.399</ele>
        <time>2022-09-20T07:04:35Z</time>
      </trkpt>
      <trkpt lat="46.53715" lon="4.51203">
        <ele>246.099</ele>
        <time>2022-09-20T07:04:42Z</time>
      </trkpt>
      <trkpt lat="46.53709" lon="4.51209">
        <ele>247.199</ele>
        <time>2022-09-20T07:04:48Z</time>
      </trkpt>
      <trkpt lat="46.53704" lon="4.51217">
        <ele>247.499</ele>
        <time>2022-09-20T07:04:54Z</time>
      </trkpt>
      <trkpt lat="46.53697" lon="4.51225">
        <ele>246.799</ele>
        <time>2022-09-20T07:05:00Z</time>
      </trkpt>
      <trkpt lat="46.53693" lon="4.51232">
        <ele>245.499</ele>
        <time>2022-09-20T07:05:06Z</time>
      </trkpt>
      <trkpt lat="46.53689" lon="4.51241">
        <ele>244.099</ele>
        <time>2022-09-20T07:05:12Z</time>
      </trkpt>
      <trkpt lat="46.53686" lon="4.51252">
        <ele>244.899</ele>
        <time>2022-09-20T07:05:18Z</time>
      </trkpt>
      <trkpt lat="46.53683" lon="4.5126">
        <ele>245.499</ele>
        <time>2022-09-20T07:05:24Z</time>
      </trkpt>
      <trkpt lat="46.53681" lon="4.51271">
        <ele>243.999</ele>
        <time>2022-09-20T07:05:29Z</time>
      </trkpt>
      <trkpt lat="46.53679" lon="4.5128">
        <ele>242.799</ele>
        <time>2022-09-20T07:05:35Z</time>
      </trkpt>
      <trkpt lat="46.53677" lon="4.5129">
        <ele>243.699</ele>
        <time>2022-09-20T07:05:41Z</time>
      </trkpt>
      <trkpt lat="46.53675" lon="4.51299">
        <ele>247.099</ele>
        <time>2022-09-20T07:05:47Z</time>
      </trkpt>
      <trkpt lat="46.53669" lon="4.51304">
        <ele>249.899</ele>
        <time>2022-09-20T07:05:59Z</time>
      </trkpt>
      <trkpt lat="46.53662" lon="4.51303">
        <ele>253.199</ele>
        <time>2022-09-20T07:06:05Z</time>
      </trkpt>
      <trkpt lat="46.53656" lon="4.51302">
        <ele>254.399</ele>
        <time>2022-09-20T07:06:10Z</time>
      </trkpt>
      <trkpt lat="46.53649" lon="4.513">
        <ele>254.298</ele>
        <time>2022-09-20T07:06:16Z</time>
      </trkpt>
      <trkpt lat="46.53642" lon="4.51299">
        <ele>255.098</ele>
        <time>2022-09-20T07:06:21Z</time>
      </trkpt>
      <trkpt lat="46.53635" lon="4.51297">
        <ele>257.298</ele>
        <time>2022-09-20T07:06:26Z</time>
      </trkpt>
      <trkpt lat="46.53627" lon="4.51297">
        <ele>260.098</ele>
        <time>2022-09-20T07:06:34Z</time>
      </trkpt>
      <trkpt lat="46.53621" lon="4.51296">
        <ele>259.298</ele>
        <time>2022-09-20T07:06:40Z</time>
      </trkpt>
      <trkpt lat="46.53614" lon="4.51298">
        <ele>256.798</ele>
        <time>2022-09-20T07:06:45Z</time>
      </trkpt>
      <trkpt lat="46.53608" lon="4.51301">
        <ele>257.998</ele>
        <time>2022-09-20T07:06:50Z</time>
      </trkpt>
      <trkpt lat="46.536" lon="4.51307">
        <ele>257.498</ele>
        <time>2022-09-20T07:06:56Z</time>
      </trkpt>
      <trkpt lat="46.53594" lon="4.51312">
        <ele>258.698</ele>
        <time>2022-09-20T07:07:01Z</time>
      </trkpt>
      <trkpt lat="46.53587" lon="4.51324">
        <ele>259.198</ele>
        <time>2022-09-20T07:07:10Z</time>
      </trkpt>
      <trkpt lat="46.53583" lon="4.51334">
        <ele>259.198</ele>
        <time>2022-09-20T07:07:17Z</time>
      </trkpt>
      <trkpt lat="46.53578" lon="4.51342">
        <ele>259.798</ele>
        <time>2022-09-20T07:07:24Z</time>
      </trkpt>
      <trkpt lat="46.53573" lon="4.51348">
        <ele>260.998</ele>
        <time>2022-09-20T07:07:30Z</time>
      </trkpt>
      <trkpt lat="46.53569" lon="4.51355">
        <ele>260.398</ele>
        <time>2022-09-20T07:07:36Z</time>
      </trkpt>
      <trkpt lat="46.53561" lon="4.51361">
        <ele>261.398</ele>
        <time>2022-09-20T07:07:42Z</time>
      </trkpt>
      <trkpt lat="46.53555" lon="4.51365">
        <ele>260.698</ele>
        <time>2022-09-20T07:07:49Z</time>
      </trkpt>
      <trkpt lat="46.53548" lon="4.51364">
        <ele>263.798</ele>
        <time>2022-09-20T07:08:19Z</time>
      </trkpt>
      <trkpt lat="46.53541" lon="4.51362">
        <ele>262.298</ele>
        <time>2022-09-20T07:08:26Z</time>
      </trkpt>
      <trkpt lat="46.53537" lon="4.51353">
        <ele>262.998</ele>
        <time>2022-09-20T07:08:38Z</time>
      </trkpt>
      <trkpt lat="46.53531" lon="4.51348">
        <ele>265.398</ele>
        <time>2022-09-20T07:08:46Z</time>
      </trkpt>
      <trkpt lat="46.53525" lon="4.51343">
        <ele>265.398</ele>
        <time>2022-09-20T07:08:51Z</time>
      </trkpt>
      <trkpt lat="46.53519" lon="4.51337">
        <ele>266.298</ele>
        <time>2022-09-20T07:08:58Z</time>
      </trkpt>
      <trkpt lat="46.53514" lon="4.5133">
        <ele>267.198</ele>
        <time>2022-09-20T07:09:04Z</time>
      </trkpt>
      <trkpt lat="46.53508" lon="4.51323">
        <ele>269.998</ele>
        <time>2022-09-20T07:09:10Z</time>
      </trkpt>
      <trkpt lat="46.53503" lon="4.51317">
        <ele>273.198</ele>
        <time>2022-09-20T07:09:15Z</time>
      </trkpt>
      <trkpt lat="46.53498" lon="4.51311">
        <ele>275.898</ele>
        <time>2022-09-20T07:09:21Z</time>
      </trkpt>
      <trkpt lat="46.53491" lon="4.51307">
        <ele>277.598</ele>
        <time>2022-09-20T07:09:27Z</time>
      </trkpt>
      <trkpt lat="46.53485" lon="4.51302">
        <ele>279.598</ele>
        <time>2022-09-20T07:09:33Z</time>
      </trkpt>
      <trkpt lat="46.53479" lon="4.51296">
        <ele>279.998</ele>
        <time>2022-09-20T07:09:39Z</time>
      </trkpt>
      <trkpt lat="46.53473" lon="4.51291">
        <ele>280.498</ele>
        <time>2022-09-20T07:09:48Z</time>
      </trkpt>
      <trkpt lat="46.53466" lon="4.51287">
        <ele>281.298</ele>
        <time>2022-09-20T07:09:56Z</time>
      </trkpt>
      <trkpt lat="46.5346" lon="4.51277">
        <ele>283.698</ele>
        <time>2022-09-20T07:10:02Z</time>
      </trkpt>
      <trkpt lat="46.53454" lon="4.51271">
        <ele>282.198</ele>
        <time>2022-09-20T07:10:10Z</time>
      </trkpt>
      <trkpt lat="46.53449" lon="4.51263">
        <ele>281.798</ele>
        <time>2022-09-20T07:10:17Z</time>
      </trkpt>
      <trkpt lat="46.53442" lon="4.51256">
        <ele>281.298</ele>
        <time>2022-09-20T07:10:22Z</time>
      </trkpt>
      <trkpt lat="46.53436" lon="4.51251">
        <ele>280.098</ele>
        <time>2022-09-20T07:10:28Z</time>
      </trkpt>
      <trkpt lat="46.53429" lon="4.51248">
        <ele>278.898</ele>
        <time>2022-09-20T07:10:34Z</time>
      </trkpt>
      <trkpt lat="46.53422" lon="4.51246">
        <ele>279.198</ele>
        <time>2022-09-20T07:10:41Z</time>
      </trkpt>
      <trkpt lat="46.53415" lon="4.51245">
        <ele>279.898</ele>
        <time>2022-09-20T07:10:46Z</time>
      </trkpt>
      <trkpt lat="46.53408" lon="4.51243">
        <ele>278.298</ele>
        <time>2022-09-20T07:10:51Z</time>
      </trkpt>
      <trkpt lat="46.53401" lon="4.5124">
        <ele>280.198</ele>
        <time>2022-09-20T07:10:59Z</time>
      </trkpt>
      <trkpt lat="46.53394" lon="4.51239">
        <ele>280.198</ele>
        <time>2022-09-20T07:11:08Z</time>
      </trkpt>
      <trkpt lat="46.53387" lon="4.5124">
        <ele>280.198</ele>
        <time>2022-09-20T07:11:15Z</time>
      </trkpt>
      <trkpt lat="46.53381" lon="4.51239">
        <ele>280.198</ele>
        <time>2022-09-20T07:11:22Z</time>
      </trkpt>
      <trkpt lat="46.53373" lon="4.5124">
        <ele>280.398</ele>
        <time>2022-09-20T07:11:28Z</time>
      </trkpt>
      <trkpt lat="46.53366" lon="4.51237">
        <ele>279.998</ele>
        <time>2022-09-20T07:11:34Z</time>
      </trkpt>
      <trkpt lat="46.53359" lon="4.51236">
        <ele>279.698</ele>
        <time>2022-09-20T07:11:39Z</time>
      </trkpt>
      <trkpt lat="46.53353" lon="4.51236">
        <ele>280.298</ele>
        <time>2022-09-20T07:11:45Z</time>
      </trkpt>
      <trkpt lat="46.53346" lon="4.51232">
        <ele>280.998</ele>
        <time>2022-09-20T07:11:51Z</time>
      </trkpt>
      <trkpt lat="46.5334" lon="4.51229">
        <ele>282.298</ele>
        <time>2022-09-20T07:12:00Z</time>
      </trkpt>
      <trkpt lat="46.53333" lon="4.51226">
        <ele>282.998</ele>
        <time>2022-09-20T07:12:07Z</time>
      </trkpt>
      <trkpt lat="46.53327" lon="4.51221">
        <ele>284.098</ele>
        <time>2022-09-20T07:12:14Z</time>
      </trkpt>
      <trkpt lat="46.53321" lon="4.51215">
        <ele>284.998</ele>
        <time>2022-09-20T07:12:22Z</time>
      </trkpt>
      <trkpt lat="46.53313" lon="4.51212">
        <ele>286.197</ele>
        <time>2022-09-20T07:12:30Z</time>
      </trkpt>
      <trkpt lat="46.53306" lon="4.51206">
        <ele>286.497</ele>
        <time>2022-09-20T07:12:35Z</time>
      </trkpt>
      <trkpt lat="46.53301" lon="4.512">
        <ele>288.697</ele>
        <time>2022-09-20T07:12:42Z</time>
      </trkpt>
      <trkpt lat="46.53295" lon="4.51196">
        <ele>289.097</ele>
        <time>2022-09-20T07:12:48Z</time>
      </trkpt>
      <trkpt lat="46.53288" lon="4.51193">
        <ele>288.797</ele>
        <time>2022-09-20T07:12:56Z</time>
      </trkpt>
      <trkpt lat="46.53283" lon="4.51185">
        <ele>291.097</ele>
        <time>2022-09-20T07:13:03Z</time>
      </trkpt>
      <trkpt lat="46.53277" lon="4.51181">
        <ele>291.497</ele>
        <time>2022-09-20T07:13:08Z</time>
      </trkpt>
      <trkpt lat="46.5327" lon="4.51181">
        <ele>290.797</ele>
        <time>2022-09-20T07:13:15Z</time>
      </trkpt>
      <trkpt lat="46.53264" lon="4.51177">
        <ele>291.497</ele>
        <time>2022-09-20T07:13:21Z</time>
      </trkpt>
      <trkpt lat="46.53258" lon="4.51169">
        <ele>293.297</ele>
        <time>2022-09-20T07:13:28Z</time>
      </trkpt>
      <trkpt lat="46.53255" lon="4.5116">
        <ele>295.397</ele>
        <time>2022-09-20T07:13:34Z</time>
      </trkpt>
      <trkpt lat="46.53253" lon="4.51151">
        <ele>297.497</ele>
        <time>2022-09-20T07:13:41Z</time>
      </trkpt>
      <trkpt lat="46.53249" lon="4.51143">
        <ele>298.397</ele>
        <time>2022-09-20T07:13:48Z</time>
      </trkpt>
      <trkpt lat="46.53245" lon="4.51134">
        <ele>299.097</ele>
        <time>2022-09-20T07:13:55Z</time>
      </trkpt>
      <trkpt lat="46.53241" lon="4.51126">
        <ele>300.797</ele>
        <time>2022-09-20T07:14:02Z</time>
      </trkpt>
      <trkpt lat="46.53237" lon="4.51118">
        <ele>301.297</ele>
        <time>2022-09-20T07:14:09Z</time>
      </trkpt>
      <trkpt lat="46.53231" lon="4.51115">
        <ele>299.197</ele>
        <time>2022-09-20T07:14:16Z</time>
      </trkpt>
      <trkpt lat="46.53226" lon="4.51109">
        <ele>296.897</ele>
        <time>2022-09-20T07:14:23Z</time>
      </trkpt>
      <trkpt lat="46.53221" lon="4.51102">
        <ele>295.697</ele>
        <time>2022-09-20T07:14:29Z</time>
      </trkpt>
      <trkpt lat="46.53217" lon="4.51094">
        <ele>295.597</ele>
        <time>2022-09-20T07:14:36Z</time>
      </trkpt>
      <trkpt lat="46.53213" lon="4.51085">
        <ele>295.797</ele>
        <time>2022-09-20T07:14:42Z</time>
      </trkpt>
      <trkpt lat="46.53209" lon="4.51077">
        <ele>296.797</ele>
        <time>2022-09-20T07:14:47Z</time>
      </trkpt>
      <trkpt lat="46.53207" lon="4.51066">
        <ele>296.397</ele>
        <time>2022-09-20T07:14:52Z</time>
      </trkpt>
      <trkpt lat="46.53207" lon="4.51056">
        <ele>294.797</ele>
        <time>2022-09-20T07:14:59Z</time>
      </trkpt>
      <trkpt lat="46.53207" lon="4.51044">
        <ele>293.397</ele>
        <time>2022-09-20T07:15:06Z</time>
      </trkpt>
      <trkpt lat="46.53209" lon="4.51034">
        <ele>293.497</ele>
        <time>2022-09-20T07:15:12Z</time>
      </trkpt>
      <trkpt lat="46.5321" lon="4.51022">
        <ele>294.397</ele>
        <time>2022-09-20T07:15:18Z</time>
      </trkpt>
      <trkpt lat="46.53213" lon="4.51012">
        <ele>294.497</ele>
        <time>2022-09-20T07:15:24Z</time>
      </trkpt>
      <trkpt lat="46.53215" lon="4.51">
        <ele>295.597</ele>
        <time>2022-09-20T07:15:30Z</time>
      </trkpt>
      <trkpt lat="46.53214" lon="4.50989">
        <ele>297.497</ele>
        <time>2022-09-20T07:15:42Z</time>
      </trkpt>
      <trkpt lat="46.53214" lon="4.50979">
        <ele>296.297</ele>
        <time>2022-09-20T07:15:58Z</time>
      </trkpt>
      <trkpt lat="46.53215" lon="4.50968">
        <ele>296.297</ele>
        <time>2022-09-20T07:16:06Z</time>
      </trkpt>
      <trkpt lat="46.53214" lon="4.50958">
        <ele>295.097</ele>
        <time>2022-09-20T07:16:13Z</time>
      </trkpt>
      <trkpt lat="46.53214" lon="4.50949">
        <ele>295.097</ele>
        <time>2022-09-20T07:16:20Z</time>
      </trkpt>
      <trkpt lat="46.53213" lon="4.50938">
        <ele>293.997</ele>
        <time>2022-09-20T07:16:27Z</time>
      </trkpt>
      <trkpt lat="46.53209" lon="4.5093">
        <ele>293.997</ele>
        <time>2022-09-20T07:16:32Z</time>
      </trkpt>
      <trkpt lat="46.53202" lon="4.50936">
        <ele>296.797</ele>
        <time>2022-09-20T07:18:23Z</time>
      </trkpt>
      <trkpt lat="46.53196" lon="4.50938">
        <ele>296.297</ele>
        <time>2022-09-20T07:18:30Z</time>
      </trkpt>
      <trkpt lat="46.5319" lon="4.50942">
        <ele>294.997</ele>
        <time>2022-09-20T07:18:35Z</time>
      </trkpt>
      <trkpt lat="46.53183" lon="4.50948">
        <ele>293.797</ele>
        <time>2022-09-20T07:18:40Z</time>
      </trkpt>
      <trkpt lat="46.53176" lon="4.50949">
        <ele>292.797</ele>
        <time>2022-09-20T07:18:46Z</time>
      </trkpt>
      <trkpt lat="46.5317" lon="4.50953">
        <ele>292.997</ele>
        <time>2022-09-20T07:18:53Z</time>
      </trkpt>
      <trkpt lat="46.53164" lon="4.50958">
        <ele>292.497</ele>
        <time>2022-09-20T07:18:58Z</time>
      </trkpt>
      <trkpt lat="46.53157" lon="4.50964">
        <ele>290.597</ele>
        <time>2022-09-20T07:19:04Z</time>
      </trkpt>
      <trkpt lat="46.53149" lon="4.50969">
        <ele>290.797</ele>
        <time>2022-09-20T07:19:10Z</time>
      </trkpt>
      <trkpt lat="46.53144" lon="4.50975">
        <ele>290.497</ele>
        <time>2022-09-20T07:19:15Z</time>
      </trkpt>
      <trkpt lat="46.53137" lon="4.5098">
        <ele>291.497</ele>
        <time>2022-09-20T07:19:21Z</time>
      </trkpt>
      <trkpt lat="46.5313" lon="4.50983">
        <ele>291.997</ele>
        <time>2022-09-20T07:19:27Z</time>
      </trkpt>
      <trkpt lat="46.53125" lon="4.50989">
        <ele>293.597</ele>
        <time>2022-09-20T07:19:33Z</time>
      </trkpt>
      <trkpt lat="46.53119" lon="4.50996">
        <ele>292.797</ele>
        <time>2022-09-20T07:19:40Z</time>
      </trkpt>
      <trkpt lat="46.5311" lon="4.50996">
        <ele>292.197</ele>
        <time>2022-09-20T07:19:46Z</time>
      </trkpt>
      <trkpt lat="46.53104" lon="4.51">
        <ele>291.997</ele>
        <time>2022-09-20T07:19:52Z</time>
      </trkpt>
      <trkpt lat="46.53096" lon="4.51001">
        <ele>291.997</ele>
        <time>2022-09-20T07:19:58Z</time>
      </trkpt>
      <trkpt lat="46.53089" lon="4.51003">
        <ele>291.497</ele>
        <time>2022-09-20T07:20:03Z</time>
      </trkpt>
      <trkpt lat="46.53083" lon="4.51002">
        <ele>290.597</ele>
        <time>2022-09-20T07:20:08Z</time>
      </trkpt>
      <trkpt lat="46.53075" lon="4.51003">
        <ele>289.497</ele>
        <time>2022-09-20T07:20:14Z</time>
      </trkpt>
      <trkpt lat="46.53068" lon="4.51">
        <ele>289.697</ele>
        <time>2022-09-20T07:20:20Z</time>
      </trkpt>
      <trkpt lat="46.53062" lon="4.51003">
        <ele>288.797</ele>
        <time>2022-09-20T07:20:27Z</time>
      </trkpt>
      <trkpt lat="46.53055" lon="4.51006">
        <ele>287.697</ele>
        <time>2022-09-20T07:20:33Z</time>
      </trkpt>
      <trkpt lat="46.53047" lon="4.51007">
        <ele>287.997</ele>
        <time>2022-09-20T07:20:38Z</time>
      </trkpt>
      <trkpt lat="46.5304" lon="4.51012">
        <ele>288.497</ele>
        <time>2022-09-20T07:20:46Z</time>
      </trkpt>
      <trkpt lat="46.53032" lon="4.51013">
        <ele>288.097</ele>
        <time>2022-09-20T07:20:51Z</time>
      </trkpt>
      <trkpt lat="46.53025" lon="4.51015">
        <ele>287.297</ele>
        <time>2022-09-20T07:20:57Z</time>
      </trkpt>
      <trkpt lat="46.53018" lon="4.51018">
        <ele>288.397</ele>
        <time>2022-09-20T07:21:03Z</time>
      </trkpt>
      <trkpt lat="46.53011" lon="4.51021">
        <ele>289.597</ele>
        <time>2022-09-20T07:21:10Z</time>
      </trkpt>
      <trkpt lat="46.53005" lon="4.51026">
        <ele>288.697</ele>
        <time>2022-09-20T07:21:16Z</time>
      </trkpt>
      <trkpt lat="46.52999" lon="4.51031">
        <ele>288.597</ele>
        <time>2022-09-20T07:21:26Z</time>
      </trkpt>
      <trkpt lat="46.52993" lon="4.51035">
        <ele>289.896</ele>
        <time>2022-09-20T07:22:07Z</time>
      </trkpt>
      <trkpt lat="46.52987" lon="4.5104">
        <ele>289.196</ele>
        <time>2022-09-20T07:22:12Z</time>
      </trkpt>
      <trkpt lat="46.5298" lon="4.51044">
        <ele>288.496</ele>
        <time>2022-09-20T07:22:19Z</time>
      </trkpt>
      <trkpt lat="46.52973" lon="4.51048">
        <ele>288.096</ele>
        <time>2022-09-20T07:22:25Z</time>
      </trkpt>
      <trkpt lat="46.52966" lon="4.51052">
        <ele>286.296</ele>
        <time>2022-09-20T07:22:31Z</time>
      </trkpt>
      <trkpt lat="46.5296" lon="4.51055">
        <ele>283.096</ele>
        <time>2022-09-20T07:22:36Z</time>
      </trkpt>
      <trkpt lat="46.52953" lon="4.51059">
        <ele>281.396</ele>
        <time>2022-09-20T07:22:43Z</time>
      </trkpt>
      <trkpt lat="46.52946" lon="4.51063">
        <ele>280.896</ele>
        <time>2022-09-20T07:22:48Z</time>
      </trkpt>
      <trkpt lat="46.52938" lon="4.51068">
        <ele>279.596</ele>
        <time>2022-09-20T07:22:54Z</time>
      </trkpt>
      <trkpt lat="46.52932" lon="4.51073">
        <ele>278.796</ele>
        <time>2022-09-20T07:23:01Z</time>
      </trkpt>
      <trkpt lat="46.52927" lon="4.5108">
        <ele>278.796</ele>
        <time>2022-09-20T07:23:06Z</time>
      </trkpt>
      <trkpt lat="46.5292" lon="4.51084">
        <ele>278.496</ele>
        <time>2022-09-20T07:23:13Z</time>
      </trkpt>
      <trkpt lat="46.52914" lon="4.51085">
        <ele>278.196</ele>
        <time>2022-09-20T07:23:18Z</time>
      </trkpt>
      <trkpt lat="46.52907" lon="4.51089">
        <ele>277.696</ele>
        <time>2022-09-20T07:23:23Z</time>
      </trkpt>
      <trkpt lat="46.52901" lon="4.51093">
        <ele>276.096</ele>
        <time>2022-09-20T07:23:29Z</time>
      </trkpt>
      <trkpt lat="46.52894" lon="4.51097">
        <ele>274.096</ele>
        <time>2022-09-20T07:23:34Z</time>
      </trkpt>
      <trkpt lat="46.52887" lon="4.51101">
        <ele>273.696</ele>
        <time>2022-09-20T07:23:39Z</time>
      </trkpt>
      <trkpt lat="46.52881" lon="4.51102">
        <ele>273.996</ele>
        <time>2022-09-20T07:23:45Z</time>
      </trkpt>
      <trkpt lat="46.52874" lon="4.51108">
        <ele>272.596</ele>
        <time>2022-09-20T07:23:51Z</time>
      </trkpt>
      <trkpt lat="46.52866" lon="4.51111">
        <ele>271.696</ele>
        <time>2022-09-20T07:23:56Z</time>
      </trkpt>
      <trkpt lat="46.5286" lon="4.51116">
        <ele>269.796</ele>
        <time>2022-09-20T07:24:02Z</time>
      </trkpt>
      <trkpt lat="46.52853" lon="4.51119">
        <ele>269.496</ele>
        <time>2022-09-20T07:24:08Z</time>
      </trkpt>
      <trkpt lat="46.52843" lon="4.51123">
        <ele>268.496</ele>
        <time>2022-09-20T07:24:14Z</time>
      </trkpt>
      <trkpt lat="46.52836" lon="4.51127">
        <ele>268.496</ele>
        <time>2022-09-20T07:24:20Z</time>
      </trkpt>
      <trkpt lat="46.52829" lon="4.51132">
        <ele>266.496</ele>
        <time>2022-09-20T07:24:26Z</time>
      </trkpt>
      <trkpt lat="46.52822" lon="4.51134">
        <ele>263.896</ele>
        <time>2022-09-20T07:24:32Z</time>
      </trkpt>
      <trkpt lat="46.52813" lon="4.51138">
        <ele>262.696</ele>
        <time>2022-09-20T07:24:38Z</time>
      </trkpt>
      <trkpt lat="46.52807" lon="4.51142">
        <ele>260.996</ele>
        <time>2022-09-20T07:24:43Z</time>
      </trkpt>
      <trkpt lat="46.52799" lon="4.51144">
        <ele>260.096</ele>
        <time>2022-09-20T07:24:49Z</time>
      </trkpt>
      <trkpt lat="46.52792" lon="4.51146">
        <ele>260.796</ele>
        <time>2022-09-20T07:24:54Z</time>
      </trkpt>
      <trkpt lat="46.52785" lon="4.51149">
        <ele>261.296</ele>
        <time>2022-09-20T07:24:59Z</time>
      </trkpt>
      <trkpt lat="46.52778" lon="4.51151">
        <ele>263.296</ele>
        <time>2022-09-20T07:25:04Z</time>
      </trkpt>
      <trkpt lat="46.5277" lon="4.51155">
        <ele>264.596</ele>
        <time>2022-09-20T07:25:10Z</time>
      </trkpt>
      <trkpt lat="46.52764" lon="4.51157">
        <ele>265.996</ele>
        <time>2022-09-20T07:25:15Z</time>
      </trkpt>
      <trkpt lat="46.52757" lon="4.5116">
        <ele>266.896</ele>
        <time>2022-09-20T07:25:20Z</time>
      </trkpt>
      <trkpt lat="46.52752" lon="4.51164">
        <ele>266.396</ele>
        <time>2022-09-20T07:25:26Z</time>
      </trkpt>
      <trkpt lat="46.52744" lon="4.51169">
        <ele>266.096</ele>
        <time>2022-09-20T07:25:31Z</time>
      </trkpt>
      <trkpt lat="46.52737" lon="4.5117">
        <ele>266.496</ele>
        <time>2022-09-20T07:25:36Z</time>
      </trkpt>
      <trkpt lat="46.52729" lon="4.51174">
        <ele>265.496</ele>
        <time>2022-09-20T07:25:42Z</time>
      </trkpt>
      <trkpt lat="46.52723" lon="4.51177">
        <ele>265.996</ele>
        <time>2022-09-20T07:25:48Z</time>
      </trkpt>
      <trkpt lat="46.52715" lon="4.51181">
        <ele>266.596</ele>
        <time>2022-09-20T07:25:54Z</time>
      </trkpt>
      <trkpt lat="46.52707" lon="4.51185">
        <ele>266.296</ele>
        <time>2022-09-20T07:26:00Z</time>
      </trkpt>
      <trkpt lat="46.527" lon="4.51187">
        <ele>265.796</ele>
        <time>2022-09-20T07:26:07Z</time>
      </trkpt>
      <trkpt lat="46.52694" lon="4.51189">
        <ele>267.096</ele>
        <time>2022-09-20T07:26:12Z</time>
      </trkpt>
      <trkpt lat="46.52686" lon="4.51191">
        <ele>267.696</ele>
        <time>2022-09-20T07:26:18Z</time>
      </trkpt>
      <trkpt lat="46.52679" lon="4.51192">
        <ele>268.796</ele>
        <time>2022-09-20T07:26:24Z</time>
      </trkpt>
      <trkpt lat="46.52671" lon="4.51192">
        <ele>269.296</ele>
        <time>2022-09-20T07:26:30Z</time>
      </trkpt>
      <trkpt lat="46.52665" lon="4.51195">
        <ele>270.096</ele>
        <time>2022-09-20T07:26:35Z</time>
      </trkpt>
      <trkpt lat="46.52657" lon="4.51193">
        <ele>272.496</ele>
        <time>2022-09-20T07:26:40Z</time>
      </trkpt>
      <trkpt lat="46.5265" lon="4.51194">
        <ele>273.296</ele>
        <time>2022-09-20T07:26:46Z</time>
      </trkpt>
      <trkpt lat="46.52643" lon="4.51195">
        <ele>273.696</ele>
        <time>2022-09-20T07:26:52Z</time>
      </trkpt>
      <trkpt lat="46.52634" lon="4.51198">
        <ele>273.196</ele>
        <time>2022-09-20T07:26:58Z</time>
      </trkpt>
      <trkpt lat="46.52628" lon="4.512">
        <ele>274.396</ele>
        <time>2022-09-20T07:27:04Z</time>
      </trkpt>
      <trkpt lat="46.52621" lon="4.51203">
        <ele>275.096</ele>
        <time>2022-09-20T07:27:10Z</time>
      </trkpt>
      <trkpt lat="46.52614" lon="4.51206">
        <ele>275.796</ele>
        <time>2022-09-20T07:27:18Z</time>
      </trkpt>
      <trkpt lat="46.52607" lon="4.51208">
        <ele>277.196</ele>
        <time>2022-09-20T07:27:23Z</time>
      </trkpt>
      <trkpt lat="46.52602" lon="4.51216">
        <ele>277.396</ele>
        <time>2022-09-20T07:27:28Z</time>
      </trkpt>
      <trkpt lat="46.52596" lon="4.5122">
        <ele>277.896</ele>
        <time>2022-09-20T07:27:34Z</time>
      </trkpt>
      <trkpt lat="46.52592" lon="4.51228">
        <ele>277.196</ele>
        <time>2022-09-20T07:27:39Z</time>
      </trkpt>
      <trkpt lat="46.52587" lon="4.51235">
        <ele>276.396</ele>
        <time>2022-09-20T07:27:45Z</time>
      </trkpt>
      <trkpt lat="46.52583" lon="4.51246">
        <ele>275.896</ele>
        <time>2022-09-20T07:27:50Z</time>
      </trkpt>
      <trkpt lat="46.52578" lon="4.51253">
        <ele>273.996</ele>
        <time>2022-09-20T07:27:56Z</time>
      </trkpt>
      <trkpt lat="46.5257" lon="4.51258">
        <ele>270.695</ele>
        <time>2022-09-20T07:28:02Z</time>
      </trkpt>
      <trkpt lat="46.52563" lon="4.51261">
        <ele>270.495</ele>
        <time>2022-09-20T07:28:07Z</time>
      </trkpt>
      <trkpt lat="46.52557" lon="4.51263">
        <ele>271.695</ele>
        <time>2022-09-20T07:28:12Z</time>
      </trkpt>
      <trkpt lat="46.52549" lon="4.51268">
        <ele>271.295</ele>
        <time>2022-09-20T07:28:18Z</time>
      </trkpt>
      <trkpt lat="46.52542" lon="4.51272">
        <ele>271.295</ele>
        <time>2022-09-20T07:28:24Z</time>
      </trkpt>
      <trkpt lat="46.52535" lon="4.51275">
        <ele>272.195</ele>
        <time>2022-09-20T07:28:30Z</time>
      </trkpt>
      <trkpt lat="46.52527" lon="4.51278">
        <ele>270.595</ele>
        <time>2022-09-20T07:28:36Z</time>
      </trkpt>
      <trkpt lat="46.52521" lon="4.51283">
        <ele>270.395</ele>
        <time>2022-09-20T07:28:42Z</time>
      </trkpt>
      <trkpt lat="46.52514" lon="4.51284">
        <ele>269.695</ele>
        <time>2022-09-20T07:28:48Z</time>
      </trkpt>
      <trkpt lat="46.52507" lon="4.51286">
        <ele>270.695</ele>
        <time>2022-09-20T07:28:54Z</time>
      </trkpt>
      <trkpt lat="46.52499" lon="4.51289">
        <ele>273.195</ele>
        <time>2022-09-20T07:28:59Z</time>
      </trkpt>
      <trkpt lat="46.52491" lon="4.51289">
        <ele>272.895</ele>
        <time>2022-09-20T07:29:05Z</time>
      </trkpt>
      <trkpt lat="46.52484" lon="4.5129">
        <ele>274.695</ele>
        <time>2022-09-20T07:29:10Z</time>
      </trkpt>
      <trkpt lat="46.52477" lon="4.51293">
        <ele>273.495</ele>
        <time>2022-09-20T07:29:17Z</time>
      </trkpt>
      <trkpt lat="46.52469" lon="4.5129">
        <ele>273.495</ele>
        <time>2022-09-20T07:29:22Z</time>
      </trkpt>
      <trkpt lat="46.52461" lon="4.5129">
        <ele>272.195</ele>
        <time>2022-09-20T07:29:28Z</time>
      </trkpt>
      <trkpt lat="46.52454" lon="4.51291">
        <ele>271.595</ele>
        <time>2022-09-20T07:29:34Z</time>
      </trkpt>
      <trkpt lat="46.52447" lon="4.51289">
        <ele>272.295</ele>
        <time>2022-09-20T07:29:40Z</time>
      </trkpt>
      <trkpt lat="46.5244" lon="4.51289">
        <ele>274.895</ele>
        <time>2022-09-20T07:29:46Z</time>
      </trkpt>
      <trkpt lat="46.52432" lon="4.51289">
        <ele>276.795</ele>
        <time>2022-09-20T07:29:52Z</time>
      </trkpt>
      <trkpt lat="46.52426" lon="4.51289">
        <ele>277.695</ele>
        <time>2022-09-20T07:29:58Z</time>
      </trkpt>
      <trkpt lat="46.52418" lon="4.51287">
        <ele>278.195</ele>
        <time>2022-09-20T07:30:03Z</time>
      </trkpt>
      <trkpt lat="46.52411" lon="4.51287">
        <ele>277.095</ele>
        <time>2022-09-20T07:30:08Z</time>
      </trkpt>
      <trkpt lat="46.52403" lon="4.51286">
        <ele>277.395</ele>
        <time>2022-09-20T07:30:14Z</time>
      </trkpt>
      <trkpt lat="46.52396" lon="4.51288">
        <ele>278.195</ele>
        <time>2022-09-20T07:30:19Z</time>
      </trkpt>
      <trkpt lat="46.5239" lon="4.5129">
        <ele>279.295</ele>
        <time>2022-09-20T07:30:24Z</time>
      </trkpt>
      <trkpt lat="46.52383" lon="4.51287">
        <ele>283.195</ele>
        <time>2022-09-20T07:30:34Z</time>
      </trkpt>
      <trkpt lat="46.52378" lon="4.51295">
        <ele>291.695</ele>
        <time>2022-09-20T07:33:38Z</time>
      </trkpt>
      <trkpt lat="46.52372" lon="4.513">
        <ele>290.895</ele>
        <time>2022-09-20T07:33:46Z</time>
      </trkpt>
      <trkpt lat="46.52366" lon="4.51307">
        <ele>288.195</ele>
        <time>2022-09-20T07:33:52Z</time>
      </trkpt>
      <trkpt lat="46.52361" lon="4.51313">
        <ele>286.095</ele>
        <time>2022-09-20T07:33:58Z</time>
      </trkpt>
      <trkpt lat="46.52355" lon="4.51319">
        <ele>284.095</ele>
        <time>2022-09-20T07:34:03Z</time>
      </trkpt>
      <trkpt lat="46.52348" lon="4.51323">
        <ele>282.495</ele>
        <time>2022-09-20T07:34:09Z</time>
      </trkpt>
      <trkpt lat="46.52343" lon="4.51329">
        <ele>281.695</ele>
        <time>2022-09-20T07:34:14Z</time>
      </trkpt>
      <trkpt lat="46.52337" lon="4.51336">
        <ele>281.195</ele>
        <time>2022-09-20T07:34:19Z</time>
      </trkpt>
      <trkpt lat="46.52332" lon="4.51343">
        <ele>282.295</ele>
        <time>2022-09-20T07:34:25Z</time>
      </trkpt>
      <trkpt lat="46.52326" lon="4.51351">
        <ele>282.295</ele>
        <time>2022-09-20T07:34:30Z</time>
      </trkpt>
      <trkpt lat="46.52321" lon="4.51357">
        <ele>281.295</ele>
        <time>2022-09-20T07:34:37Z</time>
      </trkpt>
      <trkpt lat="46.52316" lon="4.51366">
        <ele>279.895</ele>
        <time>2022-09-20T07:34:42Z</time>
      </trkpt>
      <trkpt lat="46.5231" lon="4.51373">
        <ele>279.895</ele>
        <time>2022-09-20T07:34:48Z</time>
      </trkpt>
      <trkpt lat="46.52303" lon="4.51383">
        <ele>278.695</ele>
        <time>2022-09-20T07:34:54Z</time>
      </trkpt>
      <trkpt lat="46.52298" lon="4.5139">
        <ele>280.095</ele>
        <time>2022-09-20T07:35:00Z</time>
      </trkpt>
      <trkpt lat="46.52293" lon="4.514">
        <ele>280.795</ele>
        <time>2022-09-20T07:35:06Z</time>
      </trkpt>
      <trkpt lat="46.52288" lon="4.51408">
        <ele>281.195</ele>
        <time>2022-09-20T07:35:12Z</time>
      </trkpt>
      <trkpt lat="46.52281" lon="4.51415">
        <ele>280.595</ele>
        <time>2022-09-20T07:35:22Z</time>
      </trkpt>
      <trkpt lat="46.52274" lon="4.51423">
        <ele>279.995</ele>
        <time>2022-09-20T07:35:27Z</time>
      </trkpt>
      <trkpt lat="46.52268" lon="4.5143">
        <ele>280.195</ele>
        <time>2022-09-20T07:35:32Z</time>
      </trkpt>
      <trkpt lat="46.52263" lon="4.51436">
        <ele>278.595</ele>
        <time>2022-09-20T07:35:38Z</time>
      </trkpt>
      <trkpt lat="46.5226" lon="4.51445">
        <ele>278.095</ele>
        <time>2022-09-20T07:35:50Z</time>
      </trkpt>
      <trkpt lat="46.52256" lon="4.51453">
        <ele>278.195</ele>
        <time>2022-09-20T07:35:56Z</time>
      </trkpt>
      <trkpt lat="46.52254" lon="4.51463">
        <ele>276.595</ele>
        <time>2022-09-20T07:36:01Z</time>
      </trkpt>
      <trkpt lat="46.52248" lon="4.5147">
        <ele>276.295</ele>
        <time>2022-09-20T07:36:07Z</time>
      </trkpt>
      <trkpt lat="46.52244" lon="4.51479">
        <ele>274.995</ele>
        <time>2022-09-20T07:36:12Z</time>
      </trkpt>
      <trkpt lat="46.52239" lon="4.51488">
        <ele>273.695</ele>
        <time>2022-09-20T07:36:18Z</time>
      </trkpt>
      <trkpt lat="46.52234" lon="4.51495">
        <ele>271.395</ele>
        <time>2022-09-20T07:36:24Z</time>
      </trkpt>
      <trkpt lat="46.5223" lon="4.51504">
        <ele>269.095</ele>
        <time>2022-09-20T07:36:31Z</time>
      </trkpt>
      <trkpt lat="46.52227" lon="4.51513">
        <ele>269.395</ele>
        <time>2022-09-20T07:36:43Z</time>
      </trkpt>
      <trkpt lat="46.52223" lon="4.5152">
        <ele>271.195</ele>
        <time>2022-09-20T07:36:54Z</time>
      </trkpt>
      <trkpt lat="46.52218" lon="4.51529">
        <ele>271.895</ele>
        <time>2022-09-20T07:37:05Z</time>
      </trkpt>
      <trkpt lat="46.52214" lon="4.51537">
        <ele>271.095</ele>
        <time>2022-09-20T07:37:10Z</time>
      </trkpt>
      <trkpt lat="46.52209" lon="4.51544">
        <ele>271.395</ele>
        <time>2022-09-20T07:37:16Z</time>
      </trkpt>
      <trkpt lat="46.52203" lon="4.51551">
        <ele>271.595</ele>
        <time>2022-09-20T07:37:22Z</time>
      </trkpt>
      <trkpt lat="46.52198" lon="4.51558">
        <ele>269.795</ele>
        <time>2022-09-20T07:37:29Z</time>
      </trkpt>
      <trkpt lat="46.52194" lon="4.51567">
        <ele>268.595</ele>
        <time>2022-09-20T07:37:35Z</time>
      </trkpt>
      <trkpt lat="46.52189" lon="4.51574">
        <ele>268.195</ele>
        <time>2022-09-20T07:37:40Z</time>
      </trkpt>
      <trkpt lat="46.52184" lon="4.5158">
        <ele>266.495</ele>
        <time>2022-09-20T07:37:47Z</time>
      </trkpt>
      <trkpt lat="46.52179" lon="4.51587">
        <ele>265.995</ele>
        <time>2022-09-20T07:37:54Z</time>
      </trkpt>
      <trkpt lat="46.52174" lon="4.51595">
        <ele>265.095</ele>
        <time>2022-09-20T07:37:59Z</time>
      </trkpt>
      <trkpt lat="46.5217" lon="4.51604">
        <ele>264.595</ele>
        <time>2022-09-20T07:38:05Z</time>
      </trkpt>
      <trkpt lat="46.52167" lon="4.51614">
        <ele>263.995</ele>
        <time>2022-09-20T07:38:11Z</time>
      </trkpt>
      <trkpt lat="46.52163" lon="4.51621">
        <ele>263.995</ele>
        <time>2022-09-20T07:38:16Z</time>
      </trkpt>
      <trkpt lat="46.52158" lon="4.51629">
        <ele>263.695</ele>
        <time>2022-09-20T07:38:22Z</time>
      </trkpt>
      <trkpt lat="46.52153" lon="4.51636">
        <ele>265.095</ele>
        <time>2022-09-20T07:38:27Z</time>
      </trkpt>
      <trkpt lat="46.5215" lon="4.51646">
        <ele>265.495</ele>
        <time>2022-09-20T07:38:32Z</time>
      </trkpt>
      <trkpt lat="46.52145" lon="4.51654">
        <ele>264.995</ele>
        <time>2022-09-20T07:38:38Z</time>
      </trkpt>
      <trkpt lat="46.52141" lon="4.51664">
        <ele>265.595</ele>
        <time>2022-09-20T07:38:45Z</time>
      </trkpt>
      <trkpt lat="46.52138" lon="4.51672">
        <ele>263.795</ele>
        <time>2022-09-20T07:38:50Z</time>
      </trkpt>
      <trkpt lat="46.52133" lon="4.5168">
        <ele>262.395</ele>
        <time>2022-09-20T07:38:55Z</time>
      </trkpt>
      <trkpt lat="46.52126" lon="4.51684">
        <ele>260.595</ele>
        <time>2022-09-20T07:39:00Z</time>
      </trkpt>
      <trkpt lat="46.52119" lon="4.51692">
        <ele>258.895</ele>
        <time>2022-09-20T07:39:06Z</time>
      </trkpt>
      <trkpt lat="46.52113" lon="4.51697">
        <ele>258.395</ele>
        <time>2022-09-20T07:39:11Z</time>
      </trkpt>
      <trkpt lat="46.52107" lon="4.51703">
        <ele>257.995</ele>
        <time>2022-09-20T07:39:16Z</time>
      </trkpt>
      <trkpt lat="46.52101" lon="4.51707">
        <ele>260.195</ele>
        <time>2022-09-20T07:39:21Z</time>
      </trkpt>
      <trkpt lat="46.52093" lon="4.51711">
        <ele>260.295</ele>
        <time>2022-09-20T07:39:26Z</time>
      </trkpt>
      <trkpt lat="46.52086" lon="4.51713">
        <ele>258.895</ele>
        <time>2022-09-20T07:39:33Z</time>
      </trkpt>
      <trkpt lat="46.5208" lon="4.51719">
        <ele>257.994</ele>
        <time>2022-09-20T07:39:39Z</time>
      </trkpt>
      <trkpt lat="46.52073" lon="4.51724">
        <ele>257.794</ele>
        <time>2022-09-20T07:39:44Z</time>
      </trkpt>
      <trkpt lat="46.52067" lon="4.51731">
        <ele>257.494</ele>
        <time>2022-09-20T07:39:50Z</time>
      </trkpt>
      <trkpt lat="46.52061" lon="4.51738">
        <ele>258.994</ele>
        <time>2022-09-20T07:39:55Z</time>
      </trkpt>
      <trkpt lat="46.52056" lon="4.51743">
        <ele>259.294</ele>
        <time>2022-09-20T07:40:00Z</time>
      </trkpt>
      <trkpt lat="46.5205" lon="4.51749">
        <ele>259.294</ele>
        <time>2022-09-20T07:40:06Z</time>
      </trkpt>
      <trkpt lat="46.52045" lon="4.51755">
        <ele>258.894</ele>
        <time>2022-09-20T07:40:11Z</time>
      </trkpt>
      <trkpt lat="46.52038" lon="4.5176">
        <ele>255.694</ele>
        <time>2022-09-20T07:40:16Z</time>
      </trkpt>
      <trkpt lat="46.52031" lon="4.51762">
        <ele>256.394</ele>
        <time>2022-09-20T07:40:21Z</time>
      </trkpt>
      <trkpt lat="46.52023" lon="4.51764">
        <ele>255.194</ele>
        <time>2022-09-20T07:40:27Z</time>
      </trkpt>
      <trkpt lat="46.52015" lon="4.51764">
        <ele>254.194</ele>
        <time>2022-09-20T07:40:32Z</time>
      </trkpt>
      <trkpt lat="46.52005" lon="4.51765">
        <ele>254.894</ele>
        <time>2022-09-20T07:40:38Z</time>
      </trkpt>
      <trkpt lat="46.51998" lon="4.51769">
        <ele>253.494</ele>
        <time>2022-09-20T07:40:44Z</time>
      </trkpt>
      <trkpt lat="46.51986" lon="4.51773">
        <ele>253.294</ele>
        <time>2022-09-20T07:40:53Z</time>
      </trkpt>
      <trkpt lat="46.51979" lon="4.51776">
        <ele>252.094</ele>
        <time>2022-09-20T07:40:59Z</time>
      </trkpt>
      <trkpt lat="46.5197" lon="4.51785">
        <ele>253.094</ele>
        <time>2022-09-20T07:41:05Z</time>
      </trkpt>
      <trkpt lat="46.51964" lon="4.5179">
        <ele>253.694</ele>
        <time>2022-09-20T07:41:11Z</time>
      </trkpt>
      <trkpt lat="46.51957" lon="4.51796">
        <ele>252.094</ele>
        <time>2022-09-20T07:41:17Z</time>
      </trkpt>
      <trkpt lat="46.51951" lon="4.51801">
        <ele>252.294</ele>
        <time>2022-09-20T07:41:22Z</time>
      </trkpt>
      <trkpt lat="46.51945" lon="4.51803">
        <ele>253.094</ele>
        <time>2022-09-20T07:41:27Z</time>
      </trkpt>
      <trkpt lat="46.51936" lon="4.51807">
        <ele>251.894</ele>
        <time>2022-09-20T07:41:33Z</time>
      </trkpt>
      <trkpt lat="46.5193" lon="4.5181">
        <ele>253.694</ele>
        <time>2022-09-20T07:41:40Z</time>
      </trkpt>
      <trkpt lat="46.51923" lon="4.51814">
        <ele>255.294</ele>
        <time>2022-09-20T07:41:48Z</time>
      </trkpt>
      <trkpt lat="46.51917" lon="4.51808">
        <ele>258.594</ele>
        <time>2022-09-20T07:42:20Z</time>
      </trkpt>
      <trkpt lat="46.5191" lon="4.51807">
        <ele>258.594</ele>
        <time>2022-09-20T07:42:26Z</time>
      </trkpt>
      <trkpt lat="46.51903" lon="4.51806">
        <ele>259.694</ele>
        <time>2022-09-20T07:42:32Z</time>
      </trkpt>
      <trkpt lat="46.51895" lon="4.51801">
        <ele>259.594</ele>
        <time>2022-09-20T07:42:37Z</time>
      </trkpt>
      <trkpt lat="46.51888" lon="4.51796">
        <ele>258.394</ele>
        <time>2022-09-20T07:42:42Z</time>
      </trkpt>
      <trkpt lat="46.51883" lon="4.51789">
        <ele>264.094</ele>
        <time>2022-09-20T07:42:49Z</time>
      </trkpt>
      <trkpt lat="46.51877" lon="4.51786">
        <ele>265.894</ele>
        <time>2022-09-20T07:42:59Z</time>
      </trkpt>
      <trkpt lat="46.51868" lon="4.51784">
        <ele>267.894</ele>
        <time>2022-09-20T07:43:05Z</time>
      </trkpt>
      <trkpt lat="46.51858" lon="4.51779">
        <ele>268.494</ele>
        <time>2022-09-20T07:43:10Z</time>
      </trkpt>
      <trkpt lat="46.51851" lon="4.51775">
        <ele>268.094</ele>
        <time>2022-09-20T07:43:17Z</time>
      </trkpt>
      <trkpt lat="46.51845" lon="4.51774">
        <ele>266.394</ele>
        <time>2022-09-20T07:43:23Z</time>
      </trkpt>
      <trkpt lat="46.51837" lon="4.51772">
        <ele>265.194</ele>
        <time>2022-09-20T07:43:29Z</time>
      </trkpt>
      <trkpt lat="46.5183" lon="4.51768">
        <ele>263.794</ele>
        <time>2022-09-20T07:43:36Z</time>
      </trkpt>
      <trkpt lat="46.51823" lon="4.51766">
        <ele>262.194</ele>
        <time>2022-09-20T07:43:43Z</time>
      </trkpt>
      <trkpt lat="46.51815" lon="4.51762">
        <ele>262.694</ele>
        <time>2022-09-20T07:43:49Z</time>
      </trkpt>
      <trkpt lat="46.51808" lon="4.51759">
        <ele>264.494</ele>
        <time>2022-09-20T07:43:55Z</time>
      </trkpt>
      <trkpt lat="46.51802" lon="4.51753">
        <ele>265.694</ele>
        <time>2022-09-20T07:44:01Z</time>
      </trkpt>
      <trkpt lat="46.51796" lon="4.51746">
        <ele>265.494</ele>
        <time>2022-09-20T07:44:06Z</time>
      </trkpt>
      <trkpt lat="46.51791" lon="4.51738">
        <ele>267.094</ele>
        <time>2022-09-20T07:44:11Z</time>
      </trkpt>
      <trkpt lat="46.51785" lon="4.51732">
        <ele>267.694</ele>
        <time>2022-09-20T07:44:17Z</time>
      </trkpt>
      <trkpt lat="46.51779" lon="4.5173">
        <ele>267.194</ele>
        <time>2022-09-20T07:44:22Z</time>
      </trkpt>
      <trkpt lat="46.51772" lon="4.51726">
        <ele>266.494</ele>
        <time>2022-09-20T07:44:28Z</time>
      </trkpt>
      <trkpt lat="46.51765" lon="4.51722">
        <ele>264.994</ele>
        <time>2022-09-20T07:44:33Z</time>
      </trkpt>
      <trkpt lat="46.51759" lon="4.51716">
        <ele>265.794</ele>
        <time>2022-09-20T07:44:38Z</time>
      </trkpt>
      <trkpt lat="46.51752" lon="4.51711">
        <ele>266.494</ele>
        <time>2022-09-20T07:44:44Z</time>
      </trkpt>
      <trkpt lat="46.51747" lon="4.51706">
        <ele>266.094</ele>
        <time>2022-09-20T07:44:51Z</time>
      </trkpt>
      <trkpt lat="46.5174" lon="4.51702">
        <ele>267.094</ele>
        <time>2022-09-20T07:44:58Z</time>
      </trkpt>
      <trkpt lat="46.51733" lon="4.51699">
        <ele>269.594</ele>
        <time>2022-09-20T07:45:04Z</time>
      </trkpt>
      <trkpt lat="46.51725" lon="4.51696">
        <ele>270.994</ele>
        <time>2022-09-20T07:45:10Z</time>
      </trkpt>
      <trkpt lat="46.51718" lon="4.51691">
        <ele>272.193</ele>
        <time>2022-09-20T07:45:15Z</time>
      </trkpt>
      <trkpt lat="46.5171" lon="4.51686">
        <ele>271.293</ele>
        <time>2022-09-20T07:45:21Z</time>
      </trkpt>
      <trkpt lat="46.51703" lon="4.51681">
        <ele>270.193</ele>
        <time>2022-09-20T07:45:27Z</time>
      </trkpt>
      <trkpt lat="46.51696" lon="4.51679">
        <ele>270.993</ele>
        <time>2022-09-20T07:45:34Z</time>
      </trkpt>
      <trkpt lat="46.51689" lon="4.51677">
        <ele>269.193</ele>
        <time>2022-09-20T07:45:40Z</time>
      </trkpt>
      <trkpt lat="46.51683" lon="4.51673">
        <ele>269.193</ele>
        <time>2022-09-20T07:45:45Z</time>
      </trkpt>
      <trkpt lat="46.51677" lon="4.51669">
        <ele>270.693</ele>
        <time>2022-09-20T07:45:50Z</time>
      </trkpt>
      <trkpt lat="46.51671" lon="4.51665">
        <ele>270.993</ele>
        <time>2022-09-20T07:45:55Z</time>
      </trkpt>
      <trkpt lat="46.51664" lon="4.51664">
        <ele>271.693</ele>
        <time>2022-09-20T07:46:01Z</time>
      </trkpt>
      <trkpt lat="46.51657" lon="4.51662">
        <ele>271.893</ele>
        <time>2022-09-20T07:46:07Z</time>
      </trkpt>
      <trkpt lat="46.51651" lon="4.51662">
        <ele>271.093</ele>
        <time>2022-09-20T07:46:14Z</time>
      </trkpt>
      <trkpt lat="46.51644" lon="4.51658">
        <ele>269.493</ele>
        <time>2022-09-20T07:46:21Z</time>
      </trkpt>
      <trkpt lat="46.51639" lon="4.51651">
        <ele>268.693</ele>
        <time>2022-09-20T07:46:26Z</time>
      </trkpt>
      <trkpt lat="46.51633" lon="4.51644">
        <ele>270.893</ele>
        <time>2022-09-20T07:46:31Z</time>
      </trkpt>
      <trkpt lat="46.51626" lon="4.51638">
        <ele>272.093</ele>
        <time>2022-09-20T07:46:37Z</time>
      </trkpt>
      <trkpt lat="46.51621" lon="4.51632">
        <ele>272.193</ele>
        <time>2022-09-20T07:46:42Z</time>
      </trkpt>
      <trkpt lat="46.51615" lon="4.51625">
        <ele>272.893</ele>
        <time>2022-09-20T07:46:49Z</time>
      </trkpt>
      <trkpt lat="46.5161" lon="4.51617">
        <ele>274.593</ele>
        <time>2022-09-20T07:46:55Z</time>
      </trkpt>
      <trkpt lat="46.51609" lon="4.51607">
        <ele>279.693</ele>
        <time>2022-09-20T07:47:03Z</time>
      </trkpt>
      <trkpt lat="46.5161" lon="4.51597">
        <ele>279.993</ele>
        <time>2022-09-20T07:47:09Z</time>
      </trkpt>
      <trkpt lat="46.51614" lon="4.51587">
        <ele>280.193</ele>
        <time>2022-09-20T07:47:15Z</time>
      </trkpt>
      <trkpt lat="46.51616" lon="4.51577">
        <ele>279.593</ele>
        <time>2022-09-20T07:47:20Z</time>
      </trkpt>
      <trkpt lat="46.51618" lon="4.51568">
        <ele>277.693</ele>
        <time>2022-09-20T07:47:25Z</time>
      </trkpt>
      <trkpt lat="46.51621" lon="4.51558">
        <ele>278.693</ele>
        <time>2022-09-20T07:47:31Z</time>
      </trkpt>
      <trkpt lat="46.51624" lon="4.51548">
        <ele>280.893</ele>
        <time>2022-09-20T07:47:38Z</time>
      </trkpt>
      <trkpt lat="46.51629" lon="4.5154">
        <ele>281.393</ele>
        <time>2022-09-20T07:47:43Z</time>
      </trkpt>
      <trkpt lat="46.51633" lon="4.51531">
        <ele>282.293</ele>
        <time>2022-09-20T07:47:50Z</time>
      </trkpt>
      <trkpt lat="46.51637" lon="4.51524">
        <ele>282.093</ele>
        <time>2022-09-20T07:47:56Z</time>
      </trkpt>
      <trkpt lat="46.51643" lon="4.51517">
        <ele>284.093</ele>
        <time>2022-09-20T07:48:01Z</time>
      </trkpt>
      <trkpt lat="46.51649" lon="4.5151">
        <ele>285.393</ele>
        <time>2022-09-20T07:48:08Z</time>
      </trkpt>
      <trkpt lat="46.51651" lon="4.515">
        <ele>284.093</ele>
        <time>2022-09-20T07:48:13Z</time>
      </trkpt>
      <trkpt lat="46.51655" lon="4.51492">
        <ele>282.993</ele>
        <time>2022-09-20T07:48:18Z</time>
      </trkpt>
      <trkpt lat="46.5166" lon="4.51483">
        <ele>282.093</ele>
        <time>2022-09-20T07:48:23Z</time>
      </trkpt>
      <trkpt lat="46.51665" lon="4.51475">
        <ele>280.293</ele>
        <time>2022-09-20T07:48:29Z</time>
      </trkpt>
      <trkpt lat="46.51667" lon="4.51465">
        <ele>279.393</ele>
        <time>2022-09-20T07:48:34Z</time>
      </trkpt>
      <trkpt lat="46.51669" lon="4.51455">
        <ele>278.293</ele>
        <time>2022-09-20T07:48:40Z</time>
      </trkpt>
      <trkpt lat="46.51672" lon="4.51445">
        <ele>278.093</ele>
        <time>2022-09-20T07:48:45Z</time>
      </trkpt>
      <trkpt lat="46.51674" lon="4.51434">
        <ele>278.593</ele>
        <time>2022-09-20T07:48:51Z</time>
      </trkpt>
      <trkpt lat="46.51679" lon="4.51422">
        <ele>283.693</ele>
        <time>2022-09-20T07:48:57Z</time>
      </trkpt>
      <trkpt lat="46.51681" lon="4.51413">
        <ele>284.993</ele>
        <time>2022-09-20T07:49:02Z</time>
      </trkpt>
      <trkpt lat="46.51685" lon="4.51402">
        <ele>283.893</ele>
        <time>2022-09-20T07:49:07Z</time>
      </trkpt>
      <trkpt lat="46.5169" lon="4.51391">
        <ele>284.193</ele>
        <time>2022-09-20T07:49:13Z</time>
      </trkpt>
      <trkpt lat="46.51694" lon="4.51382">
        <ele>282.093</ele>
        <time>2022-09-20T07:49:18Z</time>
      </trkpt>
      <trkpt lat="46.51695" lon="4.51372">
        <ele>281.993</ele>
        <time>2022-09-20T07:49:24Z</time>
      </trkpt>
      <trkpt lat="46.51695" lon="4.5136">
        <ele>281.693</ele>
        <time>2022-09-20T07:49:29Z</time>
      </trkpt>
      <trkpt lat="46.51694" lon="4.5135">
        <ele>279.893</ele>
        <time>2022-09-20T07:49:34Z</time>
      </trkpt>
      <trkpt lat="46.51693" lon="4.5134">
        <ele>277.593</ele>
        <time>2022-09-20T07:49:39Z</time>
      </trkpt>
      <trkpt lat="46.51694" lon="4.51327">
        <ele>279.193</ele>
        <time>2022-09-20T07:49:45Z</time>
      </trkpt>
      <trkpt lat="46.51696" lon="4.51318">
        <ele>279.093</ele>
        <time>2022-09-20T07:49:50Z</time>
      </trkpt>
      <trkpt lat="46.51696" lon="4.51309">
        <ele>280.193</ele>
        <time>2022-09-20T07:49:55Z</time>
      </trkpt>
      <trkpt lat="46.51695" lon="4.51299">
        <ele>279.393</ele>
        <time>2022-09-20T07:50:02Z</time>
      </trkpt>
      <trkpt lat="46.51689" lon="4.51293">
        <ele>279.393</ele>
        <time>2022-09-20T07:50:07Z</time>
      </trkpt>
      <trkpt lat="46.51684" lon="4.51287">
        <ele>278.793</ele>
        <time>2022-09-20T07:50:14Z</time>
      </trkpt>
      <trkpt lat="46.51677" lon="4.51284">
        <ele>278.593</ele>
        <time>2022-09-20T07:50:19Z</time>
      </trkpt>
      <trkpt lat="46.51672" lon="4.51278">
        <ele>280.693</ele>
        <time>2022-09-20T07:50:24Z</time>
      </trkpt>
      <trkpt lat="46.51665" lon="4.51274">
        <ele>282.093</ele>
        <time>2022-09-20T07:50:31Z</time>
      </trkpt>
      <trkpt lat="46.51659" lon="4.5127">
        <ele>282.493</ele>
        <time>2022-09-20T07:50:36Z</time>
      </trkpt>
      <trkpt lat="46.51652" lon="4.51265">
        <ele>284.293</ele>
        <time>2022-09-20T07:50:42Z</time>
      </trkpt>
      <trkpt lat="46.51646" lon="4.51261">
        <ele>284.693</ele>
        <time>2022-09-20T07:50:48Z</time>
      </trkpt>
      <trkpt lat="46.5164" lon="4.51255">
        <ele>285.793</ele>
        <time>2022-09-20T07:50:55Z</time>
      </trkpt>
      <trkpt lat="46.51633" lon="4.51251">
        <ele>288.093</ele>
        <time>2022-09-20T07:51:00Z</time>
      </trkpt>
      <trkpt lat="46.51626" lon="4.51244">
        <ele>290.393</ele>
        <time>2022-09-20T07:51:06Z</time>
      </trkpt>
      <trkpt lat="46.5162" lon="4.51238">
        <ele>290.193</ele>
        <time>2022-09-20T07:51:12Z</time>
      </trkpt>
      <trkpt lat="46.51615" lon="4.51232">
        <ele>290.193</ele>
        <time>2022-09-20T07:51:18Z</time>
      </trkpt>
      <trkpt lat="46.51609" lon="4.51225">
        <ele>288.393</ele>
        <time>2022-09-20T07:51:24Z</time>
      </trkpt>
      <trkpt lat="46.51604" lon="4.51218">
        <ele>286.093</ele>
        <time>2022-09-20T07:51:30Z</time>
      </trkpt>
      <trkpt lat="46.51598" lon="4.51213">
        <ele>285.293</ele>
        <time>2022-09-20T07:51:38Z</time>
      </trkpt>
      <trkpt lat="46.51592" lon="4.51207">
        <ele>283.593</ele>
        <time>2022-09-20T07:51:43Z</time>
      </trkpt>
      <trkpt lat="46.51586" lon="4.512">
        <ele>283.593</ele>
        <time>2022-09-20T07:51:48Z</time>
      </trkpt>
      <trkpt lat="46.51579" lon="4.5119">
        <ele>284.693</ele>
        <time>2022-09-20T07:51:54Z</time>
      </trkpt>
      <trkpt lat="46.51573" lon="4.51183">
        <ele>285.393</ele>
        <time>2022-09-20T07:51:59Z</time>
      </trkpt>
      <trkpt lat="46.51568" lon="4.51177">
        <ele>284.893</ele>
        <time>2022-09-20T07:52:04Z</time>
      </trkpt>
      <trkpt lat="46.51562" lon="4.51167">
        <ele>284.093</ele>
        <time>2022-09-20T07:52:10Z</time>
      </trkpt>
      <trkpt lat="46.51555" lon="4.5116">
        <ele>284.193</ele>
        <time>2022-09-20T07:52:17Z</time>
      </trkpt>
      <trkpt lat="46.51549" lon="4.51154">
        <ele>283.393</ele>
        <time>2022-09-20T07:52:23Z</time>
      </trkpt>
      <trkpt lat="46.51543" lon="4.51144">
        <ele>284.593</ele>
        <time>2022-09-20T07:52:28Z</time>
      </trkpt>
      <trkpt lat="46.51536" lon="4.51133">
        <ele>286.393</ele>
        <time>2022-09-20T07:52:34Z</time>
      </trkpt>
      <trkpt lat="46.51532" lon="4.51123">
        <ele>287.793</ele>
        <time>2022-09-20T07:52:40Z</time>
      </trkpt>
      <trkpt lat="46.51527" lon="4.51116">
        <ele>288.493</ele>
        <time>2022-09-20T07:52:46Z</time>
      </trkpt>
      <trkpt lat="46.5152" lon="4.51111">
        <ele>290.593</ele>
        <time>2022-09-20T07:52:52Z</time>
      </trkpt>
      <trkpt lat="46.51512" lon="4.51108">
        <ele>291.392</ele>
        <time>2022-09-20T07:52:58Z</time>
      </trkpt>
      <trkpt lat="46.51505" lon="4.51108">
        <ele>293.592</ele>
        <time>2022-09-20T07:56:00Z</time>
      </trkpt>
      <trkpt lat="46.51504" lon="4.51119">
        <ele>291.592</ele>
        <time>2022-09-20T07:56:14Z</time>
      </trkpt>
      <trkpt lat="46.51501" lon="4.51128">
        <ele>291.692</ele>
        <time>2022-09-20T07:56:23Z</time>
      </trkpt>
      <trkpt lat="46.51496" lon="4.51135">
        <ele>293.792</ele>
        <time>2022-09-20T07:56:32Z</time>
      </trkpt>
      <trkpt lat="46.51493" lon="4.51144">
        <ele>295.892</ele>
        <time>2022-09-20T07:56:38Z</time>
      </trkpt>
      <trkpt lat="46.51489" lon="4.51153">
        <ele>297.692</ele>
        <time>2022-09-20T07:56:44Z</time>
      </trkpt>
      <trkpt lat="46.51486" lon="4.51161">
        <ele>298.192</ele>
        <time>2022-09-20T07:56:50Z</time>
      </trkpt>
      <trkpt lat="46.51483" lon="4.5117">
        <ele>298.292</ele>
        <time>2022-09-20T07:56:56Z</time>
      </trkpt>
      <trkpt lat="46.51479" lon="4.51179">
        <ele>298.192</ele>
        <time>2022-09-20T07:57:01Z</time>
      </trkpt>
      <trkpt lat="46.51478" lon="4.51189">
        <ele>299.292</ele>
        <time>2022-09-20T07:57:06Z</time>
      </trkpt>
      <trkpt lat="46.51474" lon="4.51197">
        <ele>299.992</ele>
        <time>2022-09-20T07:57:12Z</time>
      </trkpt>
      <trkpt lat="46.51469" lon="4.51204">
        <ele>300.092</ele>
        <time>2022-09-20T07:57:18Z</time>
      </trkpt>
      <trkpt lat="46.51465" lon="4.51213">
        <ele>298.492</ele>
        <time>2022-09-20T07:57:24Z</time>
      </trkpt>
      <trkpt lat="46.51461" lon="4.5122">
        <ele>297.292</ele>
        <time>2022-09-20T07:57:30Z</time>
      </trkpt>
      <trkpt lat="46.51458" lon="4.5123">
        <ele>297.192</ele>
        <time>2022-09-20T07:57:36Z</time>
      </trkpt>
      <trkpt lat="46.51453" lon="4.51236">
        <ele>297.892</ele>
        <time>2022-09-20T07:57:41Z</time>
      </trkpt>
      <trkpt lat="46.5145" lon="4.51246">
        <ele>298.592</ele>
        <time>2022-09-20T07:57:47Z</time>
      </trkpt>
      <trkpt lat="46.51447" lon="4.51254">
        <ele>300.492</ele>
        <time>2022-09-20T07:57:54Z</time>
      </trkpt>
      <trkpt lat="46.51442" lon="4.51262">
        <ele>302.992</ele>
        <time>2022-09-20T07:57:59Z</time>
      </trkpt>
      <trkpt lat="46.51438" lon="4.5127">
        <ele>301.692</ele>
        <time>2022-09-20T07:58:06Z</time>
      </trkpt>
      <trkpt lat="46.51433" lon="4.5128">
        <ele>301.292</ele>
        <time>2022-09-20T07:58:12Z</time>
      </trkpt>
      <trkpt lat="46.51428" lon="4.51289">
        <ele>302.592</ele>
        <time>2022-09-20T07:58:18Z</time>
      </trkpt>
      <trkpt lat="46.51424" lon="4.51297">
        <ele>304.892</ele>
        <time>2022-09-20T07:58:23Z</time>
      </trkpt>
      <trkpt lat="46.5142" lon="4.51305">
        <ele>304.692</ele>
        <time>2022-09-20T07:58:29Z</time>
      </trkpt>
      <trkpt lat="46.51416" lon="4.51314">
        <ele>304.792</ele>
        <time>2022-09-20T07:58:35Z</time>
      </trkpt>
      <trkpt lat="46.51413" lon="4.51323">
        <ele>304.992</ele>
        <time>2022-09-20T07:58:40Z</time>
      </trkpt>
      <trkpt lat="46.51406" lon="4.51332">
        <ele>306.392</ele>
        <time>2022-09-20T07:58:46Z</time>
      </trkpt>
      <trkpt lat="46.51402" lon="4.51339">
        <ele>305.992</ele>
        <time>2022-09-20T07:58:52Z</time>
      </trkpt>
      <trkpt lat="46.51397" lon="4.51346">
        <ele>306.792</ele>
        <time>2022-09-20T07:58:58Z</time>
      </trkpt>
      <trkpt lat="46.51392" lon="4.51354">
        <ele>306.292</ele>
        <time>2022-09-20T07:59:04Z</time>
      </trkpt>
      <trkpt lat="46.51386" lon="4.5136">
        <ele>306.992</ele>
        <time>2022-09-20T07:59:10Z</time>
      </trkpt>
      <trkpt lat="46.5138" lon="4.51364">
        <ele>305.492</ele>
        <time>2022-09-20T07:59:15Z</time>
      </trkpt>
      <trkpt lat="46.51376" lon="4.51373">
        <ele>306.592</ele>
        <time>2022-09-20T07:59:20Z</time>
      </trkpt>
      <trkpt lat="46.51371" lon="4.5138">
        <ele>306.792</ele>
        <time>2022-09-20T07:59:27Z</time>
      </trkpt>
      <trkpt lat="46.51365" lon="4.51386">
        <ele>308.592</ele>
        <time>2022-09-20T07:59:33Z</time>
      </trkpt>
      <trkpt lat="46.51359" lon="4.51391">
        <ele>307.792</ele>
        <time>2022-09-20T07:59:39Z</time>
      </trkpt>
      <trkpt lat="46.51355" lon="4.51398">
        <ele>307.192</ele>
        <time>2022-09-20T07:59:45Z</time>
      </trkpt>
      <trkpt lat="46.51346" lon="4.51414">
        <ele>323.392</ele>
        <time>2022-09-20T07:59:50Z</time>
      </trkpt>
      <trkpt lat="46.51342" lon="4.51423">
        <ele>325.192</ele>
        <time>2022-09-20T07:59:56Z</time>
      </trkpt>
      <trkpt lat="46.51337" lon="4.5143">
        <ele>326.192</ele>
        <time>2022-09-20T08:00:02Z</time>
      </trkpt>
      <trkpt lat="46.51332" lon="4.51437">
        <ele>325.692</ele>
        <time>2022-09-20T08:00:07Z</time>
      </trkpt>
      <trkpt lat="46.51326" lon="4.51444">
        <ele>325.692</ele>
        <time>2022-09-20T08:00:12Z</time>
      </trkpt>
      <trkpt lat="46.51321" lon="4.5145">
        <ele>323.392</ele>
        <time>2022-09-20T08:00:18Z</time>
      </trkpt>
      <trkpt lat="46.51317" lon="4.51458">
        <ele>322.092</ele>
        <time>2022-09-20T08:00:24Z</time>
      </trkpt>
      <trkpt lat="46.5131" lon="4.51467">
        <ele>319.892</ele>
        <time>2022-09-20T08:00:30Z</time>
      </trkpt>
      <trkpt lat="46.51303" lon="4.51478">
        <ele>316.892</ele>
        <time>2022-09-20T08:00:35Z</time>
      </trkpt>
      <trkpt lat="46.51298" lon="4.51487">
        <ele>314.192</ele>
        <time>2022-09-20T08:00:40Z</time>
      </trkpt>
      <trkpt lat="46.51293" lon="4.51495">
        <ele>311.192</ele>
        <time>2022-09-20T08:00:47Z</time>
      </trkpt>
      <trkpt lat="46.51291" lon="4.51504">
        <ele>311.392</ele>
        <time>2022-09-20T08:00:52Z</time>
      </trkpt>
      <trkpt lat="46.51287" lon="4.51518">
        <ele>310.892</ele>
        <time>2022-09-20T08:00:58Z</time>
      </trkpt>
      <trkpt lat="46.51283" lon="4.51528">
        <ele>312.092</ele>
        <time>2022-09-20T08:01:03Z</time>
      </trkpt>
      <trkpt lat="46.5128" lon="4.51539">
        <ele>311.892</ele>
        <time>2022-09-20T08:01:08Z</time>
      </trkpt>
      <trkpt lat="46.51279" lon="4.51552">
        <ele>312.692</ele>
        <time>2022-09-20T08:01:14Z</time>
      </trkpt>
      <trkpt lat="46.5128" lon="4.51562">
        <ele>313.892</ele>
        <time>2022-09-20T08:01:20Z</time>
      </trkpt>
      <trkpt lat="46.51278" lon="4.51578">
        <ele>316.792</ele>
        <time>2022-09-20T08:01:26Z</time>
      </trkpt>
      <trkpt lat="46.51278" lon="4.51589">
        <ele>318.292</ele>
        <time>2022-09-20T08:01:31Z</time>
      </trkpt>
      <trkpt lat="46.51278" lon="4.51598">
        <ele>317.692</ele>
        <time>2022-09-20T08:01:38Z</time>
      </trkpt>
      <trkpt lat="46.51279" lon="4.51608">
        <ele>318.192</ele>
        <time>2022-09-20T08:01:43Z</time>
      </trkpt>
      <trkpt lat="46.51281" lon="4.51618">
        <ele>317.492</ele>
        <time>2022-09-20T08:01:49Z</time>
      </trkpt>
      <trkpt lat="46.51283" lon="4.51628">
        <ele>316.592</ele>
        <time>2022-09-20T08:01:55Z</time>
      </trkpt>
      <trkpt lat="46.51287" lon="4.51637">
        <ele>315.892</ele>
        <time>2022-09-20T08:02:01Z</time>
      </trkpt>
      <trkpt lat="46.51289" lon="4.51648">
        <ele>315.992</ele>
        <time>2022-09-20T08:02:06Z</time>
      </trkpt>
      <trkpt lat="46.51291" lon="4.51657">
        <ele>315.792</ele>
        <time>2022-09-20T08:02:11Z</time>
      </trkpt>
      <trkpt lat="46.51293" lon="4.51669">
        <ele>316.592</ele>
        <time>2022-09-20T08:02:16Z</time>
      </trkpt>
      <trkpt lat="46.51296" lon="4.51684">
        <ele>317.692</ele>
        <time>2022-09-20T08:02:22Z</time>
      </trkpt>
      <trkpt lat="46.51296" lon="4.51694">
        <ele>317.892</ele>
        <time>2022-09-20T08:02:27Z</time>
      </trkpt>
      <trkpt lat="46.51298" lon="4.51703">
        <ele>317.892</ele>
        <time>2022-09-20T08:02:32Z</time>
      </trkpt>
      <trkpt lat="46.51301" lon="4.51713">
        <ele>317.092</ele>
        <time>2022-09-20T08:02:38Z</time>
      </trkpt>
      <trkpt lat="46.51304" lon="4.51723">
        <ele>314.192</ele>
        <time>2022-09-20T08:02:44Z</time>
      </trkpt>
      <trkpt lat="46.51306" lon="4.51734">
        <ele>312.192</ele>
        <time>2022-09-20T08:02:50Z</time>
      </trkpt>
      <trkpt lat="46.51306" lon="4.51744">
        <ele>310.792</ele>
        <time>2022-09-20T08:02:55Z</time>
      </trkpt>
      <trkpt lat="46.51307" lon="4.51757">
        <ele>309.592</ele>
        <time>2022-09-20T08:03:00Z</time>
      </trkpt>
      <trkpt lat="46.51309" lon="4.51767">
        <ele>306.792</ele>
        <time>2022-09-20T08:03:06Z</time>
      </trkpt>
      <trkpt lat="46.51311" lon="4.51777">
        <ele>305.792</ele>
        <time>2022-09-20T08:03:12Z</time>
      </trkpt>
      <trkpt lat="46.51313" lon="4.51789">
        <ele>303.492</ele>
        <time>2022-09-20T08:03:18Z</time>
      </trkpt>
      <trkpt lat="46.51315" lon="4.51799">
        <ele>303.192</ele>
        <time>2022-09-20T08:03:24Z</time>
      </trkpt>
      <trkpt lat="46.51317" lon="4.51813">
        <ele>303.292</ele>
        <time>2022-09-20T08:03:30Z</time>
      </trkpt>
      <trkpt lat="46.5132" lon="4.51823">
        <ele>302.692</ele>
        <time>2022-09-20T08:03:35Z</time>
      </trkpt>
      <trkpt lat="46.51324" lon="4.51832">
        <ele>301.793</ele>
        <time>2022-09-20T08:03:40Z</time>
      </trkpt>
      <trkpt lat="46.51329" lon="4.51843">
        <ele>301.293</ele>
        <time>2022-09-20T08:03:46Z</time>
      </trkpt>
      <trkpt lat="46.51333" lon="4.5185">
        <ele>301.593</ele>
        <time>2022-09-20T08:03:51Z</time>
      </trkpt>
      <trkpt lat="46.51338" lon="4.51858">
        <ele>302.993</ele>
        <time>2022-09-20T08:03:56Z</time>
      </trkpt>
      <trkpt lat="46.51345" lon="4.51867">
        <ele>303.493</ele>
        <time>2022-09-20T08:04:02Z</time>
      </trkpt>
      <trkpt lat="46.5135" lon="4.51873">
        <ele>303.293</ele>
        <time>2022-09-20T08:04:07Z</time>
      </trkpt>
      <trkpt lat="46.51355" lon="4.51881">
        <ele>304.593</ele>
        <time>2022-09-20T08:04:13Z</time>
      </trkpt>
      <trkpt lat="46.5136" lon="4.51891">
        <ele>305.293</ele>
        <time>2022-09-20T08:04:18Z</time>
      </trkpt>
      <trkpt lat="46.51366" lon="4.51897">
        <ele>305.293</ele>
        <time>2022-09-20T08:04:25Z</time>
      </trkpt>
      <trkpt lat="46.51371" lon="4.51906">
        <ele>305.393</ele>
        <time>2022-09-20T08:04:30Z</time>
      </trkpt>
      <trkpt lat="46.51376" lon="4.51914">
        <ele>305.993</ele>
        <time>2022-09-20T08:04:36Z</time>
      </trkpt>
      <trkpt lat="46.51379" lon="4.51923">
        <ele>306.093</ele>
        <time>2022-09-20T08:04:42Z</time>
      </trkpt>
      <trkpt lat="46.51383" lon="4.51934">
        <ele>307.593</ele>
        <time>2022-09-20T08:04:47Z</time>
      </trkpt>
      <trkpt lat="46.51386" lon="4.51943">
        <ele>308.193</ele>
        <time>2022-09-20T08:04:53Z</time>
      </trkpt>
      <trkpt lat="46.51388" lon="4.51953">
        <ele>307.693</ele>
        <time>2022-09-20T08:04:58Z</time>
      </trkpt>
      <trkpt lat="46.51391" lon="4.51962">
        <ele>305.593</ele>
        <time>2022-09-20T08:05:06Z</time>
      </trkpt>
      <trkpt lat="46.51391" lon="4.51974">
        <ele>304.393</ele>
        <time>2022-09-20T08:05:11Z</time>
      </trkpt>
      <trkpt lat="46.51394" lon="4.51985">
        <ele>304.793</ele>
        <time>2022-09-20T08:05:17Z</time>
      </trkpt>
      <trkpt lat="46.51395" lon="4.51994">
        <ele>303.993</ele>
        <time>2022-09-20T08:05:22Z</time>
      </trkpt>
      <trkpt lat="46.51399" lon="4.52004">
        <ele>304.993</ele>
        <time>2022-09-20T08:05:27Z</time>
      </trkpt>
      <trkpt lat="46.514" lon="4.52015">
        <ele>305.793</ele>
        <time>2022-09-20T08:05:33Z</time>
      </trkpt>
      <trkpt lat="46.51399" lon="4.52024">
        <ele>306.793</ele>
        <time>2022-09-20T08:05:38Z</time>
      </trkpt>
      <trkpt lat="46.514" lon="4.52034">
        <ele>308.393</ele>
        <time>2022-09-20T08:05:43Z</time>
      </trkpt>
      <trkpt lat="46.51399" lon="4.52044">
        <ele>308.693</ele>
        <time>2022-09-20T08:05:49Z</time>
      </trkpt>
      <trkpt lat="46.51396" lon="4.52054">
        <ele>308.593</ele>
        <time>2022-09-20T08:05:54Z</time>
      </trkpt>
      <trkpt lat="46.51395" lon="4.52064">
        <ele>307.693</ele>
        <time>2022-09-20T08:06:00Z</time>
      </trkpt>
      <trkpt lat="46.51395" lon="4.52076">
        <ele>308.093</ele>
        <time>2022-09-20T08:06:06Z</time>
      </trkpt>
      <trkpt lat="46.51394" lon="4.52087">
        <ele>307.293</ele>
        <time>2022-09-20T08:06:13Z</time>
      </trkpt>
      <trkpt lat="46.51392" lon="4.52098">
        <ele>308.693</ele>
        <time>2022-09-20T08:06:19Z</time>
      </trkpt>
      <trkpt lat="46.51392" lon="4.52109">
        <ele>309.493</ele>
        <time>2022-09-20T08:06:24Z</time>
      </trkpt>
      <trkpt lat="46.51392" lon="4.52121">
        <ele>309.593</ele>
        <time>2022-09-20T08:06:30Z</time>
      </trkpt>
      <trkpt lat="46.51391" lon="4.5213">
        <ele>309.893</ele>
        <time>2022-09-20T08:06:35Z</time>
      </trkpt>
      <trkpt lat="46.51389" lon="4.5214">
        <ele>310.993</ele>
        <time>2022-09-20T08:06:40Z</time>
      </trkpt>
      <trkpt lat="46.51387" lon="4.52152">
        <ele>311.993</ele>
        <time>2022-09-20T08:06:46Z</time>
      </trkpt>
      <trkpt lat="46.51386" lon="4.52162">
        <ele>313.693</ele>
        <time>2022-09-20T08:06:51Z</time>
      </trkpt>
      <trkpt lat="46.51387" lon="4.52174">
        <ele>314.593</ele>
        <time>2022-09-20T08:06:58Z</time>
      </trkpt>
      <trkpt lat="46.51385" lon="4.52185">
        <ele>317.193</ele>
        <time>2022-09-20T08:07:03Z</time>
      </trkpt>
      <trkpt lat="46.51384" lon="4.52194">
        <ele>317.393</ele>
        <time>2022-09-20T08:07:09Z</time>
      </trkpt>
      <trkpt lat="46.51383" lon="4.52208">
        <ele>320.093</ele>
        <time>2022-09-20T08:07:14Z</time>
      </trkpt>
      <trkpt lat="46.51383" lon="4.52219">
        <ele>322.793</ele>
        <time>2022-09-20T08:07:19Z</time>
      </trkpt>
      <trkpt lat="46.51386" lon="4.52228">
        <ele>324.093</ele>
        <time>2022-09-20T08:07:24Z</time>
      </trkpt>
      <trkpt lat="46.5139" lon="4.52238">
        <ele>324.793</ele>
        <time>2022-09-20T08:07:30Z</time>
      </trkpt>
      <trkpt lat="46.51393" lon="4.52247">
        <ele>326.393</ele>
        <time>2022-09-20T08:07:35Z</time>
      </trkpt>
      <trkpt lat="46.51396" lon="4.52258">
        <ele>326.793</ele>
        <time>2022-09-20T08:07:40Z</time>
      </trkpt>
      <trkpt lat="46.51399" lon="4.52267">
        <ele>326.693</ele>
        <time>2022-09-20T08:07:46Z</time>
      </trkpt>
      <trkpt lat="46.51402" lon="4.52278">
        <ele>325.993</ele>
        <time>2022-09-20T08:07:51Z</time>
      </trkpt>
      <trkpt lat="46.51405" lon="4.52287">
        <ele>325.693</ele>
        <time>2022-09-20T08:07:56Z</time>
      </trkpt>
      <trkpt lat="46.51409" lon="4.52295">
        <ele>324.493</ele>
        <time>2022-09-20T08:08:02Z</time>
      </trkpt>
      <trkpt lat="46.51412" lon="4.52305">
        <ele>323.493</ele>
        <time>2022-09-20T08:08:08Z</time>
      </trkpt>
      <trkpt lat="46.51411" lon="4.52318">
        <ele>323.693</ele>
        <time>2022-09-20T08:08:14Z</time>
      </trkpt>
      <trkpt lat="46.51413" lon="4.52327">
        <ele>324.493</ele>
        <time>2022-09-20T08:08:19Z</time>
      </trkpt>
      <trkpt lat="46.51416" lon="4.52337">
        <ele>323.393</ele>
        <time>2022-09-20T08:08:25Z</time>
      </trkpt>
      <trkpt lat="46.5142" lon="4.52348">
        <ele>322.993</ele>
        <time>2022-09-20T08:08:30Z</time>
      </trkpt>
      <trkpt lat="46.51423" lon="4.52357">
        <ele>321.593</ele>
        <time>2022-09-20T08:08:35Z</time>
      </trkpt>
      <trkpt lat="46.51426" lon="4.52367">
        <ele>320.793</ele>
        <time>2022-09-20T08:08:40Z</time>
      </trkpt>
      <trkpt lat="46.51434" lon="4.52371">
        <ele>319.893</ele>
        <time>2022-09-20T08:08:46Z</time>
      </trkpt>
      <trkpt lat="46.51441" lon="4.52375">
        <ele>319.293</ele>
        <time>2022-09-20T08:08:51Z</time>
      </trkpt>
      <trkpt lat="46.51446" lon="4.52382">
        <ele>319.693</ele>
        <time>2022-09-20T08:08:56Z</time>
      </trkpt>
      <trkpt lat="46.51452" lon="4.52389">
        <ele>319.393</ele>
        <time>2022-09-20T08:09:02Z</time>
      </trkpt>
      <trkpt lat="46.51458" lon="4.52395">
        <ele>318.093</ele>
        <time>2022-09-20T08:09:08Z</time>
      </trkpt>
      <trkpt lat="46.51464" lon="4.524">
        <ele>317.993</ele>
        <time>2022-09-20T08:09:14Z</time>
      </trkpt>
      <trkpt lat="46.51469" lon="4.52405">
        <ele>316.693</ele>
        <time>2022-09-20T08:09:20Z</time>
      </trkpt>
      <trkpt lat="46.51479" lon="4.52414">
        <ele>316.593</ele>
        <time>2022-09-20T08:09:26Z</time>
      </trkpt>
      <trkpt lat="46.51484" lon="4.52421">
        <ele>315.393</ele>
        <time>2022-09-20T08:09:32Z</time>
      </trkpt>
      <trkpt lat="46.51491" lon="4.5243">
        <ele>314.993</ele>
        <time>2022-09-20T08:09:38Z</time>
      </trkpt>
      <trkpt lat="46.51497" lon="4.52437">
        <ele>313.393</ele>
        <time>2022-09-20T08:09:44Z</time>
      </trkpt>
      <trkpt lat="46.51502" lon="4.52444">
        <ele>311.493</ele>
        <time>2022-09-20T08:09:50Z</time>
      </trkpt>
      <trkpt lat="46.51508" lon="4.52451">
        <ele>312.293</ele>
        <time>2022-09-20T08:09:55Z</time>
      </trkpt>
      <trkpt lat="46.51514" lon="4.52458">
        <ele>313.293</ele>
        <time>2022-09-20T08:10:01Z</time>
      </trkpt>
      <trkpt lat="46.5152" lon="4.52463">
        <ele>312.094</ele>
        <time>2022-09-20T08:10:06Z</time>
      </trkpt>
      <trkpt lat="46.51525" lon="4.52469">
        <ele>313.494</ele>
        <time>2022-09-20T08:10:18Z</time>
      </trkpt>
      <trkpt lat="46.51519" lon="4.52465">
        <ele>312.094</ele>
        <time>2022-09-20T08:10:59Z</time>
      </trkpt>
      <trkpt lat="46.51511" lon="4.52451">
        <ele>312.993</ele>
        <time>2022-09-20T08:11:20Z</time>
      </trkpt>
      <trkpt lat="46.51507" lon="4.52459">
        <ele>315.693</ele>
        <time>2022-09-20T08:12:07Z</time>
      </trkpt>
      <trkpt lat="46.51505" lon="4.52469">
        <ele>314.793</ele>
        <time>2022-09-20T08:12:13Z</time>
      </trkpt>
      <trkpt lat="46.51505" lon="4.5248">
        <ele>314.193</ele>
        <time>2022-09-20T08:12:19Z</time>
      </trkpt>
      <trkpt lat="46.51505" lon="4.5249">
        <ele>313.493</ele>
        <time>2022-09-20T08:12:25Z</time>
      </trkpt>
      <trkpt lat="46.51506" lon="4.525">
        <ele>314.193</ele>
        <time>2022-09-20T08:12:30Z</time>
      </trkpt>
      <trkpt lat="46.51505" lon="4.52513">
        <ele>314.594</ele>
        <time>2022-09-20T08:12:35Z</time>
      </trkpt>
      <trkpt lat="46.51505" lon="4.52523">
        <ele>315.494</ele>
        <time>2022-09-20T08:12:40Z</time>
      </trkpt>
      <trkpt lat="46.51503" lon="4.52533">
        <ele>315.494</ele>
        <time>2022-09-20T08:12:46Z</time>
      </trkpt>
      <trkpt lat="46.51501" lon="4.52543">
        <ele>315.994</ele>
        <time>2022-09-20T08:12:53Z</time>
      </trkpt>
      <trkpt lat="46.515" lon="4.52553">
        <ele>314.594</ele>
        <time>2022-09-20T08:13:01Z</time>
      </trkpt>
      <trkpt lat="46.51497" lon="4.52566">
        <ele>314.494</ele>
        <time>2022-09-20T08:13:06Z</time>
      </trkpt>
      <trkpt lat="46.51497" lon="4.52576">
        <ele>313.994</ele>
        <time>2022-09-20T08:13:11Z</time>
      </trkpt>
      <trkpt lat="46.51497" lon="4.52586">
        <ele>312.394</ele>
        <time>2022-09-20T08:13:17Z</time>
      </trkpt>
      <trkpt lat="46.51496" lon="4.52596">
        <ele>312.094</ele>
        <time>2022-09-20T08:13:22Z</time>
      </trkpt>
      <trkpt lat="46.51496" lon="4.52606">
        <ele>311.294</ele>
        <time>2022-09-20T08:13:27Z</time>
      </trkpt>
      <trkpt lat="46.51498" lon="4.52616">
        <ele>309.994</ele>
        <time>2022-09-20T08:13:33Z</time>
      </trkpt>
      <trkpt lat="46.51497" lon="4.52628">
        <ele>309.494</ele>
        <time>2022-09-20T08:13:38Z</time>
      </trkpt>
      <trkpt lat="46.51497" lon="4.52641">
        <ele>309.094</ele>
        <time>2022-09-20T08:13:43Z</time>
      </trkpt>
      <trkpt lat="46.51499" lon="4.52652">
        <ele>309.294</ele>
        <time>2022-09-20T08:13:48Z</time>
      </trkpt>
      <trkpt lat="46.51502" lon="4.52666">
        <ele>310.794</ele>
        <time>2022-09-20T08:13:54Z</time>
      </trkpt>
      <trkpt lat="46.51504" lon="4.52676">
        <ele>312.594</ele>
        <time>2022-09-20T08:13:59Z</time>
      </trkpt>
      <trkpt lat="46.51504" lon="4.52687">
        <ele>314.294</ele>
        <time>2022-09-20T08:14:04Z</time>
      </trkpt>
      <trkpt lat="46.51506" lon="4.52698">
        <ele>316.294</ele>
        <time>2022-09-20T08:14:10Z</time>
      </trkpt>
      <trkpt lat="46.51506" lon="4.52708">
        <ele>317.794</ele>
        <time>2022-09-20T08:14:15Z</time>
      </trkpt>
      <trkpt lat="46.51506" lon="4.52718">
        <ele>318.194</ele>
        <time>2022-09-20T08:14:21Z</time>
      </trkpt>
      <trkpt lat="46.51508" lon="4.52727">
        <ele>315.894</ele>
        <time>2022-09-20T08:14:27Z</time>
      </trkpt>
      <trkpt lat="46.51513" lon="4.52736">
        <ele>313.294</ele>
        <time>2022-09-20T08:14:33Z</time>
      </trkpt>
      <trkpt lat="46.51516" lon="4.52747">
        <ele>312.194</ele>
        <time>2022-09-20T08:14:38Z</time>
      </trkpt>
      <trkpt lat="46.5152" lon="4.52756">
        <ele>309.494</ele>
        <time>2022-09-20T08:14:43Z</time>
      </trkpt>
      <trkpt lat="46.51523" lon="4.52765">
        <ele>306.094</ele>
        <time>2022-09-20T08:14:50Z</time>
      </trkpt>
      <trkpt lat="46.51526" lon="4.52776">
        <ele>304.594</ele>
        <time>2022-09-20T08:14:55Z</time>
      </trkpt>
      <trkpt lat="46.51531" lon="4.52784">
        <ele>305.194</ele>
        <time>2022-09-20T08:15:00Z</time>
      </trkpt>
      <trkpt lat="46.51535" lon="4.52793">
        <ele>303.894</ele>
        <time>2022-09-20T08:15:07Z</time>
      </trkpt>
      <trkpt lat="46.51538" lon="4.52805">
        <ele>303.094</ele>
        <time>2022-09-20T08:15:12Z</time>
      </trkpt>
      <trkpt lat="46.51542" lon="4.52814">
        <ele>302.094</ele>
        <time>2022-09-20T08:15:17Z</time>
      </trkpt>
      <trkpt lat="46.51548" lon="4.5282">
        <ele>302.194</ele>
        <time>2022-09-20T08:15:23Z</time>
      </trkpt>
      <trkpt lat="46.51555" lon="4.52825">
        <ele>302.394</ele>
        <time>2022-09-20T08:15:28Z</time>
      </trkpt>
      <trkpt lat="46.51561" lon="4.52833">
        <ele>305.294</ele>
        <time>2022-09-20T08:15:34Z</time>
      </trkpt>
      <trkpt lat="46.51566" lon="4.5284">
        <ele>306.994</ele>
        <time>2022-09-20T08:15:39Z</time>
      </trkpt>
      <trkpt lat="46.51568" lon="4.52849">
        <ele>307.894</ele>
        <time>2022-09-20T08:15:45Z</time>
      </trkpt>
      <trkpt lat="46.51571" lon="4.52859">
        <ele>306.294</ele>
        <time>2022-09-20T08:15:51Z</time>
      </trkpt>
      <trkpt lat="46.51574" lon="4.52868">
        <ele>307.394</ele>
        <time>2022-09-20T08:15:56Z</time>
      </trkpt>
      <trkpt lat="46.5158" lon="4.52876">
        <ele>307.994</ele>
        <time>2022-09-20T08:16:02Z</time>
      </trkpt>
      <trkpt lat="46.51586" lon="4.52883">
        <ele>309.194</ele>
        <time>2022-09-20T08:16:08Z</time>
      </trkpt>
      <trkpt lat="46.51594" lon="4.52889">
        <ele>309.194</ele>
        <time>2022-09-20T08:16:14Z</time>
      </trkpt>
      <trkpt lat="46.51602" lon="4.52897">
        <ele>310.094</ele>
        <time>2022-09-20T08:16:19Z</time>
      </trkpt>
      <trkpt lat="46.51609" lon="4.52902">
        <ele>310.894</ele>
        <time>2022-09-20T08:16:25Z</time>
      </trkpt>
      <trkpt lat="46.51618" lon="4.52907">
        <ele>313.494</ele>
        <time>2022-09-20T08:16:30Z</time>
      </trkpt>
      <trkpt lat="46.51625" lon="4.52909">
        <ele>313.094</ele>
        <time>2022-09-20T08:16:36Z</time>
      </trkpt>
      <trkpt lat="46.51632" lon="4.5291">
        <ele>312.194</ele>
        <time>2022-09-20T08:16:42Z</time>
      </trkpt>
      <trkpt lat="46.51638" lon="4.52914">
        <ele>310.194</ele>
        <time>2022-09-20T08:16:47Z</time>
      </trkpt>
      <trkpt lat="46.51643" lon="4.52919">
        <ele>307.494</ele>
        <time>2022-09-20T08:16:52Z</time>
      </trkpt>
      <trkpt lat="46.51649" lon="4.52924">
        <ele>304.794</ele>
        <time>2022-09-20T08:16:58Z</time>
      </trkpt>
      <trkpt lat="46.51654" lon="4.52931">
        <ele>303.594</ele>
        <time>2022-09-20T08:17:03Z</time>
      </trkpt>
      <trkpt lat="46.51657" lon="4.5294">
        <ele>300.194</ele>
        <time>2022-09-20T08:17:10Z</time>
      </trkpt>
      <trkpt lat="46.51662" lon="4.52948">
        <ele>300.094</ele>
        <time>2022-09-20T08:17:15Z</time>
      </trkpt>
      <trkpt lat="46.51668" lon="4.52953">
        <ele>297.194</ele>
        <time>2022-09-20T08:17:22Z</time>
      </trkpt>
      <trkpt lat="46.51673" lon="4.52961">
        <ele>296.094</ele>
        <time>2022-09-20T08:17:27Z</time>
      </trkpt>
      <trkpt lat="46.51677" lon="4.52969">
        <ele>294.694</ele>
        <time>2022-09-20T08:17:41Z</time>
      </trkpt>
      <trkpt lat="46.51684" lon="4.52973">
        <ele>299.494</ele>
        <time>2022-09-20T08:18:46Z</time>
      </trkpt>
      <trkpt lat="46.51691" lon="4.5297">
        <ele>299.194</ele>
        <time>2022-09-20T08:18:59Z</time>
      </trkpt>
      <trkpt lat="46.51684" lon="4.5298">
        <ele>300.194</ele>
        <time>2022-09-20T08:19:17Z</time>
      </trkpt>
      <trkpt lat="46.51678" lon="4.52985">
        <ele>300.994</ele>
        <time>2022-09-20T08:19:23Z</time>
      </trkpt>
      <trkpt lat="46.51673" lon="4.52991">
        <ele>300.194</ele>
        <time>2022-09-20T08:19:30Z</time>
      </trkpt>
      <trkpt lat="46.51668" lon="4.52999">
        <ele>299.394</ele>
        <time>2022-09-20T08:19:36Z</time>
      </trkpt>
      <trkpt lat="46.51663" lon="4.53008">
        <ele>299.194</ele>
        <time>2022-09-20T08:19:43Z</time>
      </trkpt>
      <trkpt lat="46.51663" lon="4.53019">
        <ele>298.094</ele>
        <time>2022-09-20T08:19:53Z</time>
      </trkpt>
      <trkpt lat="46.51664" lon="4.53009">
        <ele>299.694</ele>
        <time>2022-09-20T08:22:05Z</time>
      </trkpt>
      <trkpt lat="46.51668" lon="4.53002">
        <ele>298.094</ele>
        <time>2022-09-20T08:22:13Z</time>
      </trkpt>
      <trkpt lat="46.51673" lon="4.52994">
        <ele>296.994</ele>
        <time>2022-09-20T08:22:20Z</time>
      </trkpt>
      <trkpt lat="46.51678" lon="4.52987">
        <ele>296.694</ele>
        <time>2022-09-20T08:22:27Z</time>
      </trkpt>
      <trkpt lat="46.51683" lon="4.52981">
        <ele>296.294</ele>
        <time>2022-09-20T08:22:34Z</time>
      </trkpt>
      <trkpt lat="46.5169" lon="4.5298">
        <ele>293.694</ele>
        <time>2022-09-20T08:22:43Z</time>
      </trkpt>
      <trkpt lat="46.51696" lon="4.52986">
        <ele>294.694</ele>
        <time>2022-09-20T08:22:50Z</time>
      </trkpt>
      <trkpt lat="46.51702" lon="4.5299">
        <ele>295.494</ele>
        <time>2022-09-20T08:22:56Z</time>
      </trkpt>
      <trkpt lat="46.51707" lon="4.52996">
        <ele>294.194</ele>
        <time>2022-09-20T08:23:04Z</time>
      </trkpt>
      <trkpt lat="46.51714" lon="4.53">
        <ele>294.194</ele>
        <time>2022-09-20T08:23:10Z</time>
      </trkpt>
      <trkpt lat="46.51721" lon="4.53004">
        <ele>293.894</ele>
        <time>2022-09-20T08:23:16Z</time>
      </trkpt>
      <trkpt lat="46.51728" lon="4.53008">
        <ele>294.794</ele>
        <time>2022-09-20T08:23:23Z</time>
      </trkpt>
      <trkpt lat="46.51735" lon="4.53011">
        <ele>294.894</ele>
        <time>2022-09-20T08:23:30Z</time>
      </trkpt>
      <trkpt lat="46.5174" lon="4.53016">
        <ele>294.095</ele>
        <time>2022-09-20T08:23:37Z</time>
      </trkpt>
      <trkpt lat="46.51748" lon="4.53018">
        <ele>294.595</ele>
        <time>2022-09-20T08:23:42Z</time>
      </trkpt>
      <trkpt lat="46.51754" lon="4.5302">
        <ele>294.395</ele>
        <time>2022-09-20T08:23:47Z</time>
      </trkpt>
      <trkpt lat="46.5176" lon="4.53023">
        <ele>295.595</ele>
        <time>2022-09-20T08:23:55Z</time>
      </trkpt>
      <trkpt lat="46.51767" lon="4.53027">
        <ele>295.495</ele>
        <time>2022-09-20T08:24:03Z</time>
      </trkpt>
      <trkpt lat="46.51773" lon="4.53033">
        <ele>295.095</ele>
        <time>2022-09-20T08:24:08Z</time>
      </trkpt>
      <trkpt lat="46.5178" lon="4.53038">
        <ele>294.395</ele>
        <time>2022-09-20T08:24:14Z</time>
      </trkpt>
      <trkpt lat="46.51787" lon="4.53041">
        <ele>292.695</ele>
        <time>2022-09-20T08:24:20Z</time>
      </trkpt>
      <trkpt lat="46.51794" lon="4.53045">
        <ele>292.895</ele>
        <time>2022-09-20T08:24:26Z</time>
      </trkpt>
      <trkpt lat="46.51801" lon="4.53051">
        <ele>292.995</ele>
        <time>2022-09-20T08:24:33Z</time>
      </trkpt>
      <trkpt lat="46.51807" lon="4.53057">
        <ele>292.995</ele>
        <time>2022-09-20T08:24:40Z</time>
      </trkpt>
      <trkpt lat="46.51813" lon="4.53065">
        <ele>291.495</ele>
        <time>2022-09-20T08:24:46Z</time>
      </trkpt>
      <trkpt lat="46.5182" lon="4.53068">
        <ele>288.495</ele>
        <time>2022-09-20T08:24:52Z</time>
      </trkpt>
      <trkpt lat="46.51828" lon="4.5307">
        <ele>285.895</ele>
        <time>2022-09-20T08:24:58Z</time>
      </trkpt>
      <trkpt lat="46.51834" lon="4.53074">
        <ele>283.995</ele>
        <time>2022-09-20T08:25:04Z</time>
      </trkpt>
      <trkpt lat="46.5184" lon="4.53078">
        <ele>282.595</ele>
        <time>2022-09-20T08:25:11Z</time>
      </trkpt>
      <trkpt lat="46.51847" lon="4.53083">
        <ele>283.595</ele>
        <time>2022-09-20T08:25:17Z</time>
      </trkpt>
      <trkpt lat="46.51854" lon="4.53087">
        <ele>283.295</ele>
        <time>2022-09-20T08:25:23Z</time>
      </trkpt>
      <trkpt lat="46.5186" lon="4.53092">
        <ele>284.595</ele>
        <time>2022-09-20T08:25:28Z</time>
      </trkpt>
      <trkpt lat="46.51865" lon="4.531">
        <ele>284.095</ele>
        <time>2022-09-20T08:25:35Z</time>
      </trkpt>
      <trkpt lat="46.5187" lon="4.5311">
        <ele>281.595</ele>
        <time>2022-09-20T08:25:42Z</time>
      </trkpt>
      <trkpt lat="46.51874" lon="4.53118">
        <ele>279.695</ele>
        <time>2022-09-20T08:25:49Z</time>
      </trkpt>
      <trkpt lat="46.51878" lon="4.53125">
        <ele>281.195</ele>
        <time>2022-09-20T08:25:54Z</time>
      </trkpt>
      <trkpt lat="46.51882" lon="4.53133">
        <ele>282.195</ele>
        <time>2022-09-20T08:26:01Z</time>
      </trkpt>
      <trkpt lat="46.51889" lon="4.5314">
        <ele>282.895</ele>
        <time>2022-09-20T08:26:07Z</time>
      </trkpt>
      <trkpt lat="46.51894" lon="4.53145">
        <ele>282.495</ele>
        <time>2022-09-20T08:26:13Z</time>
      </trkpt>
      <trkpt lat="46.519" lon="4.53151">
        <ele>282.595</ele>
        <time>2022-09-20T08:26:19Z</time>
      </trkpt>
      <trkpt lat="46.51906" lon="4.53158">
        <ele>283.195</ele>
        <time>2022-09-20T08:26:24Z</time>
      </trkpt>
      <trkpt lat="46.51911" lon="4.53166">
        <ele>282.295</ele>
        <time>2022-09-20T08:26:30Z</time>
      </trkpt>
      <trkpt lat="46.51916" lon="4.53172">
        <ele>283.295</ele>
        <time>2022-09-20T08:26:36Z</time>
      </trkpt>
      <trkpt lat="46.51922" lon="4.53178">
        <ele>283.695</ele>
        <time>2022-09-20T08:26:42Z</time>
      </trkpt>
      <trkpt lat="46.51928" lon="4.53182">
        <ele>283.495</ele>
        <time>2022-09-20T08:26:49Z</time>
      </trkpt>
      <trkpt lat="46.51935" lon="4.53187">
        <ele>281.795</ele>
        <time>2022-09-20T08:26:56Z</time>
      </trkpt>
      <trkpt lat="46.51942" lon="4.5319">
        <ele>283.495</ele>
        <time>2022-09-20T08:27:02Z</time>
      </trkpt>
      <trkpt lat="46.5195" lon="4.53189">
        <ele>285.695</ele>
        <time>2022-09-20T08:27:07Z</time>
      </trkpt>
      <trkpt lat="46.51956" lon="4.53197">
        <ele>284.495</ele>
        <time>2022-09-20T08:27:14Z</time>
      </trkpt>
      <trkpt lat="46.51963" lon="4.53203">
        <ele>282.795</ele>
        <time>2022-09-20T08:27:19Z</time>
      </trkpt>
      <trkpt lat="46.51971" lon="4.53201">
        <ele>280.395</ele>
        <time>2022-09-20T08:27:25Z</time>
      </trkpt>
      <trkpt lat="46.51977" lon="4.53202">
        <ele>280.595</ele>
        <time>2022-09-20T08:27:31Z</time>
      </trkpt>
      <trkpt lat="46.51984" lon="4.53205">
        <ele>281.095</ele>
        <time>2022-09-20T08:27:36Z</time>
      </trkpt>
      <trkpt lat="46.51992" lon="4.53208">
        <ele>281.595</ele>
        <time>2022-09-20T08:27:42Z</time>
      </trkpt>
      <trkpt lat="46.52" lon="4.53209">
        <ele>279.395</ele>
        <time>2022-09-20T08:27:48Z</time>
      </trkpt>
      <trkpt lat="46.52006" lon="4.53213">
        <ele>276.395</ele>
        <time>2022-09-20T08:27:55Z</time>
      </trkpt>
      <trkpt lat="46.52005" lon="4.53224">
        <ele>282.595</ele>
        <time>2022-09-20T08:29:23Z</time>
      </trkpt>
      <trkpt lat="46.52005" lon="4.53234">
        <ele>282.795</ele>
        <time>2022-09-20T08:29:30Z</time>
      </trkpt>
      <trkpt lat="46.52006" lon="4.53243">
        <ele>282.695</ele>
        <time>2022-09-20T08:29:37Z</time>
      </trkpt>
      <trkpt lat="46.52009" lon="4.53251">
        <ele>282.195</ele>
        <time>2022-09-20T08:29:46Z</time>
      </trkpt>
      <trkpt lat="46.52011" lon="4.53261">
        <ele>281.495</ele>
        <time>2022-09-20T08:29:53Z</time>
      </trkpt>
      <trkpt lat="46.52013" lon="4.53271">
        <ele>280.295</ele>
        <time>2022-09-20T08:30:02Z</time>
      </trkpt>
      <trkpt lat="46.52013" lon="4.53281">
        <ele>280.095</ele>
        <time>2022-09-20T08:30:10Z</time>
      </trkpt>
      <trkpt lat="46.52012" lon="4.5329">
        <ele>280.395</ele>
        <time>2022-09-20T08:30:15Z</time>
      </trkpt>
      <trkpt lat="46.52012" lon="4.53301">
        <ele>279.595</ele>
        <time>2022-09-20T08:30:21Z</time>
      </trkpt>
      <trkpt lat="46.52013" lon="4.53312">
        <ele>278.695</ele>
        <time>2022-09-20T08:30:27Z</time>
      </trkpt>
      <trkpt lat="46.52013" lon="4.53321">
        <ele>279.495</ele>
        <time>2022-09-20T08:30:34Z</time>
      </trkpt>
      <trkpt lat="46.52015" lon="4.53331">
        <ele>278.896</ele>
        <time>2022-09-20T08:30:42Z</time>
      </trkpt>
      <trkpt lat="46.52015" lon="4.53344">
        <ele>281.196</ele>
        <time>2022-09-20T08:30:47Z</time>
      </trkpt>
      <trkpt lat="46.52018" lon="4.53354">
        <ele>282.196</ele>
        <time>2022-09-20T08:30:52Z</time>
      </trkpt>
      <trkpt lat="46.52019" lon="4.53365">
        <ele>281.396</ele>
        <time>2022-09-20T08:30:59Z</time>
      </trkpt>
      <trkpt lat="46.52019" lon="4.53376">
        <ele>281.896</ele>
        <time>2022-09-20T08:31:08Z</time>
      </trkpt>
      <trkpt lat="46.52017" lon="4.53386">
        <ele>282.696</ele>
        <time>2022-09-20T08:31:15Z</time>
      </trkpt>
      <trkpt lat="46.52016" lon="4.53397">
        <ele>283.996</ele>
        <time>2022-09-20T08:31:20Z</time>
      </trkpt>
      <trkpt lat="46.52014" lon="4.53407">
        <ele>283.496</ele>
        <time>2022-09-20T08:31:26Z</time>
      </trkpt>
      <trkpt lat="46.52011" lon="4.53416">
        <ele>283.796</ele>
        <time>2022-09-20T08:31:31Z</time>
      </trkpt>
      <trkpt lat="46.52011" lon="4.53427">
        <ele>284.996</ele>
        <time>2022-09-20T08:31:39Z</time>
      </trkpt>
      <trkpt lat="46.52011" lon="4.53436">
        <ele>290.596</ele>
        <time>2022-09-20T08:39:53Z</time>
      </trkpt>
      <trkpt lat="46.52006" lon="4.53444">
        <ele>291.996</ele>
        <time>2022-09-20T08:39:59Z</time>
      </trkpt>
      <trkpt lat="46.52002" lon="4.53452">
        <ele>290.996</ele>
        <time>2022-09-20T08:40:06Z</time>
      </trkpt>
      <trkpt lat="46.51997" lon="4.53459">
        <ele>289.396</ele>
        <time>2022-09-20T08:40:14Z</time>
      </trkpt>
      <trkpt lat="46.51993" lon="4.53467">
        <ele>290.196</ele>
        <time>2022-09-20T08:40:21Z</time>
      </trkpt>
      <trkpt lat="46.51987" lon="4.53473">
        <ele>291.696</ele>
        <time>2022-09-20T08:40:28Z</time>
      </trkpt>
      <trkpt lat="46.51981" lon="4.5348">
        <ele>292.696</ele>
        <time>2022-09-20T08:40:34Z</time>
      </trkpt>
      <trkpt lat="46.51976" lon="4.53486">
        <ele>293.996</ele>
        <time>2022-09-20T08:40:41Z</time>
      </trkpt>
      <trkpt lat="46.5197" lon="4.53491">
        <ele>295.295</ele>
        <time>2022-09-20T08:40:46Z</time>
      </trkpt>
      <trkpt lat="46.51963" lon="4.53496">
        <ele>295.995</ele>
        <time>2022-09-20T08:40:52Z</time>
      </trkpt>
      <trkpt lat="46.51958" lon="4.53502">
        <ele>296.295</ele>
        <time>2022-09-20T08:40:58Z</time>
      </trkpt>
      <trkpt lat="46.51953" lon="4.53509">
        <ele>296.395</ele>
        <time>2022-09-20T08:41:03Z</time>
      </trkpt>
      <trkpt lat="46.51947" lon="4.53519">
        <ele>296.895</ele>
        <time>2022-09-20T08:41:09Z</time>
      </trkpt>
      <trkpt lat="46.51942" lon="4.53525">
        <ele>298.295</ele>
        <time>2022-09-20T08:41:15Z</time>
      </trkpt>
      <trkpt lat="46.51939" lon="4.53535">
        <ele>299.295</ele>
        <time>2022-09-20T08:41:21Z</time>
      </trkpt>
      <trkpt lat="46.51936" lon="4.53545">
        <ele>300.195</ele>
        <time>2022-09-20T08:41:27Z</time>
      </trkpt>
      <trkpt lat="46.51932" lon="4.53554">
        <ele>298.895</ele>
        <time>2022-09-20T08:41:34Z</time>
      </trkpt>
      <trkpt lat="46.51928" lon="4.53561">
        <ele>298.795</ele>
        <time>2022-09-20T08:41:39Z</time>
      </trkpt>
      <trkpt lat="46.51923" lon="4.53571">
        <ele>297.995</ele>
        <time>2022-09-20T08:41:45Z</time>
      </trkpt>
      <trkpt lat="46.51919" lon="4.53581">
        <ele>298.895</ele>
        <time>2022-09-20T08:41:50Z</time>
      </trkpt>
      <trkpt lat="46.51916" lon="4.53591">
        <ele>300.395</ele>
        <time>2022-09-20T08:41:55Z</time>
      </trkpt>
      <trkpt lat="46.51915" lon="4.53603">
        <ele>302.595</ele>
        <time>2022-09-20T08:42:01Z</time>
      </trkpt>
      <trkpt lat="46.51912" lon="4.53612">
        <ele>302.495</ele>
        <time>2022-09-20T08:42:07Z</time>
      </trkpt>
      <trkpt lat="46.51912" lon="4.53622">
        <ele>302.095</ele>
        <time>2022-09-20T08:42:13Z</time>
      </trkpt>
      <trkpt lat="46.51912" lon="4.53633">
        <ele>303.795</ele>
        <time>2022-09-20T08:42:19Z</time>
      </trkpt>
      <trkpt lat="46.51912" lon="4.53644">
        <ele>304.195</ele>
        <time>2022-09-20T08:42:25Z</time>
      </trkpt>
      <trkpt lat="46.51909" lon="4.53653">
        <ele>303.795</ele>
        <time>2022-09-20T08:42:30Z</time>
      </trkpt>
      <trkpt lat="46.51909" lon="4.53664">
        <ele>304.895</ele>
        <time>2022-09-20T08:42:37Z</time>
      </trkpt>
      <trkpt lat="46.51909" lon="4.53677">
        <ele>305.695</ele>
        <time>2022-09-20T08:42:42Z</time>
      </trkpt>
      <trkpt lat="46.51908" lon="4.53686">
        <ele>306.895</ele>
        <time>2022-09-20T08:42:47Z</time>
      </trkpt>
      <trkpt lat="46.51908" lon="4.53696">
        <ele>309.195</ele>
        <time>2022-09-20T08:42:54Z</time>
      </trkpt>
      <trkpt lat="46.51901" lon="4.53695">
        <ele>302.695</ele>
        <time>2022-09-20T08:44:29Z</time>
      </trkpt>
      <trkpt lat="46.51892" lon="4.53692">
        <ele>303.195</ele>
        <time>2022-09-20T08:44:34Z</time>
      </trkpt>
      <trkpt lat="46.51885" lon="4.53687">
        <ele>303.995</ele>
        <time>2022-09-20T08:44:40Z</time>
      </trkpt>
      <trkpt lat="46.51878" lon="4.53686">
        <ele>304.395</ele>
        <time>2022-09-20T08:44:45Z</time>
      </trkpt>
      <trkpt lat="46.5187" lon="4.53684">
        <ele>303.895</ele>
        <time>2022-09-20T08:44:50Z</time>
      </trkpt>
      <trkpt lat="46.51863" lon="4.53682">
        <ele>303.895</ele>
        <time>2022-09-20T08:44:56Z</time>
      </trkpt>
      <trkpt lat="46.51855" lon="4.53681">
        <ele>303.695</ele>
        <time>2022-09-20T08:45:01Z</time>
      </trkpt>
      <trkpt lat="46.51848" lon="4.53678">
        <ele>303.795</ele>
        <time>2022-09-20T08:45:06Z</time>
      </trkpt>
      <trkpt lat="46.51841" lon="4.53673">
        <ele>303.595</ele>
        <time>2022-09-20T08:45:12Z</time>
      </trkpt>
      <trkpt lat="46.51834" lon="4.53668">
        <ele>302.895</ele>
        <time>2022-09-20T08:45:17Z</time>
      </trkpt>
      <trkpt lat="46.51828" lon="4.53667">
        <ele>300.795</ele>
        <time>2022-09-20T08:45:22Z</time>
      </trkpt>
      <trkpt lat="46.5182" lon="4.53666">
        <ele>299.495</ele>
        <time>2022-09-20T08:45:28Z</time>
      </trkpt>
      <trkpt lat="46.51814" lon="4.53664">
        <ele>300.295</ele>
        <time>2022-09-20T08:45:33Z</time>
      </trkpt>
      <trkpt lat="46.51807" lon="4.53659">
        <ele>300.495</ele>
        <time>2022-09-20T08:45:38Z</time>
      </trkpt>
      <trkpt lat="46.51799" lon="4.53659">
        <ele>299.195</ele>
        <time>2022-09-20T08:45:44Z</time>
      </trkpt>
      <trkpt lat="46.51792" lon="4.5366">
        <ele>298.595</ele>
        <time>2022-09-20T08:45:49Z</time>
      </trkpt>
      <trkpt lat="46.51783" lon="4.53655">
        <ele>299.995</ele>
        <time>2022-09-20T08:45:54Z</time>
      </trkpt>
      <trkpt lat="46.51775" lon="4.53648">
        <ele>300.295</ele>
        <time>2022-09-20T08:45:59Z</time>
      </trkpt>
      <trkpt lat="46.51769" lon="4.53644">
        <ele>300.395</ele>
        <time>2022-09-20T08:46:05Z</time>
      </trkpt>
      <trkpt lat="46.51763" lon="4.53639">
        <ele>301.595</ele>
        <time>2022-09-20T08:46:10Z</time>
      </trkpt>
      <trkpt lat="46.51757" lon="4.53637">
        <ele>303.095</ele>
        <time>2022-09-20T08:46:16Z</time>
      </trkpt>
      <trkpt lat="46.5175" lon="4.53632">
        <ele>305.195</ele>
        <time>2022-09-20T08:46:21Z</time>
      </trkpt>
      <trkpt lat="46.51743" lon="4.53631">
        <ele>304.195</ele>
        <time>2022-09-20T08:46:28Z</time>
      </trkpt>
      <trkpt lat="46.51736" lon="4.53629">
        <ele>303.995</ele>
        <time>2022-09-20T08:46:33Z</time>
      </trkpt>
      <trkpt lat="46.51729" lon="4.53627">
        <ele>304.495</ele>
        <time>2022-09-20T08:46:39Z</time>
      </trkpt>
      <trkpt lat="46.51721" lon="4.53627">
        <ele>303.995</ele>
        <time>2022-09-20T08:46:45Z</time>
      </trkpt>
      <trkpt lat="46.51715" lon="4.53623">
        <ele>302.795</ele>
        <time>2022-09-20T08:46:55Z</time>
      </trkpt>
      <trkpt lat="46.51708" lon="4.53621">
        <ele>305.295</ele>
        <time>2022-09-20T08:48:16Z</time>
      </trkpt>
      <trkpt lat="46.51701" lon="4.5362">
        <ele>305.195</ele>
        <time>2022-09-20T08:48:21Z</time>
      </trkpt>
      <trkpt lat="46.51694" lon="4.53615">
        <ele>307.095</ele>
        <time>2022-09-20T08:48:26Z</time>
      </trkpt>
      <trkpt lat="46.51686" lon="4.53612">
        <ele>305.695</ele>
        <time>2022-09-20T08:48:31Z</time>
      </trkpt>
      <trkpt lat="46.51678" lon="4.53606">
        <ele>307.195</ele>
        <time>2022-09-20T08:48:37Z</time>
      </trkpt>
      <trkpt lat="46.51671" lon="4.53606">
        <ele>307.595</ele>
        <time>2022-09-20T08:48:42Z</time>
      </trkpt>
      <trkpt lat="46.51664" lon="4.53602">
        <ele>308.095</ele>
        <time>2022-09-20T08:48:47Z</time>
      </trkpt>
      <trkpt lat="46.51658" lon="4.53599">
        <ele>306.595</ele>
        <time>2022-09-20T08:48:53Z</time>
      </trkpt>
      <trkpt lat="46.51652" lon="4.53595">
        <ele>306.695</ele>
        <time>2022-09-20T08:48:58Z</time>
      </trkpt>
      <trkpt lat="46.51645" lon="4.53594">
        <ele>306.495</ele>
        <time>2022-09-20T08:49:04Z</time>
      </trkpt>
      <trkpt lat="46.51637" lon="4.5359">
        <ele>306.095</ele>
        <time>2022-09-20T08:49:10Z</time>
      </trkpt>
      <trkpt lat="46.5163" lon="4.53587">
        <ele>307.695</ele>
        <time>2022-09-20T08:49:16Z</time>
      </trkpt>
      <trkpt lat="46.5162" lon="4.53584">
        <ele>308.295</ele>
        <time>2022-09-20T08:49:23Z</time>
      </trkpt>
      <trkpt lat="46.51614" lon="4.53579">
        <ele>308.695</ele>
        <time>2022-09-20T08:49:29Z</time>
      </trkpt>
      <trkpt lat="46.51607" lon="4.53579">
        <ele>307.295</ele>
        <time>2022-09-20T08:49:34Z</time>
      </trkpt>
      <trkpt lat="46.51601" lon="4.53577">
        <ele>306.695</ele>
        <time>2022-09-20T08:49:41Z</time>
      </trkpt>
      <trkpt lat="46.51593" lon="4.53572">
        <ele>307.395</ele>
        <time>2022-09-20T08:49:46Z</time>
      </trkpt>
      <trkpt lat="46.51587" lon="4.53569">
        <ele>307.995</ele>
        <time>2022-09-20T08:49:51Z</time>
      </trkpt>
      <trkpt lat="46.51578" lon="4.53565">
        <ele>308.794</ele>
        <time>2022-09-20T08:49:57Z</time>
      </trkpt>
      <trkpt lat="46.5157" lon="4.53562">
        <ele>308.194</ele>
        <time>2022-09-20T08:50:03Z</time>
      </trkpt>
      <trkpt lat="46.51562" lon="4.53563">
        <ele>306.894</ele>
        <time>2022-09-20T08:50:09Z</time>
      </trkpt>
      <trkpt lat="46.51553" lon="4.53561">
        <ele>307.394</ele>
        <time>2022-09-20T08:50:14Z</time>
      </trkpt>
      <trkpt lat="46.51545" lon="4.53559">
        <ele>305.794</ele>
        <time>2022-09-20T08:50:21Z</time>
      </trkpt>
      <trkpt lat="46.51538" lon="4.53559">
        <ele>305.994</ele>
        <time>2022-09-20T08:50:26Z</time>
      </trkpt>
      <trkpt lat="46.51531" lon="4.53555">
        <ele>305.994</ele>
        <time>2022-09-20T08:50:32Z</time>
      </trkpt>
      <trkpt lat="46.51525" lon="4.53549">
        <ele>307.094</ele>
        <time>2022-09-20T08:50:37Z</time>
      </trkpt>
      <trkpt lat="46.51518" lon="4.53547">
        <ele>308.194</ele>
        <time>2022-09-20T08:50:43Z</time>
      </trkpt>
      <trkpt lat="46.51511" lon="4.53545">
        <ele>309.094</ele>
        <time>2022-09-20T08:50:49Z</time>
      </trkpt>
      <trkpt lat="46.51504" lon="4.53543">
        <ele>308.694</ele>
        <time>2022-09-20T08:50:55Z</time>
      </trkpt>
      <trkpt lat="46.51497" lon="4.5354">
        <ele>308.194</ele>
        <time>2022-09-20T08:51:01Z</time>
      </trkpt>
      <trkpt lat="46.51489" lon="4.53538">
        <ele>308.494</ele>
        <time>2022-09-20T08:51:06Z</time>
      </trkpt>
      <trkpt lat="46.51482" lon="4.53537">
        <ele>308.594</ele>
        <time>2022-09-20T08:51:11Z</time>
      </trkpt>
      <trkpt lat="46.51472" lon="4.53532">
        <ele>308.294</ele>
        <time>2022-09-20T08:51:17Z</time>
      </trkpt>
      <trkpt lat="46.51464" lon="4.53526">
        <ele>308.094</ele>
        <time>2022-09-20T08:51:22Z</time>
      </trkpt>
      <trkpt lat="46.51457" lon="4.53524">
        <ele>308.694</ele>
        <time>2022-09-20T08:51:28Z</time>
      </trkpt>
      <trkpt lat="46.51451" lon="4.53532">
        <ele>309.894</ele>
        <time>2022-09-20T08:51:56Z</time>
      </trkpt>
      <trkpt lat="46.51454" lon="4.53541">
        <ele>313.494</ele>
        <time>2022-09-20T08:52:27Z</time>
      </trkpt>
      <trkpt lat="46.51454" lon="4.53551">
        <ele>314.894</ele>
        <time>2022-09-20T08:52:33Z</time>
      </trkpt>
      <trkpt lat="46.51453" lon="4.53562">
        <ele>317.094</ele>
        <time>2022-09-20T08:52:38Z</time>
      </trkpt>
      <trkpt lat="46.51452" lon="4.53571">
        <ele>317.894</ele>
        <time>2022-09-20T08:52:43Z</time>
      </trkpt>
      <trkpt lat="46.5145" lon="4.53581">
        <ele>317.894</ele>
        <time>2022-09-20T08:52:49Z</time>
      </trkpt>
      <trkpt lat="46.51448" lon="4.53591">
        <ele>316.494</ele>
        <time>2022-09-20T08:52:57Z</time>
      </trkpt>
      <trkpt lat="46.51448" lon="4.53603">
        <ele>316.394</ele>
        <time>2022-09-20T08:53:04Z</time>
      </trkpt>
      <trkpt lat="46.51447" lon="4.53614">
        <ele>318.094</ele>
        <time>2022-09-20T08:53:12Z</time>
      </trkpt>
      <trkpt lat="46.51445" lon="4.53624">
        <ele>321.194</ele>
        <time>2022-09-20T08:53:19Z</time>
      </trkpt>
      <trkpt lat="46.51444" lon="4.53633">
        <ele>321.694</ele>
        <time>2022-09-20T08:53:26Z</time>
      </trkpt>
      <trkpt lat="46.51441" lon="4.53642">
        <ele>321.894</ele>
        <time>2022-09-20T08:53:31Z</time>
      </trkpt>
      <trkpt lat="46.51447" lon="4.53648">
        <ele>324.494</ele>
        <time>2022-09-20T08:54:08Z</time>
      </trkpt>
      <trkpt lat="46.51439" lon="4.53646">
        <ele>326.494</ele>
        <time>2022-09-20T08:54:43Z</time>
      </trkpt>
      <trkpt lat="46.51431" lon="4.53646">
        <ele>327.294</ele>
        <time>2022-09-20T08:54:49Z</time>
      </trkpt>
      <trkpt lat="46.51424" lon="4.53647">
        <ele>327.394</ele>
        <time>2022-09-20T08:54:56Z</time>
      </trkpt>
      <trkpt lat="46.51417" lon="4.53646">
        <ele>325.494</ele>
        <time>2022-09-20T08:55:04Z</time>
      </trkpt>
      <trkpt lat="46.5141" lon="4.53645">
        <ele>325.394</ele>
        <time>2022-09-20T08:55:10Z</time>
      </trkpt>
      <trkpt lat="46.51403" lon="4.53644">
        <ele>326.994</ele>
        <time>2022-09-20T08:55:18Z</time>
      </trkpt>
      <trkpt lat="46.51397" lon="4.53648">
        <ele>326.994</ele>
        <time>2022-09-20T08:55:26Z</time>
      </trkpt>
      <trkpt lat="46.51389" lon="4.53651">
        <ele>325.294</ele>
        <time>2022-09-20T08:55:34Z</time>
      </trkpt>
      <trkpt lat="46.51383" lon="4.53654">
        <ele>324.494</ele>
        <time>2022-09-20T08:55:40Z</time>
      </trkpt>
      <trkpt lat="46.51376" lon="4.53655">
        <ele>324.794</ele>
        <time>2022-09-20T08:55:46Z</time>
      </trkpt>
      <trkpt lat="46.51368" lon="4.53653">
        <ele>325.694</ele>
        <time>2022-09-20T08:55:53Z</time>
      </trkpt>
      <trkpt lat="46.51361" lon="4.53653">
        <ele>327.794</ele>
        <time>2022-09-20T08:55:58Z</time>
      </trkpt>
      <trkpt lat="46.51354" lon="4.53653">
        <ele>329.094</ele>
        <time>2022-09-20T08:56:03Z</time>
      </trkpt>
      <trkpt lat="46.51347" lon="4.53654">
        <ele>330.894</ele>
        <time>2022-09-20T08:56:11Z</time>
      </trkpt>
      <trkpt lat="46.51341" lon="4.53654">
        <ele>333.394</ele>
        <time>2022-09-20T08:56:18Z</time>
      </trkpt>
      <trkpt lat="46.51334" lon="4.53654">
        <ele>334.594</ele>
        <time>2022-09-20T08:56:24Z</time>
      </trkpt>
      <trkpt lat="46.51327" lon="4.53653">
        <ele>336.694</ele>
        <time>2022-09-20T08:56:34Z</time>
      </trkpt>
      <trkpt lat="46.5132" lon="4.53654">
        <ele>337.394</ele>
        <time>2022-09-20T08:56:42Z</time>
      </trkpt>
      <trkpt lat="46.51313" lon="4.5365">
        <ele>337.394</ele>
        <time>2022-09-20T08:56:49Z</time>
      </trkpt>
      <trkpt lat="46.51307" lon="4.53646">
        <ele>337.594</ele>
        <time>2022-09-20T08:56:55Z</time>
      </trkpt>
      <trkpt lat="46.513" lon="4.53645">
        <ele>336.394</ele>
        <time>2022-09-20T08:57:03Z</time>
      </trkpt>
      <trkpt lat="46.51293" lon="4.53645">
        <ele>334.694</ele>
        <time>2022-09-20T08:57:10Z</time>
      </trkpt>
      <trkpt lat="46.51287" lon="4.53642">
        <ele>334.294</ele>
        <time>2022-09-20T08:57:17Z</time>
      </trkpt>
      <trkpt lat="46.51279" lon="4.53643">
        <ele>334.194</ele>
        <time>2022-09-20T08:57:24Z</time>
      </trkpt>
      <trkpt lat="46.51272" lon="4.53641">
        <ele>334.994</ele>
        <time>2022-09-20T08:57:30Z</time>
      </trkpt>
      <trkpt lat="46.51266" lon="4.53637">
        <ele>335.494</ele>
        <time>2022-09-20T08:57:40Z</time>
      </trkpt>
      <trkpt lat="46.5126" lon="4.53639">
        <ele>335.094</ele>
        <time>2022-09-20T08:57:49Z</time>
      </trkpt>
      <trkpt lat="46.51252" lon="4.53638">
        <ele>334.294</ele>
        <time>2022-09-20T08:57:58Z</time>
      </trkpt>
      <trkpt lat="46.51246" lon="4.53641">
        <ele>335.894</ele>
        <time>2022-09-20T08:58:04Z</time>
      </trkpt>
      <trkpt lat="46.51238" lon="4.53641">
        <ele>337.194</ele>
        <time>2022-09-20T08:58:10Z</time>
      </trkpt>
      <trkpt lat="46.51231" lon="4.5364">
        <ele>337.594</ele>
        <time>2022-09-20T08:58:16Z</time>
      </trkpt>
      <trkpt lat="46.51224" lon="4.53642">
        <ele>336.594</ele>
        <time>2022-09-20T08:58:22Z</time>
      </trkpt>
      <trkpt lat="46.51217" lon="4.53642">
        <ele>335.994</ele>
        <time>2022-09-20T08:58:28Z</time>
      </trkpt>
      <trkpt lat="46.5121" lon="4.53641">
        <ele>336.494</ele>
        <time>2022-09-20T08:58:36Z</time>
      </trkpt>
      <trkpt lat="46.51203" lon="4.53641">
        <ele>336.794</ele>
        <time>2022-09-20T08:58:43Z</time>
      </trkpt>
      <trkpt lat="46.51197" lon="4.53643">
        <ele>337.194</ele>
        <time>2022-09-20T08:58:50Z</time>
      </trkpt>
      <trkpt lat="46.51189" lon="4.53643">
        <ele>336.293</ele>
        <time>2022-09-20T08:58:56Z</time>
      </trkpt>
      <trkpt lat="46.51182" lon="4.53642">
        <ele>335.093</ele>
        <time>2022-09-20T08:59:03Z</time>
      </trkpt>
      <trkpt lat="46.51175" lon="4.53642">
        <ele>333.393</ele>
        <time>2022-09-20T08:59:09Z</time>
      </trkpt>
      <trkpt lat="46.51168" lon="4.53642">
        <ele>334.193</ele>
        <time>2022-09-20T08:59:14Z</time>
      </trkpt>
      <trkpt lat="46.51162" lon="4.53646">
        <ele>336.893</ele>
        <time>2022-09-20T08:59:20Z</time>
      </trkpt>
      <trkpt lat="46.51155" lon="4.53648">
        <ele>337.693</ele>
        <time>2022-09-20T08:59:27Z</time>
      </trkpt>
      <trkpt lat="46.51148" lon="4.53649">
        <ele>336.793</ele>
        <time>2022-09-20T08:59:33Z</time>
      </trkpt>
      <trkpt lat="46.51142" lon="4.53644">
        <ele>335.493</ele>
        <time>2022-09-20T09:00:48Z</time>
      </trkpt>
      <trkpt lat="46.51136" lon="4.53639">
        <ele>335.393</ele>
        <time>2022-09-20T09:01:02Z</time>
      </trkpt>
      <trkpt lat="46.51129" lon="4.5364">
        <ele>335.393</ele>
        <time>2022-09-20T09:01:11Z</time>
      </trkpt>
      <trkpt lat="46.51121" lon="4.5364">
        <ele>336.293</ele>
        <time>2022-09-20T09:01:17Z</time>
      </trkpt>
      <trkpt lat="46.51114" lon="4.5364">
        <ele>337.093</ele>
        <time>2022-09-20T09:01:23Z</time>
      </trkpt>
      <trkpt lat="46.51107" lon="4.53643">
        <ele>337.393</ele>
        <time>2022-09-20T09:01:30Z</time>
      </trkpt>
      <trkpt lat="46.511" lon="4.53642">
        <ele>338.393</ele>
        <time>2022-09-20T09:01:35Z</time>
      </trkpt>
      <trkpt lat="46.51094" lon="4.53644">
        <ele>338.293</ele>
        <time>2022-09-20T09:01:41Z</time>
      </trkpt>
      <trkpt lat="46.51086" lon="4.53644">
        <ele>336.693</ele>
        <time>2022-09-20T09:01:48Z</time>
      </trkpt>
      <trkpt lat="46.51079" lon="4.53644">
        <ele>334.493</ele>
        <time>2022-09-20T09:01:56Z</time>
      </trkpt>
      <trkpt lat="46.51073" lon="4.53644">
        <ele>333.193</ele>
        <time>2022-09-20T09:02:04Z</time>
      </trkpt>
      <trkpt lat="46.51065" lon="4.53644">
        <ele>333.393</ele>
        <time>2022-09-20T09:02:10Z</time>
      </trkpt>
      <trkpt lat="46.51058" lon="4.53645">
        <ele>332.993</ele>
        <time>2022-09-20T09:02:15Z</time>
      </trkpt>
      <trkpt lat="46.51051" lon="4.53645">
        <ele>333.393</ele>
        <time>2022-09-20T09:02:21Z</time>
      </trkpt>
      <trkpt lat="46.51043" lon="4.53644">
        <ele>334.793</ele>
        <time>2022-09-20T09:02:28Z</time>
      </trkpt>
      <trkpt lat="46.51037" lon="4.53643">
        <ele>334.593</ele>
        <time>2022-09-20T09:02:33Z</time>
      </trkpt>
      <trkpt lat="46.51029" lon="4.53641">
        <ele>335.893</ele>
        <time>2022-09-20T09:02:40Z</time>
      </trkpt>
      <trkpt lat="46.51023" lon="4.5364">
        <ele>336.793</ele>
        <time>2022-09-20T09:02:46Z</time>
      </trkpt>
      <trkpt lat="46.51016" lon="4.53643">
        <ele>337.293</ele>
        <time>2022-09-20T09:02:52Z</time>
      </trkpt>
      <trkpt lat="46.5101" lon="4.53646">
        <ele>337.693</ele>
        <time>2022-09-20T09:02:58Z</time>
      </trkpt>
      <trkpt lat="46.51003" lon="4.53648">
        <ele>337.593</ele>
        <time>2022-09-20T09:03:03Z</time>
      </trkpt>
      <trkpt lat="46.50996" lon="4.5365">
        <ele>337.093</ele>
        <time>2022-09-20T09:03:09Z</time>
      </trkpt>
      <trkpt lat="46.50989" lon="4.53652">
        <ele>340.493</ele>
        <time>2022-09-20T09:03:41Z</time>
      </trkpt>
      <trkpt lat="46.50982" lon="4.53652">
        <ele>339.993</ele>
        <time>2022-09-20T09:03:48Z</time>
      </trkpt>
      <trkpt lat="46.50976" lon="4.53648">
        <ele>338.993</ele>
        <time>2022-09-20T09:03:54Z</time>
      </trkpt>
      <trkpt lat="46.50969" lon="4.53644">
        <ele>339.493</ele>
        <time>2022-09-20T09:04:00Z</time>
      </trkpt>
      <trkpt lat="46.50962" lon="4.53642">
        <ele>340.093</ele>
        <time>2022-09-20T09:04:06Z</time>
      </trkpt>
      <trkpt lat="46.50955" lon="4.53641">
        <ele>340.093</ele>
        <time>2022-09-20T09:04:13Z</time>
      </trkpt>
      <trkpt lat="46.50948" lon="4.53639">
        <ele>340.093</ele>
        <time>2022-09-20T09:04:18Z</time>
      </trkpt>
      <trkpt lat="46.5094" lon="4.53639">
        <ele>341.093</ele>
        <time>2022-09-20T09:04:23Z</time>
      </trkpt>
      <trkpt lat="46.50932" lon="4.53641">
        <ele>342.193</ele>
        <time>2022-09-20T09:04:29Z</time>
      </trkpt>
      <trkpt lat="46.50925" lon="4.53642">
        <ele>342.793</ele>
        <time>2022-09-20T09:04:35Z</time>
      </trkpt>
      <trkpt lat="46.50919" lon="4.53647">
        <ele>343.793</ele>
        <time>2022-09-20T09:04:42Z</time>
      </trkpt>
      <trkpt lat="46.50912" lon="4.5365">
        <ele>344.093</ele>
        <time>2022-09-20T09:04:47Z</time>
      </trkpt>
      <trkpt lat="46.50904" lon="4.53656">
        <ele>342.093</ele>
        <time>2022-09-20T09:04:53Z</time>
      </trkpt>
      <trkpt lat="46.50898" lon="4.5366">
        <ele>341.993</ele>
        <time>2022-09-20T09:04:58Z</time>
      </trkpt>
      <trkpt lat="46.5089" lon="4.53664">
        <ele>341.993</ele>
        <time>2022-09-20T09:05:03Z</time>
      </trkpt>
      <trkpt lat="46.50883" lon="4.53669">
        <ele>340.793</ele>
        <time>2022-09-20T09:05:09Z</time>
      </trkpt>
      <trkpt lat="46.50876" lon="4.53671">
        <ele>339.593</ele>
        <time>2022-09-20T09:05:16Z</time>
      </trkpt>
      <trkpt lat="46.50869" lon="4.53674">
        <ele>340.093</ele>
        <time>2022-09-20T09:05:23Z</time>
      </trkpt>
      <trkpt lat="46.50863" lon="4.53677">
        <ele>340.393</ele>
        <time>2022-09-20T09:05:30Z</time>
      </trkpt>
      <trkpt lat="46.50857" lon="4.53683">
        <ele>338.393</ele>
        <time>2022-09-20T09:05:36Z</time>
      </trkpt>
      <trkpt lat="46.50851" lon="4.5369">
        <ele>336.993</ele>
        <time>2022-09-20T09:05:42Z</time>
      </trkpt>
      <trkpt lat="46.50847" lon="4.53699">
        <ele>335.593</ele>
        <time>2022-09-20T09:05:49Z</time>
      </trkpt>
      <trkpt lat="46.50844" lon="4.53708">
        <ele>334.793</ele>
        <time>2022-09-20T09:05:54Z</time>
      </trkpt>
      <trkpt lat="46.50839" lon="4.53716">
        <ele>334.293</ele>
        <time>2022-09-20T09:05:59Z</time>
      </trkpt>
      <trkpt lat="46.50833" lon="4.53722">
        <ele>333.193</ele>
        <time>2022-09-20T09:06:05Z</time>
      </trkpt>
      <trkpt lat="46.50828" lon="4.53728">
        <ele>331.693</ele>
        <time>2022-09-20T09:06:13Z</time>
      </trkpt>
      <trkpt lat="46.50821" lon="4.53726">
        <ele>331.593</ele>
        <time>2022-09-20T09:06:21Z</time>
      </trkpt>
      <trkpt lat="46.50813" lon="4.53726">
        <ele>328.993</ele>
        <time>2022-09-20T09:06:28Z</time>
      </trkpt>
      <trkpt lat="46.50805" lon="4.53726">
        <ele>327.992</ele>
        <time>2022-09-20T09:06:34Z</time>
      </trkpt>
      <trkpt lat="46.50798" lon="4.53724">
        <ele>326.692</ele>
        <time>2022-09-20T09:06:39Z</time>
      </trkpt>
      <trkpt lat="46.50789" lon="4.53725">
        <ele>326.792</ele>
        <time>2022-09-20T09:06:45Z</time>
      </trkpt>
      <trkpt lat="46.5078" lon="4.53725">
        <ele>326.292</ele>
        <time>2022-09-20T09:06:50Z</time>
      </trkpt>
      <trkpt lat="46.50774" lon="4.53726">
        <ele>325.292</ele>
        <time>2022-09-20T09:06:56Z</time>
      </trkpt>
      <trkpt lat="46.50767" lon="4.53728">
        <ele>326.192</ele>
        <time>2022-09-20T09:07:03Z</time>
      </trkpt>
      <trkpt lat="46.5076" lon="4.53731">
        <ele>327.392</ele>
        <time>2022-09-20T09:07:09Z</time>
      </trkpt>
      <trkpt lat="46.50754" lon="4.53734">
        <ele>326.992</ele>
        <time>2022-09-20T09:07:14Z</time>
      </trkpt>
      <trkpt lat="46.50748" lon="4.53739">
        <ele>328.492</ele>
        <time>2022-09-20T09:07:20Z</time>
      </trkpt>
      <trkpt lat="46.50741" lon="4.53741">
        <ele>328.792</ele>
        <time>2022-09-20T09:07:25Z</time>
      </trkpt>
      <trkpt lat="46.50735" lon="4.53744">
        <ele>329.292</ele>
        <time>2022-09-20T09:07:30Z</time>
      </trkpt>
      <trkpt lat="46.50728" lon="4.53746">
        <ele>327.692</ele>
        <time>2022-09-20T09:07:35Z</time>
      </trkpt>
      <trkpt lat="46.5072" lon="4.53749">
        <ele>327.192</ele>
        <time>2022-09-20T09:07:40Z</time>
      </trkpt>
      <trkpt lat="46.50713" lon="4.53751">
        <ele>326.392</ele>
        <time>2022-09-20T09:07:46Z</time>
      </trkpt>
      <trkpt lat="46.50706" lon="4.53755">
        <ele>325.392</ele>
        <time>2022-09-20T09:07:51Z</time>
      </trkpt>
      <trkpt lat="46.507" lon="4.5376">
        <ele>324.292</ele>
        <time>2022-09-20T09:07:57Z</time>
      </trkpt>
      <trkpt lat="46.50692" lon="4.53766">
        <ele>322.992</ele>
        <time>2022-09-20T09:08:02Z</time>
      </trkpt>
      <trkpt lat="46.50684" lon="4.53773">
        <ele>322.792</ele>
        <time>2022-09-20T09:08:07Z</time>
      </trkpt>
      <trkpt lat="46.50677" lon="4.53779">
        <ele>320.792</ele>
        <time>2022-09-20T09:08:13Z</time>
      </trkpt>
      <trkpt lat="46.50671" lon="4.53784">
        <ele>322.292</ele>
        <time>2022-09-20T09:09:47Z</time>
      </trkpt>
      <trkpt lat="46.50664" lon="4.53788">
        <ele>321.092</ele>
        <time>2022-09-20T09:09:53Z</time>
      </trkpt>
      <trkpt lat="46.50657" lon="4.53791">
        <ele>320.292</ele>
        <time>2022-09-20T09:09:58Z</time>
      </trkpt>
      <trkpt lat="46.5065" lon="4.53793">
        <ele>318.992</ele>
        <time>2022-09-20T09:10:03Z</time>
      </trkpt>
      <trkpt lat="46.50644" lon="4.53793">
        <ele>316.992</ele>
        <time>2022-09-20T09:10:09Z</time>
      </trkpt>
      <trkpt lat="46.50637" lon="4.53792">
        <ele>315.292</ele>
        <time>2022-09-20T09:10:17Z</time>
      </trkpt>
      <trkpt lat="46.5063" lon="4.53792">
        <ele>312.792</ele>
        <time>2022-09-20T09:10:24Z</time>
      </trkpt>
      <trkpt lat="46.50622" lon="4.53792">
        <ele>311.192</ele>
        <time>2022-09-20T09:10:29Z</time>
      </trkpt>
      <trkpt lat="46.50616" lon="4.5379">
        <ele>311.592</ele>
        <time>2022-09-20T09:10:34Z</time>
      </trkpt>
      <trkpt lat="46.50608" lon="4.53787">
        <ele>312.692</ele>
        <time>2022-09-20T09:10:39Z</time>
      </trkpt>
      <trkpt lat="46.506" lon="4.53788">
        <ele>315.892</ele>
        <time>2022-09-20T09:10:45Z</time>
      </trkpt>
      <trkpt lat="46.50593" lon="4.53786">
        <ele>317.292</ele>
        <time>2022-09-20T09:10:50Z</time>
      </trkpt>
      <trkpt lat="46.50586" lon="4.53785">
        <ele>318.092</ele>
        <time>2022-09-20T09:10:57Z</time>
      </trkpt>
      <trkpt lat="46.5058" lon="4.53785">
        <ele>317.492</ele>
        <time>2022-09-20T09:11:02Z</time>
      </trkpt>
      <trkpt lat="46.50573" lon="4.53787">
        <ele>317.192</ele>
        <time>2022-09-20T09:11:07Z</time>
      </trkpt>
      <trkpt lat="46.50566" lon="4.53788">
        <ele>317.492</ele>
        <time>2022-09-20T09:11:13Z</time>
      </trkpt>
      <trkpt lat="46.5056" lon="4.5379">
        <ele>317.692</ele>
        <time>2022-09-20T09:11:18Z</time>
      </trkpt>
      <trkpt lat="46.50552" lon="4.53791">
        <ele>316.792</ele>
        <time>2022-09-20T09:11:23Z</time>
      </trkpt>
      <trkpt lat="46.50544" lon="4.5379">
        <ele>315.992</ele>
        <time>2022-09-20T09:11:29Z</time>
      </trkpt>
      <trkpt lat="46.50537" lon="4.53791">
        <ele>315.192</ele>
        <time>2022-09-20T09:11:34Z</time>
      </trkpt>
      <trkpt lat="46.50529" lon="4.5379">
        <ele>314.792</ele>
        <time>2022-09-20T09:11:40Z</time>
      </trkpt>
      <trkpt lat="46.5052" lon="4.5379">
        <ele>314.292</ele>
        <time>2022-09-20T09:11:45Z</time>
      </trkpt>
      <trkpt lat="46.50513" lon="4.5379">
        <ele>314.392</ele>
        <time>2022-09-20T09:11:51Z</time>
      </trkpt>
      <trkpt lat="46.50505" lon="4.53791">
        <ele>313.792</ele>
        <time>2022-09-20T09:11:57Z</time>
      </trkpt>
      <trkpt lat="46.50497" lon="4.53792">
        <ele>314.392</ele>
        <time>2022-09-20T09:12:03Z</time>
      </trkpt>
      <trkpt lat="46.5049" lon="4.53794">
        <ele>314.392</ele>
        <time>2022-09-20T09:12:09Z</time>
      </trkpt>
      <trkpt lat="46.50483" lon="4.53797">
        <ele>315.392</ele>
        <time>2022-09-20T09:12:14Z</time>
      </trkpt>
      <trkpt lat="46.50476" lon="4.53798">
        <ele>316.892</ele>
        <time>2022-09-20T09:12:20Z</time>
      </trkpt>
      <trkpt lat="46.50469" lon="4.53799">
        <ele>317.692</ele>
        <time>2022-09-20T09:12:25Z</time>
      </trkpt>
      <trkpt lat="46.50462" lon="4.53798">
        <ele>319.492</ele>
        <time>2022-09-20T09:12:32Z</time>
      </trkpt>
      <trkpt lat="46.50454" lon="4.53797">
        <ele>319.792</ele>
        <time>2022-09-20T09:12:37Z</time>
      </trkpt>
      <trkpt lat="46.50447" lon="4.53798">
        <ele>320.292</ele>
        <time>2022-09-20T09:12:43Z</time>
      </trkpt>
      <trkpt lat="46.5044" lon="4.53798">
        <ele>320.592</ele>
        <time>2022-09-20T09:12:49Z</time>
      </trkpt>
      <trkpt lat="46.50432" lon="4.53799">
        <ele>320.692</ele>
        <time>2022-09-20T09:12:54Z</time>
      </trkpt>
      <trkpt lat="46.50426" lon="4.538">
        <ele>321.092</ele>
        <time>2022-09-20T09:12:59Z</time>
      </trkpt>
      <trkpt lat="46.50416" lon="4.53802">
        <ele>321.091</ele>
        <time>2022-09-20T09:13:05Z</time>
      </trkpt>
      <trkpt lat="46.50409" lon="4.53804">
        <ele>320.491</ele>
        <time>2022-09-20T09:13:11Z</time>
      </trkpt>
      <trkpt lat="46.50401" lon="4.53807">
        <ele>318.691</ele>
        <time>2022-09-20T09:13:17Z</time>
      </trkpt>
      <trkpt lat="46.50394" lon="4.53809">
        <ele>318.191</ele>
        <time>2022-09-20T09:13:23Z</time>
      </trkpt>
      <trkpt lat="46.50387" lon="4.53811">
        <ele>317.491</ele>
        <time>2022-09-20T09:13:29Z</time>
      </trkpt>
      <trkpt lat="46.5038" lon="4.53812">
        <ele>319.391</ele>
        <time>2022-09-20T09:13:35Z</time>
      </trkpt>
      <trkpt lat="46.50371" lon="4.53818">
        <ele>319.991</ele>
        <time>2022-09-20T09:13:41Z</time>
      </trkpt>
      <trkpt lat="46.50364" lon="4.53818">
        <ele>320.391</ele>
        <time>2022-09-20T09:13:46Z</time>
      </trkpt>
      <trkpt lat="46.50357" lon="4.5382">
        <ele>320.891</ele>
        <time>2022-09-20T09:13:51Z</time>
      </trkpt>
      <trkpt lat="46.50349" lon="4.53821">
        <ele>321.591</ele>
        <time>2022-09-20T09:13:57Z</time>
      </trkpt>
      <trkpt lat="46.50342" lon="4.53824">
        <ele>321.391</ele>
        <time>2022-09-20T09:14:03Z</time>
      </trkpt>
      <trkpt lat="46.50334" lon="4.53826">
        <ele>320.591</ele>
        <time>2022-09-20T09:14:10Z</time>
      </trkpt>
      <trkpt lat="46.50327" lon="4.53828">
        <ele>320.191</ele>
        <time>2022-09-20T09:14:15Z</time>
      </trkpt>
      <trkpt lat="46.5032" lon="4.53829">
        <ele>320.091</ele>
        <time>2022-09-20T09:14:21Z</time>
      </trkpt>
      <trkpt lat="46.50313" lon="4.53833">
        <ele>320.091</ele>
        <time>2022-09-20T09:14:26Z</time>
      </trkpt>
      <trkpt lat="46.50305" lon="4.53835">
        <ele>321.191</ele>
        <time>2022-09-20T09:14:32Z</time>
      </trkpt>
      <trkpt lat="46.50299" lon="4.53837">
        <ele>321.291</ele>
        <time>2022-09-20T09:14:37Z</time>
      </trkpt>
      <trkpt lat="46.50292" lon="4.53839">
        <ele>321.691</ele>
        <time>2022-09-20T09:14:43Z</time>
      </trkpt>
      <trkpt lat="46.50283" lon="4.53842">
        <ele>321.291</ele>
        <time>2022-09-20T09:14:49Z</time>
      </trkpt>
      <trkpt lat="46.50276" lon="4.53844">
        <ele>322.291</ele>
        <time>2022-09-20T09:14:55Z</time>
      </trkpt>
      <trkpt lat="46.50269" lon="4.53844">
        <ele>321.991</ele>
        <time>2022-09-20T09:15:02Z</time>
      </trkpt>
      <trkpt lat="46.50262" lon="4.53847">
        <ele>323.091</ele>
        <time>2022-09-20T09:15:11Z</time>
      </trkpt>
      <trkpt lat="46.50255" lon="4.53848">
        <ele>323.391</ele>
        <time>2022-09-20T09:17:17Z</time>
      </trkpt>
      <trkpt lat="46.50248" lon="4.53849">
        <ele>322.791</ele>
        <time>2022-09-20T09:18:47Z</time>
      </trkpt>
      <trkpt lat="46.50241" lon="4.53851">
        <ele>322.491</ele>
        <time>2022-09-20T09:18:56Z</time>
      </trkpt>
      <trkpt lat="46.50234" lon="4.5385">
        <ele>321.291</ele>
        <time>2022-09-20T09:19:03Z</time>
      </trkpt>
      <trkpt lat="46.50227" lon="4.53847">
        <ele>319.091</ele>
        <time>2022-09-20T09:19:10Z</time>
      </trkpt>
      <trkpt lat="46.5022" lon="4.53846">
        <ele>318.491</ele>
        <time>2022-09-20T09:19:18Z</time>
      </trkpt>
      <trkpt lat="46.50213" lon="4.53846">
        <ele>317.091</ele>
        <time>2022-09-20T09:19:26Z</time>
      </trkpt>
      <trkpt lat="46.50206" lon="4.53846">
        <ele>315.591</ele>
        <time>2022-09-20T09:19:33Z</time>
      </trkpt>
      <trkpt lat="46.50199" lon="4.53844">
        <ele>314.491</ele>
        <time>2022-09-20T09:19:39Z</time>
      </trkpt>
      <trkpt lat="46.50192" lon="4.53846">
        <ele>316.191</ele>
        <time>2022-09-20T09:19:49Z</time>
      </trkpt>
      <trkpt lat="46.50184" lon="4.53844">
        <ele>315.491</ele>
        <time>2022-09-20T09:19:56Z</time>
      </trkpt>
      <trkpt lat="46.50178" lon="4.53844">
        <ele>316.691</ele>
        <time>2022-09-20T09:20:02Z</time>
      </trkpt>
      <trkpt lat="46.50171" lon="4.53844">
        <ele>315.791</ele>
        <time>2022-09-20T09:20:08Z</time>
      </trkpt>
      <trkpt lat="46.50164" lon="4.53843">
        <ele>314.491</ele>
        <time>2022-09-20T09:20:15Z</time>
      </trkpt>
      <trkpt lat="46.50155" lon="4.53842">
        <ele>312.591</ele>
        <time>2022-09-20T09:20:21Z</time>
      </trkpt>
      <trkpt lat="46.50149" lon="4.53838">
        <ele>310.891</ele>
        <time>2022-09-20T09:20:27Z</time>
      </trkpt>
      <trkpt lat="46.50142" lon="4.53836">
        <ele>309.891</ele>
        <time>2022-09-20T09:20:33Z</time>
      </trkpt>
      <trkpt lat="46.50136" lon="4.53832">
        <ele>311.391</ele>
        <time>2022-09-20T09:20:39Z</time>
      </trkpt>
      <trkpt lat="46.50132" lon="4.53822">
        <ele>310.791</ele>
        <time>2022-09-20T09:20:45Z</time>
      </trkpt>
      <trkpt lat="46.50128" lon="4.53814">
        <ele>311.091</ele>
        <time>2022-09-20T09:20:53Z</time>
      </trkpt>
      <trkpt lat="46.50122" lon="4.5381">
        <ele>311.591</ele>
        <time>2022-09-20T09:20:59Z</time>
      </trkpt>
      <trkpt lat="46.50113" lon="4.53811">
        <ele>310.991</ele>
        <time>2022-09-20T09:21:05Z</time>
      </trkpt>
      <trkpt lat="46.50106" lon="4.5381">
        <ele>311.491</ele>
        <time>2022-09-20T09:21:10Z</time>
      </trkpt>
      <trkpt lat="46.50099" lon="4.53808">
        <ele>311.991</ele>
        <time>2022-09-20T09:21:16Z</time>
      </trkpt>
      <trkpt lat="46.50092" lon="4.5381">
        <ele>311.791</ele>
        <time>2022-09-20T09:21:23Z</time>
      </trkpt>
      <trkpt lat="46.50085" lon="4.5381">
        <ele>309.591</ele>
        <time>2022-09-20T09:21:29Z</time>
      </trkpt>
      <trkpt lat="46.50079" lon="4.53809">
        <ele>307.991</ele>
        <time>2022-09-20T09:21:34Z</time>
      </trkpt>
      <trkpt lat="46.50071" lon="4.53805">
        <ele>306.691</ele>
        <time>2022-09-20T09:21:41Z</time>
      </trkpt>
      <trkpt lat="46.50065" lon="4.53801">
        <ele>305.891</ele>
        <time>2022-09-20T09:21:47Z</time>
      </trkpt>
      <trkpt lat="46.50059" lon="4.53797">
        <ele>303.191</ele>
        <time>2022-09-20T09:21:53Z</time>
      </trkpt>
      <trkpt lat="46.50052" lon="4.53795">
        <ele>301.89</ele>
        <time>2022-09-20T09:22:00Z</time>
      </trkpt>
      <trkpt lat="46.50045" lon="4.53791">
        <ele>299.49</ele>
        <time>2022-09-20T09:22:07Z</time>
      </trkpt>
      <trkpt lat="46.50038" lon="4.53786">
        <ele>299.29</ele>
        <time>2022-09-20T09:22:13Z</time>
      </trkpt>
      <trkpt lat="46.50032" lon="4.53783">
        <ele>298.49</ele>
        <time>2022-09-20T09:22:18Z</time>
      </trkpt>
      <trkpt lat="46.50026" lon="4.5378">
        <ele>298.29</ele>
        <time>2022-09-20T09:22:23Z</time>
      </trkpt>
      <trkpt lat="46.50018" lon="4.53777">
        <ele>297.79</ele>
        <time>2022-09-20T09:22:29Z</time>
      </trkpt>
      <trkpt lat="46.5001" lon="4.53777">
        <ele>296.59</ele>
        <time>2022-09-20T09:22:36Z</time>
      </trkpt>
      <trkpt lat="46.50003" lon="4.53776">
        <ele>297.59</ele>
        <time>2022-09-20T09:22:43Z</time>
      </trkpt>
      <trkpt lat="46.49996" lon="4.53779">
        <ele>297.09</ele>
        <time>2022-09-20T09:22:49Z</time>
      </trkpt>
      <trkpt lat="46.49989" lon="4.5378">
        <ele>297.59</ele>
        <time>2022-09-20T09:22:58Z</time>
      </trkpt>
      <trkpt lat="46.49986" lon="4.5379">
        <ele>297.99</ele>
        <time>2022-09-20T09:24:27Z</time>
      </trkpt>
      <trkpt lat="46.49983" lon="4.538">
        <ele>298.39</ele>
        <time>2022-09-20T09:24:32Z</time>
      </trkpt>
      <trkpt lat="46.4998" lon="4.53809">
        <ele>298.69</ele>
        <time>2022-09-20T09:24:37Z</time>
      </trkpt>
      <trkpt lat="46.49977" lon="4.53818">
        <ele>297.89</ele>
        <time>2022-09-20T09:24:43Z</time>
      </trkpt>
      <trkpt lat="46.49973" lon="4.53826">
        <ele>297.39</ele>
        <time>2022-09-20T09:24:49Z</time>
      </trkpt>
      <trkpt lat="46.4997" lon="4.53834">
        <ele>294.99</ele>
        <time>2022-09-20T09:24:57Z</time>
      </trkpt>
      <trkpt lat="46.49967" lon="4.53843">
        <ele>292.89</ele>
        <time>2022-09-20T09:25:03Z</time>
      </trkpt>
      <trkpt lat="46.49964" lon="4.53852">
        <ele>292.19</ele>
        <time>2022-09-20T09:25:09Z</time>
      </trkpt>
      <trkpt lat="46.49963" lon="4.53866">
        <ele>298.09</ele>
        <time>2022-09-20T09:27:58Z</time>
      </trkpt>
      <trkpt lat="46.49959" lon="4.53857">
        <ele>289.59</ele>
        <time>2022-09-20T09:28:45Z</time>
      </trkpt>
      <trkpt lat="46.49958" lon="4.53867">
        <ele>290.89</ele>
        <time>2022-09-20T09:29:00Z</time>
      </trkpt>
      <trkpt lat="46.49958" lon="4.53876">
        <ele>291.89</ele>
        <time>2022-09-20T09:29:07Z</time>
      </trkpt>
      <trkpt lat="46.49956" lon="4.53887">
        <ele>292.79</ele>
        <time>2022-09-20T09:29:17Z</time>
      </trkpt>
      <trkpt lat="46.49958" lon="4.53897">
        <ele>293.89</ele>
        <time>2022-09-20T09:29:23Z</time>
      </trkpt>
      <trkpt lat="46.49961" lon="4.53907">
        <ele>293.39</ele>
        <time>2022-09-20T09:29:31Z</time>
      </trkpt>
      <trkpt lat="46.49963" lon="4.53916">
        <ele>292.09</ele>
        <time>2022-09-20T09:29:39Z</time>
      </trkpt>
      <trkpt lat="46.49965" lon="4.53925">
        <ele>293.59</ele>
        <time>2022-09-20T09:29:46Z</time>
      </trkpt>
      <trkpt lat="46.49969" lon="4.53934">
        <ele>294.69</ele>
        <time>2022-09-20T09:29:53Z</time>
      </trkpt>
      <trkpt lat="46.49972" lon="4.53943">
        <ele>297.69</ele>
        <time>2022-09-20T09:30:01Z</time>
      </trkpt>
      <trkpt lat="46.49977" lon="4.5395">
        <ele>299.89</ele>
        <time>2022-09-20T09:30:11Z</time>
      </trkpt>
      <trkpt lat="46.4998" lon="4.53958">
        <ele>301.89</ele>
        <time>2022-09-20T09:30:19Z</time>
      </trkpt>
      <trkpt lat="46.49984" lon="4.53967">
        <ele>301.29</ele>
        <time>2022-09-20T09:30:26Z</time>
      </trkpt>
      <trkpt lat="46.49987" lon="4.53976">
        <ele>299.89</ele>
        <time>2022-09-20T09:30:34Z</time>
      </trkpt>
      <trkpt lat="46.49993" lon="4.53983">
        <ele>298.09</ele>
        <time>2022-09-20T09:30:42Z</time>
      </trkpt>
      <trkpt lat="46.49998" lon="4.5399">
        <ele>296.39</ele>
        <time>2022-09-20T09:35:12Z</time>
      </trkpt>
      <trkpt lat="46.50004" lon="4.53997">
        <ele>295.791</ele>
        <time>2022-09-20T09:35:20Z</time>
      </trkpt>
      <trkpt lat="46.5001" lon="4.54003">
        <ele>295.591</ele>
        <time>2022-09-20T09:35:26Z</time>
      </trkpt>
      <trkpt lat="46.50016" lon="4.54007">
        <ele>295.291</ele>
        <time>2022-09-20T09:35:32Z</time>
      </trkpt>
      <trkpt lat="46.50022" lon="4.54011">
        <ele>295.891</ele>
        <time>2022-09-20T09:35:39Z</time>
      </trkpt>
      <trkpt lat="46.50029" lon="4.54013">
        <ele>295.091</ele>
        <time>2022-09-20T09:35:46Z</time>
      </trkpt>
      <trkpt lat="46.50037" lon="4.54016">
        <ele>296.391</ele>
        <time>2022-09-20T09:35:52Z</time>
      </trkpt>
      <trkpt lat="46.50042" lon="4.5402">
        <ele>296.891</ele>
        <time>2022-09-20T09:35:57Z</time>
      </trkpt>
      <trkpt lat="46.50047" lon="4.54026">
        <ele>297.091</ele>
        <time>2022-09-20T09:36:02Z</time>
      </trkpt>
      <trkpt lat="46.50052" lon="4.54035">
        <ele>296.691</ele>
        <time>2022-09-20T09:36:08Z</time>
      </trkpt>
      <trkpt lat="46.50056" lon="4.54044">
        <ele>299.391</ele>
        <time>2022-09-20T09:36:13Z</time>
      </trkpt>
      <trkpt lat="46.5006" lon="4.54051">
        <ele>299.691</ele>
        <time>2022-09-20T09:36:19Z</time>
      </trkpt>
      <trkpt lat="46.50065" lon="4.54057">
        <ele>299.391</ele>
        <time>2022-09-20T09:36:25Z</time>
      </trkpt>
      <trkpt lat="46.50071" lon="4.54062">
        <ele>300.291</ele>
        <time>2022-09-20T09:36:31Z</time>
      </trkpt>
      <trkpt lat="46.50077" lon="4.54069">
        <ele>300.391</ele>
        <time>2022-09-20T09:36:38Z</time>
      </trkpt>
      <trkpt lat="46.50082" lon="4.54074">
        <ele>301.991</ele>
        <time>2022-09-20T09:36:44Z</time>
      </trkpt>
      <trkpt lat="46.50086" lon="4.54084">
        <ele>301.491</ele>
        <time>2022-09-20T09:37:05Z</time>
      </trkpt>
      <trkpt lat="46.50089" lon="4.54093">
        <ele>301.591</ele>
        <time>2022-09-20T09:37:11Z</time>
      </trkpt>
      <trkpt lat="46.50091" lon="4.54103">
        <ele>304.091</ele>
        <time>2022-09-20T09:37:18Z</time>
      </trkpt>
      <trkpt lat="46.50096" lon="4.5411">
        <ele>306.691</ele>
        <time>2022-09-20T09:37:27Z</time>
      </trkpt>
      <trkpt lat="46.50094" lon="4.54119">
        <ele>304.591</ele>
        <time>2022-09-20T09:37:36Z</time>
      </trkpt>
      <trkpt lat="46.5009" lon="4.54128">
        <ele>303.391</ele>
        <time>2022-09-20T09:37:46Z</time>
      </trkpt>
      <trkpt lat="46.50087" lon="4.54137">
        <ele>304.991</ele>
        <time>2022-09-20T09:37:54Z</time>
      </trkpt>
      <trkpt lat="46.50085" lon="4.54146">
        <ele>307.791</ele>
        <time>2022-09-20T09:37:59Z</time>
      </trkpt>
      <trkpt lat="46.50085" lon="4.54156">
        <ele>309.891</ele>
        <time>2022-09-20T09:38:05Z</time>
      </trkpt>
      <trkpt lat="46.50087" lon="4.54166">
        <ele>310.091</ele>
        <time>2022-09-20T09:38:16Z</time>
      </trkpt>
      <trkpt lat="46.50089" lon="4.54176">
        <ele>310.291</ele>
        <time>2022-09-20T09:38:22Z</time>
      </trkpt>
      <trkpt lat="46.50091" lon="4.54185">
        <ele>311.391</ele>
        <time>2022-09-20T09:38:36Z</time>
      </trkpt>
      <trkpt lat="46.50094" lon="4.54194">
        <ele>313.691</ele>
        <time>2022-09-20T09:38:42Z</time>
      </trkpt>
      <trkpt lat="46.50097" lon="4.54204">
        <ele>313.991</ele>
        <time>2022-09-20T09:38:48Z</time>
      </trkpt>
      <trkpt lat="46.501" lon="4.54214">
        <ele>312.991</ele>
        <time>2022-09-20T09:38:54Z</time>
      </trkpt>
      <trkpt lat="46.50105" lon="4.54221">
        <ele>313.691</ele>
        <time>2022-09-20T09:39:02Z</time>
      </trkpt>
      <trkpt lat="46.5011" lon="4.54229">
        <ele>314.091</ele>
        <time>2022-09-20T09:39:09Z</time>
      </trkpt>
      <trkpt lat="46.50114" lon="4.54238">
        <ele>314.991</ele>
        <time>2022-09-20T09:39:16Z</time>
      </trkpt>
      <trkpt lat="46.50118" lon="4.54247">
        <ele>317.391</ele>
        <time>2022-09-20T09:39:23Z</time>
      </trkpt>
      <trkpt lat="46.50121" lon="4.54256">
        <ele>317.591</ele>
        <time>2022-09-20T09:39:29Z</time>
      </trkpt>
      <trkpt lat="46.50123" lon="4.54266">
        <ele>317.891</ele>
        <time>2022-09-20T09:39:36Z</time>
      </trkpt>
      <trkpt lat="46.50123" lon="4.54276">
        <ele>317.891</ele>
        <time>2022-09-20T09:39:43Z</time>
      </trkpt>
      <trkpt lat="46.50123" lon="4.54287">
        <ele>318.591</ele>
        <time>2022-09-20T09:39:50Z</time>
      </trkpt>
      <trkpt lat="46.50123" lon="4.54298">
        <ele>318.491</ele>
        <time>2022-09-20T09:39:56Z</time>
      </trkpt>
      <trkpt lat="46.50125" lon="4.54308">
        <ele>319.191</ele>
        <time>2022-09-20T09:40:40Z</time>
      </trkpt>
      <trkpt lat="46.50129" lon="4.54316">
        <ele>321.591</ele>
        <time>2022-09-20T09:41:13Z</time>
      </trkpt>
      <trkpt lat="46.50132" lon="4.54326">
        <ele>322.391</ele>
        <time>2022-09-20T09:41:20Z</time>
      </trkpt>
      <trkpt lat="46.50136" lon="4.54335">
        <ele>321.691</ele>
        <time>2022-09-20T09:41:27Z</time>
      </trkpt>
      <trkpt lat="46.50139" lon="4.54344">
        <ele>320.891</ele>
        <time>2022-09-20T09:41:33Z</time>
      </trkpt>
      <trkpt lat="46.50141" lon="4.54354">
        <ele>320.891</ele>
        <time>2022-09-20T09:41:40Z</time>
      </trkpt>
      <trkpt lat="46.50143" lon="4.54363">
        <ele>320.291</ele>
        <time>2022-09-20T09:41:45Z</time>
      </trkpt>
      <trkpt lat="46.50144" lon="4.54374">
        <ele>321.491</ele>
        <time>2022-09-20T09:41:52Z</time>
      </trkpt>
      <trkpt lat="46.50146" lon="4.54384">
        <ele>321.591</ele>
        <time>2022-09-20T09:41:58Z</time>
      </trkpt>
      <trkpt lat="46.50147" lon="4.54395">
        <ele>321.791</ele>
        <time>2022-09-20T09:42:04Z</time>
      </trkpt>
      <trkpt lat="46.50148" lon="4.54405">
        <ele>321.791</ele>
        <time>2022-09-20T09:42:10Z</time>
      </trkpt>
      <trkpt lat="46.50149" lon="4.54415">
        <ele>321.991</ele>
        <time>2022-09-20T09:42:17Z</time>
      </trkpt>
      <trkpt lat="46.5015" lon="4.54426">
        <ele>322.391</ele>
        <time>2022-09-20T09:42:24Z</time>
      </trkpt>
      <trkpt lat="46.50152" lon="4.54436">
        <ele>323.391</ele>
        <time>2022-09-20T09:42:30Z</time>
      </trkpt>
      <trkpt lat="46.50153" lon="4.54447">
        <ele>324.391</ele>
        <time>2022-09-20T09:42:37Z</time>
      </trkpt>
      <trkpt lat="46.50154" lon="4.54457">
        <ele>324.591</ele>
        <time>2022-09-20T09:42:44Z</time>
      </trkpt>
      <trkpt lat="46.50155" lon="4.54466">
        <ele>324.591</ele>
        <time>2022-09-20T09:42:50Z</time>
      </trkpt>
      <trkpt lat="46.50158" lon="4.54477">
        <ele>325.891</ele>
        <time>2022-09-20T09:42:57Z</time>
      </trkpt>
      <trkpt lat="46.50161" lon="4.54486">
        <ele>326.991</ele>
        <time>2022-09-20T09:43:03Z</time>
      </trkpt>
      <trkpt lat="46.50166" lon="4.54494">
        <ele>327.291</ele>
        <time>2022-09-20T09:43:11Z</time>
      </trkpt>
      <trkpt lat="46.50171" lon="4.54501">
        <ele>328.291</ele>
        <time>2022-09-20T09:43:18Z</time>
      </trkpt>
      <trkpt lat="46.50176" lon="4.54509">
        <ele>328.591</ele>
        <time>2022-09-20T09:43:26Z</time>
      </trkpt>
      <trkpt lat="46.50182" lon="4.54516">
        <ele>329.091</ele>
        <time>2022-09-20T09:43:33Z</time>
      </trkpt>
      <trkpt lat="46.50186" lon="4.54524">
        <ele>329.691</ele>
        <time>2022-09-20T09:43:40Z</time>
      </trkpt>
      <trkpt lat="46.5019" lon="4.54532">
        <ele>330.991</ele>
        <time>2022-09-20T09:43:47Z</time>
      </trkpt>
      <trkpt lat="46.50193" lon="4.54541">
        <ele>330.791</ele>
        <time>2022-09-20T09:43:54Z</time>
      </trkpt>
      <trkpt lat="46.50191" lon="4.5455">
        <ele>331.791</ele>
        <time>2022-09-20T09:43:59Z</time>
      </trkpt>
      <trkpt lat="46.50191" lon="4.54561">
        <ele>332.291</ele>
        <time>2022-09-20T09:44:05Z</time>
      </trkpt>
      <trkpt lat="46.50192" lon="4.54571">
        <ele>332.591</ele>
        <time>2022-09-20T09:44:11Z</time>
      </trkpt>
      <trkpt lat="46.50192" lon="4.54582">
        <ele>333.191</ele>
        <time>2022-09-20T09:44:18Z</time>
      </trkpt>
      <trkpt lat="46.50194" lon="4.54591">
        <ele>332.091</ele>
        <time>2022-09-20T09:44:24Z</time>
      </trkpt>
      <trkpt lat="46.50197" lon="4.546">
        <ele>332.591</ele>
        <time>2022-09-20T09:44:30Z</time>
      </trkpt>
      <trkpt lat="46.502" lon="4.5461">
        <ele>333.792</ele>
        <time>2022-09-20T09:44:37Z</time>
      </trkpt>
      <trkpt lat="46.50203" lon="4.5462">
        <ele>335.892</ele>
        <time>2022-09-20T09:44:43Z</time>
      </trkpt>
      <trkpt lat="46.50206" lon="4.5463">
        <ele>337.292</ele>
        <time>2022-09-20T09:44:49Z</time>
      </trkpt>
      <trkpt lat="46.5021" lon="4.54639">
        <ele>339.092</ele>
        <time>2022-09-20T09:44:55Z</time>
      </trkpt>
      <trkpt lat="46.50214" lon="4.54647">
        <ele>339.792</ele>
        <time>2022-09-20T09:45:01Z</time>
      </trkpt>
      <trkpt lat="46.50217" lon="4.54655">
        <ele>341.692</ele>
        <time>2022-09-20T09:45:07Z</time>
      </trkpt>
      <trkpt lat="46.50218" lon="4.54666">
        <ele>340.692</ele>
        <time>2022-09-20T09:45:14Z</time>
      </trkpt>
      <trkpt lat="46.5022" lon="4.54676">
        <ele>339.792</ele>
        <time>2022-09-20T09:45:20Z</time>
      </trkpt>
      <trkpt lat="46.50222" lon="4.54686">
        <ele>339.392</ele>
        <time>2022-09-20T09:45:26Z</time>
      </trkpt>
      <trkpt lat="46.50223" lon="4.54696">
        <ele>340.092</ele>
        <time>2022-09-20T09:45:32Z</time>
      </trkpt>
      <trkpt lat="46.50224" lon="4.54705">
        <ele>341.392</ele>
        <time>2022-09-20T09:45:38Z</time>
      </trkpt>
      <trkpt lat="46.50225" lon="4.54715">
        <ele>343.592</ele>
        <time>2022-09-20T09:45:44Z</time>
      </trkpt>
      <trkpt lat="46.50225" lon="4.54726">
        <ele>345.592</ele>
        <time>2022-09-20T09:45:50Z</time>
      </trkpt>
      <trkpt lat="46.50225" lon="4.54735">
        <ele>344.592</ele>
        <time>2022-09-20T09:45:56Z</time>
      </trkpt>
      <trkpt lat="46.50228" lon="4.54744">
        <ele>344.392</ele>
        <time>2022-09-20T09:46:05Z</time>
      </trkpt>
      <trkpt lat="46.50227" lon="4.54754">
        <ele>343.392</ele>
        <time>2022-09-20T09:48:33Z</time>
      </trkpt>
      <trkpt lat="46.50229" lon="4.54744">
        <ele>343.492</ele>
        <time>2022-09-20T09:49:29Z</time>
      </trkpt>
      <trkpt lat="46.50225" lon="4.54752">
        <ele>341.992</ele>
        <time>2022-09-20T10:14:08Z</time>
      </trkpt>
      <trkpt lat="46.50229" lon="4.54742">
        <ele>343.092</ele>
        <time>2022-09-20T10:17:10Z</time>
      </trkpt>
      <trkpt lat="46.50229" lon="4.54754">
        <ele>341.492</ele>
        <time>2022-09-20T10:35:44Z</time>
      </trkpt>
      <trkpt lat="46.50227" lon="4.54764">
        <ele>345.892</ele>
        <time>2022-09-20T10:36:50Z</time>
      </trkpt>
      <trkpt lat="46.50227" lon="4.54774">
        <ele>343.892</ele>
        <time>2022-09-20T10:37:00Z</time>
      </trkpt>
      <trkpt lat="46.50227" lon="4.54784">
        <ele>343.192</ele>
        <time>2022-09-20T10:37:09Z</time>
      </trkpt>
      <trkpt lat="46.50227" lon="4.54794">
        <ele>343.692</ele>
        <time>2022-09-20T10:37:15Z</time>
      </trkpt>
      <trkpt lat="46.50226" lon="4.54805">
        <ele>342.992</ele>
        <time>2022-09-20T10:37:21Z</time>
      </trkpt>
      <trkpt lat="46.50227" lon="4.54814">
        <ele>342.792</ele>
        <time>2022-09-20T10:37:28Z</time>
      </trkpt>
      <trkpt lat="46.50227" lon="4.54824">
        <ele>342.992</ele>
        <time>2022-09-20T10:37:35Z</time>
      </trkpt>
      <trkpt lat="46.50226" lon="4.54835">
        <ele>343.892</ele>
        <time>2022-09-20T10:37:43Z</time>
      </trkpt>
      <trkpt lat="46.50226" lon="4.54845">
        <ele>342.392</ele>
        <time>2022-09-20T10:37:51Z</time>
      </trkpt>
      <trkpt lat="46.50226" lon="4.54855">
        <ele>345.192</ele>
        <time>2022-09-20T10:37:57Z</time>
      </trkpt>
      <trkpt lat="46.50226" lon="4.54865">
        <ele>345.492</ele>
        <time>2022-09-20T10:38:03Z</time>
      </trkpt>
      <trkpt lat="46.50225" lon="4.54875">
        <ele>342.192</ele>
        <time>2022-09-20T10:38:10Z</time>
      </trkpt>
      <trkpt lat="46.50224" lon="4.54886">
        <ele>341.192</ele>
        <time>2022-09-20T10:38:17Z</time>
      </trkpt>
      <trkpt lat="46.50223" lon="4.54896">
        <ele>340.092</ele>
        <time>2022-09-20T10:38:22Z</time>
      </trkpt>
      <trkpt lat="46.50222" lon="4.54906">
        <ele>339.492</ele>
        <time>2022-09-20T10:38:29Z</time>
      </trkpt>
      <trkpt lat="46.50221" lon="4.54917">
        <ele>339.392</ele>
        <time>2022-09-20T10:38:36Z</time>
      </trkpt>
      <trkpt lat="46.5022" lon="4.54929">
        <ele>339.192</ele>
        <time>2022-09-20T10:38:42Z</time>
      </trkpt>
      <trkpt lat="46.5022" lon="4.54939">
        <ele>340.192</ele>
        <time>2022-09-20T10:38:48Z</time>
      </trkpt>
      <trkpt lat="46.50221" lon="4.5495">
        <ele>339.192</ele>
        <time>2022-09-20T10:38:54Z</time>
      </trkpt>
      <trkpt lat="46.50222" lon="4.54959">
        <ele>337.292</ele>
        <time>2022-09-20T10:38:59Z</time>
      </trkpt>
      <trkpt lat="46.50224" lon="4.5497">
        <ele>336.792</ele>
        <time>2022-09-20T10:39:05Z</time>
      </trkpt>
      <trkpt lat="46.50225" lon="4.5498">
        <ele>336.692</ele>
        <time>2022-09-20T10:39:10Z</time>
      </trkpt>
      <trkpt lat="46.50225" lon="4.5499">
        <ele>336.092</ele>
        <time>2022-09-20T10:39:16Z</time>
      </trkpt>
      <trkpt lat="46.50225" lon="4.55001">
        <ele>335.892</ele>
        <time>2022-09-20T10:39:22Z</time>
      </trkpt>
      <trkpt lat="46.50224" lon="4.55011">
        <ele>334.592</ele>
        <time>2022-09-20T10:39:28Z</time>
      </trkpt>
      <trkpt lat="46.50225" lon="4.55021">
        <ele>333.292</ele>
        <time>2022-09-20T10:39:34Z</time>
      </trkpt>
      <trkpt lat="46.50225" lon="4.55032">
        <ele>334.592</ele>
        <time>2022-09-20T10:39:40Z</time>
      </trkpt>
      <trkpt lat="46.50225" lon="4.55043">
        <ele>333.592</ele>
        <time>2022-09-20T10:39:46Z</time>
      </trkpt>
      <trkpt lat="46.50224" lon="4.55053">
        <ele>333.192</ele>
        <time>2022-09-20T10:39:51Z</time>
      </trkpt>
      <trkpt lat="46.50222" lon="4.55062">
        <ele>334.292</ele>
        <time>2022-09-20T10:39:56Z</time>
      </trkpt>
      <trkpt lat="46.50221" lon="4.55074">
        <ele>334.592</ele>
        <time>2022-09-20T10:40:02Z</time>
      </trkpt>
      <trkpt lat="46.50219" lon="4.55083">
        <ele>335.092</ele>
        <time>2022-09-20T10:40:07Z</time>
      </trkpt>
      <trkpt lat="46.50218" lon="4.55094">
        <ele>334.392</ele>
        <time>2022-09-20T10:40:14Z</time>
      </trkpt>
      <trkpt lat="46.50216" lon="4.55104">
        <ele>334.392</ele>
        <time>2022-09-20T10:40:20Z</time>
      </trkpt>
      <trkpt lat="46.50214" lon="4.55114">
        <ele>335.392</ele>
        <time>2022-09-20T10:40:26Z</time>
      </trkpt>
      <trkpt lat="46.50213" lon="4.55125">
        <ele>334.892</ele>
        <time>2022-09-20T10:40:32Z</time>
      </trkpt>
      <trkpt lat="46.50212" lon="4.55136">
        <ele>336.192</ele>
        <time>2022-09-20T10:40:38Z</time>
      </trkpt>
      <trkpt lat="46.50211" lon="4.55146">
        <ele>335.892</ele>
        <time>2022-09-20T10:40:43Z</time>
      </trkpt>
      <trkpt lat="46.5021" lon="4.55156">
        <ele>334.892</ele>
        <time>2022-09-20T10:40:49Z</time>
      </trkpt>
      <trkpt lat="46.50208" lon="4.55166">
        <ele>333.592</ele>
        <time>2022-09-20T10:40:55Z</time>
      </trkpt>
      <trkpt lat="46.50215" lon="4.55167">
        <ele>333.692</ele>
        <time>2022-09-20T10:42:03Z</time>
      </trkpt>
      <trkpt lat="46.50222" lon="4.55165">
        <ele>332.392</ele>
        <time>2022-09-20T10:42:11Z</time>
      </trkpt>
      <trkpt lat="46.50229" lon="4.55166">
        <ele>331.992</ele>
        <time>2022-09-20T10:42:18Z</time>
      </trkpt>
      <trkpt lat="46.50237" lon="4.55165">
        <ele>330.792</ele>
        <time>2022-09-20T10:42:25Z</time>
      </trkpt>
      <trkpt lat="46.50243" lon="4.55165">
        <ele>330.392</ele>
        <time>2022-09-20T10:42:32Z</time>
      </trkpt>
      <trkpt lat="46.5025" lon="4.55165">
        <ele>330.792</ele>
        <time>2022-09-20T10:42:38Z</time>
      </trkpt>
      <trkpt lat="46.50257" lon="4.55165">
        <ele>331.092</ele>
        <time>2022-09-20T10:42:44Z</time>
      </trkpt>
      <trkpt lat="46.50264" lon="4.55165">
        <ele>331.392</ele>
        <time>2022-09-20T10:42:51Z</time>
      </trkpt>
      <trkpt lat="46.50271" lon="4.55166">
        <ele>332.892</ele>
        <time>2022-09-20T10:42:58Z</time>
      </trkpt>
      <trkpt lat="46.50279" lon="4.55165">
        <ele>333.692</ele>
        <time>2022-09-20T10:43:05Z</time>
      </trkpt>
      <trkpt lat="46.50285" lon="4.55162">
        <ele>333.792</ele>
        <time>2022-09-20T10:43:12Z</time>
      </trkpt>
      <trkpt lat="46.50292" lon="4.55159">
        <ele>336.692</ele>
        <time>2022-09-20T10:43:21Z</time>
      </trkpt>
      <trkpt lat="46.50298" lon="4.55155">
        <ele>339.292</ele>
        <time>2022-09-20T10:43:29Z</time>
      </trkpt>
      <trkpt lat="46.50304" lon="4.55152">
        <ele>341.992</ele>
        <time>2022-09-20T10:43:37Z</time>
      </trkpt>
      <trkpt lat="46.50312" lon="4.55151">
        <ele>343.792</ele>
        <time>2022-09-20T10:43:43Z</time>
      </trkpt>
      <trkpt lat="46.50319" lon="4.55152">
        <ele>344.692</ele>
        <time>2022-09-20T10:43:49Z</time>
      </trkpt>
      <trkpt lat="46.50324" lon="4.5516">
        <ele>348.392</ele>
        <time>2022-09-20T10:43:58Z</time>
      </trkpt>
      <trkpt lat="46.50326" lon="4.55169">
        <ele>351.392</ele>
        <time>2022-09-20T10:44:08Z</time>
      </trkpt>
      <trkpt lat="46.50328" lon="4.55178">
        <ele>355.092</ele>
        <time>2022-09-20T10:44:17Z</time>
      </trkpt>
      <trkpt lat="46.5033" lon="4.55188">
        <ele>357.492</ele>
        <time>2022-09-20T10:44:24Z</time>
      </trkpt>
      <trkpt lat="46.50331" lon="4.55198">
        <ele>357.792</ele>
        <time>2022-09-20T10:44:33Z</time>
      </trkpt>
      <trkpt lat="46.50333" lon="4.55208">
        <ele>355.392</ele>
        <time>2022-09-20T10:44:40Z</time>
      </trkpt>
      <trkpt lat="46.50335" lon="4.55218">
        <ele>352.492</ele>
        <time>2022-09-20T10:44:46Z</time>
      </trkpt>
      <trkpt lat="46.50339" lon="4.55228">
        <ele>348.392</ele>
        <time>2022-09-20T10:44:51Z</time>
      </trkpt>
      <trkpt lat="46.50341" lon="4.55237">
        <ele>347.392</ele>
        <time>2022-09-20T10:44:56Z</time>
      </trkpt>
      <trkpt lat="46.50343" lon="4.55247">
        <ele>346.592</ele>
        <time>2022-09-20T10:45:02Z</time>
      </trkpt>
      <trkpt lat="46.50345" lon="4.55257">
        <ele>345.492</ele>
        <time>2022-09-20T10:45:08Z</time>
      </trkpt>
      <trkpt lat="46.50349" lon="4.55265">
        <ele>344.292</ele>
        <time>2022-09-20T10:45:14Z</time>
      </trkpt>
      <trkpt lat="46.50351" lon="4.55274">
        <ele>343.992</ele>
        <time>2022-09-20T10:45:19Z</time>
      </trkpt>
      <trkpt lat="46.50352" lon="4.55284">
        <ele>343.192</ele>
        <time>2022-09-20T10:45:25Z</time>
      </trkpt>
      <trkpt lat="46.50354" lon="4.55295">
        <ele>342.992</ele>
        <time>2022-09-20T10:45:30Z</time>
      </trkpt>
      <trkpt lat="46.50356" lon="4.55305">
        <ele>344.392</ele>
        <time>2022-09-20T10:45:37Z</time>
      </trkpt>
      <trkpt lat="46.50359" lon="4.55315">
        <ele>345.892</ele>
        <time>2022-09-20T10:45:44Z</time>
      </trkpt>
      <trkpt lat="46.50361" lon="4.55327">
        <ele>347.492</ele>
        <time>2022-09-20T10:45:50Z</time>
      </trkpt>
      <trkpt lat="46.50365" lon="4.55336">
        <ele>346.792</ele>
        <time>2022-09-20T10:45:56Z</time>
      </trkpt>
      <trkpt lat="46.50369" lon="4.55344">
        <ele>346.893</ele>
        <time>2022-09-20T10:46:01Z</time>
      </trkpt>
      <trkpt lat="46.50376" lon="4.55348">
        <ele>344.393</ele>
        <time>2022-09-20T10:46:07Z</time>
      </trkpt>
      <trkpt lat="46.50382" lon="4.55353">
        <ele>342.093</ele>
        <time>2022-09-20T10:46:12Z</time>
      </trkpt>
      <trkpt lat="46.50385" lon="4.55363">
        <ele>341.293</ele>
        <time>2022-09-20T10:46:19Z</time>
      </trkpt>
      <trkpt lat="46.50387" lon="4.55373">
        <ele>341.693</ele>
        <time>2022-09-20T10:46:25Z</time>
      </trkpt>
      <trkpt lat="46.50392" lon="4.5538">
        <ele>340.593</ele>
        <time>2022-09-20T10:46:30Z</time>
      </trkpt>
      <trkpt lat="46.50393" lon="4.5539">
        <ele>342.293</ele>
        <time>2022-09-20T10:46:35Z</time>
      </trkpt>
      <trkpt lat="46.50396" lon="4.554">
        <ele>344.093</ele>
        <time>2022-09-20T10:46:41Z</time>
      </trkpt>
      <trkpt lat="46.50398" lon="4.55409">
        <ele>346.293</ele>
        <time>2022-09-20T10:46:47Z</time>
      </trkpt>
      <trkpt lat="46.504" lon="4.5542">
        <ele>346.593</ele>
        <time>2022-09-20T10:46:53Z</time>
      </trkpt>
      <trkpt lat="46.50403" lon="4.55432">
        <ele>345.393</ele>
        <time>2022-09-20T10:46:58Z</time>
      </trkpt>
      <trkpt lat="46.50408" lon="4.5544">
        <ele>340.193</ele>
        <time>2022-09-20T10:47:05Z</time>
      </trkpt>
      <trkpt lat="46.50416" lon="4.55443">
        <ele>336.893</ele>
        <time>2022-09-20T10:47:13Z</time>
      </trkpt>
      <trkpt lat="46.50422" lon="4.55446">
        <ele>335.693</ele>
        <time>2022-09-20T10:47:20Z</time>
      </trkpt>
      <trkpt lat="46.50429" lon="4.55452">
        <ele>336.593</ele>
        <time>2022-09-20T10:47:26Z</time>
      </trkpt>
      <trkpt lat="46.50435" lon="4.55455">
        <ele>337.893</ele>
        <time>2022-09-20T10:47:32Z</time>
      </trkpt>
      <trkpt lat="46.50441" lon="4.55461">
        <ele>339.893</ele>
        <time>2022-09-20T10:47:39Z</time>
      </trkpt>
      <trkpt lat="46.50446" lon="4.55468">
        <ele>340.793</ele>
        <time>2022-09-20T10:47:46Z</time>
      </trkpt>
      <trkpt lat="46.50451" lon="4.55475">
        <ele>342.193</ele>
        <time>2022-09-20T10:47:52Z</time>
      </trkpt>
      <trkpt lat="46.50457" lon="4.55479">
        <ele>342.393</ele>
        <time>2022-09-20T10:47:58Z</time>
      </trkpt>
      <trkpt lat="46.50462" lon="4.55487">
        <ele>343.993</ele>
        <time>2022-09-20T10:48:06Z</time>
      </trkpt>
      <trkpt lat="46.50467" lon="4.55493">
        <ele>344.393</ele>
        <time>2022-09-20T10:48:13Z</time>
      </trkpt>
      <trkpt lat="46.50474" lon="4.55492">
        <ele>345.293</ele>
        <time>2022-09-20T10:48:21Z</time>
      </trkpt>
      <trkpt lat="46.50476" lon="4.55482">
        <ele>345.693</ele>
        <time>2022-09-20T10:48:30Z</time>
      </trkpt>
      <trkpt lat="46.50477" lon="4.55472">
        <ele>346.593</ele>
        <time>2022-09-20T10:49:44Z</time>
      </trkpt>
      <trkpt lat="46.50475" lon="4.55463">
        <ele>347.293</ele>
        <time>2022-09-20T10:49:54Z</time>
      </trkpt>
      <trkpt lat="46.50475" lon="4.55453">
        <ele>349.793</ele>
        <time>2022-09-20T10:50:04Z</time>
      </trkpt>
      <trkpt lat="46.50477" lon="4.55443">
        <ele>349.793</ele>
        <time>2022-09-20T10:50:12Z</time>
      </trkpt>
      <trkpt lat="46.50478" lon="4.55434">
        <ele>349.193</ele>
        <time>2022-09-20T10:50:26Z</time>
      </trkpt>
      <trkpt lat="46.5048" lon="4.55424">
        <ele>349.193</ele>
        <time>2022-09-20T10:50:33Z</time>
      </trkpt>
      <trkpt lat="46.50482" lon="4.55414">
        <ele>350.593</ele>
        <time>2022-09-20T10:50:42Z</time>
      </trkpt>
      <trkpt lat="46.50484" lon="4.55404">
        <ele>350.193</ele>
        <time>2022-09-20T10:50:50Z</time>
      </trkpt>
      <trkpt lat="46.50486" lon="4.55395">
        <ele>350.493</ele>
        <time>2022-09-20T10:50:57Z</time>
      </trkpt>
      <trkpt lat="46.5049" lon="4.55386">
        <ele>349.993</ele>
        <time>2022-09-20T10:51:05Z</time>
      </trkpt>
      <trkpt lat="46.50493" lon="4.55377">
        <ele>348.193</ele>
        <time>2022-09-20T10:51:12Z</time>
      </trkpt>
      <trkpt lat="46.50495" lon="4.55369">
        <ele>348.793</ele>
        <time>2022-09-20T10:51:24Z</time>
      </trkpt>
      <trkpt lat="46.50498" lon="4.55359">
        <ele>349.993</ele>
        <time>2022-09-20T10:52:00Z</time>
      </trkpt>
      <trkpt lat="46.50501" lon="4.55349">
        <ele>350.093</ele>
        <time>2022-09-20T10:52:08Z</time>
      </trkpt>
      <trkpt lat="46.50503" lon="4.5534">
        <ele>349.293</ele>
        <time>2022-09-20T10:52:14Z</time>
      </trkpt>
      <trkpt lat="46.50508" lon="4.55331">
        <ele>351.693</ele>
        <time>2022-09-20T10:52:21Z</time>
      </trkpt>
      <trkpt lat="46.50511" lon="4.55321">
        <ele>352.793</ele>
        <time>2022-09-20T10:52:28Z</time>
      </trkpt>
      <trkpt lat="46.50514" lon="4.55313">
        <ele>353.093</ele>
        <time>2022-09-20T10:52:34Z</time>
      </trkpt>
      <trkpt lat="46.50519" lon="4.55304">
        <ele>352.493</ele>
        <time>2022-09-20T10:52:40Z</time>
      </trkpt>
      <trkpt lat="46.50524" lon="4.55295">
        <ele>352.593</ele>
        <time>2022-09-20T10:52:47Z</time>
      </trkpt>
      <trkpt lat="46.50529" lon="4.55289">
        <ele>352.693</ele>
        <time>2022-09-20T10:52:52Z</time>
      </trkpt>
      <trkpt lat="46.50533" lon="4.55281">
        <ele>351.993</ele>
        <time>2022-09-20T10:52:58Z</time>
      </trkpt>
      <trkpt lat="46.50538" lon="4.55272">
        <ele>354.093</ele>
        <time>2022-09-20T10:53:05Z</time>
      </trkpt>
      <trkpt lat="46.50541" lon="4.55264">
        <ele>353.693</ele>
        <time>2022-09-20T10:53:11Z</time>
      </trkpt>
      <trkpt lat="46.50545" lon="4.55256">
        <ele>356.193</ele>
        <time>2022-09-20T10:53:17Z</time>
      </trkpt>
      <trkpt lat="46.50548" lon="4.55246">
        <ele>357.093</ele>
        <time>2022-09-20T10:53:24Z</time>
      </trkpt>
      <trkpt lat="46.50552" lon="4.55237">
        <ele>356.893</ele>
        <time>2022-09-20T10:53:30Z</time>
      </trkpt>
      <trkpt lat="46.50553" lon="4.55227">
        <ele>356.993</ele>
        <time>2022-09-20T10:53:36Z</time>
      </trkpt>
      <trkpt lat="46.50556" lon="4.55218">
        <ele>358.193</ele>
        <time>2022-09-20T10:53:41Z</time>
      </trkpt>
      <trkpt lat="46.50558" lon="4.55209">
        <ele>358.493</ele>
        <time>2022-09-20T10:53:47Z</time>
      </trkpt>
      <trkpt lat="46.50559" lon="4.55199">
        <ele>358.293</ele>
        <time>2022-09-20T10:53:53Z</time>
      </trkpt>
      <trkpt lat="46.50561" lon="4.55188">
        <ele>358.293</ele>
        <time>2022-09-20T10:53:59Z</time>
      </trkpt>
      <trkpt lat="46.50563" lon="4.55179">
        <ele>359.493</ele>
        <time>2022-09-20T10:54:05Z</time>
      </trkpt>
      <trkpt lat="46.50565" lon="4.55169">
        <ele>360.093</ele>
        <time>2022-09-20T10:54:12Z</time>
      </trkpt>
      <trkpt lat="46.50569" lon="4.55159">
        <ele>359.393</ele>
        <time>2022-09-20T10:54:18Z</time>
      </trkpt>
      <trkpt lat="46.50572" lon="4.5515">
        <ele>360.793</ele>
        <time>2022-09-20T10:54:24Z</time>
      </trkpt>
      <trkpt lat="46.50576" lon="4.55141">
        <ele>361.893</ele>
        <time>2022-09-20T10:54:30Z</time>
      </trkpt>
      <trkpt lat="46.5058" lon="4.55132">
        <ele>364.393</ele>
        <time>2022-09-20T10:54:36Z</time>
      </trkpt>
      <trkpt lat="46.50584" lon="4.55125">
        <ele>365.893</ele>
        <time>2022-09-20T10:54:41Z</time>
      </trkpt>
      <trkpt lat="46.50589" lon="4.55119">
        <ele>365.493</ele>
        <time>2022-09-20T10:54:50Z</time>
      </trkpt>
      <trkpt lat="46.50596" lon="4.55113">
        <ele>364.593</ele>
        <time>2022-09-20T10:54:57Z</time>
      </trkpt>
      <trkpt lat="46.50603" lon="4.5511">
        <ele>364.393</ele>
        <time>2022-09-20T10:55:02Z</time>
      </trkpt>
      <trkpt lat="46.5061" lon="4.55109">
        <ele>364.393</ele>
        <time>2022-09-20T10:55:08Z</time>
      </trkpt>
      <trkpt lat="46.50617" lon="4.55109">
        <ele>363.993</ele>
        <time>2022-09-20T10:55:15Z</time>
      </trkpt>
      <trkpt lat="46.50625" lon="4.55107">
        <ele>363.793</ele>
        <time>2022-09-20T10:55:22Z</time>
      </trkpt>
      <trkpt lat="46.50632" lon="4.55104">
        <ele>363.493</ele>
        <time>2022-09-20T10:55:29Z</time>
      </trkpt>
      <trkpt lat="46.50641" lon="4.55102">
        <ele>361.193</ele>
        <time>2022-09-20T10:55:35Z</time>
      </trkpt>
      <trkpt lat="46.50647" lon="4.55101">
        <ele>361.193</ele>
        <time>2022-09-20T10:55:41Z</time>
      </trkpt>
      <trkpt lat="46.50654" lon="4.55099">
        <ele>359.393</ele>
        <time>2022-09-20T10:55:47Z</time>
      </trkpt>
      <trkpt lat="46.50662" lon="4.55099">
        <ele>361.493</ele>
        <time>2022-09-20T10:55:55Z</time>
      </trkpt>
      <trkpt lat="46.50669" lon="4.55096">
        <ele>363.093</ele>
        <time>2022-09-20T10:56:01Z</time>
      </trkpt>
      <trkpt lat="46.50676" lon="4.55094">
        <ele>364.293</ele>
        <time>2022-09-20T10:56:07Z</time>
      </trkpt>
      <trkpt lat="46.50684" lon="4.55092">
        <ele>365.293</ele>
        <time>2022-09-20T10:56:12Z</time>
      </trkpt>
      <trkpt lat="46.50691" lon="4.55088">
        <ele>367.093</ele>
        <time>2022-09-20T10:56:17Z</time>
      </trkpt>
      <trkpt lat="46.50698" lon="4.55082">
        <ele>368.293</ele>
        <time>2022-09-20T10:56:23Z</time>
      </trkpt>
      <trkpt lat="46.50704" lon="4.55077">
        <ele>368.593</ele>
        <time>2022-09-20T10:56:29Z</time>
      </trkpt>
      <trkpt lat="46.5071" lon="4.55069">
        <ele>368.693</ele>
        <time>2022-09-20T10:56:35Z</time>
      </trkpt>
      <trkpt lat="46.50714" lon="4.5506">
        <ele>367.793</ele>
        <time>2022-09-20T10:56:41Z</time>
      </trkpt>
      <trkpt lat="46.50718" lon="4.55053">
        <ele>366.993</ele>
        <time>2022-09-20T10:56:48Z</time>
      </trkpt>
      <trkpt lat="46.50722" lon="4.55044">
        <ele>365.593</ele>
        <time>2022-09-20T10:56:53Z</time>
      </trkpt>
      <trkpt lat="46.50727" lon="4.55036">
        <ele>364.893</ele>
        <time>2022-09-20T10:56:59Z</time>
      </trkpt>
      <trkpt lat="46.50733" lon="4.55027">
        <ele>363.593</ele>
        <time>2022-09-20T10:57:04Z</time>
      </trkpt>
      <trkpt lat="46.50739" lon="4.5502">
        <ele>364.493</ele>
        <time>2022-09-20T10:57:10Z</time>
      </trkpt>
      <trkpt lat="46.50743" lon="4.55012">
        <ele>364.993</ele>
        <time>2022-09-20T10:57:15Z</time>
      </trkpt>
      <trkpt lat="46.50747" lon="4.55004">
        <ele>365.893</ele>
        <time>2022-09-20T10:57:21Z</time>
      </trkpt>
      <trkpt lat="46.50754" lon="4.54999">
        <ele>365.493</ele>
        <time>2022-09-20T10:57:27Z</time>
      </trkpt>
      <trkpt lat="46.50759" lon="4.54992">
        <ele>362.693</ele>
        <time>2022-09-20T10:57:33Z</time>
      </trkpt>
      <trkpt lat="46.50765" lon="4.54985">
        <ele>361.593</ele>
        <time>2022-09-20T10:57:39Z</time>
      </trkpt>
      <trkpt lat="46.50771" lon="4.5498">
        <ele>360.593</ele>
        <time>2022-09-20T10:57:45Z</time>
      </trkpt>
      <trkpt lat="46.5078" lon="4.54976">
        <ele>360.293</ele>
        <time>2022-09-20T10:57:51Z</time>
      </trkpt>
      <trkpt lat="46.50786" lon="4.54972">
        <ele>362.293</ele>
        <time>2022-09-20T10:57:57Z</time>
      </trkpt>
      <trkpt lat="46.50793" lon="4.54967">
        <ele>362.493</ele>
        <time>2022-09-20T10:58:03Z</time>
      </trkpt>
      <trkpt lat="46.50799" lon="4.54961">
        <ele>361.393</ele>
        <time>2022-09-20T10:58:09Z</time>
      </trkpt>
      <trkpt lat="46.50806" lon="4.54957">
        <ele>360.593</ele>
        <time>2022-09-20T10:58:16Z</time>
      </trkpt>
      <trkpt lat="46.50812" lon="4.54953">
        <ele>360.393</ele>
        <time>2022-09-20T10:58:22Z</time>
      </trkpt>
      <trkpt lat="46.50819" lon="4.54949">
        <ele>361.593</ele>
        <time>2022-09-20T10:58:28Z</time>
      </trkpt>
      <trkpt lat="46.50825" lon="4.54945">
        <ele>361.493</ele>
        <time>2022-09-20T10:58:33Z</time>
      </trkpt>
      <trkpt lat="46.50832" lon="4.5494">
        <ele>361.193</ele>
        <time>2022-09-20T10:58:40Z</time>
      </trkpt>
      <trkpt lat="46.50838" lon="4.54935">
        <ele>361.893</ele>
        <time>2022-09-20T10:58:46Z</time>
      </trkpt>
      <trkpt lat="46.50846" lon="4.54932">
        <ele>361.594</ele>
        <time>2022-09-20T10:58:51Z</time>
      </trkpt>
      <trkpt lat="46.50852" lon="4.54929">
        <ele>360.594</ele>
        <time>2022-09-20T10:58:57Z</time>
      </trkpt>
      <trkpt lat="46.5086" lon="4.54928">
        <ele>362.694</ele>
        <time>2022-09-20T10:59:03Z</time>
      </trkpt>
      <trkpt lat="46.50868" lon="4.54926">
        <ele>362.194</ele>
        <time>2022-09-20T10:59:10Z</time>
      </trkpt>
      <trkpt lat="46.50874" lon="4.54927">
        <ele>361.994</ele>
        <time>2022-09-20T10:59:16Z</time>
      </trkpt>
      <trkpt lat="46.50881" lon="4.54927">
        <ele>360.494</ele>
        <time>2022-09-20T10:59:22Z</time>
      </trkpt>
      <trkpt lat="46.50888" lon="4.54928">
        <ele>358.094</ele>
        <time>2022-09-20T10:59:28Z</time>
      </trkpt>
      <trkpt lat="46.50894" lon="4.54928">
        <ele>357.294</ele>
        <time>2022-09-20T10:59:33Z</time>
      </trkpt>
      <trkpt lat="46.50902" lon="4.54929">
        <ele>357.594</ele>
        <time>2022-09-20T10:59:39Z</time>
      </trkpt>
      <trkpt lat="46.50909" lon="4.5493">
        <ele>356.494</ele>
        <time>2022-09-20T10:59:44Z</time>
      </trkpt>
      <trkpt lat="46.50915" lon="4.54932">
        <ele>355.194</ele>
        <time>2022-09-20T10:59:50Z</time>
      </trkpt>
      <trkpt lat="46.50923" lon="4.54929">
        <ele>353.994</ele>
        <time>2022-09-20T10:59:55Z</time>
      </trkpt>
      <trkpt lat="46.5093" lon="4.54931">
        <ele>352.894</ele>
        <time>2022-09-20T11:00:01Z</time>
      </trkpt>
      <trkpt lat="46.50938" lon="4.5493">
        <ele>352.994</ele>
        <time>2022-09-20T11:00:07Z</time>
      </trkpt>
      <trkpt lat="46.50946" lon="4.54929">
        <ele>353.194</ele>
        <time>2022-09-20T11:00:13Z</time>
      </trkpt>
      <trkpt lat="46.50955" lon="4.54929">
        <ele>354.894</ele>
        <time>2022-09-20T11:00:19Z</time>
      </trkpt>
      <trkpt lat="46.50962" lon="4.54927">
        <ele>355.194</ele>
        <time>2022-09-20T11:00:24Z</time>
      </trkpt>
      <trkpt lat="46.50969" lon="4.54926">
        <ele>356.694</ele>
        <time>2022-09-20T11:00:30Z</time>
      </trkpt>
      <trkpt lat="46.50977" lon="4.54926">
        <ele>357.194</ele>
        <time>2022-09-20T11:00:36Z</time>
      </trkpt>
      <trkpt lat="46.50985" lon="4.54926">
        <ele>358.294</ele>
        <time>2022-09-20T11:00:41Z</time>
      </trkpt>
      <trkpt lat="46.50992" lon="4.54925">
        <ele>359.094</ele>
        <time>2022-09-20T11:00:47Z</time>
      </trkpt>
      <trkpt lat="46.50999" lon="4.54925">
        <ele>359.094</ele>
        <time>2022-09-20T11:00:53Z</time>
      </trkpt>
      <trkpt lat="46.51006" lon="4.54925">
        <ele>359.394</ele>
        <time>2022-09-20T11:00:59Z</time>
      </trkpt>
      <trkpt lat="46.51014" lon="4.54924">
        <ele>359.294</ele>
        <time>2022-09-20T11:01:06Z</time>
      </trkpt>
      <trkpt lat="46.51021" lon="4.54926">
        <ele>358.794</ele>
        <time>2022-09-20T11:01:12Z</time>
      </trkpt>
      <trkpt lat="46.51028" lon="4.54925">
        <ele>359.694</ele>
        <time>2022-09-20T11:01:18Z</time>
      </trkpt>
      <trkpt lat="46.51036" lon="4.54924">
        <ele>360.394</ele>
        <time>2022-09-20T11:01:24Z</time>
      </trkpt>
      <trkpt lat="46.51043" lon="4.54925">
        <ele>359.094</ele>
        <time>2022-09-20T11:01:30Z</time>
      </trkpt>
      <trkpt lat="46.5105" lon="4.54927">
        <ele>359.094</ele>
        <time>2022-09-20T11:01:37Z</time>
      </trkpt>
      <trkpt lat="46.51057" lon="4.54928">
        <ele>360.094</ele>
        <time>2022-09-20T11:01:43Z</time>
      </trkpt>
      <trkpt lat="46.51063" lon="4.54929">
        <ele>361.794</ele>
        <time>2022-09-20T11:01:49Z</time>
      </trkpt>
      <trkpt lat="46.5107" lon="4.5493">
        <ele>362.994</ele>
        <time>2022-09-20T11:01:55Z</time>
      </trkpt>
      <trkpt lat="46.51077" lon="4.54931">
        <ele>364.294</ele>
        <time>2022-09-20T11:02:01Z</time>
      </trkpt>
      <trkpt lat="46.51084" lon="4.54929">
        <ele>364.394</ele>
        <time>2022-09-20T11:02:07Z</time>
      </trkpt>
      <trkpt lat="46.51091" lon="4.54926">
        <ele>364.494</ele>
        <time>2022-09-20T11:02:13Z</time>
      </trkpt>
      <trkpt lat="46.51098" lon="4.54927">
        <ele>363.594</ele>
        <time>2022-09-20T11:02:19Z</time>
      </trkpt>
      <trkpt lat="46.51106" lon="4.54927">
        <ele>362.894</ele>
        <time>2022-09-20T11:02:25Z</time>
      </trkpt>
      <trkpt lat="46.51112" lon="4.54928">
        <ele>363.094</ele>
        <time>2022-09-20T11:02:31Z</time>
      </trkpt>
      <trkpt lat="46.5112" lon="4.54929">
        <ele>363.194</ele>
        <time>2022-09-20T11:02:38Z</time>
      </trkpt>
      <trkpt lat="46.51127" lon="4.54931">
        <ele>364.694</ele>
        <time>2022-09-20T11:02:45Z</time>
      </trkpt>
      <trkpt lat="46.51135" lon="4.54932">
        <ele>364.294</ele>
        <time>2022-09-20T11:02:51Z</time>
      </trkpt>
      <trkpt lat="46.51143" lon="4.54933">
        <ele>362.394</ele>
        <time>2022-09-20T11:02:58Z</time>
      </trkpt>
      <trkpt lat="46.51151" lon="4.54933">
        <ele>361.894</ele>
        <time>2022-09-20T11:03:05Z</time>
      </trkpt>
      <trkpt lat="46.51158" lon="4.54933">
        <ele>364.694</ele>
        <time>2022-09-20T11:03:12Z</time>
      </trkpt>
      <trkpt lat="46.51165" lon="4.54931">
        <ele>364.894</ele>
        <time>2022-09-20T11:03:18Z</time>
      </trkpt>
      <trkpt lat="46.51172" lon="4.5493">
        <ele>368.194</ele>
        <time>2022-09-20T11:03:25Z</time>
      </trkpt>
      <trkpt lat="46.51179" lon="4.54931">
        <ele>368.694</ele>
        <time>2022-09-20T11:03:31Z</time>
      </trkpt>
      <trkpt lat="46.51186" lon="4.54933">
        <ele>368.294</ele>
        <time>2022-09-20T11:03:36Z</time>
      </trkpt>
      <trkpt lat="46.51193" lon="4.54936">
        <ele>367.794</ele>
        <time>2022-09-20T11:03:42Z</time>
      </trkpt>
      <trkpt lat="46.51198" lon="4.54943">
        <ele>368.794</ele>
        <time>2022-09-20T11:03:49Z</time>
      </trkpt>
      <trkpt lat="46.51204" lon="4.54949">
        <ele>369.294</ele>
        <time>2022-09-20T11:03:55Z</time>
      </trkpt>
      <trkpt lat="46.5121" lon="4.54954">
        <ele>369.395</ele>
        <time>2022-09-20T11:04:01Z</time>
      </trkpt>
      <trkpt lat="46.51217" lon="4.54958">
        <ele>369.795</ele>
        <time>2022-09-20T11:04:07Z</time>
      </trkpt>
      <trkpt lat="46.51224" lon="4.54961">
        <ele>370.695</ele>
        <time>2022-09-20T11:04:12Z</time>
      </trkpt>
      <trkpt lat="46.5123" lon="4.54966">
        <ele>371.395</ele>
        <time>2022-09-20T11:04:19Z</time>
      </trkpt>
      <trkpt lat="46.51238" lon="4.54969">
        <ele>371.595</ele>
        <time>2022-09-20T11:04:24Z</time>
      </trkpt>
      <trkpt lat="46.51244" lon="4.54974">
        <ele>370.795</ele>
        <time>2022-09-20T11:04:29Z</time>
      </trkpt>
      <trkpt lat="46.5125" lon="4.54977">
        <ele>371.595</ele>
        <time>2022-09-20T11:04:35Z</time>
      </trkpt>
      <trkpt lat="46.51256" lon="4.54982">
        <ele>372.495</ele>
        <time>2022-09-20T11:04:42Z</time>
      </trkpt>
      <trkpt lat="46.51262" lon="4.54987">
        <ele>374.795</ele>
        <time>2022-09-20T11:04:52Z</time>
      </trkpt>
      <trkpt lat="46.5127" lon="4.54991">
        <ele>377.595</ele>
        <time>2022-09-20T11:06:55Z</time>
      </trkpt>
      <trkpt lat="46.51275" lon="4.54997">
        <ele>377.395</ele>
        <time>2022-09-20T11:07:05Z</time>
      </trkpt>
      <trkpt lat="46.51282" lon="4.55001">
        <ele>376.895</ele>
        <time>2022-09-20T11:07:13Z</time>
      </trkpt>
      <trkpt lat="46.51288" lon="4.55006">
        <ele>377.195</ele>
        <time>2022-09-20T11:07:19Z</time>
      </trkpt>
      <trkpt lat="46.51294" lon="4.55011">
        <ele>376.895</ele>
        <time>2022-09-20T11:07:26Z</time>
      </trkpt>
      <trkpt lat="46.51301" lon="4.55016">
        <ele>375.495</ele>
        <time>2022-09-20T11:07:32Z</time>
      </trkpt>
      <trkpt lat="46.51307" lon="4.55021">
        <ele>374.795</ele>
        <time>2022-09-20T11:07:38Z</time>
      </trkpt>
      <trkpt lat="46.51313" lon="4.55025">
        <ele>374.695</ele>
        <time>2022-09-20T11:07:44Z</time>
      </trkpt>
      <trkpt lat="46.5132" lon="4.55029">
        <ele>375.495</ele>
        <time>2022-09-20T11:07:50Z</time>
      </trkpt>
      <trkpt lat="46.51326" lon="4.55034">
        <ele>375.595</ele>
        <time>2022-09-20T11:07:57Z</time>
      </trkpt>
      <trkpt lat="46.51332" lon="4.55041">
        <ele>376.895</ele>
        <time>2022-09-20T11:08:04Z</time>
      </trkpt>
      <trkpt lat="46.51338" lon="4.55047">
        <ele>375.995</ele>
        <time>2022-09-20T11:08:11Z</time>
      </trkpt>
      <trkpt lat="46.51344" lon="4.55054">
        <ele>373.595</ele>
        <time>2022-09-20T11:08:18Z</time>
      </trkpt>
      <trkpt lat="46.5135" lon="4.55059">
        <ele>371.795</ele>
        <time>2022-09-20T11:08:24Z</time>
      </trkpt>
      <trkpt lat="46.51357" lon="4.55063">
        <ele>372.395</ele>
        <time>2022-09-20T11:08:29Z</time>
      </trkpt>
      <trkpt lat="46.51363" lon="4.55067">
        <ele>372.795</ele>
        <time>2022-09-20T11:08:35Z</time>
      </trkpt>
      <trkpt lat="46.5137" lon="4.55071">
        <ele>373.395</ele>
        <time>2022-09-20T11:08:41Z</time>
      </trkpt>
      <trkpt lat="46.51377" lon="4.55075">
        <ele>373.195</ele>
        <time>2022-09-20T11:08:47Z</time>
      </trkpt>
      <trkpt lat="46.51384" lon="4.55078">
        <ele>372.495</ele>
        <time>2022-09-20T11:08:53Z</time>
      </trkpt>
      <trkpt lat="46.51391" lon="4.5508">
        <ele>371.795</ele>
        <time>2022-09-20T11:08:59Z</time>
      </trkpt>
      <trkpt lat="46.51399" lon="4.55081">
        <ele>372.195</ele>
        <time>2022-09-20T11:09:05Z</time>
      </trkpt>
      <trkpt lat="46.51408" lon="4.55084">
        <ele>372.195</ele>
        <time>2022-09-20T11:09:11Z</time>
      </trkpt>
      <trkpt lat="46.51415" lon="4.55086">
        <ele>373.395</ele>
        <time>2022-09-20T11:09:17Z</time>
      </trkpt>
      <trkpt lat="46.51422" lon="4.5509">
        <ele>374.495</ele>
        <time>2022-09-20T11:09:23Z</time>
      </trkpt>
      <trkpt lat="46.51429" lon="4.55091">
        <ele>375.195</ele>
        <time>2022-09-20T11:09:28Z</time>
      </trkpt>
      <trkpt lat="46.51436" lon="4.55091">
        <ele>373.495</ele>
        <time>2022-09-20T11:09:35Z</time>
      </trkpt>
      <trkpt lat="46.51443" lon="4.55088">
        <ele>372.595</ele>
        <time>2022-09-20T11:09:42Z</time>
      </trkpt>
      <trkpt lat="46.5145" lon="4.55087">
        <ele>373.295</ele>
        <time>2022-09-20T11:09:49Z</time>
      </trkpt>
      <trkpt lat="46.51457" lon="4.55087">
        <ele>374.595</ele>
        <time>2022-09-20T11:09:55Z</time>
      </trkpt>
      <trkpt lat="46.51466" lon="4.55086">
        <ele>374.595</ele>
        <time>2022-09-20T11:10:00Z</time>
      </trkpt>
      <trkpt lat="46.51475" lon="4.55085">
        <ele>375.395</ele>
        <time>2022-09-20T11:10:05Z</time>
      </trkpt>
      <trkpt lat="46.51483" lon="4.55083">
        <ele>375.095</ele>
        <time>2022-09-20T11:10:11Z</time>
      </trkpt>
      <trkpt lat="46.5149" lon="4.55083">
        <ele>375.095</ele>
        <time>2022-09-20T11:10:17Z</time>
      </trkpt>
      <trkpt lat="46.51496" lon="4.55083">
        <ele>373.795</ele>
        <time>2022-09-20T11:10:23Z</time>
      </trkpt>
      <trkpt lat="46.51503" lon="4.5508">
        <ele>370.595</ele>
        <time>2022-09-20T11:10:29Z</time>
      </trkpt>
      <trkpt lat="46.5151" lon="4.55077">
        <ele>368.595</ele>
        <time>2022-09-20T11:10:36Z</time>
      </trkpt>
      <trkpt lat="46.51518" lon="4.55074">
        <ele>367.995</ele>
        <time>2022-09-20T11:10:43Z</time>
      </trkpt>
      <trkpt lat="46.51524" lon="4.55072">
        <ele>369.095</ele>
        <time>2022-09-20T11:10:48Z</time>
      </trkpt>
      <trkpt lat="46.51532" lon="4.55071">
        <ele>369.495</ele>
        <time>2022-09-20T11:10:55Z</time>
      </trkpt>
      <trkpt lat="46.51538" lon="4.5507">
        <ele>369.895</ele>
        <time>2022-09-20T11:11:00Z</time>
      </trkpt>
      <trkpt lat="46.51545" lon="4.55068">
        <ele>370.696</ele>
        <time>2022-09-20T11:11:05Z</time>
      </trkpt>
      <trkpt lat="46.51551" lon="4.55064">
        <ele>369.596</ele>
        <time>2022-09-20T11:11:11Z</time>
      </trkpt>
      <trkpt lat="46.51558" lon="4.55061">
        <ele>368.196</ele>
        <time>2022-09-20T11:11:19Z</time>
      </trkpt>
      <trkpt lat="46.51564" lon="4.55059">
        <ele>368.296</ele>
        <time>2022-09-20T11:11:26Z</time>
      </trkpt>
      <trkpt lat="46.51571" lon="4.55056">
        <ele>367.596</ele>
        <time>2022-09-20T11:11:32Z</time>
      </trkpt>
      <trkpt lat="46.51578" lon="4.55053">
        <ele>367.796</ele>
        <time>2022-09-20T11:11:37Z</time>
      </trkpt>
      <trkpt lat="46.51585" lon="4.55051">
        <ele>369.096</ele>
        <time>2022-09-20T11:11:43Z</time>
      </trkpt>
      <trkpt lat="46.51594" lon="4.55046">
        <ele>369.096</ele>
        <time>2022-09-20T11:11:50Z</time>
      </trkpt>
      <trkpt lat="46.51603" lon="4.55042">
        <ele>368.796</ele>
        <time>2022-09-20T11:11:55Z</time>
      </trkpt>
      <trkpt lat="46.51609" lon="4.5504">
        <ele>367.596</ele>
        <time>2022-09-20T11:12:00Z</time>
      </trkpt>
      <trkpt lat="46.51616" lon="4.55037">
        <ele>367.096</ele>
        <time>2022-09-20T11:12:05Z</time>
      </trkpt>
      <trkpt lat="46.51623" lon="4.55037">
        <ele>369.596</ele>
        <time>2022-09-20T11:12:11Z</time>
      </trkpt>
      <trkpt lat="46.5163" lon="4.55035">
        <ele>370.496</ele>
        <time>2022-09-20T11:12:17Z</time>
      </trkpt>
      <trkpt lat="46.51637" lon="4.55035">
        <ele>369.196</ele>
        <time>2022-09-20T11:12:23Z</time>
      </trkpt>
      <trkpt lat="46.51645" lon="4.55034">
        <ele>368.496</ele>
        <time>2022-09-20T11:12:30Z</time>
      </trkpt>
      <trkpt lat="46.51651" lon="4.55035">
        <ele>369.496</ele>
        <time>2022-09-20T11:12:35Z</time>
      </trkpt>
      <trkpt lat="46.51659" lon="4.55034">
        <ele>368.396</ele>
        <time>2022-09-20T11:12:41Z</time>
      </trkpt>
      <trkpt lat="46.51667" lon="4.55034">
        <ele>369.496</ele>
        <time>2022-09-20T11:12:47Z</time>
      </trkpt>
      <trkpt lat="46.51674" lon="4.55034">
        <ele>368.896</ele>
        <time>2022-09-20T11:12:53Z</time>
      </trkpt>
      <trkpt lat="46.51681" lon="4.55035">
        <ele>368.796</ele>
        <time>2022-09-20T11:12:59Z</time>
      </trkpt>
      <trkpt lat="46.51687" lon="4.55035">
        <ele>367.596</ele>
        <time>2022-09-20T11:13:07Z</time>
      </trkpt>
      <trkpt lat="46.51695" lon="4.55036">
        <ele>367.396</ele>
        <time>2022-09-20T11:13:12Z</time>
      </trkpt>
      <trkpt lat="46.51702" lon="4.55037">
        <ele>371.496</ele>
        <time>2022-09-20T11:13:17Z</time>
      </trkpt>
      <trkpt lat="46.5171" lon="4.55037">
        <ele>372.396</ele>
        <time>2022-09-20T11:13:22Z</time>
      </trkpt>
      <trkpt lat="46.51717" lon="4.55039">
        <ele>372.996</ele>
        <time>2022-09-20T11:13:28Z</time>
      </trkpt>
      <trkpt lat="46.51723" lon="4.55035">
        <ele>371.296</ele>
        <time>2022-09-20T11:13:33Z</time>
      </trkpt>
      <trkpt lat="46.5173" lon="4.55033">
        <ele>369.896</ele>
        <time>2022-09-20T11:13:40Z</time>
      </trkpt>
      <trkpt lat="46.51737" lon="4.55031">
        <ele>369.496</ele>
        <time>2022-09-20T11:13:46Z</time>
      </trkpt>
      <trkpt lat="46.51743" lon="4.55034">
        <ele>368.296</ele>
        <time>2022-09-20T11:13:52Z</time>
      </trkpt>
      <trkpt lat="46.51751" lon="4.55034">
        <ele>367.496</ele>
        <time>2022-09-20T11:13:57Z</time>
      </trkpt>
      <trkpt lat="46.51758" lon="4.55036">
        <ele>368.796</ele>
        <time>2022-09-20T11:14:02Z</time>
      </trkpt>
      <trkpt lat="46.51766" lon="4.55037">
        <ele>369.096</ele>
        <time>2022-09-20T11:14:07Z</time>
      </trkpt>
      <trkpt lat="46.51773" lon="4.5504">
        <ele>369.796</ele>
        <time>2022-09-20T11:14:13Z</time>
      </trkpt>
      <trkpt lat="46.51781" lon="4.55042">
        <ele>372.096</ele>
        <time>2022-09-20T11:14:19Z</time>
      </trkpt>
      <trkpt lat="46.51786" lon="4.55047">
        <ele>372.996</ele>
        <time>2022-09-20T11:14:25Z</time>
      </trkpt>
      <trkpt lat="46.51794" lon="4.55054">
        <ele>374.696</ele>
        <time>2022-09-20T11:14:31Z</time>
      </trkpt>
      <trkpt lat="46.51798" lon="4.55063">
        <ele>373.396</ele>
        <time>2022-09-20T11:14:36Z</time>
      </trkpt>
      <trkpt lat="46.51798" lon="4.55072">
        <ele>372.096</ele>
        <time>2022-09-20T11:14:41Z</time>
      </trkpt>
      <trkpt lat="46.51801" lon="4.55064">
        <ele>368.096</ele>
        <time>2022-09-20T11:15:23Z</time>
      </trkpt>
      <trkpt lat="46.51802" lon="4.55054">
        <ele>367.296</ele>
        <time>2022-09-20T11:15:29Z</time>
      </trkpt>
      <trkpt lat="46.51809" lon="4.55054">
        <ele>369.496</ele>
        <time>2022-09-20T11:16:03Z</time>
      </trkpt>
      <trkpt lat="46.51816" lon="4.55056">
        <ele>370.496</ele>
        <time>2022-09-20T11:16:22Z</time>
      </trkpt>
      <trkpt lat="46.51823" lon="4.55057">
        <ele>368.596</ele>
        <time>2022-09-20T11:16:29Z</time>
      </trkpt>
      <trkpt lat="46.51829" lon="4.55056">
        <ele>367.096</ele>
        <time>2022-09-20T11:16:35Z</time>
      </trkpt>
      <trkpt lat="46.51836" lon="4.55054">
        <ele>367.196</ele>
        <time>2022-09-20T11:16:41Z</time>
      </trkpt>
      <trkpt lat="46.51843" lon="4.55057">
        <ele>368.896</ele>
        <time>2022-09-20T11:16:47Z</time>
      </trkpt>
      <trkpt lat="46.51849" lon="4.55061">
        <ele>369.096</ele>
        <time>2022-09-20T11:16:53Z</time>
      </trkpt>
      <trkpt lat="46.51854" lon="4.55068">
        <ele>367.096</ele>
        <time>2022-09-20T11:17:02Z</time>
      </trkpt>
      <trkpt lat="46.5186" lon="4.55076">
        <ele>366.796</ele>
        <time>2022-09-20T11:17:09Z</time>
      </trkpt>
      <trkpt lat="46.51864" lon="4.55084">
        <ele>367.596</ele>
        <time>2022-09-20T11:17:15Z</time>
      </trkpt>
      <trkpt lat="46.51869" lon="4.55092">
        <ele>368.196</ele>
        <time>2022-09-20T11:17:22Z</time>
      </trkpt>
      <trkpt lat="46.51874" lon="4.55099">
        <ele>368.096</ele>
        <time>2022-09-20T11:17:28Z</time>
      </trkpt>
      <trkpt lat="46.51879" lon="4.55105">
        <ele>367.696</ele>
        <time>2022-09-20T11:17:33Z</time>
      </trkpt>
      <trkpt lat="46.51884" lon="4.55113">
        <ele>367.796</ele>
        <time>2022-09-20T11:17:40Z</time>
      </trkpt>
      <trkpt lat="46.5189" lon="4.55119">
        <ele>369.596</ele>
        <time>2022-09-20T11:17:46Z</time>
      </trkpt>
      <trkpt lat="46.51896" lon="4.55124">
        <ele>370.997</ele>
        <time>2022-09-20T11:17:51Z</time>
      </trkpt>
      <trkpt lat="46.51902" lon="4.55128">
        <ele>371.497</ele>
        <time>2022-09-20T11:17:58Z</time>
      </trkpt>
      <trkpt lat="46.51907" lon="4.55136">
        <ele>372.797</ele>
        <time>2022-09-20T11:18:06Z</time>
      </trkpt>
      <trkpt lat="46.51912" lon="4.55144">
        <ele>373.397</ele>
        <time>2022-09-20T11:18:13Z</time>
      </trkpt>
      <trkpt lat="46.51916" lon="4.55153">
        <ele>372.697</ele>
        <time>2022-09-20T11:18:19Z</time>
      </trkpt>
      <trkpt lat="46.51921" lon="4.55161">
        <ele>373.497</ele>
        <time>2022-09-20T11:18:26Z</time>
      </trkpt>
      <trkpt lat="46.51926" lon="4.55167">
        <ele>374.597</ele>
        <time>2022-09-20T11:18:31Z</time>
      </trkpt>
      <trkpt lat="46.51929" lon="4.55176">
        <ele>375.197</ele>
        <time>2022-09-20T11:18:37Z</time>
      </trkpt>
      <trkpt lat="46.51933" lon="4.55187">
        <ele>374.697</ele>
        <time>2022-09-20T11:18:43Z</time>
      </trkpt>
      <trkpt lat="46.51935" lon="4.55197">
        <ele>374.897</ele>
        <time>2022-09-20T11:18:50Z</time>
      </trkpt>
      <trkpt lat="46.5194" lon="4.55208">
        <ele>376.297</ele>
        <time>2022-09-20T11:18:55Z</time>
      </trkpt>
      <trkpt lat="46.51945" lon="4.55216">
        <ele>376.297</ele>
        <time>2022-09-20T11:19:01Z</time>
      </trkpt>
      <trkpt lat="46.51952" lon="4.55225">
        <ele>376.497</ele>
        <time>2022-09-20T11:19:07Z</time>
      </trkpt>
      <trkpt lat="46.51958" lon="4.5523">
        <ele>376.097</ele>
        <time>2022-09-20T11:19:14Z</time>
      </trkpt>
      <trkpt lat="46.51963" lon="4.55236">
        <ele>375.397</ele>
        <time>2022-09-20T11:19:21Z</time>
      </trkpt>
      <trkpt lat="46.51968" lon="4.55243">
        <ele>373.897</ele>
        <time>2022-09-20T11:19:27Z</time>
      </trkpt>
      <trkpt lat="46.51975" lon="4.55249">
        <ele>373.397</ele>
        <time>2022-09-20T11:19:35Z</time>
      </trkpt>
      <trkpt lat="46.51981" lon="4.55253">
        <ele>372.497</ele>
        <time>2022-09-20T11:19:40Z</time>
      </trkpt>
      <trkpt lat="46.51988" lon="4.55258">
        <ele>372.497</ele>
        <time>2022-09-20T11:19:45Z</time>
      </trkpt>
      <trkpt lat="46.51995" lon="4.55265">
        <ele>371.697</ele>
        <time>2022-09-20T11:19:51Z</time>
      </trkpt>
      <trkpt lat="46.52" lon="4.55271">
        <ele>371.697</ele>
        <time>2022-09-20T11:19:56Z</time>
      </trkpt>
      <trkpt lat="46.52007" lon="4.55275">
        <ele>371.597</ele>
        <time>2022-09-20T11:20:01Z</time>
      </trkpt>
      <trkpt lat="46.52013" lon="4.55281">
        <ele>372.097</ele>
        <time>2022-09-20T11:20:07Z</time>
      </trkpt>
      <trkpt lat="46.5202" lon="4.55285">
        <ele>371.897</ele>
        <time>2022-09-20T11:20:14Z</time>
      </trkpt>
      <trkpt lat="46.52026" lon="4.55289">
        <ele>373.697</ele>
        <time>2022-09-20T11:20:20Z</time>
      </trkpt>
      <trkpt lat="46.52033" lon="4.55293">
        <ele>376.197</ele>
        <time>2022-09-20T11:20:26Z</time>
      </trkpt>
      <trkpt lat="46.5204" lon="4.55294">
        <ele>377.397</ele>
        <time>2022-09-20T11:20:33Z</time>
      </trkpt>
      <trkpt lat="46.52048" lon="4.55297">
        <ele>379.697</ele>
        <time>2022-09-20T11:20:39Z</time>
      </trkpt>
      <trkpt lat="46.52055" lon="4.55299">
        <ele>381.497</ele>
        <time>2022-09-20T11:20:45Z</time>
      </trkpt>
      <trkpt lat="46.52062" lon="4.55301">
        <ele>383.097</ele>
        <time>2022-09-20T11:20:53Z</time>
      </trkpt>
      <trkpt lat="46.5207" lon="4.55303">
        <ele>383.097</ele>
        <time>2022-09-20T11:21:00Z</time>
      </trkpt>
      <trkpt lat="46.52077" lon="4.55308">
        <ele>382.897</ele>
        <time>2022-09-20T11:21:05Z</time>
      </trkpt>
      <trkpt lat="46.52085" lon="4.55311">
        <ele>382.597</ele>
        <time>2022-09-20T11:21:11Z</time>
      </trkpt>
      <trkpt lat="46.52091" lon="4.55314">
        <ele>381.497</ele>
        <time>2022-09-20T11:21:17Z</time>
      </trkpt>
      <trkpt lat="46.52099" lon="4.55314">
        <ele>381.397</ele>
        <time>2022-09-20T11:21:23Z</time>
      </trkpt>
      <trkpt lat="46.52106" lon="4.55317">
        <ele>381.697</ele>
        <time>2022-09-20T11:21:30Z</time>
      </trkpt>
      <trkpt lat="46.52113" lon="4.55317">
        <ele>382.397</ele>
        <time>2022-09-20T11:21:36Z</time>
      </trkpt>
      <trkpt lat="46.52122" lon="4.55321">
        <ele>383.297</ele>
        <time>2022-09-20T11:21:41Z</time>
      </trkpt>
      <trkpt lat="46.5213" lon="4.55324">
        <ele>384.797</ele>
        <time>2022-09-20T11:21:47Z</time>
      </trkpt>
      <trkpt lat="46.52137" lon="4.55325">
        <ele>387.697</ele>
        <time>2022-09-20T11:21:54Z</time>
      </trkpt>
      <trkpt lat="46.52144" lon="4.55327">
        <ele>388.097</ele>
        <time>2022-09-20T11:21:59Z</time>
      </trkpt>
      <trkpt lat="46.52152" lon="4.55327">
        <ele>388.597</ele>
        <time>2022-09-20T11:22:08Z</time>
      </trkpt>
      <trkpt lat="46.52158" lon="4.55324">
        <ele>387.397</ele>
        <time>2022-09-20T11:22:14Z</time>
      </trkpt>
      <trkpt lat="46.52165" lon="4.5532">
        <ele>387.197</ele>
        <time>2022-09-20T11:22:21Z</time>
      </trkpt>
      <trkpt lat="46.52171" lon="4.55319">
        <ele>384.497</ele>
        <time>2022-09-20T11:22:29Z</time>
      </trkpt>
      <trkpt lat="46.52183" lon="4.5531">
        <ele>383.397</ele>
        <time>2022-09-20T11:22:35Z</time>
      </trkpt>
      <trkpt lat="46.52194" lon="4.55306">
        <ele>384.997</ele>
        <time>2022-09-20T11:22:40Z</time>
      </trkpt>
      <trkpt lat="46.522" lon="4.55308">
        <ele>386.397</ele>
        <time>2022-09-20T11:22:47Z</time>
      </trkpt>
      <trkpt lat="46.52209" lon="4.55314">
        <ele>389.397</ele>
        <time>2022-09-20T11:24:49Z</time>
      </trkpt>
      <trkpt lat="46.52206" lon="4.55303">
        <ele>391.397</ele>
        <time>2022-09-20T11:25:28Z</time>
      </trkpt>
      <trkpt lat="46.52206" lon="4.55314">
        <ele>391.997</ele>
        <time>2022-09-20T11:25:54Z</time>
      </trkpt>
      <trkpt lat="46.52209" lon="4.55325">
        <ele>392.298</ele>
        <time>2022-09-20T11:25:59Z</time>
      </trkpt>
      <trkpt lat="46.52208" lon="4.55338">
        <ele>391.998</ele>
        <time>2022-09-20T11:26:05Z</time>
      </trkpt>
      <trkpt lat="46.52207" lon="4.55348">
        <ele>391.098</ele>
        <time>2022-09-20T11:26:12Z</time>
      </trkpt>
      <trkpt lat="46.52209" lon="4.55358">
        <ele>391.898</ele>
        <time>2022-09-20T11:26:18Z</time>
      </trkpt>
      <trkpt lat="46.5221" lon="4.55368">
        <ele>391.098</ele>
        <time>2022-09-20T11:26:23Z</time>
      </trkpt>
      <trkpt lat="46.52211" lon="4.55377">
        <ele>390.098</ele>
        <time>2022-09-20T11:26:29Z</time>
      </trkpt>
      <trkpt lat="46.52211" lon="4.55388">
        <ele>389.998</ele>
        <time>2022-09-20T11:26:36Z</time>
      </trkpt>
      <trkpt lat="46.52211" lon="4.55397">
        <ele>390.898</ele>
        <time>2022-09-20T11:26:41Z</time>
      </trkpt>
      <trkpt lat="46.52211" lon="4.55407">
        <ele>391.398</ele>
        <time>2022-09-20T11:26:47Z</time>
      </trkpt>
      <trkpt lat="46.52212" lon="4.55418">
        <ele>389.898</ele>
        <time>2022-09-20T11:26:53Z</time>
      </trkpt>
      <trkpt lat="46.52213" lon="4.55429">
        <ele>388.898</ele>
        <time>2022-09-20T11:26:59Z</time>
      </trkpt>
      <trkpt lat="46.52213" lon="4.55441">
        <ele>387.698</ele>
        <time>2022-09-20T11:27:05Z</time>
      </trkpt>
      <trkpt lat="46.52216" lon="4.5545">
        <ele>387.298</ele>
        <time>2022-09-20T11:27:12Z</time>
      </trkpt>
      <trkpt lat="46.52215" lon="4.5546">
        <ele>385.798</ele>
        <time>2022-09-20T11:27:18Z</time>
      </trkpt>
      <trkpt lat="46.52215" lon="4.55471">
        <ele>385.098</ele>
        <time>2022-09-20T11:27:23Z</time>
      </trkpt>
      <trkpt lat="46.52215" lon="4.55483">
        <ele>387.398</ele>
        <time>2022-09-20T11:27:28Z</time>
      </trkpt>
      <trkpt lat="46.52217" lon="4.55493">
        <ele>385.098</ele>
        <time>2022-09-20T11:27:33Z</time>
      </trkpt>
      <trkpt lat="46.52218" lon="4.55504">
        <ele>384.498</ele>
        <time>2022-09-20T11:27:39Z</time>
      </trkpt>
      <trkpt lat="46.52221" lon="4.55513">
        <ele>384.198</ele>
        <time>2022-09-20T11:27:45Z</time>
      </trkpt>
      <trkpt lat="46.52226" lon="4.55521">
        <ele>384.198</ele>
        <time>2022-09-20T11:27:51Z</time>
      </trkpt>
      <trkpt lat="46.52229" lon="4.55531">
        <ele>385.598</ele>
        <time>2022-09-20T11:27:57Z</time>
      </trkpt>
      <trkpt lat="46.52231" lon="4.55541">
        <ele>386.398</ele>
        <time>2022-09-20T11:28:03Z</time>
      </trkpt>
      <trkpt lat="46.52235" lon="4.55551">
        <ele>387.098</ele>
        <time>2022-09-20T11:28:09Z</time>
      </trkpt>
      <trkpt lat="46.52238" lon="4.5556">
        <ele>386.698</ele>
        <time>2022-09-20T11:28:15Z</time>
      </trkpt>
      <trkpt lat="46.52243" lon="4.5557">
        <ele>387.598</ele>
        <time>2022-09-20T11:28:21Z</time>
      </trkpt>
      <trkpt lat="46.52248" lon="4.55577">
        <ele>387.198</ele>
        <time>2022-09-20T11:28:27Z</time>
      </trkpt>
      <trkpt lat="46.52253" lon="4.55583">
        <ele>387.698</ele>
        <time>2022-09-20T11:28:32Z</time>
      </trkpt>
      <trkpt lat="46.52261" lon="4.55586">
        <ele>387.098</ele>
        <time>2022-09-20T11:28:37Z</time>
      </trkpt>
      <trkpt lat="46.52268" lon="4.55589">
        <ele>386.898</ele>
        <time>2022-09-20T11:28:43Z</time>
      </trkpt>
      <trkpt lat="46.52273" lon="4.55595">
        <ele>387.198</ele>
        <time>2022-09-20T11:28:48Z</time>
      </trkpt>
      <trkpt lat="46.52277" lon="4.55603">
        <ele>386.198</ele>
        <time>2022-09-20T11:28:54Z</time>
      </trkpt>
      <trkpt lat="46.52281" lon="4.55613">
        <ele>386.198</ele>
        <time>2022-09-20T11:28:59Z</time>
      </trkpt>
      <trkpt lat="46.52282" lon="4.55623">
        <ele>385.098</ele>
        <time>2022-09-20T11:29:05Z</time>
      </trkpt>
      <trkpt lat="46.52286" lon="4.55631">
        <ele>384.598</ele>
        <time>2022-09-20T11:29:13Z</time>
      </trkpt>
      <trkpt lat="46.5228" lon="4.55632">
        <ele>386.298</ele>
        <time>2022-09-20T11:33:57Z</time>
      </trkpt>
      <trkpt lat="46.52282" lon="4.55624">
        <ele>388.398</ele>
        <time>2022-09-20T11:34:13Z</time>
      </trkpt>
      <trkpt lat="46.52286" lon="4.55615">
        <ele>389.798</ele>
        <time>2022-09-20T11:34:22Z</time>
      </trkpt>
      <trkpt lat="46.52284" lon="4.55605">
        <ele>391.098</ele>
        <time>2022-09-20T11:34:31Z</time>
      </trkpt>
      <trkpt lat="46.52281" lon="4.55614">
        <ele>390.898</ele>
        <time>2022-09-20T11:34:49Z</time>
      </trkpt>
      <trkpt lat="46.52281" lon="4.55624">
        <ele>390.498</ele>
        <time>2022-09-20T11:34:56Z</time>
      </trkpt>
      <trkpt lat="46.52284" lon="4.55633">
        <ele>386.798</ele>
        <time>2022-09-20T11:35:05Z</time>
      </trkpt>
      <trkpt lat="46.5229" lon="4.55631">
        <ele>385.998</ele>
        <time>2022-09-20T11:35:38Z</time>
      </trkpt>
      <trkpt lat="46.52297" lon="4.55625">
        <ele>385.898</ele>
        <time>2022-09-20T11:37:28Z</time>
      </trkpt>
      <trkpt lat="46.52304" lon="4.55621">
        <ele>385.198</ele>
        <time>2022-09-20T11:37:35Z</time>
      </trkpt>
      <trkpt lat="46.52311" lon="4.55622">
        <ele>385.598</ele>
        <time>2022-09-20T11:37:41Z</time>
      </trkpt>
      <trkpt lat="46.52317" lon="4.55627">
        <ele>383.898</ele>
        <time>2022-09-20T11:38:00Z</time>
      </trkpt>
      <trkpt lat="46.52323" lon="4.5563">
        <ele>383.798</ele>
        <time>2022-09-20T11:38:12Z</time>
      </trkpt>
      <trkpt lat="46.5233" lon="4.55628">
        <ele>379.798</ele>
        <time>2022-09-20T11:38:30Z</time>
      </trkpt>
      <trkpt lat="46.52337" lon="4.55627">
        <ele>378.698</ele>
        <time>2022-09-20T11:38:40Z</time>
      </trkpt>
      <trkpt lat="46.52343" lon="4.55625">
        <ele>378.898</ele>
        <time>2022-09-20T11:38:53Z</time>
      </trkpt>
      <trkpt lat="46.52349" lon="4.55619">
        <ele>378.098</ele>
        <time>2022-09-20T11:39:03Z</time>
      </trkpt>
      <trkpt lat="46.52353" lon="4.5561">
        <ele>378.798</ele>
        <time>2022-09-20T11:39:10Z</time>
      </trkpt>
      <trkpt lat="46.52356" lon="4.55602">
        <ele>377.598</ele>
        <time>2022-09-20T11:39:50Z</time>
      </trkpt>
      <trkpt lat="46.52359" lon="4.55593">
        <ele>379.698</ele>
        <time>2022-09-20T11:41:20Z</time>
      </trkpt>
      <trkpt lat="46.52362" lon="4.55583">
        <ele>380.698</ele>
        <time>2022-09-20T11:41:28Z</time>
      </trkpt>
      <trkpt lat="46.52366" lon="4.55576">
        <ele>379.098</ele>
        <time>2022-09-20T11:41:56Z</time>
      </trkpt>
      <trkpt lat="46.5237" lon="4.55569">
        <ele>379.598</ele>
        <time>2022-09-20T11:42:03Z</time>
      </trkpt>
      <trkpt lat="46.52376" lon="4.55562">
        <ele>379.398</ele>
        <time>2022-09-20T11:42:08Z</time>
      </trkpt>
      <trkpt lat="46.5238" lon="4.55553">
        <ele>379.298</ele>
        <time>2022-09-20T11:42:14Z</time>
      </trkpt>
      <trkpt lat="46.52381" lon="4.55542">
        <ele>377.898</ele>
        <time>2022-09-20T11:42:21Z</time>
      </trkpt>
      <trkpt lat="46.52381" lon="4.5553">
        <ele>379.298</ele>
        <time>2022-09-20T11:42:27Z</time>
      </trkpt>
      <trkpt lat="46.52384" lon="4.5552">
        <ele>379.698</ele>
        <time>2022-09-20T11:42:32Z</time>
      </trkpt>
      <trkpt lat="46.52385" lon="4.55511">
        <ele>381.298</ele>
        <time>2022-09-20T11:42:39Z</time>
      </trkpt>
      <trkpt lat="46.52386" lon="4.55501">
        <ele>383.498</ele>
        <time>2022-09-20T11:42:46Z</time>
      </trkpt>
      <trkpt lat="46.52389" lon="4.55492">
        <ele>385.198</ele>
        <time>2022-09-20T11:42:52Z</time>
      </trkpt>
      <trkpt lat="46.52392" lon="4.55483">
        <ele>383.798</ele>
        <time>2022-09-20T11:42:58Z</time>
      </trkpt>
      <trkpt lat="46.52396" lon="4.55474">
        <ele>383.798</ele>
        <time>2022-09-20T11:43:03Z</time>
      </trkpt>
      <trkpt lat="46.524" lon="4.55466">
        <ele>383.898</ele>
        <time>2022-09-20T11:43:08Z</time>
      </trkpt>
      <trkpt lat="46.52402" lon="4.55456">
        <ele>383.998</ele>
        <time>2022-09-20T11:43:14Z</time>
      </trkpt>
      <trkpt lat="46.52404" lon="4.55446">
        <ele>383.698</ele>
        <time>2022-09-20T11:43:20Z</time>
      </trkpt>
      <trkpt lat="46.52408" lon="4.55438">
        <ele>382.998</ele>
        <time>2022-09-20T11:43:25Z</time>
      </trkpt>
      <trkpt lat="46.52413" lon="4.55431">
        <ele>381.098</ele>
        <time>2022-09-20T11:43:31Z</time>
      </trkpt>
      <trkpt lat="46.52418" lon="4.55423">
        <ele>380.298</ele>
        <time>2022-09-20T11:43:37Z</time>
      </trkpt>
      <trkpt lat="46.52423" lon="4.55415">
        <ele>381.198</ele>
        <time>2022-09-20T11:43:43Z</time>
      </trkpt>
      <trkpt lat="46.52428" lon="4.55407">
        <ele>380.398</ele>
        <time>2022-09-20T11:43:48Z</time>
      </trkpt>
      <trkpt lat="46.52433" lon="4.55399">
        <ele>380.998</ele>
        <time>2022-09-20T11:43:55Z</time>
      </trkpt>
      <trkpt lat="46.5244" lon="4.55389">
        <ele>382.998</ele>
        <time>2022-09-20T11:44:00Z</time>
      </trkpt>
      <trkpt lat="46.52445" lon="4.55383">
        <ele>384.798</ele>
        <time>2022-09-20T11:44:07Z</time>
      </trkpt>
      <trkpt lat="46.52449" lon="4.55374">
        <ele>382.898</ele>
        <time>2022-09-20T11:44:14Z</time>
      </trkpt>
      <trkpt lat="46.52454" lon="4.55366">
        <ele>380.398</ele>
        <time>2022-09-20T11:44:20Z</time>
      </trkpt>
      <trkpt lat="46.52458" lon="4.55358">
        <ele>378.498</ele>
        <time>2022-09-20T11:44:27Z</time>
      </trkpt>
      <trkpt lat="46.52459" lon="4.55348">
        <ele>376.198</ele>
        <time>2022-09-20T11:44:33Z</time>
      </trkpt>
      <trkpt lat="46.52464" lon="4.55341">
        <ele>375.398</ele>
        <time>2022-09-20T11:44:39Z</time>
      </trkpt>
      <trkpt lat="46.52469" lon="4.55335">
        <ele>375.098</ele>
        <time>2022-09-20T11:44:44Z</time>
      </trkpt>
      <trkpt lat="46.52476" lon="4.5533">
        <ele>376.598</ele>
        <time>2022-09-20T11:44:50Z</time>
      </trkpt>
      <trkpt lat="46.52481" lon="4.55323">
        <ele>376.298</ele>
        <time>2022-09-20T11:44:56Z</time>
      </trkpt>
      <trkpt lat="46.52487" lon="4.55318">
        <ele>375.498</ele>
        <time>2022-09-20T11:45:01Z</time>
      </trkpt>
      <trkpt lat="46.52493" lon="4.55312">
        <ele>374.498</ele>
        <time>2022-09-20T11:45:07Z</time>
      </trkpt>
      <trkpt lat="46.52499" lon="4.55305">
        <ele>373.598</ele>
        <time>2022-09-20T11:45:16Z</time>
      </trkpt>
      <trkpt lat="46.52506" lon="4.55299">
        <ele>372.098</ele>
        <time>2022-09-20T11:45:21Z</time>
      </trkpt>
      <trkpt lat="46.52513" lon="4.55293">
        <ele>370.798</ele>
        <time>2022-09-20T11:45:27Z</time>
      </trkpt>
      <trkpt lat="46.5252" lon="4.55288">
        <ele>371.598</ele>
        <time>2022-09-20T11:45:32Z</time>
      </trkpt>
      <trkpt lat="46.52528" lon="4.55282">
        <ele>371.198</ele>
        <time>2022-09-20T11:45:37Z</time>
      </trkpt>
      <trkpt lat="46.52533" lon="4.55275">
        <ele>371.698</ele>
        <time>2022-09-20T11:45:43Z</time>
      </trkpt>
      <trkpt lat="46.5254" lon="4.55273">
        <ele>370.698</ele>
        <time>2022-09-20T11:45:48Z</time>
      </trkpt>
      <trkpt lat="46.52547" lon="4.55273">
        <ele>370.698</ele>
        <time>2022-09-20T11:45:57Z</time>
      </trkpt>
      <trkpt lat="46.52555" lon="4.55272">
        <ele>370.798</ele>
        <time>2022-09-20T11:46:03Z</time>
      </trkpt>
      <trkpt lat="46.52562" lon="4.55272">
        <ele>370.698</ele>
        <time>2022-09-20T11:46:08Z</time>
      </trkpt>
      <trkpt lat="46.52569" lon="4.55273">
        <ele>370.598</ele>
        <time>2022-09-20T11:46:14Z</time>
      </trkpt>
      <trkpt lat="46.52576" lon="4.55271">
        <ele>369.598</ele>
        <time>2022-09-20T11:46:19Z</time>
      </trkpt>
      <trkpt lat="46.52583" lon="4.55267">
        <ele>369.498</ele>
        <time>2022-09-20T11:46:24Z</time>
      </trkpt>
      <trkpt lat="46.5259" lon="4.55262">
        <ele>369.999</ele>
        <time>2022-09-20T11:46:30Z</time>
      </trkpt>
      <trkpt lat="46.52597" lon="4.5526">
        <ele>370.399</ele>
        <time>2022-09-20T11:46:36Z</time>
      </trkpt>
      <trkpt lat="46.52602" lon="4.55254">
        <ele>371.699</ele>
        <time>2022-09-20T11:46:42Z</time>
      </trkpt>
      <trkpt lat="46.5261" lon="4.55249">
        <ele>372.799</ele>
        <time>2022-09-20T11:46:47Z</time>
      </trkpt>
      <trkpt lat="46.52616" lon="4.55243">
        <ele>372.699</ele>
        <time>2022-09-20T11:46:52Z</time>
      </trkpt>
      <trkpt lat="46.52622" lon="4.55237">
        <ele>371.499</ele>
        <time>2022-09-20T11:46:59Z</time>
      </trkpt>
      <trkpt lat="46.52627" lon="4.55232">
        <ele>370.499</ele>
        <time>2022-09-20T11:47:06Z</time>
      </trkpt>
      <trkpt lat="46.52634" lon="4.55228">
        <ele>371.099</ele>
        <time>2022-09-20T11:47:12Z</time>
      </trkpt>
      <trkpt lat="46.52639" lon="4.55222">
        <ele>370.999</ele>
        <time>2022-09-20T11:47:17Z</time>
      </trkpt>
      <trkpt lat="46.52647" lon="4.55216">
        <ele>370.599</ele>
        <time>2022-09-20T11:47:23Z</time>
      </trkpt>
      <trkpt lat="46.52655" lon="4.55209">
        <ele>369.899</ele>
        <time>2022-09-20T11:47:28Z</time>
      </trkpt>
      <trkpt lat="46.52662" lon="4.55202">
        <ele>371.599</ele>
        <time>2022-09-20T11:47:34Z</time>
      </trkpt>
      <trkpt lat="46.52667" lon="4.55195">
        <ele>368.399</ele>
        <time>2022-09-20T11:47:40Z</time>
      </trkpt>
      <trkpt lat="46.52672" lon="4.55188">
        <ele>367.999</ele>
        <time>2022-09-20T11:47:46Z</time>
      </trkpt>
      <trkpt lat="46.52678" lon="4.55182">
        <ele>366.499</ele>
        <time>2022-09-20T11:47:51Z</time>
      </trkpt>
      <trkpt lat="46.52685" lon="4.55175">
        <ele>366.299</ele>
        <time>2022-09-20T11:47:57Z</time>
      </trkpt>
      <trkpt lat="46.52691" lon="4.55171">
        <ele>364.599</ele>
        <time>2022-09-20T11:48:03Z</time>
      </trkpt>
      <trkpt lat="46.52697" lon="4.55164">
        <ele>365.999</ele>
        <time>2022-09-20T11:48:08Z</time>
      </trkpt>
      <trkpt lat="46.52701" lon="4.55156">
        <ele>365.899</ele>
        <time>2022-09-20T11:48:16Z</time>
      </trkpt>
      <trkpt lat="46.52707" lon="4.5515">
        <ele>365.399</ele>
        <time>2022-09-20T11:48:21Z</time>
      </trkpt>
      <trkpt lat="46.52714" lon="4.55145">
        <ele>365.199</ele>
        <time>2022-09-20T11:48:27Z</time>
      </trkpt>
      <trkpt lat="46.52717" lon="4.55137">
        <ele>365.299</ele>
        <time>2022-09-20T11:48:38Z</time>
      </trkpt>
      <trkpt lat="46.52714" lon="4.55127">
        <ele>364.699</ele>
        <time>2022-09-20T11:49:26Z</time>
      </trkpt>
      <trkpt lat="46.5271" lon="4.5512">
        <ele>364.199</ele>
        <time>2022-09-20T11:49:32Z</time>
      </trkpt>
      <trkpt lat="46.52708" lon="4.55111">
        <ele>363.699</ele>
        <time>2022-09-20T11:49:38Z</time>
      </trkpt>
      <trkpt lat="46.52707" lon="4.551">
        <ele>364.699</ele>
        <time>2022-09-20T11:49:45Z</time>
      </trkpt>
      <trkpt lat="46.52706" lon="4.55091">
        <ele>367.999</ele>
        <time>2022-09-20T11:49:51Z</time>
      </trkpt>
      <trkpt lat="46.52707" lon="4.5508">
        <ele>368.999</ele>
        <time>2022-09-20T11:49:57Z</time>
      </trkpt>
      <trkpt lat="46.52709" lon="4.55069">
        <ele>368.599</ele>
        <time>2022-09-20T11:50:03Z</time>
      </trkpt>
      <trkpt lat="46.5271" lon="4.55057">
        <ele>369.299</ele>
        <time>2022-09-20T11:50:09Z</time>
      </trkpt>
      <trkpt lat="46.52712" lon="4.55047">
        <ele>371.799</ele>
        <time>2022-09-20T11:50:15Z</time>
      </trkpt>
      <trkpt lat="46.52713" lon="4.55037">
        <ele>373.599</ele>
        <time>2022-09-20T11:50:21Z</time>
      </trkpt>
      <trkpt lat="46.52715" lon="4.55027">
        <ele>371.499</ele>
        <time>2022-09-20T11:50:27Z</time>
      </trkpt>
      <trkpt lat="46.52717" lon="4.55018">
        <ele>372.399</ele>
        <time>2022-09-20T11:50:33Z</time>
      </trkpt>
      <trkpt lat="46.52721" lon="4.55007">
        <ele>372.499</ele>
        <time>2022-09-20T11:50:39Z</time>
      </trkpt>
      <trkpt lat="46.52723" lon="4.54997">
        <ele>371.499</ele>
        <time>2022-09-20T11:50:45Z</time>
      </trkpt>
      <trkpt lat="46.52728" lon="4.5499">
        <ele>369.899</ele>
        <time>2022-09-20T11:50:54Z</time>
      </trkpt>
      <trkpt lat="46.52722" lon="4.54984">
        <ele>367.199</ele>
        <time>2022-09-20T11:51:21Z</time>
      </trkpt>
      <trkpt lat="46.52729" lon="4.54985">
        <ele>368.599</ele>
        <time>2022-09-20T11:52:10Z</time>
      </trkpt>
      <trkpt lat="46.52735" lon="4.54985">
        <ele>368.799</ele>
        <time>2022-09-20T11:53:36Z</time>
      </trkpt>
      <trkpt lat="46.52729" lon="4.54983">
        <ele>363.599</ele>
        <time>2022-09-20T11:54:25Z</time>
      </trkpt>
      <trkpt lat="46.52736" lon="4.54977">
        <ele>362.499</ele>
        <time>2022-09-20T11:55:02Z</time>
      </trkpt>
      <trkpt lat="46.52742" lon="4.54975">
        <ele>371.499</ele>
        <time>2022-09-20T11:55:44Z</time>
      </trkpt>
      <trkpt lat="46.5275" lon="4.54971">
        <ele>371.599</ele>
        <time>2022-09-20T11:55:49Z</time>
      </trkpt>
      <trkpt lat="46.52757" lon="4.54967">
        <ele>372.899</ele>
        <time>2022-09-20T11:55:54Z</time>
      </trkpt>
      <trkpt lat="46.52764" lon="4.54962">
        <ele>372.399</ele>
        <time>2022-09-20T11:56:00Z</time>
      </trkpt>
      <trkpt lat="46.52769" lon="4.54955">
        <ele>370.799</ele>
        <time>2022-09-20T11:56:05Z</time>
      </trkpt>
      <trkpt lat="46.52775" lon="4.54948">
        <ele>370.599</ele>
        <time>2022-09-20T11:56:11Z</time>
      </trkpt>
      <trkpt lat="46.52779" lon="4.5494">
        <ele>369.799</ele>
        <time>2022-09-20T11:56:17Z</time>
      </trkpt>
      <trkpt lat="46.52784" lon="4.54932">
        <ele>368.799</ele>
        <time>2022-09-20T11:56:23Z</time>
      </trkpt>
      <trkpt lat="46.52788" lon="4.54924">
        <ele>369.299</ele>
        <time>2022-09-20T11:56:28Z</time>
      </trkpt>
      <trkpt lat="46.52793" lon="4.54916">
        <ele>367.799</ele>
        <time>2022-09-20T11:56:34Z</time>
      </trkpt>
      <trkpt lat="46.52797" lon="4.54905">
        <ele>365.199</ele>
        <time>2022-09-20T11:56:40Z</time>
      </trkpt>
      <trkpt lat="46.52802" lon="4.54898">
        <ele>364.999</ele>
        <time>2022-09-20T11:56:45Z</time>
      </trkpt>
      <trkpt lat="46.52806" lon="4.54889">
        <ele>364.499</ele>
        <time>2022-09-20T11:56:50Z</time>
      </trkpt>
      <trkpt lat="46.52811" lon="4.54881">
        <ele>365.299</ele>
        <time>2022-09-20T11:56:56Z</time>
      </trkpt>
      <trkpt lat="46.52816" lon="4.54873">
        <ele>364.399</ele>
        <time>2022-09-20T11:57:02Z</time>
      </trkpt>
      <trkpt lat="46.52823" lon="4.54864">
        <ele>365.299</ele>
        <time>2022-09-20T11:57:08Z</time>
      </trkpt>
      <trkpt lat="46.52826" lon="4.54855">
        <ele>364.799</ele>
        <time>2022-09-20T11:57:14Z</time>
      </trkpt>
      <trkpt lat="46.52835" lon="4.54844">
        <ele>364.799</ele>
        <time>2022-09-20T11:57:23Z</time>
      </trkpt>
      <trkpt lat="46.52841" lon="4.54836">
        <ele>363.199</ele>
        <time>2022-09-20T11:57:30Z</time>
      </trkpt>
      <trkpt lat="46.52846" lon="4.54828">
        <ele>365.899</ele>
        <time>2022-09-20T11:57:36Z</time>
      </trkpt>
      <trkpt lat="46.52852" lon="4.54823">
        <ele>365.499</ele>
        <time>2022-09-20T11:57:41Z</time>
      </trkpt>
      <trkpt lat="46.52858" lon="4.54816">
        <ele>365.499</ele>
        <time>2022-09-20T11:57:47Z</time>
      </trkpt>
      <trkpt lat="46.52863" lon="4.54809">
        <ele>366.799</ele>
        <time>2022-09-20T11:57:52Z</time>
      </trkpt>
      <trkpt lat="46.52869" lon="4.54802">
        <ele>366.599</ele>
        <time>2022-09-20T11:57:58Z</time>
      </trkpt>
      <trkpt lat="46.52875" lon="4.54798">
        <ele>368.299</ele>
        <time>2022-09-20T11:58:03Z</time>
      </trkpt>
      <trkpt lat="46.52882" lon="4.54794">
        <ele>372.499</ele>
        <time>2022-09-20T11:58:08Z</time>
      </trkpt>
      <trkpt lat="46.52888" lon="4.54788">
        <ele>370.399</ele>
        <time>2022-09-20T11:58:16Z</time>
      </trkpt>
      <trkpt lat="46.52894" lon="4.54782">
        <ele>371.199</ele>
        <time>2022-09-20T11:58:22Z</time>
      </trkpt>
      <trkpt lat="46.529" lon="4.54776">
        <ele>370.999</ele>
        <time>2022-09-20T11:58:27Z</time>
      </trkpt>
      <trkpt lat="46.52907" lon="4.54772">
        <ele>370.099</ele>
        <time>2022-09-20T11:58:32Z</time>
      </trkpt>
      <trkpt lat="46.52913" lon="4.54768">
        <ele>370.599</ele>
        <time>2022-09-20T11:58:38Z</time>
      </trkpt>
      <trkpt lat="46.52919" lon="4.54763">
        <ele>370.299</ele>
        <time>2022-09-20T11:58:43Z</time>
      </trkpt>
      <trkpt lat="46.52926" lon="4.54758">
        <ele>369.899</ele>
        <time>2022-09-20T11:58:49Z</time>
      </trkpt>
      <trkpt lat="46.52933" lon="4.54754">
        <ele>369.899</ele>
        <time>2022-09-20T11:58:56Z</time>
      </trkpt>
      <trkpt lat="46.52939" lon="4.54748">
        <ele>368.799</ele>
        <time>2022-09-20T11:59:01Z</time>
      </trkpt>
      <trkpt lat="46.52947" lon="4.54745">
        <ele>368.499</ele>
        <time>2022-09-20T11:59:07Z</time>
      </trkpt>
      <trkpt lat="46.52954" lon="4.54746">
        <ele>367.099</ele>
        <time>2022-09-20T11:59:33Z</time>
      </trkpt>
      <trkpt lat="46.52961" lon="4.54746">
        <ele>367.899</ele>
        <time>2022-09-20T11:59:43Z</time>
      </trkpt>
      <trkpt lat="46.52969" lon="4.54747">
        <ele>372.699</ele>
        <time>2022-09-20T11:59:59Z</time>
      </trkpt>
      <trkpt lat="46.52976" lon="4.54747">
        <ele>374.499</ele>
        <time>2022-09-20T12:00:04Z</time>
      </trkpt>
      <trkpt lat="46.52983" lon="4.54749">
        <ele>374.499</ele>
        <time>2022-09-20T12:00:11Z</time>
      </trkpt>
      <trkpt lat="46.52989" lon="4.5475">
        <ele>374.099</ele>
        <time>2022-09-20T12:00:17Z</time>
      </trkpt>
      <trkpt lat="46.52996" lon="4.54748">
        <ele>378.899</ele>
        <time>2022-09-20T12:00:23Z</time>
      </trkpt>
      <trkpt lat="46.53003" lon="4.54747">
        <ele>381.499</ele>
        <time>2022-09-20T12:00:30Z</time>
      </trkpt>
      <trkpt lat="46.53009" lon="4.54743">
        <ele>385.299</ele>
        <time>2022-09-20T12:00:37Z</time>
      </trkpt>
      <trkpt lat="46.53015" lon="4.54739">
        <ele>387.199</ele>
        <time>2022-09-20T12:00:43Z</time>
      </trkpt>
      <trkpt lat="46.53021" lon="4.54734">
        <ele>388.799</ele>
        <time>2022-09-20T12:00:49Z</time>
      </trkpt>
      <trkpt lat="46.53028" lon="4.54726">
        <ele>387.999</ele>
        <time>2022-09-20T12:00:55Z</time>
      </trkpt>
      <trkpt lat="46.53034" lon="4.54721">
        <ele>388.499</ele>
        <time>2022-09-20T12:01:00Z</time>
      </trkpt>
      <trkpt lat="46.53041" lon="4.54717">
        <ele>386.999</ele>
        <time>2022-09-20T12:01:05Z</time>
      </trkpt>
      <trkpt lat="46.53048" lon="4.5471">
        <ele>386.199</ele>
        <time>2022-09-20T12:01:11Z</time>
      </trkpt>
      <trkpt lat="46.53055" lon="4.54704">
        <ele>385.799</ele>
        <time>2022-09-20T12:01:19Z</time>
      </trkpt>
      <trkpt lat="46.53061" lon="4.54697">
        <ele>385.599</ele>
        <time>2022-09-20T12:01:24Z</time>
      </trkpt>
      <trkpt lat="46.53067" lon="4.54692">
        <ele>383.999</ele>
        <time>2022-09-20T12:01:29Z</time>
      </trkpt>
      <trkpt lat="46.53073" lon="4.54687">
        <ele>384.199</ele>
        <time>2022-09-20T12:01:35Z</time>
      </trkpt>
      <trkpt lat="46.53079" lon="4.54681">
        <ele>385.199</ele>
        <time>2022-09-20T12:01:40Z</time>
      </trkpt>
      <trkpt lat="46.53086" lon="4.54675">
        <ele>385.599</ele>
        <time>2022-09-20T12:01:46Z</time>
      </trkpt>
      <trkpt lat="46.53093" lon="4.5467">
        <ele>386.199</ele>
        <time>2022-09-20T12:01:51Z</time>
      </trkpt>
      <trkpt lat="46.531" lon="4.54664">
        <ele>387.999</ele>
        <time>2022-09-20T12:01:56Z</time>
      </trkpt>
      <trkpt lat="46.53107" lon="4.54661">
        <ele>387.699</ele>
        <time>2022-09-20T12:02:02Z</time>
      </trkpt>
      <trkpt lat="46.53114" lon="4.54659">
        <ele>388.699</ele>
        <time>2022-09-20T12:02:08Z</time>
      </trkpt>
      <trkpt lat="46.53122" lon="4.5466">
        <ele>387.8</ele>
        <time>2022-09-20T12:02:13Z</time>
      </trkpt>
      <trkpt lat="46.53129" lon="4.5466">
        <ele>386.4</ele>
        <time>2022-09-20T12:02:20Z</time>
      </trkpt>
      <trkpt lat="46.5314" lon="4.54663">
        <ele>384.6</ele>
        <time>2022-09-20T12:02:25Z</time>
      </trkpt>
      <trkpt lat="46.53149" lon="4.54666">
        <ele>384.5</ele>
        <time>2022-09-20T12:02:31Z</time>
      </trkpt>
      <trkpt lat="46.53155" lon="4.5467">
        <ele>386.5</ele>
        <time>2022-09-20T12:02:36Z</time>
      </trkpt>
      <trkpt lat="46.53159" lon="4.54677">
        <ele>388.5</ele>
        <time>2022-09-20T12:02:43Z</time>
      </trkpt>
      <trkpt lat="46.53165" lon="4.54682">
        <ele>389.5</ele>
        <time>2022-09-20T12:02:51Z</time>
      </trkpt>
      <trkpt lat="46.53171" lon="4.54688">
        <ele>393.1</ele>
        <time>2022-09-20T12:05:52Z</time>
      </trkpt>
      <trkpt lat="46.53176" lon="4.54695">
        <ele>394.5</ele>
        <time>2022-09-20T12:06:13Z</time>
      </trkpt>
      <trkpt lat="46.5318" lon="4.54704">
        <ele>393.9</ele>
        <time>2022-09-20T12:06:20Z</time>
      </trkpt>
      <trkpt lat="46.53185" lon="4.5471">
        <ele>393.2</ele>
        <time>2022-09-20T12:06:26Z</time>
      </trkpt>
      <trkpt lat="46.5319" lon="4.54717">
        <ele>392.2</ele>
        <time>2022-09-20T12:06:32Z</time>
      </trkpt>
      <trkpt lat="46.53196" lon="4.54724">
        <ele>391.9</ele>
        <time>2022-09-20T12:06:37Z</time>
      </trkpt>
      <trkpt lat="46.53201" lon="4.5473">
        <ele>393</ele>
        <time>2022-09-20T12:06:43Z</time>
      </trkpt>
      <trkpt lat="46.53206" lon="4.54739">
        <ele>396.3</ele>
        <time>2022-09-20T12:06:50Z</time>
      </trkpt>
      <trkpt lat="46.53212" lon="4.54745">
        <ele>398.9</ele>
        <time>2022-09-20T12:06:55Z</time>
      </trkpt>
      <trkpt lat="46.53218" lon="4.54749">
        <ele>399.7</ele>
        <time>2022-09-20T12:07:00Z</time>
      </trkpt>
      <trkpt lat="46.53224" lon="4.54753">
        <ele>400.9</ele>
        <time>2022-09-20T12:07:07Z</time>
      </trkpt>
      <trkpt lat="46.53232" lon="4.54756">
        <ele>401.5</ele>
        <time>2022-09-20T12:07:15Z</time>
      </trkpt>
      <trkpt lat="46.53239" lon="4.54757">
        <ele>402.6</ele>
        <time>2022-09-20T12:07:22Z</time>
      </trkpt>
      <trkpt lat="46.53246" lon="4.5476">
        <ele>404</ele>
        <time>2022-09-20T12:07:27Z</time>
      </trkpt>
      <trkpt lat="46.53253" lon="4.54763">
        <ele>405.8</ele>
        <time>2022-09-20T12:07:33Z</time>
      </trkpt>
      <trkpt lat="46.53261" lon="4.54768">
        <ele>403.8</ele>
        <time>2022-09-20T12:07:39Z</time>
      </trkpt>
      <trkpt lat="46.53268" lon="4.54769">
        <ele>403.3</ele>
        <time>2022-09-20T12:07:44Z</time>
      </trkpt>
      <trkpt lat="46.53275" lon="4.5477">
        <ele>403.1</ele>
        <time>2022-09-20T12:07:51Z</time>
      </trkpt>
      <trkpt lat="46.53286" lon="4.54771">
        <ele>402.5</ele>
        <time>2022-09-20T12:07:56Z</time>
      </trkpt>
      <trkpt lat="46.53294" lon="4.54773">
        <ele>403.9</ele>
        <time>2022-09-20T12:08:01Z</time>
      </trkpt>
      <trkpt lat="46.53301" lon="4.54773">
        <ele>402.8</ele>
        <time>2022-09-20T12:08:10Z</time>
      </trkpt>
      <trkpt lat="46.53307" lon="4.54775">
        <ele>401.7</ele>
        <time>2022-09-20T12:08:18Z</time>
      </trkpt>
      <trkpt lat="46.53314" lon="4.54774">
        <ele>401.5</ele>
        <time>2022-09-20T12:08:24Z</time>
      </trkpt>
      <trkpt lat="46.53321" lon="4.54774">
        <ele>400.4</ele>
        <time>2022-09-20T12:08:31Z</time>
      </trkpt>
      <trkpt lat="46.53331" lon="4.54769">
        <ele>399</ele>
        <time>2022-09-20T12:08:36Z</time>
      </trkpt>
      <trkpt lat="46.53338" lon="4.54769">
        <ele>398.6</ele>
        <time>2022-09-20T12:08:42Z</time>
      </trkpt>
      <trkpt lat="46.53345" lon="4.54773">
        <ele>396.6</ele>
        <time>2022-09-20T12:08:48Z</time>
      </trkpt>
      <trkpt lat="46.53352" lon="4.54776">
        <ele>393.7</ele>
        <time>2022-09-20T12:08:54Z</time>
      </trkpt>
      <trkpt lat="46.5336" lon="4.5478">
        <ele>391.2</ele>
        <time>2022-09-20T12:08:59Z</time>
      </trkpt>
      <trkpt lat="46.53365" lon="4.54788">
        <ele>389.7</ele>
        <time>2022-09-20T12:09:06Z</time>
      </trkpt>
      <trkpt lat="46.5337" lon="4.54795">
        <ele>389.2</ele>
        <time>2022-09-20T12:09:11Z</time>
      </trkpt>
      <trkpt lat="46.53374" lon="4.54803">
        <ele>389.9</ele>
        <time>2022-09-20T12:09:17Z</time>
      </trkpt>
      <trkpt lat="46.5338" lon="4.54812">
        <ele>391.3</ele>
        <time>2022-09-20T12:09:23Z</time>
      </trkpt>
      <trkpt lat="46.53384" lon="4.5482">
        <ele>392.7</ele>
        <time>2022-09-20T12:09:29Z</time>
      </trkpt>
      <trkpt lat="46.53389" lon="4.5483">
        <ele>393.7</ele>
        <time>2022-09-20T12:09:35Z</time>
      </trkpt>
      <trkpt lat="46.53392" lon="4.5484">
        <ele>395</ele>
        <time>2022-09-20T12:09:41Z</time>
      </trkpt>
      <trkpt lat="46.53394" lon="4.54851">
        <ele>396</ele>
        <time>2022-09-20T12:09:47Z</time>
      </trkpt>
      <trkpt lat="46.53395" lon="4.54861">
        <ele>395.2</ele>
        <time>2022-09-20T12:09:52Z</time>
      </trkpt>
      <trkpt lat="46.53393" lon="4.5487">
        <ele>392.1</ele>
        <time>2022-09-20T12:09:57Z</time>
      </trkpt>
      <trkpt lat="46.53394" lon="4.5488">
        <ele>390.5</ele>
        <time>2022-09-20T12:10:03Z</time>
      </trkpt>
      <trkpt lat="46.53399" lon="4.54888">
        <ele>390.5</ele>
        <time>2022-09-20T12:10:08Z</time>
      </trkpt>
      <trkpt lat="46.53403" lon="4.54898">
        <ele>387.2</ele>
        <time>2022-09-20T12:10:14Z</time>
      </trkpt>
      <trkpt lat="46.53405" lon="4.54909">
        <ele>385</ele>
        <time>2022-09-20T12:10:19Z</time>
      </trkpt>
      <trkpt lat="46.53408" lon="4.54919">
        <ele>384.4</ele>
        <time>2022-09-20T12:10:26Z</time>
      </trkpt>
      <trkpt lat="46.53407" lon="4.54931">
        <ele>386</ele>
        <time>2022-09-20T12:10:31Z</time>
      </trkpt>
      <trkpt lat="46.53407" lon="4.54942">
        <ele>384.4</ele>
        <time>2022-09-20T12:10:37Z</time>
      </trkpt>
      <trkpt lat="46.53406" lon="4.54958">
        <ele>383.7</ele>
        <time>2022-09-20T12:10:43Z</time>
      </trkpt>
      <trkpt lat="46.53409" lon="4.54967">
        <ele>383.701</ele>
        <time>2022-09-20T12:10:49Z</time>
      </trkpt>
      <trkpt lat="46.53415" lon="4.54979">
        <ele>384.901</ele>
        <time>2022-09-20T12:10:55Z</time>
      </trkpt>
      <trkpt lat="46.53419" lon="4.54986">
        <ele>384.301</ele>
        <time>2022-09-20T12:11:00Z</time>
      </trkpt>
      <trkpt lat="46.53423" lon="4.54996">
        <ele>385.701</ele>
        <time>2022-09-20T12:11:05Z</time>
      </trkpt>
      <trkpt lat="46.53429" lon="4.54991">
        <ele>385.101</ele>
        <time>2022-09-20T12:11:13Z</time>
      </trkpt>
      <trkpt lat="46.53433" lon="4.55">
        <ele>385.601</ele>
        <time>2022-09-20T12:11:55Z</time>
      </trkpt>
      <trkpt lat="46.53435" lon="4.5501">
        <ele>385.201</ele>
        <time>2022-09-20T12:12:01Z</time>
      </trkpt>
      <trkpt lat="46.53437" lon="4.55019">
        <ele>383.101</ele>
        <time>2022-09-20T12:12:07Z</time>
      </trkpt>
      <trkpt lat="46.53443" lon="4.55026">
        <ele>382.901</ele>
        <time>2022-09-20T12:12:13Z</time>
      </trkpt>
      <trkpt lat="46.53446" lon="4.55035">
        <ele>384.101</ele>
        <time>2022-09-20T12:12:21Z</time>
      </trkpt>
      <trkpt lat="46.53452" lon="4.55041">
        <ele>385.601</ele>
        <time>2022-09-20T12:12:28Z</time>
      </trkpt>
      <trkpt lat="46.53455" lon="4.5505">
        <ele>385.801</ele>
        <time>2022-09-20T12:12:34Z</time>
      </trkpt>
      <trkpt lat="46.53458" lon="4.55058">
        <ele>386.401</ele>
        <time>2022-09-20T12:12:39Z</time>
      </trkpt>
      <trkpt lat="46.53464" lon="4.55065">
        <ele>387.901</ele>
        <time>2022-09-20T12:12:45Z</time>
      </trkpt>
      <trkpt lat="46.53471" lon="4.55071">
        <ele>388.801</ele>
        <time>2022-09-20T12:12:51Z</time>
      </trkpt>
      <trkpt lat="46.53476" lon="4.55079">
        <ele>388.101</ele>
        <time>2022-09-20T12:12:58Z</time>
      </trkpt>
      <trkpt lat="46.53479" lon="4.55089">
        <ele>389.501</ele>
        <time>2022-09-20T12:13:04Z</time>
      </trkpt>
      <trkpt lat="46.53482" lon="4.55098">
        <ele>389.501</ele>
        <time>2022-09-20T12:13:09Z</time>
      </trkpt>
      <trkpt lat="46.53484" lon="4.55108">
        <ele>389.601</ele>
        <time>2022-09-20T12:13:15Z</time>
      </trkpt>
      <trkpt lat="46.53488" lon="4.55117">
        <ele>389.301</ele>
        <time>2022-09-20T12:13:21Z</time>
      </trkpt>
      <trkpt lat="46.5349" lon="4.55127">
        <ele>387.401</ele>
        <time>2022-09-20T12:13:27Z</time>
      </trkpt>
      <trkpt lat="46.53494" lon="4.55136">
        <ele>385.501</ele>
        <time>2022-09-20T12:13:33Z</time>
      </trkpt>
      <trkpt lat="46.53496" lon="4.55146">
        <ele>385.701</ele>
        <time>2022-09-20T12:13:39Z</time>
      </trkpt>
      <trkpt lat="46.535" lon="4.55155">
        <ele>383.201</ele>
        <time>2022-09-20T12:13:45Z</time>
      </trkpt>
      <trkpt lat="46.53506" lon="4.55164">
        <ele>382.401</ele>
        <time>2022-09-20T12:13:51Z</time>
      </trkpt>
      <trkpt lat="46.5351" lon="4.55171">
        <ele>379.801</ele>
        <time>2022-09-20T12:13:56Z</time>
      </trkpt>
      <trkpt lat="46.53514" lon="4.55179">
        <ele>377.301</ele>
        <time>2022-09-20T12:14:01Z</time>
      </trkpt>
      <trkpt lat="46.53518" lon="4.55187">
        <ele>375.001</ele>
        <time>2022-09-20T12:14:08Z</time>
      </trkpt>
      <trkpt lat="46.53521" lon="4.55197">
        <ele>374.601</ele>
        <time>2022-09-20T12:14:13Z</time>
      </trkpt>
      <trkpt lat="46.53523" lon="4.55209">
        <ele>376.601</ele>
        <time>2022-09-20T12:14:19Z</time>
      </trkpt>
      <trkpt lat="46.53525" lon="4.5522">
        <ele>379.501</ele>
        <time>2022-09-20T12:14:24Z</time>
      </trkpt>
      <trkpt lat="46.53527" lon="4.5523">
        <ele>381.601</ele>
        <time>2022-09-20T12:14:30Z</time>
      </trkpt>
      <trkpt lat="46.53529" lon="4.5524">
        <ele>382.401</ele>
        <time>2022-09-20T12:14:36Z</time>
      </trkpt>
      <trkpt lat="46.53532" lon="4.5525">
        <ele>384.801</ele>
        <time>2022-09-20T12:14:43Z</time>
      </trkpt>
      <trkpt lat="46.53536" lon="4.55258">
        <ele>384.501</ele>
        <time>2022-09-20T12:14:48Z</time>
      </trkpt>
      <trkpt lat="46.5354" lon="4.55265">
        <ele>383.001</ele>
        <time>2022-09-20T12:14:54Z</time>
      </trkpt>
      <trkpt lat="46.53546" lon="4.55271">
        <ele>384.401</ele>
        <time>2022-09-20T12:15:00Z</time>
      </trkpt>
      <trkpt lat="46.53554" lon="4.55276">
        <ele>386.701</ele>
        <time>2022-09-20T12:15:05Z</time>
      </trkpt>
      <trkpt lat="46.53562" lon="4.5528">
        <ele>389.701</ele>
        <time>2022-09-20T12:15:11Z</time>
      </trkpt>
      <trkpt lat="46.53569" lon="4.55282">
        <ele>392.101</ele>
        <time>2022-09-20T12:15:16Z</time>
      </trkpt>
      <trkpt lat="46.53576" lon="4.55282">
        <ele>394.401</ele>
        <time>2022-09-20T12:15:22Z</time>
      </trkpt>
      <trkpt lat="46.53582" lon="4.55286">
        <ele>394.201</ele>
        <time>2022-09-20T12:15:28Z</time>
      </trkpt>
      <trkpt lat="46.53589" lon="4.55287">
        <ele>390.101</ele>
        <time>2022-09-20T12:15:36Z</time>
      </trkpt>
      <trkpt lat="46.53597" lon="4.55285">
        <ele>388.701</ele>
        <time>2022-09-20T12:15:41Z</time>
      </trkpt>
      <trkpt lat="46.53603" lon="4.5528">
        <ele>387.601</ele>
        <time>2022-09-20T12:15:47Z</time>
      </trkpt>
      <trkpt lat="46.53609" lon="4.55278">
        <ele>386.901</ele>
        <time>2022-09-20T12:15:52Z</time>
      </trkpt>
      <trkpt lat="46.53617" lon="4.55278">
        <ele>386.601</ele>
        <time>2022-09-20T12:15:58Z</time>
      </trkpt>
      <trkpt lat="46.53624" lon="4.55276">
        <ele>385.401</ele>
        <time>2022-09-20T12:16:03Z</time>
      </trkpt>
      <trkpt lat="46.53631" lon="4.55274">
        <ele>385.901</ele>
        <time>2022-09-20T12:16:09Z</time>
      </trkpt>
      <trkpt lat="46.5364" lon="4.5527">
        <ele>387.801</ele>
        <time>2022-09-20T12:16:15Z</time>
      </trkpt>
      <trkpt lat="46.53646" lon="4.55263">
        <ele>386.501</ele>
        <time>2022-09-20T12:16:22Z</time>
      </trkpt>
      <trkpt lat="46.53649" lon="4.55253">
        <ele>383.701</ele>
        <time>2022-09-20T12:16:29Z</time>
      </trkpt>
      <trkpt lat="46.53653" lon="4.55242">
        <ele>382.701</ele>
        <time>2022-09-20T12:16:35Z</time>
      </trkpt>
      <trkpt lat="46.53659" lon="4.55236">
        <ele>383.401</ele>
        <time>2022-09-20T12:16:40Z</time>
      </trkpt>
      <trkpt lat="46.53664" lon="4.5523">
        <ele>384.601</ele>
        <time>2022-09-20T12:16:45Z</time>
      </trkpt>
      <trkpt lat="46.53671" lon="4.55225">
        <ele>384.201</ele>
        <time>2022-09-20T12:16:51Z</time>
      </trkpt>
      <trkpt lat="46.53678" lon="4.55224">
        <ele>384.801</ele>
        <time>2022-09-20T12:16:58Z</time>
      </trkpt>
      <trkpt lat="46.53686" lon="4.55221">
        <ele>383.701</ele>
        <time>2022-09-20T12:17:03Z</time>
      </trkpt>
      <trkpt lat="46.53694" lon="4.55218">
        <ele>383.201</ele>
        <time>2022-09-20T12:17:11Z</time>
      </trkpt>
      <trkpt lat="46.53701" lon="4.55216">
        <ele>382.101</ele>
        <time>2022-09-20T12:17:17Z</time>
      </trkpt>
      <trkpt lat="46.53711" lon="4.55212">
        <ele>381.602</ele>
        <time>2022-09-20T12:17:23Z</time>
      </trkpt>
      <trkpt lat="46.53718" lon="4.55208">
        <ele>383.502</ele>
        <time>2022-09-20T12:17:30Z</time>
      </trkpt>
      <trkpt lat="46.53724" lon="4.55204">
        <ele>383.902</ele>
        <time>2022-09-20T12:17:35Z</time>
      </trkpt>
      <trkpt lat="46.5373" lon="4.55201">
        <ele>381.802</ele>
        <time>2022-09-20T12:17:41Z</time>
      </trkpt>
      <trkpt lat="46.53736" lon="4.55195">
        <ele>379.902</ele>
        <time>2022-09-20T12:17:47Z</time>
      </trkpt>
      <trkpt lat="46.53742" lon="4.55189">
        <ele>381.702</ele>
        <time>2022-09-20T12:17:54Z</time>
      </trkpt>
      <trkpt lat="46.53748" lon="4.55185">
        <ele>382.202</ele>
        <time>2022-09-20T12:17:59Z</time>
      </trkpt>
      <trkpt lat="46.53753" lon="4.55178">
        <ele>380.302</ele>
        <time>2022-09-20T12:18:04Z</time>
      </trkpt>
      <trkpt lat="46.53759" lon="4.55173">
        <ele>379.802</ele>
        <time>2022-09-20T12:18:09Z</time>
      </trkpt>
      <trkpt lat="46.53767" lon="4.55171">
        <ele>380.102</ele>
        <time>2022-09-20T12:18:16Z</time>
      </trkpt>
      <trkpt lat="46.53774" lon="4.55172">
        <ele>378.702</ele>
        <time>2022-09-20T12:18:25Z</time>
      </trkpt>
      <trkpt lat="46.53781" lon="4.55172">
        <ele>379.402</ele>
        <time>2022-09-20T12:18:30Z</time>
      </trkpt>
      <trkpt lat="46.53789" lon="4.55171">
        <ele>380.702</ele>
        <time>2022-09-20T12:18:35Z</time>
      </trkpt>
      <trkpt lat="46.53797" lon="4.55168">
        <ele>381.302</ele>
        <time>2022-09-20T12:18:40Z</time>
      </trkpt>
      <trkpt lat="46.53805" lon="4.55168">
        <ele>381.902</ele>
        <time>2022-09-20T12:18:45Z</time>
      </trkpt>
      <trkpt lat="46.53813" lon="4.55166">
        <ele>381.602</ele>
        <time>2022-09-20T12:18:50Z</time>
      </trkpt>
      <trkpt lat="46.5382" lon="4.55165">
        <ele>381.102</ele>
        <time>2022-09-20T12:18:56Z</time>
      </trkpt>
      <trkpt lat="46.53828" lon="4.55162">
        <ele>379.102</ele>
        <time>2022-09-20T12:19:01Z</time>
      </trkpt>
      <trkpt lat="46.53837" lon="4.55161">
        <ele>378.202</ele>
        <time>2022-09-20T12:19:07Z</time>
      </trkpt>
      <trkpt lat="46.53844" lon="4.55159">
        <ele>376.402</ele>
        <time>2022-09-20T12:19:12Z</time>
      </trkpt>
      <trkpt lat="46.53851" lon="4.55156">
        <ele>375.802</ele>
        <time>2022-09-20T12:19:20Z</time>
      </trkpt>
      <trkpt lat="46.53857" lon="4.55154">
        <ele>373.802</ele>
        <time>2022-09-20T12:19:27Z</time>
      </trkpt>
      <trkpt lat="46.53865" lon="4.55157">
        <ele>372.702</ele>
        <time>2022-09-20T12:19:32Z</time>
      </trkpt>
      <trkpt lat="46.53872" lon="4.55157">
        <ele>373.502</ele>
        <time>2022-09-20T12:19:37Z</time>
      </trkpt>
      <trkpt lat="46.5388" lon="4.55159">
        <ele>373.102</ele>
        <time>2022-09-20T12:19:43Z</time>
      </trkpt>
      <trkpt lat="46.53887" lon="4.55162">
        <ele>373.002</ele>
        <time>2022-09-20T12:19:48Z</time>
      </trkpt>
      <trkpt lat="46.53894" lon="4.55163">
        <ele>374.202</ele>
        <time>2022-09-20T12:19:54Z</time>
      </trkpt>
      <trkpt lat="46.53901" lon="4.55162">
        <ele>376.302</ele>
        <time>2022-09-20T12:19:59Z</time>
      </trkpt>
      <trkpt lat="46.5391" lon="4.5516">
        <ele>375.702</ele>
        <time>2022-09-20T12:20:04Z</time>
      </trkpt>
      <trkpt lat="46.53916" lon="4.55155">
        <ele>373.702</ele>
        <time>2022-09-20T12:20:09Z</time>
      </trkpt>
      <trkpt lat="46.53923" lon="4.55153">
        <ele>372.302</ele>
        <time>2022-09-20T12:20:16Z</time>
      </trkpt>
      <trkpt lat="46.5393" lon="4.5515">
        <ele>370.902</ele>
        <time>2022-09-20T12:20:21Z</time>
      </trkpt>
      <trkpt lat="46.53936" lon="4.55146">
        <ele>371.702</ele>
        <time>2022-09-20T12:20:27Z</time>
      </trkpt>
      <trkpt lat="46.53944" lon="4.55144">
        <ele>372.802</ele>
        <time>2022-09-20T12:20:36Z</time>
      </trkpt>
      <trkpt lat="46.53951" lon="4.55142">
        <ele>372.402</ele>
        <time>2022-09-20T12:20:41Z</time>
      </trkpt>
      <trkpt lat="46.53958" lon="4.55141">
        <ele>374.602</ele>
        <time>2022-09-20T12:20:47Z</time>
      </trkpt>
      <trkpt lat="46.53965" lon="4.55142">
        <ele>373.202</ele>
        <time>2022-09-20T12:20:54Z</time>
      </trkpt>
      <trkpt lat="46.53973" lon="4.55141">
        <ele>370.002</ele>
        <time>2022-09-20T12:21:47Z</time>
      </trkpt>
      <trkpt lat="46.53979" lon="4.55144">
        <ele>365.702</ele>
        <time>2022-09-20T12:22:29Z</time>
      </trkpt>
      <trkpt lat="46.53986" lon="4.55145">
        <ele>367.902</ele>
        <time>2022-09-20T12:22:35Z</time>
      </trkpt>
      <trkpt lat="46.53993" lon="4.55149">
        <ele>369.702</ele>
        <time>2022-09-20T12:22:41Z</time>
      </trkpt>
      <trkpt lat="46.54" lon="4.55154">
        <ele>372.002</ele>
        <time>2022-09-20T12:22:48Z</time>
      </trkpt>
      <trkpt lat="46.54006" lon="4.55157">
        <ele>371.302</ele>
        <time>2022-09-20T12:22:53Z</time>
      </trkpt>
      <trkpt lat="46.54013" lon="4.55161">
        <ele>371.102</ele>
        <time>2022-09-20T12:22:59Z</time>
      </trkpt>
      <trkpt lat="46.54019" lon="4.55164">
        <ele>371.202</ele>
        <time>2022-09-20T12:23:04Z</time>
      </trkpt>
      <trkpt lat="46.54026" lon="4.55169">
        <ele>372.202</ele>
        <time>2022-09-20T12:23:09Z</time>
      </trkpt>
      <trkpt lat="46.54032" lon="4.55173">
        <ele>372.102</ele>
        <time>2022-09-20T12:23:16Z</time>
      </trkpt>
      <trkpt lat="46.54038" lon="4.55177">
        <ele>372.302</ele>
        <time>2022-09-20T12:23:21Z</time>
      </trkpt>
      <trkpt lat="46.54045" lon="4.55183">
        <ele>371.502</ele>
        <time>2022-09-20T12:23:27Z</time>
      </trkpt>
      <trkpt lat="46.54052" lon="4.55188">
        <ele>369.902</ele>
        <time>2022-09-20T12:23:33Z</time>
      </trkpt>
      <trkpt lat="46.54059" lon="4.55191">
        <ele>370.602</ele>
        <time>2022-09-20T12:23:39Z</time>
      </trkpt>
      <trkpt lat="46.54066" lon="4.55195">
        <ele>369.802</ele>
        <time>2022-09-20T12:23:44Z</time>
      </trkpt>
      <trkpt lat="46.54074" lon="4.55198">
        <ele>370.102</ele>
        <time>2022-09-20T12:23:49Z</time>
      </trkpt>
      <trkpt lat="46.54082" lon="4.552">
        <ele>369.903</ele>
        <time>2022-09-20T12:23:56Z</time>
      </trkpt>
      <trkpt lat="46.54089" lon="4.55202">
        <ele>370.703</ele>
        <time>2022-09-20T12:24:01Z</time>
      </trkpt>
      <trkpt lat="46.54096" lon="4.55205">
        <ele>371.103</ele>
        <time>2022-09-20T12:24:07Z</time>
      </trkpt>
      <trkpt lat="46.54103" lon="4.55208">
        <ele>370.903</ele>
        <time>2022-09-20T12:24:13Z</time>
      </trkpt>
      <trkpt lat="46.54111" lon="4.55211">
        <ele>369.103</ele>
        <time>2022-09-20T12:24:19Z</time>
      </trkpt>
      <trkpt lat="46.54117" lon="4.55214">
        <ele>369.403</ele>
        <time>2022-09-20T12:24:25Z</time>
      </trkpt>
      <trkpt lat="46.54125" lon="4.55217">
        <ele>369.703</ele>
        <time>2022-09-20T12:24:31Z</time>
      </trkpt>
      <trkpt lat="46.54131" lon="4.55221">
        <ele>369.603</ele>
        <time>2022-09-20T12:24:37Z</time>
      </trkpt>
      <trkpt lat="46.5414" lon="4.55224">
        <ele>368.303</ele>
        <time>2022-09-20T12:24:43Z</time>
      </trkpt>
      <trkpt lat="46.54148" lon="4.55224">
        <ele>369.103</ele>
        <time>2022-09-20T12:24:48Z</time>
      </trkpt>
      <trkpt lat="46.54154" lon="4.55227">
        <ele>368.903</ele>
        <time>2022-09-20T12:24:54Z</time>
      </trkpt>
      <trkpt lat="46.54161" lon="4.55229">
        <ele>368.603</ele>
        <time>2022-09-20T12:25:00Z</time>
      </trkpt>
      <trkpt lat="46.54168" lon="4.55231">
        <ele>368.603</ele>
        <time>2022-09-20T12:25:05Z</time>
      </trkpt>
      <trkpt lat="46.54175" lon="4.55234">
        <ele>368.003</ele>
        <time>2022-09-20T12:25:11Z</time>
      </trkpt>
      <trkpt lat="46.54182" lon="4.55237">
        <ele>368.603</ele>
        <time>2022-09-20T12:25:17Z</time>
      </trkpt>
      <trkpt lat="46.5419" lon="4.5524">
        <ele>369.303</ele>
        <time>2022-09-20T12:25:23Z</time>
      </trkpt>
      <trkpt lat="46.54198" lon="4.55244">
        <ele>370.503</ele>
        <time>2022-09-20T12:25:29Z</time>
      </trkpt>
      <trkpt lat="46.54206" lon="4.55244">
        <ele>371.203</ele>
        <time>2022-09-20T12:25:35Z</time>
      </trkpt>
      <trkpt lat="46.54213" lon="4.55247">
        <ele>370.703</ele>
        <time>2022-09-20T12:25:41Z</time>
      </trkpt>
      <trkpt lat="46.54221" lon="4.55248">
        <ele>370.303</ele>
        <time>2022-09-20T12:25:47Z</time>
      </trkpt>
      <trkpt lat="46.54228" lon="4.55251">
        <ele>370.303</ele>
        <time>2022-09-20T12:25:52Z</time>
      </trkpt>
      <trkpt lat="46.54235" lon="4.55253">
        <ele>371.503</ele>
        <time>2022-09-20T12:25:57Z</time>
      </trkpt>
      <trkpt lat="46.54242" lon="4.55253">
        <ele>369.403</ele>
        <time>2022-09-20T12:26:03Z</time>
      </trkpt>
      <trkpt lat="46.54249" lon="4.55257">
        <ele>368.303</ele>
        <time>2022-09-20T12:26:08Z</time>
      </trkpt>
      <trkpt lat="46.54256" lon="4.55256">
        <ele>368.003</ele>
        <time>2022-09-20T12:26:13Z</time>
      </trkpt>
      <trkpt lat="46.54263" lon="4.55258">
        <ele>368.303</ele>
        <time>2022-09-20T12:26:20Z</time>
      </trkpt>
      <trkpt lat="46.5427" lon="4.55261">
        <ele>366.603</ele>
        <time>2022-09-20T12:26:25Z</time>
      </trkpt>
      <trkpt lat="46.54279" lon="4.55263">
        <ele>368.003</ele>
        <time>2022-09-20T12:26:31Z</time>
      </trkpt>
      <trkpt lat="46.54285" lon="4.55268">
        <ele>368.603</ele>
        <time>2022-09-20T12:26:36Z</time>
      </trkpt>
      <trkpt lat="46.54292" lon="4.55271">
        <ele>368.103</ele>
        <time>2022-09-20T12:26:41Z</time>
      </trkpt>
      <trkpt lat="46.54299" lon="4.55274">
        <ele>368.303</ele>
        <time>2022-09-20T12:26:47Z</time>
      </trkpt>
      <trkpt lat="46.54306" lon="4.55277">
        <ele>366.303</ele>
        <time>2022-09-20T12:26:54Z</time>
      </trkpt>
      <trkpt lat="46.54314" lon="4.55279">
        <ele>366.103</ele>
        <time>2022-09-20T12:26:59Z</time>
      </trkpt>
      <trkpt lat="46.54321" lon="4.55281">
        <ele>367.003</ele>
        <time>2022-09-20T12:27:04Z</time>
      </trkpt>
      <trkpt lat="46.54329" lon="4.55283">
        <ele>368.203</ele>
        <time>2022-09-20T12:27:09Z</time>
      </trkpt>
      <trkpt lat="46.54336" lon="4.55288">
        <ele>369.003</ele>
        <time>2022-09-20T12:27:15Z</time>
      </trkpt>
      <trkpt lat="46.54343" lon="4.55292">
        <ele>368.703</ele>
        <time>2022-09-20T12:27:20Z</time>
      </trkpt>
      <trkpt lat="46.5435" lon="4.55297">
        <ele>369.303</ele>
        <time>2022-09-20T12:27:25Z</time>
      </trkpt>
      <trkpt lat="46.54356" lon="4.553">
        <ele>368.803</ele>
        <time>2022-09-20T12:27:31Z</time>
      </trkpt>
      <trkpt lat="46.54363" lon="4.55303">
        <ele>368.003</ele>
        <time>2022-09-20T12:27:36Z</time>
      </trkpt>
      <trkpt lat="46.54369" lon="4.55304">
        <ele>367.203</ele>
        <time>2022-09-20T12:27:42Z</time>
      </trkpt>
      <trkpt lat="46.54376" lon="4.55307">
        <ele>367.303</ele>
        <time>2022-09-20T12:27:48Z</time>
      </trkpt>
      <trkpt lat="46.54384" lon="4.5531">
        <ele>367.703</ele>
        <time>2022-09-20T12:27:55Z</time>
      </trkpt>
      <trkpt lat="46.54391" lon="4.5531">
        <ele>367.603</ele>
        <time>2022-09-20T12:28:00Z</time>
      </trkpt>
      <trkpt lat="46.54398" lon="4.55311">
        <ele>367.103</ele>
        <time>2022-09-20T12:28:06Z</time>
      </trkpt>
      <trkpt lat="46.54406" lon="4.55314">
        <ele>367.003</ele>
        <time>2022-09-20T12:28:11Z</time>
      </trkpt>
      <trkpt lat="46.54414" lon="4.55315">
        <ele>368.504</ele>
        <time>2022-09-20T12:28:16Z</time>
      </trkpt>
      <trkpt lat="46.54421" lon="4.55316">
        <ele>369.604</ele>
        <time>2022-09-20T12:28:22Z</time>
      </trkpt>
      <trkpt lat="46.54429" lon="4.55317">
        <ele>368.304</ele>
        <time>2022-09-20T12:28:29Z</time>
      </trkpt>
      <trkpt lat="46.5444" lon="4.55317">
        <ele>367.804</ele>
        <time>2022-09-20T12:28:35Z</time>
      </trkpt>
      <trkpt lat="46.54446" lon="4.55317">
        <ele>366.504</ele>
        <time>2022-09-20T12:28:40Z</time>
      </trkpt>
      <trkpt lat="46.54453" lon="4.55315">
        <ele>368.804</ele>
        <time>2022-09-20T12:28:47Z</time>
      </trkpt>
      <trkpt lat="46.5446" lon="4.55314">
        <ele>369.104</ele>
        <time>2022-09-20T12:28:54Z</time>
      </trkpt>
      <trkpt lat="46.54466" lon="4.55312">
        <ele>369.904</ele>
        <time>2022-09-20T12:29:53Z</time>
      </trkpt>
      <trkpt lat="46.54473" lon="4.55315">
        <ele>371.304</ele>
        <time>2022-09-20T12:29:59Z</time>
      </trkpt>
      <trkpt lat="46.54481" lon="4.55317">
        <ele>372.504</ele>
        <time>2022-09-20T12:30:07Z</time>
      </trkpt>
      <trkpt lat="46.54488" lon="4.55318">
        <ele>374.004</ele>
        <time>2022-09-20T12:30:13Z</time>
      </trkpt>
      <trkpt lat="46.54496" lon="4.55319">
        <ele>373.604</ele>
        <time>2022-09-20T12:30:21Z</time>
      </trkpt>
      <trkpt lat="46.54503" lon="4.55318">
        <ele>372.104</ele>
        <time>2022-09-20T12:30:27Z</time>
      </trkpt>
      <trkpt lat="46.54511" lon="4.55317">
        <ele>370.804</ele>
        <time>2022-09-20T12:30:32Z</time>
      </trkpt>
      <trkpt lat="46.54517" lon="4.55315">
        <ele>370.404</ele>
        <time>2022-09-20T12:30:38Z</time>
      </trkpt>
      <trkpt lat="46.54524" lon="4.55312">
        <ele>370.304</ele>
        <time>2022-09-20T12:30:43Z</time>
      </trkpt>
      <trkpt lat="46.54531" lon="4.5531">
        <ele>368.404</ele>
        <time>2022-09-20T12:30:50Z</time>
      </trkpt>
      <trkpt lat="46.5454" lon="4.55312">
        <ele>368.004</ele>
        <time>2022-09-20T12:30:55Z</time>
      </trkpt>
      <trkpt lat="46.54548" lon="4.55313">
        <ele>367.204</ele>
        <time>2022-09-20T12:31:01Z</time>
      </trkpt>
      <trkpt lat="46.54555" lon="4.55314">
        <ele>364.504</ele>
        <time>2022-09-20T12:31:08Z</time>
      </trkpt>
      <trkpt lat="46.54564" lon="4.55314">
        <ele>365.404</ele>
        <time>2022-09-20T12:31:13Z</time>
      </trkpt>
      <trkpt lat="46.54572" lon="4.55315">
        <ele>366.004</ele>
        <time>2022-09-20T12:31:19Z</time>
      </trkpt>
      <trkpt lat="46.54579" lon="4.55316">
        <ele>362.704</ele>
        <time>2022-09-20T12:31:25Z</time>
      </trkpt>
      <trkpt lat="46.54585" lon="4.55319">
        <ele>360.604</ele>
        <time>2022-09-20T12:31:32Z</time>
      </trkpt>
      <trkpt lat="46.5459" lon="4.55327">
        <ele>360.904</ele>
        <time>2022-09-20T12:32:55Z</time>
      </trkpt>
      <trkpt lat="46.54591" lon="4.55337">
        <ele>360.504</ele>
        <time>2022-09-20T12:33:02Z</time>
      </trkpt>
      <trkpt lat="46.54593" lon="4.55347">
        <ele>360.304</ele>
        <time>2022-09-20T12:33:08Z</time>
      </trkpt>
      <trkpt lat="46.546" lon="4.55348">
        <ele>359.604</ele>
        <time>2022-09-20T12:33:15Z</time>
      </trkpt>
      <trkpt lat="46.54605" lon="4.5534">
        <ele>359.004</ele>
        <time>2022-09-20T12:34:22Z</time>
      </trkpt>
      <trkpt lat="46.5461" lon="4.55336">
        <ele>354.104</ele>
        <time>2022-09-20T12:35:07Z</time>
      </trkpt>
      <trkpt lat="46.54616" lon="4.5533">
        <ele>352.404</ele>
        <time>2022-09-20T12:35:14Z</time>
      </trkpt>
      <trkpt lat="46.54621" lon="4.55323">
        <ele>352.304</ele>
        <time>2022-09-20T12:35:19Z</time>
      </trkpt>
      <trkpt lat="46.54626" lon="4.55316">
        <ele>352.904</ele>
        <time>2022-09-20T12:35:26Z</time>
      </trkpt>
      <trkpt lat="46.5463" lon="4.55307">
        <ele>351.204</ele>
        <time>2022-09-20T12:35:34Z</time>
      </trkpt>
      <trkpt lat="46.54635" lon="4.55299">
        <ele>351.804</ele>
        <time>2022-09-20T12:35:41Z</time>
      </trkpt>
      <trkpt lat="46.5464" lon="4.55291">
        <ele>351.204</ele>
        <time>2022-09-20T12:35:48Z</time>
      </trkpt>
      <trkpt lat="46.54644" lon="4.55283">
        <ele>350.104</ele>
        <time>2022-09-20T12:35:55Z</time>
      </trkpt>
      <trkpt lat="46.54649" lon="4.55275">
        <ele>349.204</ele>
        <time>2022-09-20T12:36:01Z</time>
      </trkpt>
      <trkpt lat="46.54653" lon="4.55267">
        <ele>349.704</ele>
        <time>2022-09-20T12:36:08Z</time>
      </trkpt>
      <trkpt lat="46.54657" lon="4.55259">
        <ele>349.804</ele>
        <time>2022-09-20T12:36:14Z</time>
      </trkpt>
      <trkpt lat="46.54662" lon="4.55252">
        <ele>350.204</ele>
        <time>2022-09-20T12:36:19Z</time>
      </trkpt>
      <trkpt lat="46.54668" lon="4.55245">
        <ele>349.804</ele>
        <time>2022-09-20T12:36:27Z</time>
      </trkpt>
      <trkpt lat="46.54674" lon="4.55239">
        <ele>349.404</ele>
        <time>2022-09-20T12:36:34Z</time>
      </trkpt>
      <trkpt lat="46.54679" lon="4.55234">
        <ele>349.604</ele>
        <time>2022-09-20T12:36:40Z</time>
      </trkpt>
      <trkpt lat="46.54686" lon="4.55232">
        <ele>349.804</ele>
        <time>2022-09-20T12:36:46Z</time>
      </trkpt>
      <trkpt lat="46.54693" lon="4.55231">
        <ele>348.004</ele>
        <time>2022-09-20T12:36:52Z</time>
      </trkpt>
      <trkpt lat="46.547" lon="4.55231">
        <ele>345.904</ele>
        <time>2022-09-20T12:36:59Z</time>
      </trkpt>
      <trkpt lat="46.54707" lon="4.5523">
        <ele>345.304</ele>
        <time>2022-09-20T12:37:04Z</time>
      </trkpt>
      <trkpt lat="46.54714" lon="4.5523">
        <ele>346.004</ele>
        <time>2022-09-20T12:37:09Z</time>
      </trkpt>
      <trkpt lat="46.54721" lon="4.55229">
        <ele>345.204</ele>
        <time>2022-09-20T12:37:15Z</time>
      </trkpt>
      <trkpt lat="46.54728" lon="4.55228">
        <ele>345.504</ele>
        <time>2022-09-20T12:37:22Z</time>
      </trkpt>
      <trkpt lat="46.54734" lon="4.55225">
        <ele>347.204</ele>
        <time>2022-09-20T12:37:27Z</time>
      </trkpt>
      <trkpt lat="46.54742" lon="4.55223">
        <ele>347.804</ele>
        <time>2022-09-20T12:37:32Z</time>
      </trkpt>
      <trkpt lat="46.54749" lon="4.55219">
        <ele>348.304</ele>
        <time>2022-09-20T12:37:37Z</time>
      </trkpt>
      <trkpt lat="46.54756" lon="4.55214">
        <ele>348.904</ele>
        <time>2022-09-20T12:37:43Z</time>
      </trkpt>
      <trkpt lat="46.54763" lon="4.55211">
        <ele>348.804</ele>
        <time>2022-09-20T12:37:49Z</time>
      </trkpt>
      <trkpt lat="46.5477" lon="4.55207">
        <ele>347.604</ele>
        <time>2022-09-20T12:37:55Z</time>
      </trkpt>
      <trkpt lat="46.54778" lon="4.55205">
        <ele>348.604</ele>
        <time>2022-09-20T12:38:02Z</time>
      </trkpt>
      <trkpt lat="46.54785" lon="4.55203">
        <ele>347.504</ele>
        <time>2022-09-20T12:38:08Z</time>
      </trkpt>
      <trkpt lat="46.54792" lon="4.55201">
        <ele>348.104</ele>
        <time>2022-09-20T12:38:13Z</time>
      </trkpt>
      <trkpt lat="46.548" lon="4.55199">
        <ele>348.504</ele>
        <time>2022-09-20T12:38:19Z</time>
      </trkpt>
      <trkpt lat="46.54807" lon="4.55197">
        <ele>347.704</ele>
        <time>2022-09-20T12:38:24Z</time>
      </trkpt>
      <trkpt lat="46.54814" lon="4.55197">
        <ele>347.305</ele>
        <time>2022-09-20T12:38:30Z</time>
      </trkpt>
      <trkpt lat="46.54822" lon="4.55194">
        <ele>348.505</ele>
        <time>2022-09-20T12:38:35Z</time>
      </trkpt>
      <trkpt lat="46.54828" lon="4.55192">
        <ele>349.405</ele>
        <time>2022-09-20T12:38:40Z</time>
      </trkpt>
      <trkpt lat="46.54835" lon="4.55192">
        <ele>350.005</ele>
        <time>2022-09-20T12:38:45Z</time>
      </trkpt>
      <trkpt lat="46.54839" lon="4.55182">
        <ele>348.905</ele>
        <time>2022-09-20T12:40:12Z</time>
      </trkpt>
      <trkpt lat="46.54837" lon="4.55171">
        <ele>348.305</ele>
        <time>2022-09-20T12:40:18Z</time>
      </trkpt>
      <trkpt lat="46.54835" lon="4.55162">
        <ele>348.205</ele>
        <time>2022-09-20T12:40:23Z</time>
      </trkpt>
      <trkpt lat="46.54835" lon="4.55151">
        <ele>349.205</ele>
        <time>2022-09-20T12:40:29Z</time>
      </trkpt>
      <trkpt lat="46.54835" lon="4.55142">
        <ele>350.805</ele>
        <time>2022-09-20T12:40:35Z</time>
      </trkpt>
      <trkpt lat="46.54834" lon="4.55132">
        <ele>353.005</ele>
        <time>2022-09-20T12:40:42Z</time>
      </trkpt>
      <trkpt lat="46.54832" lon="4.55122">
        <ele>353.105</ele>
        <time>2022-09-20T12:40:49Z</time>
      </trkpt>
      <trkpt lat="46.5483" lon="4.55111">
        <ele>354.404</ele>
        <time>2022-09-20T12:40:55Z</time>
      </trkpt>
      <trkpt lat="46.54828" lon="4.55102">
        <ele>355.404</ele>
        <time>2022-09-20T12:41:01Z</time>
      </trkpt>
      <trkpt lat="46.54824" lon="4.55093">
        <ele>356.204</ele>
        <time>2022-09-20T12:41:08Z</time>
      </trkpt>
      <trkpt lat="46.54822" lon="4.55084">
        <ele>354.704</ele>
        <time>2022-09-20T12:41:13Z</time>
      </trkpt>
      <trkpt lat="46.5482" lon="4.55071">
        <ele>354.404</ele>
        <time>2022-09-20T12:41:19Z</time>
      </trkpt>
      <trkpt lat="46.54816" lon="4.55063">
        <ele>353.804</ele>
        <time>2022-09-20T12:41:24Z</time>
      </trkpt>
      <trkpt lat="46.54813" lon="4.55053">
        <ele>351.804</ele>
        <time>2022-09-20T12:41:30Z</time>
      </trkpt>
      <trkpt lat="46.54811" lon="4.55042">
        <ele>349.904</ele>
        <time>2022-09-20T12:41:37Z</time>
      </trkpt>
      <trkpt lat="46.54814" lon="4.5503">
        <ele>348.804</ele>
        <time>2022-09-20T12:41:43Z</time>
      </trkpt>
      <trkpt lat="46.54817" lon="4.5502">
        <ele>348.004</ele>
        <time>2022-09-20T12:41:49Z</time>
      </trkpt>
      <trkpt lat="46.54821" lon="4.5501">
        <ele>348.004</ele>
        <time>2022-09-20T12:41:55Z</time>
      </trkpt>
      <trkpt lat="46.54822" lon="4.55">
        <ele>346.204</ele>
        <time>2022-09-20T12:42:01Z</time>
      </trkpt>
      <trkpt lat="46.54826" lon="4.54991">
        <ele>344.404</ele>
        <time>2022-09-20T12:42:07Z</time>
      </trkpt>
      <trkpt lat="46.5483" lon="4.54983">
        <ele>344.204</ele>
        <time>2022-09-20T12:42:12Z</time>
      </trkpt>
      <trkpt lat="46.54835" lon="4.54975">
        <ele>341.004</ele>
        <time>2022-09-20T12:42:19Z</time>
      </trkpt>
      <trkpt lat="46.54841" lon="4.54968">
        <ele>338.104</ele>
        <time>2022-09-20T12:42:26Z</time>
      </trkpt>
      <trkpt lat="46.54848" lon="4.54964">
        <ele>336.304</ele>
        <time>2022-09-20T12:42:31Z</time>
      </trkpt>
      <trkpt lat="46.54855" lon="4.54962">
        <ele>337.104</ele>
        <time>2022-09-20T12:42:39Z</time>
      </trkpt>
      <trkpt lat="46.54863" lon="4.54959">
        <ele>338.904</ele>
        <time>2022-09-20T12:42:46Z</time>
      </trkpt>
      <trkpt lat="46.5487" lon="4.54958">
        <ele>339.804</ele>
        <time>2022-09-20T12:42:52Z</time>
      </trkpt>
      <trkpt lat="46.54877" lon="4.54957">
        <ele>339.905</ele>
        <time>2022-09-20T12:42:59Z</time>
      </trkpt>
      <trkpt lat="46.54884" lon="4.54957">
        <ele>341.005</ele>
        <time>2022-09-20T12:43:05Z</time>
      </trkpt>
      <trkpt lat="46.54891" lon="4.54956">
        <ele>342.605</ele>
        <time>2022-09-20T12:43:11Z</time>
      </trkpt>
      <trkpt lat="46.54898" lon="4.54952">
        <ele>343.405</ele>
        <time>2022-09-20T12:43:18Z</time>
      </trkpt>
      <trkpt lat="46.54905" lon="4.54948">
        <ele>343.805</ele>
        <time>2022-09-20T12:43:24Z</time>
      </trkpt>
      <trkpt lat="46.54911" lon="4.5494">
        <ele>342.605</ele>
        <time>2022-09-20T12:43:29Z</time>
      </trkpt>
      <trkpt lat="46.54917" lon="4.5493">
        <ele>340.905</ele>
        <time>2022-09-20T12:43:35Z</time>
      </trkpt>
      <trkpt lat="46.54917" lon="4.54918">
        <ele>336.105</ele>
        <time>2022-09-20T12:43:40Z</time>
      </trkpt>
      <trkpt lat="46.5492" lon="4.54908">
        <ele>333.705</ele>
        <time>2022-09-20T12:43:46Z</time>
      </trkpt>
      <trkpt lat="46.54923" lon="4.54899">
        <ele>332.405</ele>
        <time>2022-09-20T12:43:52Z</time>
      </trkpt>
      <trkpt lat="46.54928" lon="4.5489">
        <ele>331.905</ele>
        <time>2022-09-20T12:43:57Z</time>
      </trkpt>
      <trkpt lat="46.54931" lon="4.54882">
        <ele>332.405</ele>
        <time>2022-09-20T12:44:05Z</time>
      </trkpt>
      <trkpt lat="46.54938" lon="4.54881">
        <ele>336.505</ele>
        <time>2022-09-20T12:45:07Z</time>
      </trkpt>
      <trkpt lat="46.54945" lon="4.54884">
        <ele>336.305</ele>
        <time>2022-09-20T12:45:14Z</time>
      </trkpt>
      <trkpt lat="46.54952" lon="4.54887">
        <ele>334.905</ele>
        <time>2022-09-20T12:45:22Z</time>
      </trkpt>
      <trkpt lat="46.54959" lon="4.5489">
        <ele>335.905</ele>
        <time>2022-09-20T12:45:31Z</time>
      </trkpt>
      <trkpt lat="46.54965" lon="4.54886">
        <ele>335.705</ele>
        <time>2022-09-20T12:45:38Z</time>
      </trkpt>
      <trkpt lat="46.5497" lon="4.54879">
        <ele>332.805</ele>
        <time>2022-09-20T12:45:46Z</time>
      </trkpt>
      <trkpt lat="46.54971" lon="4.54869">
        <ele>331.205</ele>
        <time>2022-09-20T12:46:10Z</time>
      </trkpt>
      <trkpt lat="46.54977" lon="4.54866">
        <ele>332.505</ele>
        <time>2022-09-20T12:46:31Z</time>
      </trkpt>
      <trkpt lat="46.54969" lon="4.54867">
        <ele>333.205</ele>
        <time>2022-09-20T12:46:53Z</time>
      </trkpt>
      <trkpt lat="46.54965" lon="4.54858">
        <ele>331.305</ele>
        <time>2022-09-20T12:47:00Z</time>
      </trkpt>
      <trkpt lat="46.54964" lon="4.54848">
        <ele>327.005</ele>
        <time>2022-09-20T12:47:11Z</time>
      </trkpt>
      <trkpt lat="46.54964" lon="4.54837">
        <ele>325.705</ele>
        <time>2022-09-20T12:47:17Z</time>
      </trkpt>
      <trkpt lat="46.54962" lon="4.54826">
        <ele>328.205</ele>
        <time>2022-09-20T12:47:39Z</time>
      </trkpt>
      <trkpt lat="46.5496" lon="4.54817">
        <ele>330.905</ele>
        <time>2022-09-20T12:48:24Z</time>
      </trkpt>
      <trkpt lat="46.54956" lon="4.54809">
        <ele>327.405</ele>
        <time>2022-09-20T12:48:32Z</time>
      </trkpt>
      <trkpt lat="46.54955" lon="4.54799">
        <ele>324.805</ele>
        <time>2022-09-20T12:48:38Z</time>
      </trkpt>
      <trkpt lat="46.54953" lon="4.54789">
        <ele>322.105</ele>
        <time>2022-09-20T12:48:44Z</time>
      </trkpt>
      <trkpt lat="46.54951" lon="4.5478">
        <ele>320.905</ele>
        <time>2022-09-20T12:48:53Z</time>
      </trkpt>
      <trkpt lat="46.54951" lon="4.54768">
        <ele>319.205</ele>
        <time>2022-09-20T12:48:59Z</time>
      </trkpt>
      <trkpt lat="46.54951" lon="4.54758">
        <ele>317.905</ele>
        <time>2022-09-20T12:49:04Z</time>
      </trkpt>
      <trkpt lat="46.5495" lon="4.54747">
        <ele>316.005</ele>
        <time>2022-09-20T12:49:11Z</time>
      </trkpt>
      <trkpt lat="46.54949" lon="4.54736">
        <ele>314.305</ele>
        <time>2022-09-20T12:49:16Z</time>
      </trkpt>
      <trkpt lat="46.54947" lon="4.54726">
        <ele>312.805</ele>
        <time>2022-09-20T12:49:22Z</time>
      </trkpt>
      <trkpt lat="46.54945" lon="4.54717">
        <ele>313.605</ele>
        <time>2022-09-20T12:49:28Z</time>
      </trkpt>
      <trkpt lat="46.54944" lon="4.54706">
        <ele>312.505</ele>
        <time>2022-09-20T12:49:34Z</time>
      </trkpt>
      <trkpt lat="46.5494" lon="4.54697">
        <ele>310.004</ele>
        <time>2022-09-20T12:49:42Z</time>
      </trkpt>
      <trkpt lat="46.54935" lon="4.54689">
        <ele>310.104</ele>
        <time>2022-09-20T12:49:47Z</time>
      </trkpt>
      <trkpt lat="46.54931" lon="4.54679">
        <ele>311.204</ele>
        <time>2022-09-20T12:49:54Z</time>
      </trkpt>
      <trkpt lat="46.54926" lon="4.54674">
        <ele>310.304</ele>
        <time>2022-09-20T12:49:59Z</time>
      </trkpt>
      <trkpt lat="46.5492" lon="4.54669">
        <ele>308.404</ele>
        <time>2022-09-20T12:50:06Z</time>
      </trkpt>
      <trkpt lat="46.54913" lon="4.54666">
        <ele>307.904</ele>
        <time>2022-09-20T12:50:12Z</time>
      </trkpt>
      <trkpt lat="46.54907" lon="4.54662">
        <ele>306.204</ele>
        <time>2022-09-20T12:50:18Z</time>
      </trkpt>
      <trkpt lat="46.54902" lon="4.54656">
        <ele>303.604</ele>
        <time>2022-09-20T12:50:25Z</time>
      </trkpt>
      <trkpt lat="46.54896" lon="4.54646">
        <ele>301.004</ele>
        <time>2022-09-20T12:50:31Z</time>
      </trkpt>
      <trkpt lat="46.54891" lon="4.54638">
        <ele>300.104</ele>
        <time>2022-09-20T12:50:36Z</time>
      </trkpt>
      <trkpt lat="46.54885" lon="4.5463">
        <ele>301.104</ele>
        <time>2022-09-20T12:50:41Z</time>
      </trkpt>
      <trkpt lat="46.54882" lon="4.5462">
        <ele>300.404</ele>
        <time>2022-09-20T12:50:47Z</time>
      </trkpt>
      <trkpt lat="46.54878" lon="4.54611">
        <ele>299.904</ele>
        <time>2022-09-20T12:50:52Z</time>
      </trkpt>
      <trkpt lat="46.54873" lon="4.54604">
        <ele>300.404</ele>
        <time>2022-09-20T12:50:58Z</time>
      </trkpt>
      <trkpt lat="46.54867" lon="4.54599">
        <ele>299.404</ele>
        <time>2022-09-20T12:51:05Z</time>
      </trkpt>
      <trkpt lat="46.54862" lon="4.54592">
        <ele>299.504</ele>
        <time>2022-09-20T12:51:11Z</time>
      </trkpt>
      <trkpt lat="46.54859" lon="4.54581">
        <ele>299.704</ele>
        <time>2022-09-20T12:51:17Z</time>
      </trkpt>
      <trkpt lat="46.54856" lon="4.54572">
        <ele>298.004</ele>
        <time>2022-09-20T12:51:23Z</time>
      </trkpt>
      <trkpt lat="46.54856" lon="4.54561">
        <ele>294.904</ele>
        <time>2022-09-20T12:51:30Z</time>
      </trkpt>
      <trkpt lat="46.54858" lon="4.54551">
        <ele>295.204</ele>
        <time>2022-09-20T12:51:36Z</time>
      </trkpt>
      <trkpt lat="46.54859" lon="4.54541">
        <ele>291.804</ele>
        <time>2022-09-20T12:51:42Z</time>
      </trkpt>
      <trkpt lat="46.54861" lon="4.54532">
        <ele>290.004</ele>
        <time>2022-09-20T12:51:48Z</time>
      </trkpt>
      <trkpt lat="46.54864" lon="4.54523">
        <ele>288.704</ele>
        <time>2022-09-20T12:51:55Z</time>
      </trkpt>
      <trkpt lat="46.54866" lon="4.54513">
        <ele>286.604</ele>
        <time>2022-09-20T12:52:02Z</time>
      </trkpt>
      <trkpt lat="46.5487" lon="4.54502">
        <ele>285.504</ele>
        <time>2022-09-20T12:52:07Z</time>
      </trkpt>
      <trkpt lat="46.54871" lon="4.54493">
        <ele>282.204</ele>
        <time>2022-09-20T12:52:14Z</time>
      </trkpt>
      <trkpt lat="46.54868" lon="4.54483">
        <ele>280.404</ele>
        <time>2022-09-20T12:52:21Z</time>
      </trkpt>
      <trkpt lat="46.54863" lon="4.54478">
        <ele>283.104</ele>
        <time>2022-09-20T12:54:55Z</time>
      </trkpt>
      <trkpt lat="46.54856" lon="4.54474">
        <ele>281.804</ele>
        <time>2022-09-20T12:55:03Z</time>
      </trkpt>
      <trkpt lat="46.54851" lon="4.54469">
        <ele>282.104</ele>
        <time>2022-09-20T12:55:26Z</time>
      </trkpt>
      <trkpt lat="46.54845" lon="4.54463">
        <ele>280.504</ele>
        <time>2022-09-20T12:55:31Z</time>
      </trkpt>
      <trkpt lat="46.54838" lon="4.54459">
        <ele>279.304</ele>
        <time>2022-09-20T12:55:36Z</time>
      </trkpt>
      <trkpt lat="46.54832" lon="4.54454">
        <ele>278.804</ele>
        <time>2022-09-20T12:55:44Z</time>
      </trkpt>
      <trkpt lat="46.54826" lon="4.54449">
        <ele>280.904</ele>
        <time>2022-09-20T12:55:51Z</time>
      </trkpt>
      <trkpt lat="46.5482" lon="4.54444">
        <ele>281.804</ele>
        <time>2022-09-20T12:55:56Z</time>
      </trkpt>
      <trkpt lat="46.54813" lon="4.54437">
        <ele>283.704</ele>
        <time>2022-09-20T12:56:01Z</time>
      </trkpt>
      <trkpt lat="46.54807" lon="4.54432">
        <ele>281.604</ele>
        <time>2022-09-20T12:56:07Z</time>
      </trkpt>
      <trkpt lat="46.54801" lon="4.54426">
        <ele>282.204</ele>
        <time>2022-09-20T12:56:13Z</time>
      </trkpt>
      <trkpt lat="46.54796" lon="4.54421">
        <ele>283.204</ele>
        <time>2022-09-20T12:56:19Z</time>
      </trkpt>
      <trkpt lat="46.54791" lon="4.54413">
        <ele>282.904</ele>
        <time>2022-09-20T12:56:27Z</time>
      </trkpt>
      <trkpt lat="46.54786" lon="4.54404">
        <ele>281.204</ele>
        <time>2022-09-20T12:56:32Z</time>
      </trkpt>
      <trkpt lat="46.54782" lon="4.54397">
        <ele>281.504</ele>
        <time>2022-09-20T12:56:37Z</time>
      </trkpt>
      <trkpt lat="46.5478" lon="4.54387">
        <ele>281.004</ele>
        <time>2022-09-20T12:56:44Z</time>
      </trkpt>
      <trkpt lat="46.54779" lon="4.54377">
        <ele>282.604</ele>
        <time>2022-09-20T12:56:49Z</time>
      </trkpt>
      <trkpt lat="46.54776" lon="4.54367">
        <ele>284.804</ele>
        <time>2022-09-20T12:56:55Z</time>
      </trkpt>
      <trkpt lat="46.54771" lon="4.54358">
        <ele>286.604</ele>
        <time>2022-09-20T12:57:00Z</time>
      </trkpt>
      <trkpt lat="46.54767" lon="4.5435">
        <ele>289.304</ele>
        <time>2022-09-20T12:57:06Z</time>
      </trkpt>
      <trkpt lat="46.54761" lon="4.54343">
        <ele>289.404</ele>
        <time>2022-09-20T12:57:11Z</time>
      </trkpt>
      <trkpt lat="46.54757" lon="4.54334">
        <ele>289.804</ele>
        <time>2022-09-20T12:57:17Z</time>
      </trkpt>
      <trkpt lat="46.54751" lon="4.54326">
        <ele>289.504</ele>
        <time>2022-09-20T12:57:23Z</time>
      </trkpt>
      <trkpt lat="46.54747" lon="4.54317">
        <ele>290.104</ele>
        <time>2022-09-20T12:57:30Z</time>
      </trkpt>
      <trkpt lat="46.54742" lon="4.54309">
        <ele>289.504</ele>
        <time>2022-09-20T12:57:35Z</time>
      </trkpt>
      <trkpt lat="46.54735" lon="4.54305">
        <ele>286.604</ele>
        <time>2022-09-20T12:57:41Z</time>
      </trkpt>
      <trkpt lat="46.54728" lon="4.54301">
        <ele>286.004</ele>
        <time>2022-09-20T12:57:47Z</time>
      </trkpt>
      <trkpt lat="46.54722" lon="4.54297">
        <ele>287.904</ele>
        <time>2022-09-20T12:57:53Z</time>
      </trkpt>
      <trkpt lat="46.54716" lon="4.54292">
        <ele>289.404</ele>
        <time>2022-09-20T12:58:01Z</time>
      </trkpt>
      <trkpt lat="46.54711" lon="4.54286">
        <ele>291.004</ele>
        <time>2022-09-20T12:58:08Z</time>
      </trkpt>
      <trkpt lat="46.54705" lon="4.5428">
        <ele>291.704</ele>
        <time>2022-09-20T12:58:30Z</time>
      </trkpt>
      <trkpt lat="46.54699" lon="4.54274">
        <ele>291.304</ele>
        <time>2022-09-20T12:58:38Z</time>
      </trkpt>
      <trkpt lat="46.54692" lon="4.54271">
        <ele>288.704</ele>
        <time>2022-09-20T12:58:44Z</time>
      </trkpt>
      <trkpt lat="46.54684" lon="4.54271">
        <ele>286.503</ele>
        <time>2022-09-20T12:58:49Z</time>
      </trkpt>
      <trkpt lat="46.54678" lon="4.54267">
        <ele>285.503</ele>
        <time>2022-09-20T12:58:56Z</time>
      </trkpt>
      <trkpt lat="46.54671" lon="4.54264">
        <ele>284.103</ele>
        <time>2022-09-20T12:59:01Z</time>
      </trkpt>
      <trkpt lat="46.54664" lon="4.54261">
        <ele>281.403</ele>
        <time>2022-09-20T12:59:09Z</time>
      </trkpt>
      <trkpt lat="46.54654" lon="4.54256">
        <ele>281.503</ele>
        <time>2022-09-20T12:59:15Z</time>
      </trkpt>
      <trkpt lat="46.54647" lon="4.54257">
        <ele>280.403</ele>
        <time>2022-09-20T12:59:22Z</time>
      </trkpt>
      <trkpt lat="46.54641" lon="4.54253">
        <ele>279.403</ele>
        <time>2022-09-20T12:59:27Z</time>
      </trkpt>
      <trkpt lat="46.54634" lon="4.54249">
        <ele>278.303</ele>
        <time>2022-09-20T12:59:33Z</time>
      </trkpt>
      <trkpt lat="46.54627" lon="4.5424">
        <ele>276.703</ele>
        <time>2022-09-20T12:59:39Z</time>
      </trkpt>
      <trkpt lat="46.54623" lon="4.54232">
        <ele>275.103</ele>
        <time>2022-09-20T12:59:45Z</time>
      </trkpt>
      <trkpt lat="46.54617" lon="4.54221">
        <ele>275.503</ele>
        <time>2022-09-20T12:59:51Z</time>
      </trkpt>
      <trkpt lat="46.54611" lon="4.54213">
        <ele>274.603</ele>
        <time>2022-09-20T12:59:58Z</time>
      </trkpt>
      <trkpt lat="46.54605" lon="4.54204">
        <ele>274.103</ele>
        <time>2022-09-20T13:00:03Z</time>
      </trkpt>
      <trkpt lat="46.54601" lon="4.54197">
        <ele>271.903</ele>
        <time>2022-09-20T13:00:08Z</time>
      </trkpt>
      <trkpt lat="46.54596" lon="4.54189">
        <ele>273.103</ele>
        <time>2022-09-20T13:00:15Z</time>
      </trkpt>
      <trkpt lat="46.5459" lon="4.54184">
        <ele>273.903</ele>
        <time>2022-09-20T13:00:20Z</time>
      </trkpt>
      <trkpt lat="46.54584" lon="4.54179">
        <ele>275.703</ele>
        <time>2022-09-20T13:00:25Z</time>
      </trkpt>
      <trkpt lat="46.54578" lon="4.54172">
        <ele>277.503</ele>
        <time>2022-09-20T13:00:32Z</time>
      </trkpt>
      <trkpt lat="46.54572" lon="4.54167">
        <ele>276.503</ele>
        <time>2022-09-20T13:00:37Z</time>
      </trkpt>
      <trkpt lat="46.54566" lon="4.54161">
        <ele>275.203</ele>
        <time>2022-09-20T13:00:43Z</time>
      </trkpt>
      <trkpt lat="46.54561" lon="4.54154">
        <ele>274.103</ele>
        <time>2022-09-20T13:00:49Z</time>
      </trkpt>
      <trkpt lat="46.54555" lon="4.54147">
        <ele>273.403</ele>
        <time>2022-09-20T13:00:55Z</time>
      </trkpt>
      <trkpt lat="46.54548" lon="4.5414">
        <ele>274.003</ele>
        <time>2022-09-20T13:01:01Z</time>
      </trkpt>
      <trkpt lat="46.54542" lon="4.54136">
        <ele>271.903</ele>
        <time>2022-09-20T13:01:07Z</time>
      </trkpt>
      <trkpt lat="46.54537" lon="4.54127">
        <ele>270.403</ele>
        <time>2022-09-20T13:01:14Z</time>
      </trkpt>
      <trkpt lat="46.54531" lon="4.54119">
        <ele>270.103</ele>
        <time>2022-09-20T13:01:19Z</time>
      </trkpt>
      <trkpt lat="46.54525" lon="4.54114">
        <ele>269.703</ele>
        <time>2022-09-20T13:01:25Z</time>
      </trkpt>
      <trkpt lat="46.54519" lon="4.54106">
        <ele>268.703</ele>
        <time>2022-09-20T13:01:31Z</time>
      </trkpt>
      <trkpt lat="46.54513" lon="4.541">
        <ele>268.603</ele>
        <time>2022-09-20T13:01:36Z</time>
      </trkpt>
      <trkpt lat="46.54509" lon="4.54092">
        <ele>266.703</ele>
        <time>2022-09-20T13:01:42Z</time>
      </trkpt>
      <trkpt lat="46.54504" lon="4.54085">
        <ele>265.403</ele>
        <time>2022-09-20T13:01:48Z</time>
      </trkpt>
      <trkpt lat="46.54498" lon="4.5408">
        <ele>264.403</ele>
        <time>2022-09-20T13:01:53Z</time>
      </trkpt>
      <trkpt lat="46.54493" lon="4.5407">
        <ele>264.603</ele>
        <time>2022-09-20T13:01:59Z</time>
      </trkpt>
      <trkpt lat="46.54487" lon="4.54063">
        <ele>263.603</ele>
        <time>2022-09-20T13:02:04Z</time>
      </trkpt>
      <trkpt lat="46.54482" lon="4.54055">
        <ele>263.203</ele>
        <time>2022-09-20T13:02:10Z</time>
      </trkpt>
      <trkpt lat="46.54477" lon="4.54049">
        <ele>262.803</ele>
        <time>2022-09-20T13:02:15Z</time>
      </trkpt>
      <trkpt lat="46.54471" lon="4.54042">
        <ele>261.603</ele>
        <time>2022-09-20T13:02:20Z</time>
      </trkpt>
      <trkpt lat="46.54466" lon="4.54036">
        <ele>259.503</ele>
        <time>2022-09-20T13:02:25Z</time>
      </trkpt>
      <trkpt lat="46.54463" lon="4.54028">
        <ele>258.703</ele>
        <time>2022-09-20T13:02:31Z</time>
      </trkpt>
      <trkpt lat="46.54458" lon="4.5402">
        <ele>258.803</ele>
        <time>2022-09-20T13:02:36Z</time>
      </trkpt>
      <trkpt lat="46.54453" lon="4.5401">
        <ele>258.603</ele>
        <time>2022-09-20T13:02:41Z</time>
      </trkpt>
      <trkpt lat="46.5445" lon="4.54001">
        <ele>256.303</ele>
        <time>2022-09-20T13:02:46Z</time>
      </trkpt>
      <trkpt lat="46.54446" lon="4.53991">
        <ele>254.003</ele>
        <time>2022-09-20T13:02:52Z</time>
      </trkpt>
      <trkpt lat="46.54442" lon="4.53982">
        <ele>253.403</ele>
        <time>2022-09-20T13:02:57Z</time>
      </trkpt>
      <trkpt lat="46.54436" lon="4.53973">
        <ele>253.203</ele>
        <time>2022-09-20T13:03:03Z</time>
      </trkpt>
      <trkpt lat="46.54432" lon="4.53964">
        <ele>251.903</ele>
        <time>2022-09-20T13:03:09Z</time>
      </trkpt>
      <trkpt lat="46.54427" lon="4.53954">
        <ele>251.103</ele>
        <time>2022-09-20T13:03:15Z</time>
      </trkpt>
      <trkpt lat="46.54421" lon="4.53949">
        <ele>251.503</ele>
        <time>2022-09-20T13:03:20Z</time>
      </trkpt>
      <trkpt lat="46.54416" lon="4.53942">
        <ele>251.603</ele>
        <time>2022-09-20T13:03:25Z</time>
      </trkpt>
      <trkpt lat="46.54411" lon="4.53934">
        <ele>252.602</ele>
        <time>2022-09-20T13:03:31Z</time>
      </trkpt>
      <trkpt lat="46.54405" lon="4.53926">
        <ele>251.602</ele>
        <time>2022-09-20T13:03:36Z</time>
      </trkpt>
      <trkpt lat="46.544" lon="4.53919">
        <ele>251.102</ele>
        <time>2022-09-20T13:03:41Z</time>
      </trkpt>
      <trkpt lat="46.54394" lon="4.53911">
        <ele>249.802</ele>
        <time>2022-09-20T13:03:48Z</time>
      </trkpt>
      <trkpt lat="46.5439" lon="4.53902">
        <ele>249.102</ele>
        <time>2022-09-20T13:03:53Z</time>
      </trkpt>
      <trkpt lat="46.54381" lon="4.53894">
        <ele>250.502</ele>
        <time>2022-09-20T13:03:59Z</time>
      </trkpt>
      <trkpt lat="46.54375" lon="4.53888">
        <ele>250.302</ele>
        <time>2022-09-20T13:04:05Z</time>
      </trkpt>
      <trkpt lat="46.54368" lon="4.53883">
        <ele>249.902</ele>
        <time>2022-09-20T13:04:11Z</time>
      </trkpt>
      <trkpt lat="46.54361" lon="4.53878">
        <ele>250.002</ele>
        <time>2022-09-20T13:04:16Z</time>
      </trkpt>
      <trkpt lat="46.54354" lon="4.53875">
        <ele>250.402</ele>
        <time>2022-09-20T13:04:21Z</time>
      </trkpt>
      <trkpt lat="46.54348" lon="4.5387">
        <ele>250.102</ele>
        <time>2022-09-20T13:04:27Z</time>
      </trkpt>
      <trkpt lat="46.54345" lon="4.53861">
        <ele>250.902</ele>
        <time>2022-09-20T13:06:34Z</time>
      </trkpt>
      <trkpt lat="46.54344" lon="4.53852">
        <ele>247.402</ele>
        <time>2022-09-20T13:06:42Z</time>
      </trkpt>
      <trkpt lat="46.54343" lon="4.53842">
        <ele>245.702</ele>
        <time>2022-09-20T13:06:53Z</time>
      </trkpt>
      <trkpt lat="46.54345" lon="4.53831">
        <ele>245.402</ele>
        <time>2022-09-20T13:07:00Z</time>
      </trkpt>
      <trkpt lat="46.54344" lon="4.53821">
        <ele>241.802</ele>
        <time>2022-09-20T13:07:06Z</time>
      </trkpt>
      <trkpt lat="46.54344" lon="4.53811">
        <ele>239.802</ele>
        <time>2022-09-20T13:07:12Z</time>
      </trkpt>
      <trkpt lat="46.54344" lon="4.53801">
        <ele>237.402</ele>
        <time>2022-09-20T13:07:18Z</time>
      </trkpt>
      <trkpt lat="46.54344" lon="4.53791">
        <ele>235.302</ele>
        <time>2022-09-20T13:07:25Z</time>
      </trkpt>
      <trkpt lat="46.54343" lon="4.53781">
        <ele>235.602</ele>
        <time>2022-09-20T13:07:31Z</time>
      </trkpt>
      <trkpt lat="46.5434" lon="4.53772">
        <ele>234.602</ele>
        <time>2022-09-20T13:07:43Z</time>
      </trkpt>
      <trkpt lat="46.54339" lon="4.53762">
        <ele>233.902</ele>
        <time>2022-09-20T13:07:50Z</time>
      </trkpt>
      <trkpt lat="46.54339" lon="4.53751">
        <ele>235.202</ele>
        <time>2022-09-20T13:07:57Z</time>
      </trkpt>
      <trkpt lat="46.5434" lon="4.53741">
        <ele>236.002</ele>
        <time>2022-09-20T13:08:04Z</time>
      </trkpt>
      <trkpt lat="46.54339" lon="4.53732">
        <ele>237.602</ele>
        <time>2022-09-20T13:08:17Z</time>
      </trkpt>
      <trkpt lat="46.54338" lon="4.53722">
        <ele>238.102</ele>
        <time>2022-09-20T13:08:25Z</time>
      </trkpt>
      <trkpt lat="46.54335" lon="4.53714">
        <ele>238.202</ele>
        <time>2022-09-20T13:08:31Z</time>
      </trkpt>
      <trkpt lat="46.54333" lon="4.53704">
        <ele>238.802</ele>
        <time>2022-09-20T13:08:36Z</time>
      </trkpt>
      <trkpt lat="46.54333" lon="4.53692">
        <ele>237.602</ele>
        <time>2022-09-20T13:08:41Z</time>
      </trkpt>
      <trkpt lat="46.54331" lon="4.53683">
        <ele>237.602</ele>
        <time>2022-09-20T13:08:51Z</time>
      </trkpt>
      <trkpt lat="46.54329" lon="4.53673">
        <ele>238.802</ele>
        <time>2022-09-20T13:08:58Z</time>
      </trkpt>
      <trkpt lat="46.54327" lon="4.53664">
        <ele>237.702</ele>
        <time>2022-09-20T13:09:04Z</time>
      </trkpt>
      <trkpt lat="46.54324" lon="4.53655">
        <ele>237.502</ele>
        <time>2022-09-20T13:09:11Z</time>
      </trkpt>
      <trkpt lat="46.54323" lon="4.53644">
        <ele>235.502</ele>
        <time>2022-09-20T13:09:18Z</time>
      </trkpt>
      <trkpt lat="46.54326" lon="4.53635">
        <ele>236.602</ele>
        <time>2022-09-20T13:09:24Z</time>
      </trkpt>
      <trkpt lat="46.54324" lon="4.53626">
        <ele>236.502</ele>
        <time>2022-09-20T13:09:30Z</time>
      </trkpt>
      <trkpt lat="46.54323" lon="4.53615">
        <ele>234.402</ele>
        <time>2022-09-20T13:09:35Z</time>
      </trkpt>
      <trkpt lat="46.54321" lon="4.53604">
        <ele>235.102</ele>
        <time>2022-09-20T13:09:41Z</time>
      </trkpt>
      <trkpt lat="46.54319" lon="4.53595">
        <ele>236.002</ele>
        <time>2022-09-20T13:09:47Z</time>
      </trkpt>
      <trkpt lat="46.54314" lon="4.53587">
        <ele>235.002</ele>
        <time>2022-09-20T13:09:55Z</time>
      </trkpt>
      <trkpt lat="46.54311" lon="4.53579">
        <ele>234.202</ele>
        <time>2022-09-20T13:10:01Z</time>
      </trkpt>
      <trkpt lat="46.54307" lon="4.53569">
        <ele>233.302</ele>
        <time>2022-09-20T13:10:07Z</time>
      </trkpt>
      <trkpt lat="46.54305" lon="4.53559">
        <ele>233.902</ele>
        <time>2022-09-20T13:10:12Z</time>
      </trkpt>
      <trkpt lat="46.54306" lon="4.53549">
        <ele>234.402</ele>
        <time>2022-09-20T13:10:18Z</time>
      </trkpt>
      <trkpt lat="46.54306" lon="4.5354">
        <ele>233.202</ele>
        <time>2022-09-20T13:10:32Z</time>
      </trkpt>
      <trkpt lat="46.54308" lon="4.5353">
        <ele>233.402</ele>
        <time>2022-09-20T13:10:40Z</time>
      </trkpt>
      <trkpt lat="46.54309" lon="4.53519">
        <ele>234.702</ele>
        <time>2022-09-20T13:10:46Z</time>
      </trkpt>
      <trkpt lat="46.5431" lon="4.53509">
        <ele>234.802</ele>
        <time>2022-09-20T13:10:52Z</time>
      </trkpt>
      <trkpt lat="46.54311" lon="4.535">
        <ele>235.402</ele>
        <time>2022-09-20T13:10:58Z</time>
      </trkpt>
      <trkpt lat="46.54314" lon="4.5349">
        <ele>235.602</ele>
        <time>2022-09-20T13:11:05Z</time>
      </trkpt>
      <trkpt lat="46.54315" lon="4.5348">
        <ele>234.302</ele>
        <time>2022-09-20T13:11:11Z</time>
      </trkpt>
      <trkpt lat="46.54315" lon="4.5347">
        <ele>233.602</ele>
        <time>2022-09-20T13:11:17Z</time>
      </trkpt>
      <trkpt lat="46.54316" lon="4.5346">
        <ele>233.702</ele>
        <time>2022-09-20T13:11:23Z</time>
      </trkpt>
      <trkpt lat="46.54317" lon="4.5345">
        <ele>232.002</ele>
        <time>2022-09-20T13:11:29Z</time>
      </trkpt>
      <trkpt lat="46.54317" lon="4.5344">
        <ele>231.102</ele>
        <time>2022-09-20T13:11:36Z</time>
      </trkpt>
      <trkpt lat="46.54315" lon="4.53429">
        <ele>231.302</ele>
        <time>2022-09-20T13:11:43Z</time>
      </trkpt>
      <trkpt lat="46.54314" lon="4.53418">
        <ele>231.102</ele>
        <time>2022-09-20T13:11:49Z</time>
      </trkpt>
      <trkpt lat="46.54311" lon="4.53408">
        <ele>232.102</ele>
        <time>2022-09-20T13:11:55Z</time>
      </trkpt>
      <trkpt lat="46.54309" lon="4.53398">
        <ele>233.402</ele>
        <time>2022-09-20T13:12:00Z</time>
      </trkpt>
      <trkpt lat="46.54307" lon="4.53388">
        <ele>235.902</ele>
        <time>2022-09-20T13:12:05Z</time>
      </trkpt>
      <trkpt lat="46.54302" lon="4.53378">
        <ele>236.202</ele>
        <time>2022-09-20T13:12:11Z</time>
      </trkpt>
      <trkpt lat="46.54299" lon="4.53368">
        <ele>237.102</ele>
        <time>2022-09-20T13:12:18Z</time>
      </trkpt>
      <trkpt lat="46.54295" lon="4.53353">
        <ele>233.102</ele>
        <time>2022-09-20T13:12:27Z</time>
      </trkpt>
      <trkpt lat="46.54292" lon="4.53345">
        <ele>232.202</ele>
        <time>2022-09-20T13:12:33Z</time>
      </trkpt>
      <trkpt lat="46.5429" lon="4.53334">
        <ele>231.202</ele>
        <time>2022-09-20T13:12:39Z</time>
      </trkpt>
      <trkpt lat="46.54289" lon="4.53323">
        <ele>231.702</ele>
        <time>2022-09-20T13:12:45Z</time>
      </trkpt>
      <trkpt lat="46.54287" lon="4.53314">
        <ele>234.402</ele>
        <time>2022-09-20T13:12:51Z</time>
      </trkpt>
      <trkpt lat="46.54285" lon="4.53304">
        <ele>235.602</ele>
        <time>2022-09-20T13:12:56Z</time>
      </trkpt>
      <trkpt lat="46.54283" lon="4.53294">
        <ele>236.302</ele>
        <time>2022-09-20T13:13:02Z</time>
      </trkpt>
      <trkpt lat="46.54282" lon="4.53284">
        <ele>236.102</ele>
        <time>2022-09-20T13:13:08Z</time>
      </trkpt>
      <trkpt lat="46.54278" lon="4.53276">
        <ele>237.502</ele>
        <time>2022-09-20T13:13:14Z</time>
      </trkpt>
      <trkpt lat="46.54275" lon="4.53266">
        <ele>240.202</ele>
        <time>2022-09-20T13:13:22Z</time>
      </trkpt>
      <trkpt lat="46.5428" lon="4.53258">
        <ele>241.202</ele>
        <time>2022-09-20T13:13:27Z</time>
      </trkpt>
      <trkpt lat="46.54285" lon="4.5325">
        <ele>241.402</ele>
        <time>2022-09-20T13:13:32Z</time>
      </trkpt>
      <trkpt lat="46.5429" lon="4.53244">
        <ele>237.502</ele>
        <time>2022-09-20T13:14:25Z</time>
      </trkpt>
      <trkpt lat="46.54294" lon="4.53236">
        <ele>235.002</ele>
        <time>2022-09-20T13:14:43Z</time>
      </trkpt>
      <trkpt lat="46.54288" lon="4.53241">
        <ele>235.802</ele>
        <time>2022-09-20T13:14:49Z</time>
      </trkpt>
      <trkpt lat="46.54283" lon="4.53249">
        <ele>234.902</ele>
        <time>2022-09-20T13:14:57Z</time>
      </trkpt>
      <trkpt lat="46.54278" lon="4.53254">
        <ele>235.302</ele>
        <time>2022-09-20T13:15:02Z</time>
      </trkpt>
      <trkpt lat="46.54272" lon="4.53264">
        <ele>237.602</ele>
        <time>2022-09-20T13:15:08Z</time>
      </trkpt>
      <trkpt lat="46.54266" lon="4.53271">
        <ele>238.102</ele>
        <time>2022-09-20T13:15:15Z</time>
      </trkpt>
      <trkpt lat="46.5426" lon="4.53278">
        <ele>238.102</ele>
        <time>2022-09-20T13:15:23Z</time>
      </trkpt>
      <trkpt lat="46.54255" lon="4.53283">
        <ele>237.602</ele>
        <time>2022-09-20T13:15:33Z</time>
      </trkpt>
      <trkpt lat="46.54249" lon="4.53288">
        <ele>239.602</ele>
        <time>2022-09-20T13:15:41Z</time>
      </trkpt>
      <trkpt lat="46.54244" lon="4.53295">
        <ele>241.602</ele>
        <time>2022-09-20T13:15:49Z</time>
      </trkpt>
      <trkpt lat="46.54238" lon="4.53298">
        <ele>240.402</ele>
        <time>2022-09-20T13:15:57Z</time>
      </trkpt>
      <trkpt lat="46.54232" lon="4.53304">
        <ele>237.302</ele>
        <time>2022-09-20T13:16:06Z</time>
      </trkpt>
      <trkpt lat="46.54226" lon="4.53309">
        <ele>237.702</ele>
        <time>2022-09-20T13:16:14Z</time>
      </trkpt>
      <trkpt lat="46.54219" lon="4.53312">
        <ele>237.802</ele>
        <time>2022-09-20T13:16:21Z</time>
      </trkpt>
      <trkpt lat="46.54214" lon="4.53317">
        <ele>240.202</ele>
        <time>2022-09-20T13:16:33Z</time>
      </trkpt>
      <trkpt lat="46.54209" lon="4.53324">
        <ele>237.901</ele>
        <time>2022-09-20T13:16:46Z</time>
      </trkpt>
      <trkpt lat="46.54201" lon="4.53328">
        <ele>233.801</ele>
        <time>2022-09-20T13:16:55Z</time>
      </trkpt>
      <trkpt lat="46.54194" lon="4.53331">
        <ele>228.501</ele>
        <time>2022-09-20T13:17:02Z</time>
      </trkpt>
      <trkpt lat="46.54187" lon="4.53343">
        <ele>228.701</ele>
        <time>2022-09-20T13:17:08Z</time>
      </trkpt>
      <trkpt lat="46.54181" lon="4.53351">
        <ele>231.801</ele>
        <time>2022-09-20T13:17:13Z</time>
      </trkpt>
      <trkpt lat="46.54175" lon="4.53357">
        <ele>229.501</ele>
        <time>2022-09-20T13:17:19Z</time>
      </trkpt>
      <trkpt lat="46.54168" lon="4.53361">
        <ele>229.901</ele>
        <time>2022-09-20T13:17:26Z</time>
      </trkpt>
      <trkpt lat="46.54162" lon="4.53369">
        <ele>232.401</ele>
        <time>2022-09-20T13:17:32Z</time>
      </trkpt>
      <trkpt lat="46.54158" lon="4.53376">
        <ele>235.601</ele>
        <time>2022-09-20T13:17:38Z</time>
      </trkpt>
      <trkpt lat="46.54152" lon="4.53382">
        <ele>237.001</ele>
        <time>2022-09-20T13:17:44Z</time>
      </trkpt>
      <trkpt lat="46.54145" lon="4.53388">
        <ele>237.901</ele>
        <time>2022-09-20T13:17:50Z</time>
      </trkpt>
      <trkpt lat="46.54142" lon="4.53397">
        <ele>237.601</ele>
        <time>2022-09-20T13:17:56Z</time>
      </trkpt>
      <trkpt lat="46.54137" lon="4.53407">
        <ele>237.801</ele>
        <time>2022-09-20T13:18:01Z</time>
      </trkpt>
      <trkpt lat="46.54132" lon="4.53414">
        <ele>238.101</ele>
        <time>2022-09-20T13:18:07Z</time>
      </trkpt>
      <trkpt lat="46.54127" lon="4.53421">
        <ele>237.801</ele>
        <time>2022-09-20T13:18:13Z</time>
      </trkpt>
      <trkpt lat="46.54122" lon="4.53428">
        <ele>237.701</ele>
        <time>2022-09-20T13:18:18Z</time>
      </trkpt>
      <trkpt lat="46.54115" lon="4.53437">
        <ele>239.601</ele>
        <time>2022-09-20T13:18:24Z</time>
      </trkpt>
      <trkpt lat="46.5411" lon="4.53444">
        <ele>238.701</ele>
        <time>2022-09-20T13:18:30Z</time>
      </trkpt>
      <trkpt lat="46.54104" lon="4.53449">
        <ele>240.401</ele>
        <time>2022-09-20T13:18:35Z</time>
      </trkpt>
      <trkpt lat="46.54098" lon="4.53454">
        <ele>238.001</ele>
        <time>2022-09-20T13:18:42Z</time>
      </trkpt>
      <trkpt lat="46.54089" lon="4.53456">
        <ele>237.901</ele>
        <time>2022-09-20T13:18:48Z</time>
      </trkpt>
      <trkpt lat="46.54083" lon="4.53459">
        <ele>240.301</ele>
        <time>2022-09-20T13:18:55Z</time>
      </trkpt>
      <trkpt lat="46.54076" lon="4.53458">
        <ele>240.101</ele>
        <time>2022-09-20T13:19:14Z</time>
      </trkpt>
      <trkpt lat="46.54068" lon="4.53457">
        <ele>239.901</ele>
        <time>2022-09-20T13:19:20Z</time>
      </trkpt>
      <trkpt lat="46.54063" lon="4.53452">
        <ele>240.001</ele>
        <time>2022-09-20T13:19:26Z</time>
      </trkpt>
      <trkpt lat="46.54058" lon="4.53459">
        <ele>245.801</ele>
        <time>2022-09-20T13:19:41Z</time>
      </trkpt>
      <trkpt lat="46.54061" lon="4.53471">
        <ele>243.101</ele>
        <time>2022-09-20T13:20:43Z</time>
      </trkpt>
      <trkpt lat="46.5406" lon="4.5348">
        <ele>240.801</ele>
        <time>2022-09-20T13:21:04Z</time>
      </trkpt>
      <trkpt lat="46.54054" lon="4.53484">
        <ele>237.201</ele>
        <time>2022-09-20T13:21:19Z</time>
      </trkpt>
      <trkpt lat="46.54061" lon="4.5348">
        <ele>239.201</ele>
        <time>2022-09-20T13:21:27Z</time>
      </trkpt>
      <trkpt lat="46.54058" lon="4.53489">
        <ele>241.101</ele>
        <time>2022-09-20T13:21:34Z</time>
      </trkpt>
      <trkpt lat="46.54059" lon="4.5348">
        <ele>241.701</ele>
        <time>2022-09-20T13:21:40Z</time>
      </trkpt>
      <trkpt lat="46.54062" lon="4.53488">
        <ele>240.001</ele>
        <time>2022-09-20T13:21:50Z</time>
      </trkpt>
      <trkpt lat="46.54055" lon="4.5349">
        <ele>232.901</ele>
        <time>2022-09-20T13:21:59Z</time>
      </trkpt>
      <trkpt lat="46.54029" lon="4.53476">
        <ele>236.101</ele>
        <time>2022-09-20T13:22:04Z</time>
      </trkpt>
      <trkpt lat="46.54034" lon="4.53483">
        <ele>231.701</ele>
        <time>2022-09-20T13:22:12Z</time>
      </trkpt>
      <trkpt lat="46.5404" lon="4.53488">
        <ele>231.001</ele>
        <time>2022-09-20T13:22:17Z</time>
      </trkpt>
      <trkpt lat="46.54064" lon="4.5349">
        <ele>232.701</ele>
        <time>2022-09-20T13:22:28Z</time>
      </trkpt>
      <trkpt lat="46.54059" lon="4.53485">
        <ele>237.301</ele>
        <time>2022-09-20T13:22:36Z</time>
      </trkpt>
      <trkpt lat="46.54062" lon="4.53476">
        <ele>231.701</ele>
        <time>2022-09-20T13:22:47Z</time>
      </trkpt>
      <trkpt lat="46.54062" lon="4.53467">
        <ele>237.101</ele>
        <time>2022-09-20T13:22:56Z</time>
      </trkpt>
      <trkpt lat="46.54058" lon="4.53454">
        <ele>245.701</ele>
        <time>2022-09-20T13:29:50Z</time>
      </trkpt>
      <trkpt lat="46.54054" lon="4.53447">
        <ele>243.601</ele>
        <time>2022-09-20T13:30:09Z</time>
      </trkpt>
      <trkpt lat="46.54047" lon="4.53445">
        <ele>243.501</ele>
        <time>2022-09-20T13:30:25Z</time>
      </trkpt>
      <trkpt lat="46.54041" lon="4.53441">
        <ele>244.901</ele>
        <time>2022-09-20T13:31:24Z</time>
      </trkpt>
      <trkpt lat="46.54033" lon="4.53439">
        <ele>243.301</ele>
        <time>2022-09-20T13:31:34Z</time>
      </trkpt>
      <trkpt lat="46.54026" lon="4.53439">
        <ele>243.101</ele>
        <time>2022-09-20T13:31:42Z</time>
      </trkpt>
      <trkpt lat="46.54019" lon="4.53439">
        <ele>243.501</ele>
        <time>2022-09-20T13:31:49Z</time>
      </trkpt>
      <trkpt lat="46.54012" lon="4.5344">
        <ele>244.101</ele>
        <time>2022-09-20T13:31:57Z</time>
      </trkpt>
      <trkpt lat="46.54005" lon="4.53442">
        <ele>244.201</ele>
        <time>2022-09-20T13:32:04Z</time>
      </trkpt>
      <trkpt lat="46.53999" lon="4.53437">
        <ele>244.701</ele>
        <time>2022-09-20T13:32:09Z</time>
      </trkpt>
      <trkpt lat="46.53992" lon="4.5344">
        <ele>245.601</ele>
        <time>2022-09-20T13:32:16Z</time>
      </trkpt>
      <trkpt lat="46.53985" lon="4.53439">
        <ele>244.101</ele>
        <time>2022-09-20T13:32:21Z</time>
      </trkpt>
      <trkpt lat="46.53979" lon="4.53437">
        <ele>245.201</ele>
        <time>2022-09-20T13:32:27Z</time>
      </trkpt>
      <trkpt lat="46.53971" lon="4.53436">
        <ele>244.901</ele>
        <time>2022-09-20T13:32:35Z</time>
      </trkpt>
      <trkpt lat="46.53965" lon="4.53433">
        <ele>246.901</ele>
        <time>2022-09-20T13:32:43Z</time>
      </trkpt>
      <trkpt lat="46.53958" lon="4.53434">
        <ele>244.501</ele>
        <time>2022-09-20T13:32:51Z</time>
      </trkpt>
      <trkpt lat="46.53951" lon="4.53429">
        <ele>241.401</ele>
        <time>2022-09-20T13:32:59Z</time>
      </trkpt>
      <trkpt lat="46.53945" lon="4.53426">
        <ele>240.801</ele>
        <time>2022-09-20T13:33:04Z</time>
      </trkpt>
      <trkpt lat="46.53938" lon="4.53424">
        <ele>239.001</ele>
        <time>2022-09-20T13:33:11Z</time>
      </trkpt>
      <trkpt lat="46.53931" lon="4.53421">
        <ele>239.201</ele>
        <time>2022-09-20T13:33:16Z</time>
      </trkpt>
      <trkpt lat="46.53924" lon="4.53418">
        <ele>238.101</ele>
        <time>2022-09-20T13:33:22Z</time>
      </trkpt>
      <trkpt lat="46.53918" lon="4.53414">
        <ele>237.801</ele>
        <time>2022-09-20T13:33:28Z</time>
      </trkpt>
      <trkpt lat="46.53911" lon="4.53412">
        <ele>237.701</ele>
        <time>2022-09-20T13:33:33Z</time>
      </trkpt>
      <trkpt lat="46.53905" lon="4.53406">
        <ele>240.301</ele>
        <time>2022-09-20T13:33:38Z</time>
      </trkpt>
      <trkpt lat="46.53898" lon="4.53403">
        <ele>241.201</ele>
        <time>2022-09-20T13:33:44Z</time>
      </trkpt>
      <trkpt lat="46.5389" lon="4.53399">
        <ele>242.801</ele>
        <time>2022-09-20T13:33:50Z</time>
      </trkpt>
      <trkpt lat="46.53883" lon="4.53395">
        <ele>243.801</ele>
        <time>2022-09-20T13:33:56Z</time>
      </trkpt>
      <trkpt lat="46.53876" lon="4.53392">
        <ele>244.701</ele>
        <time>2022-09-20T13:34:01Z</time>
      </trkpt>
      <trkpt lat="46.53869" lon="4.53391">
        <ele>243.901</ele>
        <time>2022-09-20T13:34:07Z</time>
      </trkpt>
      <trkpt lat="46.53862" lon="4.53387">
        <ele>242.401</ele>
        <time>2022-09-20T13:34:12Z</time>
      </trkpt>
      <trkpt lat="46.53855" lon="4.53383">
        <ele>241.901</ele>
        <time>2022-09-20T13:34:19Z</time>
      </trkpt>
      <trkpt lat="46.53848" lon="4.53379">
        <ele>240.701</ele>
        <time>2022-09-20T13:34:24Z</time>
      </trkpt>
      <trkpt lat="46.53842" lon="4.53375">
        <ele>241.001</ele>
        <time>2022-09-20T13:34:29Z</time>
      </trkpt>
      <trkpt lat="46.53835" lon="4.53371">
        <ele>241.901</ele>
        <time>2022-09-20T13:34:36Z</time>
      </trkpt>
      <trkpt lat="46.53829" lon="4.53367">
        <ele>241.8</ele>
        <time>2022-09-20T13:34:41Z</time>
      </trkpt>
      <trkpt lat="46.53822" lon="4.53364">
        <ele>243.3</ele>
        <time>2022-09-20T13:34:47Z</time>
      </trkpt>
      <trkpt lat="46.53816" lon="4.5336">
        <ele>243.8</ele>
        <time>2022-09-20T13:34:53Z</time>
      </trkpt>
      <trkpt lat="46.53809" lon="4.53355">
        <ele>244.1</ele>
        <time>2022-09-20T13:34:59Z</time>
      </trkpt>
      <trkpt lat="46.53804" lon="4.53351">
        <ele>243.6</ele>
        <time>2022-09-20T13:35:04Z</time>
      </trkpt>
      <trkpt lat="46.53797" lon="4.53347">
        <ele>244.7</ele>
        <time>2022-09-20T13:35:10Z</time>
      </trkpt>
      <trkpt lat="46.5379" lon="4.53341">
        <ele>244.1</ele>
        <time>2022-09-20T13:35:16Z</time>
      </trkpt>
      <trkpt lat="46.53784" lon="4.53337">
        <ele>244.7</ele>
        <time>2022-09-20T13:35:22Z</time>
      </trkpt>
      <trkpt lat="46.53777" lon="4.53332">
        <ele>244.3</ele>
        <time>2022-09-20T13:35:28Z</time>
      </trkpt>
      <trkpt lat="46.53772" lon="4.53338">
        <ele>248.4</ele>
        <time>2022-09-20T13:35:41Z</time>
      </trkpt>
      <trkpt lat="46.53773" lon="4.53349">
        <ele>249.8</ele>
        <time>2022-09-20T13:35:48Z</time>
      </trkpt>
      <trkpt lat="46.53775" lon="4.53358">
        <ele>249.9</ele>
        <time>2022-09-20T13:35:56Z</time>
      </trkpt>
      <trkpt lat="46.53779" lon="4.53367">
        <ele>248.6</ele>
        <time>2022-09-20T13:36:03Z</time>
      </trkpt>
      <trkpt lat="46.53784" lon="4.53373">
        <ele>249.8</ele>
        <time>2022-09-20T13:36:18Z</time>
      </trkpt>
      <trkpt lat="46.53791" lon="4.53369">
        <ele>252.8</ele>
        <time>2022-09-20T13:36:45Z</time>
      </trkpt>
      <trkpt lat="46.538" lon="4.53358">
        <ele>253.3</ele>
        <time>2022-09-20T13:36:50Z</time>
      </trkpt>
      <trkpt lat="46.53816" lon="4.53341">
        <ele>253.9</ele>
        <time>2022-09-20T13:36:56Z</time>
      </trkpt>
      <trkpt lat="46.53823" lon="4.53336">
        <ele>254.1</ele>
        <time>2022-09-20T13:37:01Z</time>
      </trkpt>
      <trkpt lat="46.5383" lon="4.53347">
        <ele>254.1</ele>
        <time>2022-09-20T13:37:06Z</time>
      </trkpt>
      <trkpt lat="46.53799" lon="4.53355">
        <ele>254.3</ele>
        <time>2022-09-20T13:37:12Z</time>
      </trkpt>
      <trkpt lat="46.53783" lon="4.53382">
        <ele>254.3</ele>
        <time>2022-09-20T13:37:17Z</time>
      </trkpt>
      <trkpt lat="46.53776" lon="4.53377">
        <ele>252.5</ele>
        <time>2022-09-20T13:37:57Z</time>
      </trkpt>
      <trkpt lat="46.53778" lon="4.53368">
        <ele>251.7</ele>
        <time>2022-09-20T13:38:09Z</time>
      </trkpt>
      <trkpt lat="46.53783" lon="4.53375">
        <ele>259.3</ele>
        <time>2022-09-20T13:38:26Z</time>
      </trkpt>
      <trkpt lat="46.53777" lon="4.53383">
        <ele>258.5</ele>
        <time>2022-09-20T13:38:43Z</time>
      </trkpt>
      <trkpt lat="46.53771" lon="4.53381">
        <ele>256.3</ele>
        <time>2022-09-20T13:38:50Z</time>
      </trkpt>
      <trkpt lat="46.53765" lon="4.5339">
        <ele>256.8</ele>
        <time>2022-09-20T13:38:59Z</time>
      </trkpt>
      <trkpt lat="46.53774" lon="4.53386">
        <ele>257.1</ele>
        <time>2022-09-20T13:39:04Z</time>
      </trkpt>
      <trkpt lat="46.5378" lon="4.53375">
        <ele>257.1</ele>
        <time>2022-09-20T13:39:09Z</time>
      </trkpt>
      <trkpt lat="46.53779" lon="4.53385">
        <ele>262</ele>
        <time>2022-09-20T13:39:19Z</time>
      </trkpt>
      <trkpt lat="46.53786" lon="4.53391">
        <ele>253.2</ele>
        <time>2022-09-20T13:39:34Z</time>
      </trkpt>
      <trkpt lat="46.53791" lon="4.53384">
        <ele>246.3</ele>
        <time>2022-09-20T13:39:42Z</time>
      </trkpt>
      <trkpt lat="46.53779" lon="4.53372">
        <ele>255.7</ele>
        <time>2022-09-20T13:39:48Z</time>
      </trkpt>
      <trkpt lat="46.53773" lon="4.53374">
        <ele>254.8</ele>
        <time>2022-09-20T13:39:57Z</time>
      </trkpt>
      <trkpt lat="46.53779" lon="4.5337">
        <ele>254.3</ele>
        <time>2022-09-20T13:40:27Z</time>
      </trkpt>
      <trkpt lat="46.53786" lon="4.53367">
        <ele>254.3</ele>
        <time>2022-09-20T13:40:35Z</time>
      </trkpt>
      <trkpt lat="46.53781" lon="4.53374">
        <ele>254.7</ele>
        <time>2022-09-20T13:40:44Z</time>
      </trkpt>
      <trkpt lat="46.53773" lon="4.53384">
        <ele>255.1</ele>
        <time>2022-09-20T13:40:49Z</time>
      </trkpt>
      <trkpt lat="46.53782" lon="4.53377">
        <ele>254.6</ele>
        <time>2022-09-20T13:40:54Z</time>
      </trkpt>
      <trkpt lat="46.5379" lon="4.5336">
        <ele>254.5</ele>
        <time>2022-09-20T13:41:00Z</time>
      </trkpt>
      <trkpt lat="46.53785" lon="4.53368">
        <ele>252.1</ele>
        <time>2022-09-20T13:41:11Z</time>
      </trkpt>
      <trkpt lat="46.53778" lon="4.53372">
        <ele>251.8</ele>
        <time>2022-09-20T13:41:16Z</time>
      </trkpt>
      <trkpt lat="46.53783" lon="4.53361">
        <ele>255.9</ele>
        <time>2022-09-20T13:54:01Z</time>
      </trkpt>
      <trkpt lat="46.53788" lon="4.53367">
        <ele>259.1</ele>
        <time>2022-09-20T13:54:11Z</time>
      </trkpt>
      <trkpt lat="46.53785" lon="4.5338">
        <ele>256.1</ele>
        <time>2022-09-20T13:54:16Z</time>
      </trkpt>
      <trkpt lat="46.5378" lon="4.53372">
        <ele>255.9</ele>
        <time>2022-09-20T13:54:22Z</time>
      </trkpt>
      <trkpt lat="46.53773" lon="4.53376">
        <ele>252.1</ele>
        <time>2022-09-20T13:57:27Z</time>
      </trkpt>
      <trkpt lat="46.53779" lon="4.5337">
        <ele>250.1</ele>
        <time>2022-09-20T13:59:57Z</time>
      </trkpt>
      <trkpt lat="46.53786" lon="4.53371">
        <ele>247.5</ele>
        <time>2022-09-20T14:00:45Z</time>
      </trkpt>
      <trkpt lat="46.53792" lon="4.53371">
        <ele>247</ele>
        <time>2022-09-20T14:00:55Z</time>
      </trkpt>
      <trkpt lat="46.53785" lon="4.53376">
        <ele>243.9</ele>
        <time>2022-09-20T14:01:14Z</time>
      </trkpt>
      <trkpt lat="46.53779" lon="4.53371">
        <ele>241.1</ele>
        <time>2022-09-20T14:02:33Z</time>
      </trkpt>
      <trkpt lat="46.53786" lon="4.53376">
        <ele>240.2</ele>
        <time>2022-09-20T14:04:14Z</time>
      </trkpt>
      <trkpt lat="46.53779" lon="4.53375">
        <ele>239.8</ele>
        <time>2022-09-20T14:05:27Z</time>
      </trkpt>
      <trkpt lat="46.53775" lon="4.53385">
        <ele>242.2</ele>
        <time>2022-09-20T14:05:32Z</time>
      </trkpt>
      <trkpt lat="46.5377" lon="4.53393">
        <ele>250.1</ele>
        <time>2022-09-20T14:05:42Z</time>
      </trkpt>
      <trkpt lat="46.53765" lon="4.534">
        <ele>251.9</ele>
        <time>2022-09-20T14:05:49Z</time>
      </trkpt>
      <trkpt lat="46.53759" lon="4.53407">
        <ele>253</ele>
        <time>2022-09-20T14:05:55Z</time>
      </trkpt>
      <trkpt lat="46.53761" lon="4.53417">
        <ele>251.2</ele>
        <time>2022-09-20T14:06:48Z</time>
      </trkpt>
      <trkpt lat="46.53755" lon="4.53411">
        <ele>243.7</ele>
        <time>2022-09-20T14:07:51Z</time>
      </trkpt>
      <trkpt lat="46.53761" lon="4.53407">
        <ele>243.3</ele>
        <time>2022-09-20T14:09:47Z</time>
      </trkpt>
      <trkpt lat="46.53768" lon="4.53404">
        <ele>244</ele>
        <time>2022-09-20T14:09:56Z</time>
      </trkpt>
      <trkpt lat="46.53774" lon="4.53402">
        <ele>241</ele>
        <time>2022-09-20T14:10:06Z</time>
      </trkpt>
      <trkpt lat="46.53777" lon="4.53392">
        <ele>239.5</ele>
        <time>2022-09-20T14:10:14Z</time>
      </trkpt>
      <trkpt lat="46.53778" lon="4.5338">
        <ele>241.9</ele>
        <time>2022-09-20T14:10:20Z</time>
      </trkpt>
      <trkpt lat="46.53778" lon="4.5337">
        <ele>241.8</ele>
        <time>2022-09-20T14:10:31Z</time>
      </trkpt>
      <trkpt lat="46.53783" lon="4.53376">
        <ele>244.1</ele>
        <time>2022-09-20T14:10:47Z</time>
      </trkpt>
      <trkpt lat="46.53789" lon="4.53379">
        <ele>244.7</ele>
        <time>2022-09-20T14:10:59Z</time>
      </trkpt>
      <trkpt lat="46.53793" lon="4.5337">
        <ele>241.6</ele>
        <time>2022-09-20T14:11:05Z</time>
      </trkpt>
      <trkpt lat="46.53794" lon="4.53383">
        <ele>237.2</ele>
        <time>2022-09-20T14:11:10Z</time>
      </trkpt>
      <trkpt lat="46.53789" lon="4.53377">
        <ele>227</ele>
        <time>2022-09-20T14:11:21Z</time>
      </trkpt>
      <trkpt lat="46.5379" lon="4.53367">
        <ele>225.3</ele>
        <time>2022-09-20T14:11:27Z</time>
      </trkpt>
      <trkpt lat="46.53791" lon="4.53377">
        <ele>238.8</ele>
        <time>2022-09-20T14:12:35Z</time>
      </trkpt>
      <trkpt lat="46.53784" lon="4.53372">
        <ele>235.4</ele>
        <time>2022-09-20T14:13:10Z</time>
      </trkpt>
      <trkpt lat="46.53791" lon="4.53384">
        <ele>237</ele>
        <time>2022-09-20T14:13:18Z</time>
      </trkpt>
      <trkpt lat="46.53786" lon="4.53393">
        <ele>237.5</ele>
        <time>2022-09-20T14:13:26Z</time>
      </trkpt>
      <trkpt lat="46.5379" lon="4.53385">
        <ele>238.1</ele>
        <time>2022-09-20T14:13:35Z</time>
      </trkpt>
      <trkpt lat="46.53787" lon="4.53375">
        <ele>239.6</ele>
        <time>2022-09-20T14:13:42Z</time>
      </trkpt>
      <trkpt lat="46.5378" lon="4.53375">
        <ele>243.5</ele>
        <time>2022-09-20T14:14:12Z</time>
      </trkpt>
      <trkpt lat="46.53778" lon="4.53366">
        <ele>243.2</ele>
        <time>2022-09-20T14:14:53Z</time>
      </trkpt>
      <trkpt lat="46.53779" lon="4.53356">
        <ele>243.3</ele>
        <time>2022-09-20T14:14:59Z</time>
      </trkpt>
      <trkpt lat="46.53773" lon="4.53354">
        <ele>245</ele>
        <time>2022-09-20T14:15:08Z</time>
      </trkpt>
      <trkpt lat="46.53775" lon="4.53363">
        <ele>247.8</ele>
        <time>2022-09-20T14:16:38Z</time>
      </trkpt>
      <trkpt lat="46.53773" lon="4.53372">
        <ele>245.3</ele>
        <time>2022-09-20T14:17:01Z</time>
      </trkpt>
      <trkpt lat="46.53776" lon="4.53363">
        <ele>243.4</ele>
        <time>2022-09-20T14:17:19Z</time>
      </trkpt>
      <trkpt lat="46.53771" lon="4.53354">
        <ele>243.1</ele>
        <time>2022-09-20T14:18:12Z</time>
      </trkpt>
      <trkpt lat="46.53774" lon="4.53363">
        <ele>244.7</ele>
        <time>2022-09-20T14:18:44Z</time>
      </trkpt>
      <trkpt lat="46.53779" lon="4.5337">
        <ele>248.3</ele>
        <time>2022-09-20T14:18:56Z</time>
      </trkpt>
      <trkpt lat="46.53786" lon="4.5337">
        <ele>249.1</ele>
        <time>2022-09-20T14:19:06Z</time>
      </trkpt>
      <trkpt lat="46.5378" lon="4.53373">
        <ele>251.7</ele>
        <time>2022-09-20T14:19:37Z</time>
      </trkpt>
      <trkpt lat="46.53787" lon="4.53368">
        <ele>252.5</ele>
        <time>2022-09-20T14:19:44Z</time>
      </trkpt>
      <trkpt lat="46.5378" lon="4.53365">
        <ele>251.7</ele>
        <time>2022-09-20T14:20:09Z</time>
      </trkpt>
      <trkpt lat="46.53776" lon="4.53357">
        <ele>248.5</ele>
        <time>2022-09-20T14:21:13Z</time>
      </trkpt>
      <trkpt lat="46.53782" lon="4.53352">
        <ele>249.5</ele>
        <time>2022-09-20T14:21:46Z</time>
      </trkpt>
      <trkpt lat="46.53789" lon="4.53357">
        <ele>252.5</ele>
        <time>2022-09-20T14:21:58Z</time>
      </trkpt>
      <trkpt lat="46.53795" lon="4.5336">
        <ele>252.2</ele>
        <time>2022-09-20T14:22:03Z</time>
      </trkpt>
      <trkpt lat="46.53786" lon="4.53357">
        <ele>251.2</ele>
        <time>2022-09-20T14:22:20Z</time>
      </trkpt>
      <trkpt lat="46.5378" lon="4.53351">
        <ele>249.8</ele>
        <time>2022-09-20T14:22:29Z</time>
      </trkpt>
      <trkpt lat="46.53775" lon="4.53345">
        <ele>246.7</ele>
        <time>2022-09-20T14:22:36Z</time>
      </trkpt>
      <trkpt lat="46.53773" lon="4.53335">
        <ele>244.3</ele>
        <time>2022-09-20T14:22:42Z</time>
      </trkpt>
      <trkpt lat="46.53769" lon="4.53326">
        <ele>244.8</ele>
        <time>2022-09-20T14:22:48Z</time>
      </trkpt>
      <trkpt lat="46.53762" lon="4.53326">
        <ele>247.5</ele>
        <time>2022-09-20T14:22:55Z</time>
      </trkpt>
      <trkpt lat="46.53756" lon="4.53326">
        <ele>248.6</ele>
        <time>2022-09-20T14:23:01Z</time>
      </trkpt>
      <trkpt lat="46.53749" lon="4.53326">
        <ele>251.7</ele>
        <time>2022-09-20T14:23:07Z</time>
      </trkpt>
      <trkpt lat="46.53742" lon="4.53327">
        <ele>252.4</ele>
        <time>2022-09-20T14:23:14Z</time>
      </trkpt>
      <trkpt lat="46.53734" lon="4.53329">
        <ele>241.9</ele>
        <time>2022-09-20T14:24:23Z</time>
      </trkpt>
      <trkpt lat="46.53727" lon="4.53331">
        <ele>240.4</ele>
        <time>2022-09-20T14:24:30Z</time>
      </trkpt>
      <trkpt lat="46.5372" lon="4.53334">
        <ele>239</ele>
        <time>2022-09-20T14:24:36Z</time>
      </trkpt>
      <trkpt lat="46.53713" lon="4.5333">
        <ele>241.6</ele>
        <time>2022-09-20T14:24:42Z</time>
      </trkpt>
      <trkpt lat="46.53707" lon="4.53326">
        <ele>244.7</ele>
        <time>2022-09-20T14:24:48Z</time>
      </trkpt>
      <trkpt lat="46.53701" lon="4.5333">
        <ele>244.2</ele>
        <time>2022-09-20T14:24:55Z</time>
      </trkpt>
      <trkpt lat="46.53694" lon="4.53329">
        <ele>244.5</ele>
        <time>2022-09-20T14:25:01Z</time>
      </trkpt>
      <trkpt lat="46.53686" lon="4.53328">
        <ele>242.1</ele>
        <time>2022-09-20T14:25:08Z</time>
      </trkpt>
      <trkpt lat="46.53679" lon="4.53324">
        <ele>243.5</ele>
        <time>2022-09-20T14:25:14Z</time>
      </trkpt>
      <trkpt lat="46.53672" lon="4.5332">
        <ele>243.3</ele>
        <time>2022-09-20T14:25:20Z</time>
      </trkpt>
      <trkpt lat="46.53666" lon="4.53315">
        <ele>245.9</ele>
        <time>2022-09-20T14:25:26Z</time>
      </trkpt>
      <trkpt lat="46.5366" lon="4.53311">
        <ele>245.8</ele>
        <time>2022-09-20T14:25:31Z</time>
      </trkpt>
      <trkpt lat="46.53653" lon="4.53306">
        <ele>243.6</ele>
        <time>2022-09-20T14:25:38Z</time>
      </trkpt>
      <trkpt lat="46.53648" lon="4.53301">
        <ele>247.7</ele>
        <time>2022-09-20T14:25:43Z</time>
      </trkpt>
      <trkpt lat="46.53641" lon="4.53298">
        <ele>242.1</ele>
        <time>2022-09-20T14:25:49Z</time>
      </trkpt>
      <trkpt lat="46.53635" lon="4.53293">
        <ele>240.6</ele>
        <time>2022-09-20T14:25:55Z</time>
      </trkpt>
      <trkpt lat="46.53629" lon="4.53289">
        <ele>240.5</ele>
        <time>2022-09-20T14:26:01Z</time>
      </trkpt>
      <trkpt lat="46.53622" lon="4.53283">
        <ele>241.8</ele>
        <time>2022-09-20T14:26:08Z</time>
      </trkpt>
      <trkpt lat="46.53615" lon="4.53279">
        <ele>241.4</ele>
        <time>2022-09-20T14:26:14Z</time>
      </trkpt>
      <trkpt lat="46.53609" lon="4.53274">
        <ele>243</ele>
        <time>2022-09-20T14:26:20Z</time>
      </trkpt>
      <trkpt lat="46.53602" lon="4.53268">
        <ele>244.2</ele>
        <time>2022-09-20T14:26:26Z</time>
      </trkpt>
      <trkpt lat="46.53596" lon="4.53263">
        <ele>247.1</ele>
        <time>2022-09-20T14:26:33Z</time>
      </trkpt>
      <trkpt lat="46.53591" lon="4.53256">
        <ele>250.4</ele>
        <time>2022-09-20T14:26:38Z</time>
      </trkpt>
      <trkpt lat="46.53585" lon="4.5325">
        <ele>250.7</ele>
        <time>2022-09-20T14:26:43Z</time>
      </trkpt>
      <trkpt lat="46.53579" lon="4.53244">
        <ele>252.2</ele>
        <time>2022-09-20T14:26:49Z</time>
      </trkpt>
      <trkpt lat="46.53572" lon="4.53242">
        <ele>248</ele>
        <time>2022-09-20T14:26:55Z</time>
      </trkpt>
      <trkpt lat="46.53566" lon="4.53237">
        <ele>247.8</ele>
        <time>2022-09-20T14:27:00Z</time>
      </trkpt>
      <trkpt lat="46.53559" lon="4.53235">
        <ele>248.2</ele>
        <time>2022-09-20T14:27:09Z</time>
      </trkpt>
      <trkpt lat="46.53552" lon="4.53229">
        <ele>247.2</ele>
        <time>2022-09-20T14:27:15Z</time>
      </trkpt>
      <trkpt lat="46.53547" lon="4.53223">
        <ele>246.4</ele>
        <time>2022-09-20T14:27:20Z</time>
      </trkpt>
      <trkpt lat="46.5354" lon="4.53218">
        <ele>246.3</ele>
        <time>2022-09-20T14:27:26Z</time>
      </trkpt>
      <trkpt lat="46.53534" lon="4.53213">
        <ele>248.7</ele>
        <time>2022-09-20T14:27:31Z</time>
      </trkpt>
      <trkpt lat="46.53527" lon="4.53209">
        <ele>242</ele>
        <time>2022-09-20T14:27:37Z</time>
      </trkpt>
      <trkpt lat="46.53521" lon="4.53205">
        <ele>240.6</ele>
        <time>2022-09-20T14:27:44Z</time>
      </trkpt>
      <trkpt lat="46.53514" lon="4.53197">
        <ele>244.3</ele>
        <time>2022-09-20T14:27:50Z</time>
      </trkpt>
      <trkpt lat="46.53506" lon="4.53194">
        <ele>245.499</ele>
        <time>2022-09-20T14:27:56Z</time>
      </trkpt>
      <trkpt lat="46.535" lon="4.53188">
        <ele>245.999</ele>
        <time>2022-09-20T14:28:02Z</time>
      </trkpt>
      <trkpt lat="46.53494" lon="4.53183">
        <ele>248.499</ele>
        <time>2022-09-20T14:28:07Z</time>
      </trkpt>
      <trkpt lat="46.53487" lon="4.53179">
        <ele>246.099</ele>
        <time>2022-09-20T14:28:14Z</time>
      </trkpt>
      <trkpt lat="46.53479" lon="4.53177">
        <ele>244.999</ele>
        <time>2022-09-20T14:28:20Z</time>
      </trkpt>
      <trkpt lat="46.53472" lon="4.53174">
        <ele>248.499</ele>
        <time>2022-09-20T14:28:27Z</time>
      </trkpt>
      <trkpt lat="46.53465" lon="4.53172">
        <ele>241.899</ele>
        <time>2022-09-20T14:28:34Z</time>
      </trkpt>
      <trkpt lat="46.53457" lon="4.53165">
        <ele>245.799</ele>
        <time>2022-09-20T14:28:39Z</time>
      </trkpt>
      <trkpt lat="46.5345" lon="4.53162">
        <ele>247.199</ele>
        <time>2022-09-20T14:28:44Z</time>
      </trkpt>
      <trkpt lat="46.53444" lon="4.53158">
        <ele>248.799</ele>
        <time>2022-09-20T14:28:50Z</time>
      </trkpt>
      <trkpt lat="46.53436" lon="4.53152">
        <ele>252.999</ele>
        <time>2022-09-20T14:28:55Z</time>
      </trkpt>
      <trkpt lat="46.53429" lon="4.53147">
        <ele>254.399</ele>
        <time>2022-09-20T14:29:00Z</time>
      </trkpt>
      <trkpt lat="46.53423" lon="4.53141">
        <ele>255.699</ele>
        <time>2022-09-20T14:29:07Z</time>
      </trkpt>
      <trkpt lat="46.53418" lon="4.53133">
        <ele>255.999</ele>
        <time>2022-09-20T14:29:13Z</time>
      </trkpt>
      <trkpt lat="46.53412" lon="4.53126">
        <ele>252.199</ele>
        <time>2022-09-20T14:29:19Z</time>
      </trkpt>
      <trkpt lat="46.53409" lon="4.53116">
        <ele>252.399</ele>
        <time>2022-09-20T14:29:27Z</time>
      </trkpt>
      <trkpt lat="46.53409" lon="4.53106">
        <ele>256.499</ele>
        <time>2022-09-20T14:29:34Z</time>
      </trkpt>
      <trkpt lat="46.53408" lon="4.53096">
        <ele>255.999</ele>
        <time>2022-09-20T14:29:39Z</time>
      </trkpt>
      <trkpt lat="46.53409" lon="4.53086">
        <ele>258.599</ele>
        <time>2022-09-20T14:29:45Z</time>
      </trkpt>
      <trkpt lat="46.53407" lon="4.53077">
        <ele>258.499</ele>
        <time>2022-09-20T14:29:51Z</time>
      </trkpt>
      <trkpt lat="46.53402" lon="4.53069">
        <ele>254.399</ele>
        <time>2022-09-20T14:29:56Z</time>
      </trkpt>
      <trkpt lat="46.53401" lon="4.53059">
        <ele>253.599</ele>
        <time>2022-09-20T14:30:02Z</time>
      </trkpt>
      <trkpt lat="46.53399" lon="4.53048">
        <ele>257.099</ele>
        <time>2022-09-20T14:30:09Z</time>
      </trkpt>
      <trkpt lat="46.53397" lon="4.53038">
        <ele>253.599</ele>
        <time>2022-09-20T14:30:16Z</time>
      </trkpt>
      <trkpt lat="46.53396" lon="4.53027">
        <ele>253.899</ele>
        <time>2022-09-20T14:30:23Z</time>
      </trkpt>
      <trkpt lat="46.53395" lon="4.53018">
        <ele>253.999</ele>
        <time>2022-09-20T14:30:29Z</time>
      </trkpt>
      <trkpt lat="46.53391" lon="4.53009">
        <ele>253.999</ele>
        <time>2022-09-20T14:30:34Z</time>
      </trkpt>
      <trkpt lat="46.53389" lon="4.52999">
        <ele>253.299</ele>
        <time>2022-09-20T14:30:41Z</time>
      </trkpt>
      <trkpt lat="46.53389" lon="4.52987">
        <ele>254.299</ele>
        <time>2022-09-20T14:30:47Z</time>
      </trkpt>
      <trkpt lat="46.53387" lon="4.52978">
        <ele>254.699</ele>
        <time>2022-09-20T14:30:52Z</time>
      </trkpt>
      <trkpt lat="46.53384" lon="4.52969">
        <ele>261.999</ele>
        <time>2022-09-20T14:30:59Z</time>
      </trkpt>
      <trkpt lat="46.5338" lon="4.52961">
        <ele>261.199</ele>
        <time>2022-09-20T14:31:05Z</time>
      </trkpt>
      <trkpt lat="46.53381" lon="4.5295">
        <ele>258.199</ele>
        <time>2022-09-20T14:31:14Z</time>
      </trkpt>
      <trkpt lat="46.53375" lon="4.52942">
        <ele>252.199</ele>
        <time>2022-09-20T14:31:19Z</time>
      </trkpt>
      <trkpt lat="46.53369" lon="4.52935">
        <ele>250.499</ele>
        <time>2022-09-20T14:31:24Z</time>
      </trkpt>
      <trkpt lat="46.53364" lon="4.52922">
        <ele>251.599</ele>
        <time>2022-09-20T14:31:30Z</time>
      </trkpt>
      <trkpt lat="46.53361" lon="4.52913">
        <ele>255.699</ele>
        <time>2022-09-20T14:31:35Z</time>
      </trkpt>
      <trkpt lat="46.5336" lon="4.52903">
        <ele>258.699</ele>
        <time>2022-09-20T14:31:40Z</time>
      </trkpt>
      <trkpt lat="46.53355" lon="4.52894">
        <ele>255.999</ele>
        <time>2022-09-20T14:31:46Z</time>
      </trkpt>
      <trkpt lat="46.53352" lon="4.52886">
        <ele>256.399</ele>
        <time>2022-09-20T14:31:51Z</time>
      </trkpt>
      <trkpt lat="46.53349" lon="4.52876">
        <ele>253.599</ele>
        <time>2022-09-20T14:31:57Z</time>
      </trkpt>
      <trkpt lat="46.53345" lon="4.52865">
        <ele>252.999</ele>
        <time>2022-09-20T14:32:02Z</time>
      </trkpt>
      <trkpt lat="46.53341" lon="4.52856">
        <ele>257.599</ele>
        <time>2022-09-20T14:32:08Z</time>
      </trkpt>
      <trkpt lat="46.53337" lon="4.52847">
        <ele>256.399</ele>
        <time>2022-09-20T14:32:13Z</time>
      </trkpt>
      <trkpt lat="46.53331" lon="4.5284">
        <ele>254.299</ele>
        <time>2022-09-20T14:32:18Z</time>
      </trkpt>
      <trkpt lat="46.53325" lon="4.52832">
        <ele>261.299</ele>
        <time>2022-09-20T14:32:24Z</time>
      </trkpt>
      <trkpt lat="46.5332" lon="4.52826">
        <ele>259.499</ele>
        <time>2022-09-20T14:32:30Z</time>
      </trkpt>
      <trkpt lat="46.53313" lon="4.52822">
        <ele>257.899</ele>
        <time>2022-09-20T14:32:35Z</time>
      </trkpt>
      <trkpt lat="46.53307" lon="4.52818">
        <ele>251.199</ele>
        <time>2022-09-20T14:32:43Z</time>
      </trkpt>
      <trkpt lat="46.533" lon="4.52813">
        <ele>250.499</ele>
        <time>2022-09-20T14:32:48Z</time>
      </trkpt>
      <trkpt lat="46.53293" lon="4.52808">
        <ele>249.899</ele>
        <time>2022-09-20T14:32:53Z</time>
      </trkpt>
      <trkpt lat="46.53286" lon="4.52804">
        <ele>248.899</ele>
        <time>2022-09-20T14:32:59Z</time>
      </trkpt>
      <trkpt lat="46.5328" lon="4.528">
        <ele>248.399</ele>
        <time>2022-09-20T14:33:05Z</time>
      </trkpt>
      <trkpt lat="46.53273" lon="4.52793">
        <ele>252.999</ele>
        <time>2022-09-20T14:33:10Z</time>
      </trkpt>
      <trkpt lat="46.53268" lon="4.52787">
        <ele>253.099</ele>
        <time>2022-09-20T14:33:16Z</time>
      </trkpt>
      <trkpt lat="46.53261" lon="4.52781">
        <ele>253.499</ele>
        <time>2022-09-20T14:33:22Z</time>
      </trkpt>
      <trkpt lat="46.53255" lon="4.52775">
        <ele>254.098</ele>
        <time>2022-09-20T14:33:27Z</time>
      </trkpt>
      <trkpt lat="46.53249" lon="4.52769">
        <ele>253.998</ele>
        <time>2022-09-20T14:33:32Z</time>
      </trkpt>
      <trkpt lat="46.53241" lon="4.52765">
        <ele>252.998</ele>
        <time>2022-09-20T14:33:39Z</time>
      </trkpt>
      <trkpt lat="46.53235" lon="4.52761">
        <ele>252.098</ele>
        <time>2022-09-20T14:33:46Z</time>
      </trkpt>
      <trkpt lat="46.53229" lon="4.52754">
        <ele>249.498</ele>
        <time>2022-09-20T14:33:51Z</time>
      </trkpt>
      <trkpt lat="46.53226" lon="4.52742">
        <ele>249.398</ele>
        <time>2022-09-20T14:33:56Z</time>
      </trkpt>
      <trkpt lat="46.53223" lon="4.52733">
        <ele>252.698</ele>
        <time>2022-09-20T14:34:02Z</time>
      </trkpt>
      <trkpt lat="46.53228" lon="4.5272">
        <ele>256.198</ele>
        <time>2022-09-20T14:35:41Z</time>
      </trkpt>
      <trkpt lat="46.5323" lon="4.52711">
        <ele>253.698</ele>
        <time>2022-09-20T14:35:49Z</time>
      </trkpt>
      <trkpt lat="46.53232" lon="4.52701">
        <ele>252.998</ele>
        <time>2022-09-20T14:35:55Z</time>
      </trkpt>
      <trkpt lat="46.53232" lon="4.5269">
        <ele>252.498</ele>
        <time>2022-09-20T14:36:02Z</time>
      </trkpt>
      <trkpt lat="46.53232" lon="4.5268">
        <ele>255.498</ele>
        <time>2022-09-20T14:36:08Z</time>
      </trkpt>
      <trkpt lat="46.53229" lon="4.5267">
        <ele>258.698</ele>
        <time>2022-09-20T14:36:14Z</time>
      </trkpt>
      <trkpt lat="46.5323" lon="4.5266">
        <ele>254.998</ele>
        <time>2022-09-20T14:36:26Z</time>
      </trkpt>
      <trkpt lat="46.53229" lon="4.52649">
        <ele>253.498</ele>
        <time>2022-09-20T14:36:32Z</time>
      </trkpt>
      <trkpt lat="46.5323" lon="4.52639">
        <ele>252.698</ele>
        <time>2022-09-20T14:36:38Z</time>
      </trkpt>
      <trkpt lat="46.5323" lon="4.52629">
        <ele>252.598</ele>
        <time>2022-09-20T14:36:43Z</time>
      </trkpt>
      <trkpt lat="46.5323" lon="4.5262">
        <ele>254.498</ele>
        <time>2022-09-20T14:36:49Z</time>
      </trkpt>
      <trkpt lat="46.53229" lon="4.52609">
        <ele>255.798</ele>
        <time>2022-09-20T14:36:55Z</time>
      </trkpt>
      <trkpt lat="46.53228" lon="4.52599">
        <ele>256.598</ele>
        <time>2022-09-20T14:37:01Z</time>
      </trkpt>
      <trkpt lat="46.53229" lon="4.52589">
        <ele>256.398</ele>
        <time>2022-09-20T14:37:08Z</time>
      </trkpt>
      <trkpt lat="46.53228" lon="4.52579">
        <ele>258.698</ele>
        <time>2022-09-20T14:37:14Z</time>
      </trkpt>
      <trkpt lat="46.53228" lon="4.52569">
        <ele>256.198</ele>
        <time>2022-09-20T14:37:19Z</time>
      </trkpt>
      <trkpt lat="46.53227" lon="4.52559">
        <ele>257.098</ele>
        <time>2022-09-20T14:37:25Z</time>
      </trkpt>
      <trkpt lat="46.53225" lon="4.5255">
        <ele>254.998</ele>
        <time>2022-09-20T14:37:31Z</time>
      </trkpt>
      <trkpt lat="46.53225" lon="4.52539">
        <ele>253.998</ele>
        <time>2022-09-20T14:37:37Z</time>
      </trkpt>
      <trkpt lat="46.53225" lon="4.52529">
        <ele>259.498</ele>
        <time>2022-09-20T14:37:42Z</time>
      </trkpt>
      <trkpt lat="46.53231" lon="4.52521">
        <ele>258.898</ele>
        <time>2022-09-20T14:37:49Z</time>
      </trkpt>
      <trkpt lat="46.53239" lon="4.52516">
        <ele>260.298</ele>
        <time>2022-09-20T14:37:54Z</time>
      </trkpt>
      <trkpt lat="46.53246" lon="4.52512">
        <ele>260.898</ele>
        <time>2022-09-20T14:38:00Z</time>
      </trkpt>
      <trkpt lat="46.53252" lon="4.52506">
        <ele>263.698</ele>
        <time>2022-09-20T14:38:06Z</time>
      </trkpt>
      <trkpt lat="46.5326" lon="4.52502">
        <ele>260.198</ele>
        <time>2022-09-20T14:38:13Z</time>
      </trkpt>
      <trkpt lat="46.5327" lon="4.52499">
        <ele>261.098</ele>
        <time>2022-09-20T14:38:18Z</time>
      </trkpt>
      <trkpt lat="46.53274" lon="4.52491">
        <ele>263.198</ele>
        <time>2022-09-20T14:38:24Z</time>
      </trkpt>
      <trkpt lat="46.53279" lon="4.52482">
        <ele>263.198</ele>
        <time>2022-09-20T14:38:30Z</time>
      </trkpt>
      <trkpt lat="46.53284" lon="4.52474">
        <ele>262.898</ele>
        <time>2022-09-20T14:38:35Z</time>
      </trkpt>
      <trkpt lat="46.53289" lon="4.52467">
        <ele>259.898</ele>
        <time>2022-09-20T14:38:40Z</time>
      </trkpt>
      <trkpt lat="46.5329" lon="4.52457">
        <ele>258.698</ele>
        <time>2022-09-20T14:38:47Z</time>
      </trkpt>
      <trkpt lat="46.53291" lon="4.52446">
        <ele>258.198</ele>
        <time>2022-09-20T14:38:53Z</time>
      </trkpt>
      <trkpt lat="46.53294" lon="4.52436">
        <ele>257.898</ele>
        <time>2022-09-20T14:38:58Z</time>
      </trkpt>
      <trkpt lat="46.53296" lon="4.52424">
        <ele>257.498</ele>
        <time>2022-09-20T14:39:04Z</time>
      </trkpt>
      <trkpt lat="46.53296" lon="4.52413">
        <ele>255.398</ele>
        <time>2022-09-20T14:39:10Z</time>
      </trkpt>
      <trkpt lat="46.53297" lon="4.52402">
        <ele>254.698</ele>
        <time>2022-09-20T14:39:15Z</time>
      </trkpt>
      <trkpt lat="46.53297" lon="4.52392">
        <ele>255.598</ele>
        <time>2022-09-20T14:39:22Z</time>
      </trkpt>
      <trkpt lat="46.53296" lon="4.52382">
        <ele>255.198</ele>
        <time>2022-09-20T14:39:27Z</time>
      </trkpt>
      <trkpt lat="46.53298" lon="4.52373">
        <ele>254.698</ele>
        <time>2022-09-20T14:39:32Z</time>
      </trkpt>
      <trkpt lat="46.53305" lon="4.5236">
        <ele>255.698</ele>
        <time>2022-09-20T14:39:38Z</time>
      </trkpt>
      <trkpt lat="46.53306" lon="4.5235">
        <ele>251.698</ele>
        <time>2022-09-20T14:39:43Z</time>
      </trkpt>
      <trkpt lat="46.53306" lon="4.52341">
        <ele>251.798</ele>
        <time>2022-09-20T14:39:49Z</time>
      </trkpt>
      <trkpt lat="46.53301" lon="4.52332">
        <ele>257.798</ele>
        <time>2022-09-20T14:39:56Z</time>
      </trkpt>
      <trkpt lat="46.53295" lon="4.52326">
        <ele>257.998</ele>
        <time>2022-09-20T14:40:05Z</time>
      </trkpt>
      <trkpt lat="46.53289" lon="4.52321">
        <ele>257.298</ele>
        <time>2022-09-20T14:40:12Z</time>
      </trkpt>
      <trkpt lat="46.53279" lon="4.52312">
        <ele>256.198</ele>
        <time>2022-09-20T14:40:18Z</time>
      </trkpt>
      <trkpt lat="46.53273" lon="4.52309">
        <ele>256.398</ele>
        <time>2022-09-20T14:40:23Z</time>
      </trkpt>
      <trkpt lat="46.53268" lon="4.52301">
        <ele>257.698</ele>
        <time>2022-09-20T14:40:29Z</time>
      </trkpt>
      <trkpt lat="46.53262" lon="4.52295">
        <ele>258.798</ele>
        <time>2022-09-20T14:40:35Z</time>
      </trkpt>
      <trkpt lat="46.53257" lon="4.52289">
        <ele>260.098</ele>
        <time>2022-09-20T14:40:42Z</time>
      </trkpt>
      <trkpt lat="46.53251" lon="4.52282">
        <ele>261.798</ele>
        <time>2022-09-20T14:40:47Z</time>
      </trkpt>
      <trkpt lat="46.53243" lon="4.52277">
        <ele>262.798</ele>
        <time>2022-09-20T14:40:52Z</time>
      </trkpt>
      <trkpt lat="46.53238" lon="4.52271">
        <ele>263.598</ele>
        <time>2022-09-20T14:40:59Z</time>
      </trkpt>
      <trkpt lat="46.5323" lon="4.52265">
        <ele>260.698</ele>
        <time>2022-09-20T14:41:04Z</time>
      </trkpt>
      <trkpt lat="46.53224" lon="4.52259">
        <ele>259.198</ele>
        <time>2022-09-20T14:41:10Z</time>
      </trkpt>
      <trkpt lat="46.53218" lon="4.52252">
        <ele>258.398</ele>
        <time>2022-09-20T14:41:15Z</time>
      </trkpt>
      <trkpt lat="46.53211" lon="4.52246">
        <ele>259.398</ele>
        <time>2022-09-20T14:41:20Z</time>
      </trkpt>
      <trkpt lat="46.53205" lon="4.52241">
        <ele>259.498</ele>
        <time>2022-09-20T14:41:25Z</time>
      </trkpt>
      <trkpt lat="46.532" lon="4.52236">
        <ele>259.398</ele>
        <time>2022-09-20T14:41:35Z</time>
      </trkpt>
      <trkpt lat="46.53194" lon="4.52228">
        <ele>265.498</ele>
        <time>2022-09-20T14:41:57Z</time>
      </trkpt>
      <trkpt lat="46.53187" lon="4.52222">
        <ele>267.698</ele>
        <time>2022-09-20T14:42:02Z</time>
      </trkpt>
      <trkpt lat="46.5318" lon="4.52215">
        <ele>267.598</ele>
        <time>2022-09-20T14:42:07Z</time>
      </trkpt>
      <trkpt lat="46.53174" lon="4.52209">
        <ele>264.898</ele>
        <time>2022-09-20T14:42:12Z</time>
      </trkpt>
      <trkpt lat="46.53168" lon="4.52203">
        <ele>263.398</ele>
        <time>2022-09-20T14:42:21Z</time>
      </trkpt>
      <trkpt lat="46.53161" lon="4.52197">
        <ele>261.298</ele>
        <time>2022-09-20T14:42:26Z</time>
      </trkpt>
      <trkpt lat="46.53155" lon="4.52191">
        <ele>261.298</ele>
        <time>2022-09-20T14:42:33Z</time>
      </trkpt>
      <trkpt lat="46.53151" lon="4.52183">
        <ele>262.298</ele>
        <time>2022-09-20T14:42:38Z</time>
      </trkpt>
      <trkpt lat="46.53145" lon="4.52173">
        <ele>269.198</ele>
        <time>2022-09-20T14:42:43Z</time>
      </trkpt>
      <trkpt lat="46.5314" lon="4.52163">
        <ele>257.398</ele>
        <time>2022-09-20T14:42:52Z</time>
      </trkpt>
      <trkpt lat="46.5314" lon="4.52151">
        <ele>263.298</ele>
        <time>2022-09-20T14:42:58Z</time>
      </trkpt>
      <trkpt lat="46.5314" lon="4.52141">
        <ele>263.598</ele>
        <time>2022-09-20T14:43:04Z</time>
      </trkpt>
      <trkpt lat="46.53141" lon="4.52127">
        <ele>257.498</ele>
        <time>2022-09-20T14:43:10Z</time>
      </trkpt>
      <trkpt lat="46.53141" lon="4.52116">
        <ele>260.398</ele>
        <time>2022-09-20T14:43:15Z</time>
      </trkpt>
      <trkpt lat="46.5314" lon="4.52106">
        <ele>258.598</ele>
        <time>2022-09-20T14:43:21Z</time>
      </trkpt>
      <trkpt lat="46.53139" lon="4.52096">
        <ele>263.198</ele>
        <time>2022-09-20T14:43:27Z</time>
      </trkpt>
      <trkpt lat="46.53138" lon="4.52085">
        <ele>263.598</ele>
        <time>2022-09-20T14:43:33Z</time>
      </trkpt>
      <trkpt lat="46.53138" lon="4.52075">
        <ele>259.498</ele>
        <time>2022-09-20T14:43:40Z</time>
      </trkpt>
      <trkpt lat="46.53136" lon="4.52066">
        <ele>258.698</ele>
        <time>2022-09-20T14:43:45Z</time>
      </trkpt>
      <trkpt lat="46.53136" lon="4.52055">
        <ele>259.098</ele>
        <time>2022-09-20T14:43:50Z</time>
      </trkpt>
      <trkpt lat="46.53137" lon="4.52045">
        <ele>261.998</ele>
        <time>2022-09-20T14:43:56Z</time>
      </trkpt>
      <trkpt lat="46.53137" lon="4.52035">
        <ele>261.898</ele>
        <time>2022-09-20T14:44:02Z</time>
      </trkpt>
      <trkpt lat="46.53136" lon="4.52025">
        <ele>261.998</ele>
        <time>2022-09-20T14:44:09Z</time>
      </trkpt>
      <trkpt lat="46.53137" lon="4.52015">
        <ele>260.498</ele>
        <time>2022-09-20T14:44:14Z</time>
      </trkpt>
      <trkpt lat="46.53137" lon="4.52005">
        <ele>262.298</ele>
        <time>2022-09-20T14:44:20Z</time>
      </trkpt>
      <trkpt lat="46.53137" lon="4.51994">
        <ele>261.598</ele>
        <time>2022-09-20T14:44:27Z</time>
      </trkpt>
      <trkpt lat="46.53135" lon="4.51985">
        <ele>260.398</ele>
        <time>2022-09-20T14:44:33Z</time>
      </trkpt>
      <trkpt lat="46.53133" lon="4.51975">
        <ele>260.098</ele>
        <time>2022-09-20T14:44:38Z</time>
      </trkpt>
      <trkpt lat="46.53134" lon="4.51965">
        <ele>261.698</ele>
        <time>2022-09-20T14:44:44Z</time>
      </trkpt>
      <trkpt lat="46.53134" lon="4.51955">
        <ele>263.298</ele>
        <time>2022-09-20T14:44:50Z</time>
      </trkpt>
      <trkpt lat="46.53133" lon="4.51945">
        <ele>263.198</ele>
        <time>2022-09-20T14:44:55Z</time>
      </trkpt>
      <trkpt lat="46.53132" lon="4.51935">
        <ele>262.098</ele>
        <time>2022-09-20T14:45:00Z</time>
      </trkpt>
      <trkpt lat="46.53129" lon="4.51925">
        <ele>261.298</ele>
        <time>2022-09-20T14:45:06Z</time>
      </trkpt>
      <trkpt lat="46.53126" lon="4.51914">
        <ele>260.198</ele>
        <time>2022-09-20T14:45:13Z</time>
      </trkpt>
      <trkpt lat="46.53126" lon="4.51903">
        <ele>260.997</ele>
        <time>2022-09-20T14:45:19Z</time>
      </trkpt>
      <trkpt lat="46.53123" lon="4.51893">
        <ele>262.097</ele>
        <time>2022-09-20T14:45:26Z</time>
      </trkpt>
      <trkpt lat="46.53122" lon="4.51882">
        <ele>261.097</ele>
        <time>2022-09-20T14:45:32Z</time>
      </trkpt>
      <trkpt lat="46.53121" lon="4.51872">
        <ele>261.597</ele>
        <time>2022-09-20T14:45:38Z</time>
      </trkpt>
      <trkpt lat="46.53119" lon="4.51863">
        <ele>262.597</ele>
        <time>2022-09-20T14:45:44Z</time>
      </trkpt>
      <trkpt lat="46.53116" lon="4.51851">
        <ele>263.797</ele>
        <time>2022-09-20T14:45:50Z</time>
      </trkpt>
      <trkpt lat="46.53117" lon="4.51841">
        <ele>265.797</ele>
        <time>2022-09-20T14:45:55Z</time>
      </trkpt>
      <trkpt lat="46.53118" lon="4.51831">
        <ele>267.697</ele>
        <time>2022-09-20T14:46:01Z</time>
      </trkpt>
      <trkpt lat="46.53116" lon="4.5182">
        <ele>268.697</ele>
        <time>2022-09-20T14:46:08Z</time>
      </trkpt>
      <trkpt lat="46.53115" lon="4.51811">
        <ele>269.197</ele>
        <time>2022-09-20T14:46:38Z</time>
      </trkpt>
      <trkpt lat="46.53117" lon="4.51802">
        <ele>269.797</ele>
        <time>2022-09-20T14:46:43Z</time>
      </trkpt>
      <trkpt lat="46.5312" lon="4.51792">
        <ele>270.597</ele>
        <time>2022-09-20T14:46:50Z</time>
      </trkpt>
      <trkpt lat="46.53125" lon="4.51785">
        <ele>270.697</ele>
        <time>2022-09-20T14:46:55Z</time>
      </trkpt>
      <trkpt lat="46.53131" lon="4.5178">
        <ele>270.897</ele>
        <time>2022-09-20T14:47:01Z</time>
      </trkpt>
      <trkpt lat="46.53136" lon="4.51773">
        <ele>273.297</ele>
        <time>2022-09-20T14:47:09Z</time>
      </trkpt>
      <trkpt lat="46.53143" lon="4.51769">
        <ele>274.097</ele>
        <time>2022-09-20T14:47:17Z</time>
      </trkpt>
      <trkpt lat="46.53149" lon="4.51765">
        <ele>274.797</ele>
        <time>2022-09-20T14:47:24Z</time>
      </trkpt>
      <trkpt lat="46.53157" lon="4.51761">
        <ele>275.297</ele>
        <time>2022-09-20T14:47:30Z</time>
      </trkpt>
      <trkpt lat="46.53163" lon="4.51756">
        <ele>275.197</ele>
        <time>2022-09-20T14:47:38Z</time>
      </trkpt>
      <trkpt lat="46.5317" lon="4.51752">
        <ele>274.898</ele>
        <time>2022-09-20T14:47:46Z</time>
      </trkpt>
      <trkpt lat="46.53178" lon="4.51747">
        <ele>273.798</ele>
        <time>2022-09-20T14:47:53Z</time>
      </trkpt>
      <trkpt lat="46.53185" lon="4.51746">
        <ele>275.998</ele>
        <time>2022-09-20T14:47:59Z</time>
      </trkpt>
      <trkpt lat="46.53192" lon="4.51744">
        <ele>275.598</ele>
        <time>2022-09-20T14:48:04Z</time>
      </trkpt>
      <trkpt lat="46.532" lon="4.51744">
        <ele>275.098</ele>
        <time>2022-09-20T14:48:10Z</time>
      </trkpt>
      <trkpt lat="46.53207" lon="4.51744">
        <ele>276.498</ele>
        <time>2022-09-20T14:48:16Z</time>
      </trkpt>
      <trkpt lat="46.53213" lon="4.51746">
        <ele>276.298</ele>
        <time>2022-09-20T14:48:22Z</time>
      </trkpt>
      <trkpt lat="46.5322" lon="4.51747">
        <ele>276.598</ele>
        <time>2022-09-20T14:48:28Z</time>
      </trkpt>
      <trkpt lat="46.53228" lon="4.51744">
        <ele>276.798</ele>
        <time>2022-09-20T14:48:34Z</time>
      </trkpt>
      <trkpt lat="46.53234" lon="4.51744">
        <ele>277.298</ele>
        <time>2022-09-20T14:48:41Z</time>
      </trkpt>
      <trkpt lat="46.53241" lon="4.51742">
        <ele>277.098</ele>
        <time>2022-09-20T14:48:46Z</time>
      </trkpt>
      <trkpt lat="46.53247" lon="4.51743">
        <ele>278.898</ele>
        <time>2022-09-20T14:48:51Z</time>
      </trkpt>
      <trkpt lat="46.53255" lon="4.51742">
        <ele>278.598</ele>
        <time>2022-09-20T14:48:56Z</time>
      </trkpt>
      <trkpt lat="46.53262" lon="4.51742">
        <ele>278.498</ele>
        <time>2022-09-20T14:49:03Z</time>
      </trkpt>
      <trkpt lat="46.5327" lon="4.5174">
        <ele>277.598</ele>
        <time>2022-09-20T14:49:08Z</time>
      </trkpt>
      <trkpt lat="46.53279" lon="4.51738">
        <ele>278.398</ele>
        <time>2022-09-20T14:49:14Z</time>
      </trkpt>
      <trkpt lat="46.53286" lon="4.51738">
        <ele>279.398</ele>
        <time>2022-09-20T14:49:19Z</time>
      </trkpt>
      <trkpt lat="46.53293" lon="4.51734">
        <ele>281.398</ele>
        <time>2022-09-20T14:49:24Z</time>
      </trkpt>
      <trkpt lat="46.533" lon="4.51729">
        <ele>282.398</ele>
        <time>2022-09-20T14:49:30Z</time>
      </trkpt>
      <trkpt lat="46.53307" lon="4.51725">
        <ele>281.898</ele>
        <time>2022-09-20T14:49:37Z</time>
      </trkpt>
      <trkpt lat="46.53315" lon="4.5172">
        <ele>283.798</ele>
        <time>2022-09-20T14:49:42Z</time>
      </trkpt>
      <trkpt lat="46.53322" lon="4.51715">
        <ele>283.798</ele>
        <time>2022-09-20T14:49:47Z</time>
      </trkpt>
      <trkpt lat="46.53328" lon="4.51711">
        <ele>280.898</ele>
        <time>2022-09-20T14:49:53Z</time>
      </trkpt>
      <trkpt lat="46.53334" lon="4.51705">
        <ele>280.598</ele>
        <time>2022-09-20T14:49:58Z</time>
      </trkpt>
      <trkpt lat="46.53338" lon="4.51696">
        <ele>281.098</ele>
        <time>2022-09-20T14:50:03Z</time>
      </trkpt>
      <trkpt lat="46.53343" lon="4.51688">
        <ele>281.198</ele>
        <time>2022-09-20T14:50:09Z</time>
      </trkpt>
      <trkpt lat="46.53348" lon="4.51681">
        <ele>282.298</ele>
        <time>2022-09-20T14:50:15Z</time>
      </trkpt>
      <trkpt lat="46.53356" lon="4.51677">
        <ele>282.498</ele>
        <time>2022-09-20T14:50:20Z</time>
      </trkpt>
      <trkpt lat="46.53364" lon="4.51671">
        <ele>283.798</ele>
        <time>2022-09-20T14:50:26Z</time>
      </trkpt>
      <trkpt lat="46.53369" lon="4.51662">
        <ele>283.198</ele>
        <time>2022-09-20T14:50:33Z</time>
      </trkpt>
      <trkpt lat="46.53373" lon="4.51654">
        <ele>282.098</ele>
        <time>2022-09-20T14:50:38Z</time>
      </trkpt>
      <trkpt lat="46.53378" lon="4.51645">
        <ele>281.598</ele>
        <time>2022-09-20T14:50:43Z</time>
      </trkpt>
      <trkpt lat="46.53383" lon="4.51638">
        <ele>280.998</ele>
        <time>2022-09-20T14:50:49Z</time>
      </trkpt>
      <trkpt lat="46.53391" lon="4.51633">
        <ele>279.698</ele>
        <time>2022-09-20T14:50:54Z</time>
      </trkpt>
      <trkpt lat="46.53397" lon="4.51629">
        <ele>279.498</ele>
        <time>2022-09-20T14:50:59Z</time>
      </trkpt>
      <trkpt lat="46.53403" lon="4.51621">
        <ele>278.498</ele>
        <time>2022-09-20T14:51:04Z</time>
      </trkpt>
      <trkpt lat="46.53409" lon="4.51613">
        <ele>277.798</ele>
        <time>2022-09-20T14:51:09Z</time>
      </trkpt>
      <trkpt lat="46.53416" lon="4.51607">
        <ele>277.198</ele>
        <time>2022-09-20T14:51:14Z</time>
      </trkpt>
      <trkpt lat="46.53421" lon="4.51597">
        <ele>278.398</ele>
        <time>2022-09-20T14:51:19Z</time>
      </trkpt>
      <trkpt lat="46.53423" lon="4.51588">
        <ele>279.798</ele>
        <time>2022-09-20T14:51:26Z</time>
      </trkpt>
      <trkpt lat="46.53428" lon="4.51582">
        <ele>279.098</ele>
        <time>2022-09-20T14:51:31Z</time>
      </trkpt>
      <trkpt lat="46.53434" lon="4.51574">
        <ele>275.598</ele>
        <time>2022-09-20T14:51:36Z</time>
      </trkpt>
      <trkpt lat="46.53439" lon="4.51562">
        <ele>270.998</ele>
        <time>2022-09-20T14:51:42Z</time>
      </trkpt>
      <trkpt lat="46.53442" lon="4.51553">
        <ele>268.898</ele>
        <time>2022-09-20T14:51:48Z</time>
      </trkpt>
      <trkpt lat="46.53447" lon="4.51546">
        <ele>266.498</ele>
        <time>2022-09-20T14:51:54Z</time>
      </trkpt>
      <trkpt lat="46.53454" lon="4.5154">
        <ele>265.098</ele>
        <time>2022-09-20T14:51:59Z</time>
      </trkpt>
      <trkpt lat="46.53458" lon="4.51531">
        <ele>264.198</ele>
        <time>2022-09-20T14:52:04Z</time>
      </trkpt>
      <trkpt lat="46.53463" lon="4.51523">
        <ele>263.998</ele>
        <time>2022-09-20T14:52:09Z</time>
      </trkpt>
      <trkpt lat="46.53468" lon="4.51516">
        <ele>263.198</ele>
        <time>2022-09-20T14:52:14Z</time>
      </trkpt>
      <trkpt lat="46.53472" lon="4.51508">
        <ele>262.498</ele>
        <time>2022-09-20T14:52:20Z</time>
      </trkpt>
      <trkpt lat="46.53479" lon="4.515">
        <ele>262.398</ele>
        <time>2022-09-20T14:52:26Z</time>
      </trkpt>
      <trkpt lat="46.53486" lon="4.51494">
        <ele>261.398</ele>
        <time>2022-09-20T14:52:32Z</time>
      </trkpt>
      <trkpt lat="46.53495" lon="4.51485">
        <ele>262.098</ele>
        <time>2022-09-20T14:52:38Z</time>
      </trkpt>
      <trkpt lat="46.53499" lon="4.51477">
        <ele>260.498</ele>
        <time>2022-09-20T14:52:45Z</time>
      </trkpt>
      <trkpt lat="46.53502" lon="4.51465">
        <ele>261.398</ele>
        <time>2022-09-20T14:52:50Z</time>
      </trkpt>
      <trkpt lat="46.53506" lon="4.51458">
        <ele>261.698</ele>
        <time>2022-09-20T14:52:56Z</time>
      </trkpt>
      <trkpt lat="46.53515" lon="4.51449">
        <ele>263.998</ele>
        <time>2022-09-20T14:53:02Z</time>
      </trkpt>
      <trkpt lat="46.5352" lon="4.5144">
        <ele>264.898</ele>
        <time>2022-09-20T14:53:08Z</time>
      </trkpt>
      <trkpt lat="46.53528" lon="4.5143">
        <ele>266.398</ele>
        <time>2022-09-20T14:53:14Z</time>
      </trkpt>
      <trkpt lat="46.53531" lon="4.51422">
        <ele>267.698</ele>
        <time>2022-09-20T14:53:20Z</time>
      </trkpt>
      <trkpt lat="46.53536" lon="4.5141">
        <ele>267.798</ele>
        <time>2022-09-20T14:53:26Z</time>
      </trkpt>
      <trkpt lat="46.5354" lon="4.51401">
        <ele>266.098</ele>
        <time>2022-09-20T14:53:31Z</time>
      </trkpt>
      <trkpt lat="46.53542" lon="4.51391">
        <ele>265.398</ele>
        <time>2022-09-20T14:53:37Z</time>
      </trkpt>
      <trkpt lat="46.53547" lon="4.51382">
        <ele>262.698</ele>
        <time>2022-09-20T14:53:43Z</time>
      </trkpt>
      <trkpt lat="46.53552" lon="4.51374">
        <ele>261.498</ele>
        <time>2022-09-20T14:53:48Z</time>
      </trkpt>
      <trkpt lat="46.53557" lon="4.51366">
        <ele>260.298</ele>
        <time>2022-09-20T14:53:56Z</time>
      </trkpt>
      <trkpt lat="46.53562" lon="4.51357">
        <ele>260.598</ele>
        <time>2022-09-20T14:54:02Z</time>
      </trkpt>
      <trkpt lat="46.53567" lon="4.51349">
        <ele>259.598</ele>
        <time>2022-09-20T14:54:07Z</time>
      </trkpt>
      <trkpt lat="46.53573" lon="4.51344">
        <ele>261.898</ele>
        <time>2022-09-20T14:54:13Z</time>
      </trkpt>
      <trkpt lat="46.53577" lon="4.51335">
        <ele>260.098</ele>
        <time>2022-09-20T14:54:18Z</time>
      </trkpt>
      <trkpt lat="46.53583" lon="4.51328">
        <ele>258.898</ele>
        <time>2022-09-20T14:54:24Z</time>
      </trkpt>
      <trkpt lat="46.53588" lon="4.51321">
        <ele>258.798</ele>
        <time>2022-09-20T14:54:29Z</time>
      </trkpt>
      <trkpt lat="46.53592" lon="4.51313">
        <ele>257.198</ele>
        <time>2022-09-20T14:54:35Z</time>
      </trkpt>
      <trkpt lat="46.53598" lon="4.51307">
        <ele>257.098</ele>
        <time>2022-09-20T14:54:40Z</time>
      </trkpt>
      <trkpt lat="46.53608" lon="4.513">
        <ele>257.798</ele>
        <time>2022-09-20T14:54:46Z</time>
      </trkpt>
      <trkpt lat="46.53615" lon="4.51298">
        <ele>255.598</ele>
        <time>2022-09-20T14:54:52Z</time>
      </trkpt>
      <trkpt lat="46.53622" lon="4.51297">
        <ele>253.998</ele>
        <time>2022-09-20T14:54:58Z</time>
      </trkpt>
      <trkpt lat="46.53631" lon="4.51298">
        <ele>254.198</ele>
        <time>2022-09-20T14:55:03Z</time>
      </trkpt>
      <trkpt lat="46.5364" lon="4.51301">
        <ele>255.198</ele>
        <time>2022-09-20T14:55:08Z</time>
      </trkpt>
      <trkpt lat="46.53648" lon="4.51303">
        <ele>255.598</ele>
        <time>2022-09-20T14:55:14Z</time>
      </trkpt>
      <trkpt lat="46.53655" lon="4.51304">
        <ele>257.899</ele>
        <time>2022-09-20T14:55:19Z</time>
      </trkpt>
      <trkpt lat="46.53665" lon="4.51305">
        <ele>257.699</ele>
        <time>2022-09-20T14:55:24Z</time>
      </trkpt>
      <trkpt lat="46.53672" lon="4.51305">
        <ele>256.399</ele>
        <time>2022-09-20T14:55:29Z</time>
      </trkpt>
      <trkpt lat="46.53675" lon="4.51297">
        <ele>253.099</ele>
        <time>2022-09-20T14:55:35Z</time>
      </trkpt>
      <trkpt lat="46.53681" lon="4.51288">
        <ele>251.999</ele>
        <time>2022-09-20T14:55:41Z</time>
      </trkpt>
      <trkpt lat="46.53683" lon="4.51277">
        <ele>252.899</ele>
        <time>2022-09-20T14:55:46Z</time>
      </trkpt>
      <trkpt lat="46.53685" lon="4.51267">
        <ele>253.399</ele>
        <time>2022-09-20T14:55:51Z</time>
      </trkpt>
      <trkpt lat="46.53686" lon="4.51257">
        <ele>251.899</ele>
        <time>2022-09-20T14:55:56Z</time>
      </trkpt>
      <trkpt lat="46.53691" lon="4.51245">
        <ele>252.699</ele>
        <time>2022-09-20T14:56:02Z</time>
      </trkpt>
      <trkpt lat="46.53695" lon="4.51235">
        <ele>253.699</ele>
        <time>2022-09-20T14:56:07Z</time>
      </trkpt>
      <trkpt lat="46.53699" lon="4.51226">
        <ele>252.999</ele>
        <time>2022-09-20T14:56:12Z</time>
      </trkpt>
      <trkpt lat="46.53705" lon="4.51217">
        <ele>250.899</ele>
        <time>2022-09-20T14:56:18Z</time>
      </trkpt>
      <trkpt lat="46.5371" lon="4.51209">
        <ele>250.699</ele>
        <time>2022-09-20T14:56:23Z</time>
      </trkpt>
      <trkpt lat="46.53715" lon="4.51201">
        <ele>249.199</ele>
        <time>2022-09-20T14:56:29Z</time>
      </trkpt>
      <trkpt lat="46.53719" lon="4.51194">
        <ele>247.399</ele>
        <time>2022-09-20T14:56:34Z</time>
      </trkpt>
      <trkpt lat="46.53725" lon="4.51185">
        <ele>247.299</ele>
        <time>2022-09-20T14:56:39Z</time>
      </trkpt>
      <trkpt lat="46.53729" lon="4.51174">
        <ele>248.599</ele>
        <time>2022-09-20T14:56:44Z</time>
      </trkpt>
      <trkpt lat="46.53733" lon="4.51165">
        <ele>247.999</ele>
        <time>2022-09-20T14:56:49Z</time>
      </trkpt>
      <trkpt lat="46.53737" lon="4.51157">
        <ele>246.799</ele>
        <time>2022-09-20T14:56:54Z</time>
      </trkpt>
      <trkpt lat="46.53741" lon="4.51149">
        <ele>245.599</ele>
        <time>2022-09-20T14:56:59Z</time>
      </trkpt>
      <trkpt lat="46.53744" lon="4.5114">
        <ele>246.099</ele>
        <time>2022-09-20T14:57:04Z</time>
      </trkpt>
      <trkpt lat="46.53748" lon="4.5113">
        <ele>247.599</ele>
        <time>2022-09-20T14:57:09Z</time>
      </trkpt>
      <trkpt lat="46.53751" lon="4.51119">
        <ele>248.499</ele>
        <time>2022-09-20T14:57:15Z</time>
      </trkpt>
      <trkpt lat="46.53756" lon="4.51111">
        <ele>247.699</ele>
        <time>2022-09-20T14:57:20Z</time>
      </trkpt>
      <trkpt lat="46.53762" lon="4.511">
        <ele>246.799</ele>
        <time>2022-09-20T14:57:26Z</time>
      </trkpt>
      <trkpt lat="46.53766" lon="4.51092">
        <ele>246.399</ele>
        <time>2022-09-20T14:57:31Z</time>
      </trkpt>
      <trkpt lat="46.5377" lon="4.51083">
        <ele>246.099</ele>
        <time>2022-09-20T14:57:36Z</time>
      </trkpt>
      <trkpt lat="46.53774" lon="4.51073">
        <ele>245.099</ele>
        <time>2022-09-20T14:57:42Z</time>
      </trkpt>
      <trkpt lat="46.53779" lon="4.51065">
        <ele>242.699</ele>
        <time>2022-09-20T14:57:48Z</time>
      </trkpt>
      <trkpt lat="46.53784" lon="4.51055">
        <ele>240.399</ele>
        <time>2022-09-20T14:57:54Z</time>
      </trkpt>
      <trkpt lat="46.53792" lon="4.5105">
        <ele>242.399</ele>
        <time>2022-09-20T14:57:59Z</time>
      </trkpt>
      <trkpt lat="46.53798" lon="4.51044">
        <ele>244.099</ele>
        <time>2022-09-20T14:58:05Z</time>
      </trkpt>
      <trkpt lat="46.53808" lon="4.5104">
        <ele>246.099</ele>
        <time>2022-09-20T14:58:10Z</time>
      </trkpt>
      <trkpt lat="46.53818" lon="4.51038">
        <ele>244.899</ele>
        <time>2022-09-20T14:58:15Z</time>
      </trkpt>
      <trkpt lat="46.53825" lon="4.51038">
        <ele>246.399</ele>
        <time>2022-09-20T14:58:20Z</time>
      </trkpt>
      <trkpt lat="46.53834" lon="4.51037">
        <ele>247.699</ele>
        <time>2022-09-20T14:58:26Z</time>
      </trkpt>
      <trkpt lat="46.5384" lon="4.51039">
        <ele>248.899</ele>
        <time>2022-09-20T14:58:32Z</time>
      </trkpt>
      <trkpt lat="46.53847" lon="4.51037">
        <ele>251.199</ele>
        <time>2022-09-20T14:58:41Z</time>
      </trkpt>
      <trkpt lat="46.53852" lon="4.5103">
        <ele>252.799</ele>
        <time>2022-09-20T14:59:33Z</time>
      </trkpt>
      <trkpt lat="46.53853" lon="4.5102">
        <ele>255.899</ele>
        <time>2022-09-20T15:01:17Z</time>
      </trkpt>
      <trkpt lat="46.53857" lon="4.51012">
        <ele>254.699</ele>
        <time>2022-09-20T15:01:25Z</time>
      </trkpt>
      <trkpt lat="46.53859" lon="4.51002">
        <ele>251.399</ele>
        <time>2022-09-20T15:01:32Z</time>
      </trkpt>
      <trkpt lat="46.53866" lon="4.50997">
        <ele>249.899</ele>
        <time>2022-09-20T15:01:38Z</time>
      </trkpt>
      <trkpt lat="46.5387" lon="4.50988">
        <ele>248.799</ele>
        <time>2022-09-20T15:01:46Z</time>
      </trkpt>
      <trkpt lat="46.53875" lon="4.50982">
        <ele>249.399</ele>
        <time>2022-09-20T15:01:53Z</time>
      </trkpt>
      <trkpt lat="46.53876" lon="4.50971">
        <ele>250.899</ele>
        <time>2022-09-20T15:01:59Z</time>
      </trkpt>
      <trkpt lat="46.53877" lon="4.50961">
        <ele>253.599</ele>
        <time>2022-09-20T15:02:05Z</time>
      </trkpt>
      <trkpt lat="46.53879" lon="4.50951">
        <ele>253.199</ele>
        <time>2022-09-20T15:02:12Z</time>
      </trkpt>
      <trkpt lat="46.53879" lon="4.5094">
        <ele>252.099</ele>
        <time>2022-09-20T15:02:17Z</time>
      </trkpt>
      <trkpt lat="46.53878" lon="4.5093">
        <ele>251.899</ele>
        <time>2022-09-20T15:02:22Z</time>
      </trkpt>
      <trkpt lat="46.53876" lon="4.50916">
        <ele>253.599</ele>
        <time>2022-09-20T15:02:28Z</time>
      </trkpt>
      <trkpt lat="46.53876" lon="4.50905">
        <ele>254.499</ele>
        <time>2022-09-20T15:02:34Z</time>
      </trkpt>
      <trkpt lat="46.53877" lon="4.50894">
        <ele>256.699</ele>
        <time>2022-09-20T15:02:40Z</time>
      </trkpt>
      <trkpt lat="46.53879" lon="4.50884">
        <ele>257.799</ele>
        <time>2022-09-20T15:02:45Z</time>
      </trkpt>
      <trkpt lat="46.53881" lon="4.50875">
        <ele>258.399</ele>
        <time>2022-09-20T15:03:07Z</time>
      </trkpt>
      <trkpt lat="46.53887" lon="4.5087">
        <ele>255.599</ele>
        <time>2022-09-20T15:03:13Z</time>
      </trkpt>
      <trkpt lat="46.5389" lon="4.50861">
        <ele>255.499</ele>
        <time>2022-09-20T15:03:19Z</time>
      </trkpt>
      <trkpt lat="46.53893" lon="4.50851">
        <ele>256.099</ele>
        <time>2022-09-20T15:03:26Z</time>
      </trkpt>
      <trkpt lat="46.53898" lon="4.50844">
        <ele>255.299</ele>
        <time>2022-09-20T15:03:33Z</time>
      </trkpt>
      <trkpt lat="46.53904" lon="4.50837">
        <ele>256.899</ele>
        <time>2022-09-20T15:03:38Z</time>
      </trkpt>
      <trkpt lat="46.5391" lon="4.50828">
        <ele>258.199</ele>
        <time>2022-09-20T15:03:44Z</time>
      </trkpt>
      <trkpt lat="46.53916" lon="4.50821">
        <ele>259.799</ele>
        <time>2022-09-20T15:03:52Z</time>
      </trkpt>
      <trkpt lat="46.5392" lon="4.50813">
        <ele>260.199</ele>
        <time>2022-09-20T15:03:57Z</time>
      </trkpt>
      <trkpt lat="46.53927" lon="4.50812">
        <ele>262.799</ele>
        <time>2022-09-20T15:04:08Z</time>
      </trkpt>
      <trkpt lat="46.53933" lon="4.50816">
        <ele>263.299</ele>
        <time>2022-09-20T15:04:15Z</time>
      </trkpt>
      <trkpt lat="46.5394" lon="4.50814">
        <ele>264.299</ele>
        <time>2022-09-20T15:04:23Z</time>
      </trkpt>
      <trkpt lat="46.53941" lon="4.50804">
        <ele>265.399</ele>
        <time>2022-09-20T15:04:35Z</time>
      </trkpt>
      <trkpt lat="46.53938" lon="4.50795">
        <ele>265.599</ele>
        <time>2022-09-20T15:04:41Z</time>
      </trkpt>
      <trkpt lat="46.53932" lon="4.50789">
        <ele>266.499</ele>
        <time>2022-09-20T15:04:48Z</time>
      </trkpt>
      <trkpt lat="46.53934" lon="4.5078">
        <ele>265.799</ele>
        <time>2022-09-20T15:04:58Z</time>
      </trkpt>
      <trkpt lat="46.53936" lon="4.50771">
        <ele>261.399</ele>
        <time>2022-09-20T15:05:10Z</time>
      </trkpt>
      <trkpt lat="46.53941" lon="4.50764">
        <ele>259.399</ele>
        <time>2022-09-20T15:05:17Z</time>
      </trkpt>
      <trkpt lat="46.53935" lon="4.50759">
        <ele>258.399</ele>
        <time>2022-09-20T15:05:20Z</time>
      </trkpt>
      <trkpt lat="46.53927" lon="4.50742">
        <ele>252.499</ele>
        <time>2022-09-20T15:05:28Z</time>
      </trkpt>
      <trkpt lat="46.53934" lon="4.50743">
        <ele>249.999</ele>
        <time>2022-09-20T15:05:33Z</time>
      </trkpt>
      <trkpt lat="46.53934" lon="4.50754">
        <ele>248.799</ele>
        <time>2022-09-20T15:05:38Z</time>
      </trkpt>
    </trkseg>
  </trk>
</gpx>